<?xml version='1.0' encoding='UTF-8'?><gpx version="1.1" creator="JPX - https://github.com/jenetics/jpx" xmlns="http://www.topografix.com/GPX/1/1"><trk><trkseg><trkpt lat="46.03462072093602" lon="11.246134182448728"><ele>500.0</ele><time>2026-04-11T09:22:04.242Z</time></trkpt><trkpt lat="46.03447206788327" lon="11.246165279309494"><ele>500.0</ele><time>2026-04-11T09:22:06Z</time></trkpt><trkpt lat="46.034362190414775" lon="11.246132652789377"><ele>500.0</ele><time>2026-04-11T09:22:08Z</time></trkpt><trkpt lat="46.034304890824515" lon="11.246009962643726"><ele>500.0</ele><time>2026-04-11T09:22:13.001Z</time></trkpt><trkpt lat="46.03425177327167" lon="11.245869153478857"><ele>500.0</ele><time>2026-04-11T09:22:15Z</time></trkpt><trkpt lat="46.03417715175326" lon="11.245851683131319"><ele>500.0</ele><time>2026-04-11T09:22:16Z</time></trkpt><trkpt lat="46.03404861810807" lon="11.245838660442702"><ele>500.0</ele><time>2026-04-11T09:22:18Z</time></trkpt><trkpt lat="46.0339409859351" lon="11.245835658144053"><ele>500.0</ele><time>2026-04-11T09:22:19Z</time></trkpt><trkpt lat="46.03386229416217" lon="11.245833708597475"><ele>500.0</ele><time>2026-04-11T09:22:20Z</time></trkpt><trkpt lat="46.03378688340196" lon="11.245832216407475"><ele>498.0</ele><time>2026-04-11T09:22:21Z</time></trkpt><trkpt lat="46.033709561427344" lon="11.245830686400936"><ele>496.0</ele><time>2026-04-11T09:22:22Z</time></trkpt><trkpt lat="46.03361684378669" lon="11.245828851747762"><ele>494.0</ele><time>2026-04-11T09:22:24Z</time></trkpt><trkpt lat="46.03353169518112" lon="11.245824263425868"><ele>492.0</ele><time>2026-04-11T09:22:26Z</time></trkpt><trkpt lat="46.0336665787664" lon="11.245737841347218"><ele>490.0</ele><time>2026-04-11T09:22:32Z</time></trkpt><trkpt lat="46.03379543727863" lon="11.245658049246058"><ele>485.33333333333337</ele><time>2026-04-11T09:22:33Z</time></trkpt><trkpt lat="46.03389884518916" lon="11.24561982116085"><ele>480.66666666666663</ele><time>2026-04-11T09:22:34Z</time></trkpt><trkpt lat="46.0341039274933" lon="11.245486948090942"><ele>476.0</ele><time>2026-04-11T09:22:35Z</time></trkpt><trkpt lat="46.03424890897246" lon="11.245403223697748"><ele>476.0</ele><time>2026-04-11T09:22:36Z</time></trkpt><trkpt lat="46.03437433200865" lon="11.245310559911895"><ele>476.0</ele><time>2026-04-11T09:22:37Z</time></trkpt><trkpt lat="46.03455227428094" lon="11.245225768789988"><ele>476.0</ele><time>2026-04-11T09:22:38Z</time></trkpt><trkpt lat="46.0347280078772" lon="11.245125742898244"><ele>476.0</ele><time>2026-04-11T09:22:39Z</time></trkpt><trkpt lat="46.03492789229599" lon="11.245022103264555"><ele>476.0</ele><time>2026-04-11T09:22:40Z</time></trkpt><trkpt lat="46.035093778519126" lon="11.244927227853285"><ele>476.0</ele><time>2026-04-11T09:22:41Z</time></trkpt><trkpt lat="46.035259639915544" lon="11.244835503309295"><ele>470.66666666666663</ele><time>2026-04-11T09:22:42Z</time></trkpt><trkpt lat="46.03543053700828" lon="11.244762186785872"><ele>465.33333333333337</ele><time>2026-04-11T09:22:43Z</time></trkpt><trkpt lat="46.03561331050952" lon="11.244771573391967"><ele>460.0</ele><time>2026-04-11T09:22:44Z</time></trkpt><trkpt lat="46.03579846031141" lon="11.244757027766644"><ele>459.0</ele><time>2026-04-11T09:22:45Z</time></trkpt><trkpt lat="46.035982954356484" lon="11.244764475058563"><ele>458.0</ele><time>2026-04-11T09:22:46Z</time></trkpt><trkpt lat="46.03615738687529" lon="11.244760107678893"><ele>457.0</ele><time>2026-04-11T09:22:47Z</time></trkpt><trkpt lat="46.03632871268626" lon="11.24474757899944"><ele>457.0</ele><time>2026-04-11T09:22:48Z</time></trkpt><trkpt lat="46.036494766892346" lon="11.244743012042491"><ele>457.0</ele><time>2026-04-11T09:22:49Z</time></trkpt><trkpt lat="46.03665148002934" lon="11.244723186293072"><ele>457.0</ele><time>2026-04-11T09:22:50Z</time></trkpt><trkpt lat="46.0367920017117" lon="11.244633936441693"><ele>459.0</ele><time>2026-04-11T09:22:51Z</time></trkpt><trkpt lat="46.03688384471017" lon="11.244453773295366"><ele>461.0</ele><time>2026-04-11T09:22:52Z</time></trkpt><trkpt lat="46.0369750497418" lon="11.244260686916022"><ele>463.0</ele><time>2026-04-11T09:22:53Z</time></trkpt><trkpt lat="46.03707400730032" lon="11.244082318044264"><ele>463.0</ele><time>2026-04-11T09:22:54Z</time></trkpt><trkpt lat="46.03722227998601" lon="11.243988029865385"><ele>463.0</ele><time>2026-04-11T09:22:55Z</time></trkpt><trkpt lat="46.037382537719424" lon="11.243883337646867"><ele>463.0</ele><time>2026-04-11T09:22:56Z</time></trkpt><trkpt lat="46.03754303620091" lon="11.2437824403797"><ele>459.6666666666667</ele><time>2026-04-11T09:22:57Z</time></trkpt><trkpt lat="46.03772113935414" lon="11.243753526194332"><ele>456.33333333333337</ele><time>2026-04-11T09:22:58Z</time></trkpt><trkpt lat="46.03790680883921" lon="11.243734304593945"><ele>453.0</ele><time>2026-04-11T09:22:59Z</time></trkpt><trkpt lat="46.03809692866277" lon="11.243716301083516"><ele>453.0</ele><time>2026-04-11T09:23:00Z</time></trkpt><trkpt lat="46.038286632724315" lon="11.243717261344566"><ele>453.0</ele><time>2026-04-11T09:23:01Z</time></trkpt><trkpt lat="46.03847493608608" lon="11.24371369688428"><ele>453.0</ele><time>2026-04-11T09:23:02Z</time></trkpt><trkpt lat="46.03865629751751" lon="11.243716129755366"><ele>454.66666666666663</ele><time>2026-04-11T09:23:03Z</time></trkpt><trkpt lat="46.038831115689085" lon="11.243711764273323"><ele>456.3333333333333</ele><time>2026-04-11T09:23:04Z</time></trkpt><trkpt lat="46.03899558175871" lon="11.243708374573014"><ele>458.0</ele><time>2026-04-11T09:23:05Z</time></trkpt><trkpt lat="46.03915282239184" lon="11.24366112480925"><ele>461.0</ele><time>2026-04-11T09:23:06Z</time></trkpt><trkpt lat="46.039296286062886" lon="11.243561913227717"><ele>464.0</ele><time>2026-04-11T09:23:07Z</time></trkpt><trkpt lat="46.03941992340819" lon="11.243386408181253"><ele>467.0</ele><time>2026-04-11T09:23:08Z</time></trkpt><trkpt lat="46.039508818976245" lon="11.243189324779683"><ele>462.3333333333333</ele><time>2026-04-11T09:23:09Z</time></trkpt><trkpt lat="46.03955523272845" lon="11.242981025026623"><ele>457.66666666666663</ele><time>2026-04-11T09:23:10Z</time></trkpt><trkpt lat="46.03957173350591" lon="11.242722174592155"><ele>453.0</ele><time>2026-04-11T09:23:11Z</time></trkpt><trkpt lat="46.0395671883825" lon="11.242519706446567"><ele>453.0</ele><time>2026-04-11T09:23:12Z</time></trkpt><trkpt lat="46.03955665587983" lon="11.24233837002714"><ele>452.99999999999994</ele><time>2026-04-11T09:23:13Z</time></trkpt><trkpt lat="46.03955363349019" lon="11.242187424062626"><ele>452.99999999999994</ele><time>2026-04-11T09:23:14Z</time></trkpt><trkpt lat="46.03955484953149" lon="11.24206271484215"><ele>453.0</ele><time>2026-04-11T09:23:15Z</time></trkpt><trkpt lat="46.039558585918286" lon="11.241906569584277"><ele>453.0</ele><time>2026-04-11T09:23:17Z</time></trkpt><trkpt lat="46.03955310852779" lon="11.24179112482049"><ele>453.1666666666667</ele><time>2026-04-11T09:23:29Z</time></trkpt><trkpt lat="46.03956030679586" lon="11.241630372630883"><ele>453.33333333333337</ele><time>2026-04-11T09:23:31Z</time></trkpt><trkpt lat="46.03957642268576" lon="11.241516778936813"><ele>453.5</ele><time>2026-04-11T09:23:32Z</time></trkpt><trkpt lat="46.039598062502805" lon="11.241403304630234"><ele>453.6666666666667</ele><time>2026-04-11T09:23:33Z</time></trkpt><trkpt lat="46.03962477845616" lon="11.241287089729354"><ele>453.83333333333337</ele><time>2026-04-11T09:23:34Z</time></trkpt><trkpt lat="46.039655213932484" lon="11.241175261061201"><ele>454.0</ele><time>2026-04-11T09:23:35Z</time></trkpt><trkpt lat="46.03968333401951" lon="11.241069274397798"><ele>453.6</ele><time>2026-04-11T09:23:36Z</time></trkpt><trkpt lat="46.039708756544826" lon="11.240957489786615"><ele>453.2</ele><time>2026-04-11T09:23:37Z</time></trkpt><trkpt lat="46.03974318086372" lon="11.240831976510972"><ele>452.80000000000007</ele><time>2026-04-11T09:23:38Z</time></trkpt><trkpt lat="46.03977276066211" lon="11.240703364851758"><ele>452.40000000000003</ele><time>2026-04-11T09:23:39Z</time></trkpt><trkpt lat="46.03980408361582" lon="11.240562931592954"><ele>452.0</ele><time>2026-04-11T09:23:40Z</time></trkpt><trkpt lat="46.0398412581874" lon="11.240412464413112"><ele>452.0</ele><time>2026-04-11T09:23:41Z</time></trkpt><trkpt lat="46.0398824901745" lon="11.240249743289443"><ele>452.0</ele><time>2026-04-11T09:23:42Z</time></trkpt><trkpt lat="46.0399326144781" lon="11.240048011751265"><ele>452.0</ele><time>2026-04-11T09:23:43Z</time></trkpt><trkpt lat="46.03998134093579" lon="11.239852790212533"><ele>452.0</ele><time>2026-04-11T09:23:44Z</time></trkpt><trkpt lat="46.040027473177" lon="11.239664079752243"><ele>452.0</ele><time>2026-04-11T09:23:45Z</time></trkpt><trkpt lat="46.04006826866128" lon="11.239497819630317"><ele>452.0</ele><time>2026-04-11T09:23:46Z</time></trkpt><trkpt lat="46.04010863222388" lon="11.239338940679232"><ele>452.0</ele><time>2026-04-11T09:23:47Z</time></trkpt><trkpt lat="46.04014923112228" lon="11.239180788586472"><ele>452.0</ele><time>2026-04-11T09:23:48Z</time></trkpt><trkpt lat="46.04019536876985" lon="11.239012249524007"><ele>452.75</ele><time>2026-04-11T09:23:49Z</time></trkpt><trkpt lat="46.04024290188173" lon="11.238835570506394"><ele>453.5</ele><time>2026-04-11T09:23:50Z</time></trkpt><trkpt lat="46.040286698766394" lon="11.238655769803788"><ele>454.25</ele><time>2026-04-11T09:23:51Z</time></trkpt><trkpt lat="46.040329608555886" lon="11.238477640666598"><ele>455.0</ele><time>2026-04-11T09:23:52Z</time></trkpt><trkpt lat="46.040376052548645" lon="11.238303385857487"><ele>454.5</ele><time>2026-04-11T09:23:53Z</time></trkpt><trkpt lat="46.0404206512931" lon="11.238134138254681"><ele>454.0</ele><time>2026-04-11T09:23:54Z</time></trkpt><trkpt lat="46.04047130132821" lon="11.237962254110414"><ele>453.5</ele><time>2026-04-11T09:23:55Z</time></trkpt><trkpt lat="46.040528322854925" lon="11.237790968872122"><ele>453.0</ele><time>2026-04-11T09:23:56Z</time></trkpt><trkpt lat="46.04058924245943" lon="11.237624620827894"><ele>453.0</ele><time>2026-04-11T09:23:57Z</time></trkpt><trkpt lat="46.04065904175593" lon="11.237461843416435"><ele>453.0</ele><time>2026-04-11T09:23:58Z</time></trkpt><trkpt lat="46.04073424616484" lon="11.23730427768793"><ele>453.0</ele><time>2026-04-11T09:23:59Z</time></trkpt><trkpt lat="46.04081568559602" lon="11.23714403585921"><ele>453.0</ele><time>2026-04-11T09:24:00Z</time></trkpt><trkpt lat="46.040904318333205" lon="11.236991464448945"><ele>453.0</ele><time>2026-04-11T09:24:01Z</time></trkpt><trkpt lat="46.04099724639898" lon="11.236844272340232"><ele>453.0</ele><time>2026-04-11T09:24:02Z</time></trkpt><trkpt lat="46.04109688819852" lon="11.23670157686383"><ele>453.0</ele><time>2026-04-11T09:24:03Z</time></trkpt><trkpt lat="46.04120337004151" lon="11.23656534431766"><ele>453.0</ele><time>2026-04-11T09:24:04Z</time></trkpt><trkpt lat="46.04131131646683" lon="11.23643609284348"><ele>453.0</ele><time>2026-04-11T09:24:05Z</time></trkpt><trkpt lat="46.041426642436825" lon="11.236312933522056"><ele>453.0</ele><time>2026-04-11T09:24:06Z</time></trkpt><trkpt lat="46.04154295331112" lon="11.236209286859543"><ele>453.0</ele><time>2026-04-11T09:24:07Z</time></trkpt><trkpt lat="46.0416528808628" lon="11.236116456697278"><ele>453.0</ele><time>2026-04-11T09:24:08Z</time></trkpt><trkpt lat="46.04176798235757" lon="11.236032521195154"><ele>453.0</ele><time>2026-04-11T09:24:09Z</time></trkpt><trkpt lat="46.041887386291506" lon="11.235957483363444"><ele>453.0</ele><time>2026-04-11T09:24:10Z</time></trkpt><trkpt lat="46.042008978241604" lon="11.235889923624764"><ele>453.0</ele><time>2026-04-11T09:24:11Z</time></trkpt><trkpt lat="46.042132855751795" lon="11.235827285436164"><ele>453.0</ele><time>2026-04-11T09:24:12Z</time></trkpt><trkpt lat="46.04225798011361" lon="11.235771659040179"><ele>453.0</ele><time>2026-04-11T09:24:13Z</time></trkpt><trkpt lat="46.04238362114598" lon="11.23572357017073"><ele>453.0</ele><time>2026-04-11T09:24:14Z</time></trkpt><trkpt lat="46.0425143145299" lon="11.23568498652297"><ele>453.0</ele><time>2026-04-11T09:24:15Z</time></trkpt><trkpt lat="46.04264732936162" lon="11.235659250017987"><ele>453.0</ele><time>2026-04-11T09:24:16Z</time></trkpt><trkpt lat="46.04278465942447" lon="11.235642036044954"><ele>452.75</ele><time>2026-04-11T09:24:17Z</time></trkpt><trkpt lat="46.042921779452165" lon="11.235626717251971"><ele>452.5</ele><time>2026-04-11T09:24:18Z</time></trkpt><trkpt lat="46.04306217710776" lon="11.235617073646214"><ele>452.25</ele><time>2026-04-11T09:24:19Z</time></trkpt><trkpt lat="46.04320244819071" lon="11.235605194770367"><ele>452.0</ele><time>2026-04-11T09:24:20Z</time></trkpt><trkpt lat="46.043343097401525" lon="11.235592863305108"><ele>452.0</ele><time>2026-04-11T09:24:21Z</time></trkpt><trkpt lat="46.043484862836735" lon="11.23558192361146"><ele>452.0</ele><time>2026-04-11T09:24:22Z</time></trkpt><trkpt lat="46.04362842102689" lon="11.235571401221945"><ele>452.0</ele><time>2026-04-11T09:24:23Z</time></trkpt><trkpt lat="46.043771738739544" lon="11.235561188462606"><ele>452.0</ele><time>2026-04-11T09:24:24Z</time></trkpt><trkpt lat="46.04391705386674" lon="11.23554773695409"><ele>452.0</ele><time>2026-04-11T09:24:25Z</time></trkpt><trkpt lat="46.04406270146557" lon="11.235539002704385"><ele>452.0</ele><time>2026-04-11T09:24:26Z</time></trkpt><trkpt lat="46.04420886070705" lon="11.23552707243155"><ele>452.0</ele><time>2026-04-11T09:24:27Z</time></trkpt><trkpt lat="46.04435547769624" lon="11.235515862704741"><ele>452.0</ele><time>2026-04-11T09:24:28Z</time></trkpt><trkpt lat="46.04450179807907" lon="11.235502520617274"><ele>452.3333333333333</ele><time>2026-04-11T09:24:29Z</time></trkpt><trkpt lat="46.04465272029612" lon="11.235497470002485"><ele>452.66666666666663</ele><time>2026-04-11T09:24:30Z</time></trkpt><trkpt lat="46.0448061437925" lon="11.235489266170818"><ele>453.0</ele><time>2026-04-11T09:24:31Z</time></trkpt><trkpt lat="46.04495216117429" lon="11.23547720176169"><ele>453.33333333333337</ele><time>2026-04-11T09:24:32Z</time></trkpt><trkpt lat="46.04510496535683" lon="11.235466147619675"><ele>453.6666666666667</ele><time>2026-04-11T09:24:33Z</time></trkpt><trkpt lat="46.04525587726961" lon="11.235449314826054"><ele>454.0</ele><time>2026-04-11T09:24:34Z</time></trkpt><trkpt lat="46.04540762709736" lon="11.235439019098145"><ele>454.0</ele><time>2026-04-11T09:24:35Z</time></trkpt><trkpt lat="46.04556002657746" lon="11.235425562983263"><ele>454.0</ele><time>2026-04-11T09:24:36Z</time></trkpt><trkpt lat="46.045709992904285" lon="11.2354156603016"><ele>454.0</ele><time>2026-04-11T09:24:37Z</time></trkpt><trkpt lat="46.045863080721084" lon="11.235404209417645"><ele>454.33333333333337</ele><time>2026-04-11T09:24:38Z</time></trkpt><trkpt lat="46.04601445504652" lon="11.235382605415776"><ele>454.66666666666663</ele><time>2026-04-11T09:24:39Z</time></trkpt><trkpt lat="46.046172554091015" lon="11.235383528391885"><ele>455.0</ele><time>2026-04-11T09:24:40Z</time></trkpt><trkpt lat="46.046327084664675" lon="11.235364509424874"><ele>455.0</ele><time>2026-04-11T09:24:41Z</time></trkpt><trkpt lat="46.0464836466277" lon="11.2353490448761"><ele>455.0</ele><time>2026-04-11T09:24:42Z</time></trkpt><trkpt lat="46.046636767475" lon="11.235338675663947"><ele>455.0</ele><time>2026-04-11T09:24:43Z</time></trkpt><trkpt lat="46.04680122933461" lon="11.235331081631296"><ele>454.66666666666663</ele><time>2026-04-11T09:24:44Z</time></trkpt><trkpt lat="46.04700715125495" lon="11.235312622807257"><ele>454.33333333333337</ele><time>2026-04-11T09:24:45Z</time></trkpt><trkpt lat="46.047226496709115" lon="11.23530926929464"><ele>454.0</ele><time>2026-04-11T09:24:46Z</time></trkpt><trkpt lat="46.04741808618206" lon="11.235288804997898"><ele>454.33333333333337</ele><time>2026-04-11T09:24:48Z</time></trkpt><trkpt lat="46.04757522795644" lon="11.235276482691102"><ele>454.66666666666663</ele><time>2026-04-11T09:24:49Z</time></trkpt><trkpt lat="46.04773060484188" lon="11.235260945553469"><ele>455.0</ele><time>2026-04-11T09:24:50Z</time></trkpt><trkpt lat="46.04788512612651" lon="11.235242714100538"><ele>455.0</ele><time>2026-04-11T09:24:51Z</time></trkpt><trkpt lat="46.04803786810836" lon="11.2352248265325"><ele>455.0</ele><time>2026-04-11T09:24:52Z</time></trkpt><trkpt lat="46.048191289681526" lon="11.235211830951329"><ele>455.0</ele><time>2026-04-11T09:24:53Z</time></trkpt><trkpt lat="46.04835012806225" lon="11.235198574682459"><ele>455.66666666666663</ele><time>2026-04-11T09:24:54Z</time></trkpt><trkpt lat="46.048506693256016" lon="11.235188574118572"><ele>456.33333333333337</ele><time>2026-04-11T09:24:55Z</time></trkpt><trkpt lat="46.04865896597145" lon="11.23517426808758"><ele>457.0</ele><time>2026-04-11T09:24:56Z</time></trkpt><trkpt lat="46.04881214170873" lon="11.23515711730681"><ele>457.0</ele><time>2026-04-11T09:24:57Z</time></trkpt><trkpt lat="46.048959685383764" lon="11.235144998801722"><ele>457.0</ele><time>2026-04-11T09:24:58Z</time></trkpt><trkpt lat="46.049105541108894" lon="11.235131243898266"><ele>457.0</ele><time>2026-04-11T09:24:59Z</time></trkpt><trkpt lat="46.04925209874587" lon="11.235108130968824"><ele>457.0</ele><time>2026-04-11T09:25:00Z</time></trkpt><trkpt lat="46.049401913066106" lon="11.23507839201019"><ele>456.33333333333337</ele><time>2026-04-11T09:25:01Z</time></trkpt><trkpt lat="46.049558341788064" lon="11.235040629627177"><ele>455.66666666666663</ele><time>2026-04-11T09:25:02Z</time></trkpt><trkpt lat="46.04972289097115" lon="11.234994134058306"><ele>455.0</ele><time>2026-04-11T09:25:03Z</time></trkpt><trkpt lat="46.049890149887645" lon="11.234944343041345"><ele>455.66666666666663</ele><time>2026-04-11T09:25:04Z</time></trkpt><trkpt lat="46.050074360915026" lon="11.234896027289182"><ele>456.33333333333337</ele><time>2026-04-11T09:25:05Z</time></trkpt><trkpt lat="46.050262502964515" lon="11.23483871625068"><ele>457.0</ele><time>2026-04-11T09:25:06Z</time></trkpt><trkpt lat="46.05046758447338" lon="11.234778507723153"><ele>457.0</ele><time>2026-04-11T09:25:07Z</time></trkpt><trkpt lat="46.050684974216026" lon="11.2347194512668"><ele>457.0</ele><time>2026-04-11T09:25:08Z</time></trkpt><trkpt lat="46.05089079514949" lon="11.234659192972783"><ele>457.0</ele><time>2026-04-11T09:25:09Z</time></trkpt><trkpt lat="46.051095650501864" lon="11.234593144999756"><ele>457.6666666666667</ele><time>2026-04-11T09:25:10Z</time></trkpt><trkpt lat="46.05129545303932" lon="11.234525777623828"><ele>458.33333333333337</ele><time>2026-04-11T09:25:11Z</time></trkpt><trkpt lat="46.05149423791138" lon="11.234443117068032"><ele>459.0</ele><time>2026-04-11T09:25:12Z</time></trkpt><trkpt lat="46.05168565450332" lon="11.234345254508172"><ele>459.66666666666663</ele><time>2026-04-11T09:25:13Z</time></trkpt><trkpt lat="46.05188124166501" lon="11.234259388677643"><ele>460.3333333333333</ele><time>2026-04-11T09:25:14Z</time></trkpt><trkpt lat="46.0520761272697" lon="11.234173123607746"><ele>461.0</ele><time>2026-04-11T09:25:15Z</time></trkpt><trkpt lat="46.05227320070554" lon="11.234077648951526"><ele>461.0</ele><time>2026-04-11T09:25:16Z</time></trkpt><trkpt lat="46.05246956466161" lon="11.233990816937787"><ele>461.0</ele><time>2026-04-11T09:25:17Z</time></trkpt><trkpt lat="46.05266532236162" lon="11.233903136329726"><ele>461.0</ele><time>2026-04-11T09:25:18Z</time></trkpt><trkpt lat="46.052861594431974" lon="11.233812935519552"><ele>461.0</ele><time>2026-04-11T09:25:19Z</time></trkpt><trkpt lat="46.05305797376419" lon="11.233724415248082"><ele>461.0</ele><time>2026-04-11T09:25:20Z</time></trkpt><trkpt lat="46.053256109121975" lon="11.233635056098967"><ele>461.0</ele><time>2026-04-11T09:25:21Z</time></trkpt><trkpt lat="46.0534538479228" lon="11.233547564515096"><ele>461.0</ele><time>2026-04-11T09:25:22Z</time></trkpt><trkpt lat="46.0536494726103" lon="11.233457552225946"><ele>461.0</ele><time>2026-04-11T09:25:23Z</time></trkpt><trkpt lat="46.05384681576329" lon="11.233370558257604"><ele>461.0</ele><time>2026-04-11T09:25:24Z</time></trkpt><trkpt lat="46.05404365887115" lon="11.233282094995268"><ele>461.0</ele><time>2026-04-11T09:25:25Z</time></trkpt><trkpt lat="46.054239852248195" lon="11.233196668423599"><ele>461.0</ele><time>2026-04-11T09:25:26Z</time></trkpt><trkpt lat="46.054436272218645" lon="11.233106618577333"><ele>461.0</ele><time>2026-04-11T09:25:27Z</time></trkpt><trkpt lat="46.05463315162186" lon="11.23301835606757"><ele>461.3333333333333</ele><time>2026-04-11T09:25:28Z</time></trkpt><trkpt lat="46.05483061536288" lon="11.232928741670902"><ele>461.66666666666663</ele><time>2026-04-11T09:25:29Z</time></trkpt><trkpt lat="46.05502742537329" lon="11.232838689370494"><ele>462.0</ele><time>2026-04-11T09:25:30Z</time></trkpt><trkpt lat="46.05522204868663" lon="11.232747434455277"><ele>462.33333333333337</ele><time>2026-04-11T09:25:31Z</time></trkpt><trkpt lat="46.05541772731259" lon="11.232657918890801"><ele>462.6666666666667</ele><time>2026-04-11T09:25:32Z</time></trkpt><trkpt lat="46.055611146672696" lon="11.232564779110405"><ele>463.0</ele><time>2026-04-11T09:25:33Z</time></trkpt><trkpt lat="46.055806430243734" lon="11.232468729867264"><ele>463.0</ele><time>2026-04-11T09:25:34Z</time></trkpt><trkpt lat="46.05599954344326" lon="11.232363361818594"><ele>463.0</ele><time>2026-04-11T09:25:35Z</time></trkpt><trkpt lat="46.05619254945434" lon="11.232252763877677"><ele>463.0</ele><time>2026-04-11T09:25:36Z</time></trkpt><trkpt lat="46.05638256177226" lon="11.232130769546185"><ele>463.0</ele><time>2026-04-11T09:25:37Z</time></trkpt><trkpt lat="46.056571017738406" lon="11.231997537064462"><ele>463.0</ele><time>2026-04-11T09:25:38Z</time></trkpt><trkpt lat="46.056755061131284" lon="11.231865231326122"><ele>463.0</ele><time>2026-04-11T09:25:39Z</time></trkpt><trkpt lat="46.0569411815909" lon="11.231729476268848"><ele>463.0</ele><time>2026-04-11T09:25:40Z</time></trkpt><trkpt lat="46.05712820437355" lon="11.23159950431954"><ele>463.0</ele><time>2026-04-11T09:25:41Z</time></trkpt><trkpt lat="46.05731434435762" lon="11.231461684549132"><ele>463.0</ele><time>2026-04-11T09:25:42Z</time></trkpt><trkpt lat="46.05749650368072" lon="11.231328025795953"><ele>463.33333333333337</ele><time>2026-04-11T09:25:43Z</time></trkpt><trkpt lat="46.05767728886942" lon="11.231192111665292"><ele>463.66666666666663</ele><time>2026-04-11T09:25:44Z</time></trkpt><trkpt lat="46.057860555234576" lon="11.231059691698208"><ele>464.0</ele><time>2026-04-11T09:25:45Z</time></trkpt><trkpt lat="46.058041370051555" lon="11.230926155215318"><ele>464.0</ele><time>2026-04-11T09:25:46Z</time></trkpt><trkpt lat="46.0582200600636" lon="11.230790407652892"><ele>464.0</ele><time>2026-04-11T09:25:47Z</time></trkpt><trkpt lat="46.058397329767914" lon="11.23064479662718"><ele>464.0</ele><time>2026-04-11T09:25:48Z</time></trkpt><trkpt lat="46.05857819926081" lon="11.23050019179073"><ele>464.0</ele><time>2026-04-11T09:25:49Z</time></trkpt><trkpt lat="46.05876745856262" lon="11.230357557658888"><ele>464.0</ele><time>2026-04-11T09:25:50Z</time></trkpt><trkpt lat="46.05895945327646" lon="11.230216606859551"><ele>464.0</ele><time>2026-04-11T09:25:51Z</time></trkpt><trkpt lat="46.05915551894254" lon="11.230074027099201"><ele>464.0</ele><time>2026-04-11T09:25:52Z</time></trkpt><trkpt lat="46.05935242721733" lon="11.229930724748659"><ele>464.0</ele><time>2026-04-11T09:25:53Z</time></trkpt><trkpt lat="46.05955360173776" lon="11.229785069716549"><ele>464.0</ele><time>2026-04-11T09:25:54Z</time></trkpt><trkpt lat="46.059752513961044" lon="11.229638522706287"><ele>464.0</ele><time>2026-04-11T09:25:55Z</time></trkpt><trkpt lat="46.059953112668296" lon="11.229492158911153"><ele>464.0</ele><time>2026-04-11T09:25:56Z</time></trkpt><trkpt lat="46.060152017774726" lon="11.22935190639216"><ele>464.0</ele><time>2026-04-11T09:25:57Z</time></trkpt><trkpt lat="46.06035104596051" lon="11.229219967437167"><ele>464.0</ele><time>2026-04-11T09:25:58Z</time></trkpt><trkpt lat="46.06054682091511" lon="11.22908081764606"><ele>464.0</ele><time>2026-04-11T09:25:59Z</time></trkpt><trkpt lat="46.06074280043871" lon="11.22894151992959"><ele>464.0</ele><time>2026-04-11T09:26:00Z</time></trkpt><trkpt lat="46.06093860922563" lon="11.228798759834257"><ele>463.3333333333333</ele><time>2026-04-11T09:26:01Z</time></trkpt><trkpt lat="46.06113652420749" lon="11.228654020463434"><ele>462.66666666666663</ele><time>2026-04-11T09:26:02Z</time></trkpt><trkpt lat="46.06133419827224" lon="11.228506473333251"><ele>462.0</ele><time>2026-04-11T09:26:03Z</time></trkpt><trkpt lat="46.061533235118674" lon="11.228362068272949"><ele>461.0</ele><time>2026-04-11T09:26:04Z</time></trkpt><trkpt lat="46.06172611735639" lon="11.228209783792234"><ele>460.0</ele><time>2026-04-11T09:26:05Z</time></trkpt><trkpt lat="46.06192264933266" lon="11.228075054525364"><ele>459.0</ele><time>2026-04-11T09:26:06Z</time></trkpt><trkpt lat="46.06211255193745" lon="11.227931765810025"><ele>459.0</ele><time>2026-04-11T09:26:07Z</time></trkpt><trkpt lat="46.06230495375614" lon="11.227791917111347"><ele>459.0</ele><time>2026-04-11T09:26:08Z</time></trkpt><trkpt lat="46.06249662869671" lon="11.227654983768307"><ele>459.0</ele><time>2026-04-11T09:26:09Z</time></trkpt><trkpt lat="46.06268547373506" lon="11.227516027342407"><ele>459.33333333333337</ele><time>2026-04-11T09:26:10Z</time></trkpt><trkpt lat="46.062873663638776" lon="11.227377117808405"><ele>459.6666666666667</ele><time>2026-04-11T09:26:11Z</time></trkpt><trkpt lat="46.06306118933972" lon="11.227240220618235"><ele>460.0</ele><time>2026-04-11T09:26:12Z</time></trkpt><trkpt lat="46.06324774827638" lon="11.22710007804967"><ele>460.33333333333337</ele><time>2026-04-11T09:26:13Z</time></trkpt><trkpt lat="46.06342653512123" lon="11.226948445195468"><ele>460.66666666666663</ele><time>2026-04-11T09:26:14Z</time></trkpt><trkpt lat="46.06360536429438" lon="11.226795368303213"><ele>461.0</ele><time>2026-04-11T09:26:15Z</time></trkpt><trkpt lat="46.06378207330144" lon="11.226635459860303"><ele>460.66666666666663</ele><time>2026-04-11T09:26:16Z</time></trkpt><trkpt lat="46.063954018418535" lon="11.226468808996197"><ele>460.33333333333337</ele><time>2026-04-11T09:26:17Z</time></trkpt><trkpt lat="46.06412522597467" lon="11.22629695417278"><ele>460.0</ele><time>2026-04-11T09:26:18Z</time></trkpt><trkpt lat="46.06429060523418" lon="11.226118554427602"><ele>459.33333333333337</ele><time>2026-04-11T09:26:19Z</time></trkpt><trkpt lat="46.06445375993841" lon="11.225936118729244"><ele>458.66666666666663</ele><time>2026-04-11T09:26:20Z</time></trkpt><trkpt lat="46.06461326617584" lon="11.225746728067733"><ele>458.0</ele><time>2026-04-11T09:26:21Z</time></trkpt><trkpt lat="46.06477166864201" lon="11.225552712927302"><ele>458.0</ele><time>2026-04-11T09:26:22Z</time></trkpt><trkpt lat="46.06492706208936" lon="11.225354742225525"><ele>458.0</ele><time>2026-04-11T09:26:23Z</time></trkpt><trkpt lat="46.065079966756386" lon="11.225153274694009"><ele>458.0</ele><time>2026-04-11T09:26:24Z</time></trkpt><trkpt lat="46.06523198633479" lon="11.224950791865009"><ele>456.66666666666663</ele><time>2026-04-11T09:26:25Z</time></trkpt><trkpt lat="46.06538430809704" lon="11.224747685779418"><ele>455.33333333333337</ele><time>2026-04-11T09:26:26Z</time></trkpt><trkpt lat="46.06553518841256" lon="11.224545915432936"><ele>454.0</ele><time>2026-04-11T09:26:27Z</time></trkpt><trkpt lat="46.06568945406997" lon="11.224346944631186"><ele>454.6666666666667</ele><time>2026-04-11T09:26:28Z</time></trkpt><trkpt lat="46.06584080910584" lon="11.224146464494407"><ele>455.33333333333337</ele><time>2026-04-11T09:26:29Z</time></trkpt><trkpt lat="46.065994224854116" lon="11.223942454822042"><ele>456.0</ele><time>2026-04-11T09:26:30Z</time></trkpt><trkpt lat="46.06614577247469" lon="11.223738965863959"><ele>456.0</ele><time>2026-04-11T09:26:31Z</time></trkpt><trkpt lat="46.06629667611781" lon="11.223537525589666"><ele>456.0</ele><time>2026-04-11T09:26:32Z</time></trkpt><trkpt lat="46.066448948834505" lon="11.223336085566629"><ele>456.0</ele><time>2026-04-11T09:26:33Z</time></trkpt><trkpt lat="46.06660095346668" lon="11.223134720070398"><ele>455.66666666666663</ele><time>2026-04-11T09:26:34Z</time></trkpt><trkpt lat="46.06675360230171" lon="11.222934702331136"><ele>455.3333333333333</ele><time>2026-04-11T09:26:35Z</time></trkpt><trkpt lat="46.06690535555523" lon="11.222730845919392"><ele>455.0</ele><time>2026-04-11T09:26:36Z</time></trkpt><trkpt lat="46.06705709589348" lon="11.22252692601821"><ele>455.0</ele><time>2026-04-11T09:26:37Z</time></trkpt><trkpt lat="46.06721257524381" lon="11.222323879150348"><ele>455.0</ele><time>2026-04-11T09:26:38Z</time></trkpt><trkpt lat="46.067369452682854" lon="11.222120329228058"><ele>455.0</ele><time>2026-04-11T09:26:39Z</time></trkpt><trkpt lat="46.067529462180595" lon="11.2219138272857"><ele>454.66666666666663</ele><time>2026-04-11T09:26:40Z</time></trkpt><trkpt lat="46.06768809640765" lon="11.221703217562851"><ele>454.33333333333337</ele><time>2026-04-11T09:26:41Z</time></trkpt><trkpt lat="46.06784772445509" lon="11.221490400347678"><ele>454.0</ele><time>2026-04-11T09:26:42Z</time></trkpt><trkpt lat="46.06800987981567" lon="11.221274552217078"><ele>452.6666666666667</ele><time>2026-04-11T09:26:43Z</time></trkpt><trkpt lat="46.068170210544935" lon="11.22106227244803"><ele>451.33333333333337</ele><time>2026-04-11T09:26:44Z</time></trkpt><trkpt lat="46.06832939563403" lon="11.22084754722387"><ele>450.0</ele><time>2026-04-11T09:26:45Z</time></trkpt><trkpt lat="46.068492309169606" lon="11.220634180458394"><ele>449.33333333333337</ele><time>2026-04-11T09:26:46Z</time></trkpt><trkpt lat="46.06865402464039" lon="11.22041817515816"><ele>448.6666666666667</ele><time>2026-04-11T09:26:47Z</time></trkpt><trkpt lat="46.06881505606055" lon="11.220203313163937"><ele>448.0</ele><time>2026-04-11T09:26:48Z</time></trkpt><trkpt lat="46.06897322953388" lon="11.219992758156698"><ele>446.6666666666667</ele><time>2026-04-11T09:26:49Z</time></trkpt><trkpt lat="46.06912904305479" lon="11.219786752981106"><ele>445.33333333333337</ele><time>2026-04-11T09:26:50Z</time></trkpt><trkpt lat="46.06928414153702" lon="11.219580767196545"><ele>444.0</ele><time>2026-04-11T09:26:51Z</time></trkpt><trkpt lat="46.06943732634995" lon="11.219378840748236"><ele>444.0</ele><time>2026-04-11T09:26:52Z</time></trkpt><trkpt lat="46.069589694398005" lon="11.219178152472715"><ele>444.0</ele><time>2026-04-11T09:26:53Z</time></trkpt><trkpt lat="46.06974120298091" lon="11.218975802309808"><ele>444.0</ele><time>2026-04-11T09:26:54Z</time></trkpt><trkpt lat="46.06989053191475" lon="11.218773416751173"><ele>444.66666666666663</ele><time>2026-04-11T09:26:55Z</time></trkpt><trkpt lat="46.070039856574006" lon="11.218573815424428"><ele>445.3333333333333</ele><time>2026-04-11T09:26:56Z</time></trkpt><trkpt lat="46.07019389756664" lon="11.21837479806042"><ele>446.0</ele><time>2026-04-11T09:26:57Z</time></trkpt><trkpt lat="46.07034651440919" lon="11.218175849353214"><ele>446.3333333333333</ele><time>2026-04-11T09:26:58Z</time></trkpt><trkpt lat="46.07049793081322" lon="11.217974594532052"><ele>446.66666666666663</ele><time>2026-04-11T09:26:59Z</time></trkpt><trkpt lat="46.070648039419" lon="11.217772559927385"><ele>447.0</ele><time>2026-04-11T09:27:00Z</time></trkpt><trkpt lat="46.07080100579062" lon="11.21757003012325"><ele>447.0</ele><time>2026-04-11T09:27:01Z</time></trkpt><trkpt lat="46.070952305097215" lon="11.217365225023547"><ele>447.0</ele><time>2026-04-11T09:27:02Z</time></trkpt><trkpt lat="46.07110620460778" lon="11.217161839049313"><ele>447.0</ele><time>2026-04-11T09:27:03Z</time></trkpt><trkpt lat="46.07126241748536" lon="11.216958602872674"><ele>446.0</ele><time>2026-04-11T09:27:04Z</time></trkpt><trkpt lat="46.07141818709793" lon="11.216755264197706"><ele>445.0</ele><time>2026-04-11T09:27:05Z</time></trkpt><trkpt lat="46.07157599685323" lon="11.21654786745796"><ele>444.0</ele><time>2026-04-11T09:27:06Z</time></trkpt><trkpt lat="46.07173353286208" lon="11.216338441191594"><ele>443.0</ele><time>2026-04-11T09:27:07Z</time></trkpt><trkpt lat="46.071892863552485" lon="11.216130337578825"><ele>442.0</ele><time>2026-04-11T09:27:08Z</time></trkpt><trkpt lat="46.07205416734946" lon="11.21591969962935"><ele>441.0</ele><time>2026-04-11T09:27:09Z</time></trkpt><trkpt lat="46.07221632003055" lon="11.215708033330417"><ele>441.0</ele><time>2026-04-11T09:27:10Z</time></trkpt><trkpt lat="46.072376817282155" lon="11.215492595244813"><ele>441.0</ele><time>2026-04-11T09:27:11Z</time></trkpt><trkpt lat="46.07253208447432" lon="11.215274263349851"><ele>441.0</ele><time>2026-04-11T09:27:12Z</time></trkpt><trkpt lat="46.07268243186931" lon="11.215047328515743"><ele>440.0</ele><time>2026-04-11T09:27:13Z</time></trkpt><trkpt lat="46.0728135551583" lon="11.214808392939306"><ele>439.0</ele><time>2026-04-11T09:27:14Z</time></trkpt><trkpt lat="46.07293827945255" lon="11.21456328278891"><ele>438.0</ele><time>2026-04-11T09:27:15Z</time></trkpt><trkpt lat="46.07307066287476" lon="11.214319387936632"><ele>438.0</ele><time>2026-04-11T09:27:16Z</time></trkpt><trkpt lat="46.07320092985163" lon="11.214072575326433"><ele>438.0</ele><time>2026-04-11T09:27:17Z</time></trkpt><trkpt lat="46.07333210200158" lon="11.21382423260395"><ele>438.0</ele><time>2026-04-11T09:27:18Z</time></trkpt><trkpt lat="46.073459884570134" lon="11.213577620675595"><ele>438.33333333333337</ele><time>2026-04-11T09:27:19Z</time></trkpt><trkpt lat="46.07358941805416" lon="11.213331859715913"><ele>438.6666666666667</ele><time>2026-04-11T09:27:20Z</time></trkpt><trkpt lat="46.073720932482104" lon="11.213086409873208"><ele>439.0</ele><time>2026-04-11T09:27:21Z</time></trkpt><trkpt lat="46.073851637392586" lon="11.2128417488724"><ele>438.0</ele><time>2026-04-11T09:27:22Z</time></trkpt><trkpt lat="46.07398385543383" lon="11.21259222504355"><ele>437.0</ele><time>2026-04-11T09:27:23Z</time></trkpt><trkpt lat="46.07411349329706" lon="11.212347611736272"><ele>436.0</ele><time>2026-04-11T09:27:24Z</time></trkpt><trkpt lat="46.0742459710898" lon="11.212102821243723"><ele>435.6666666666667</ele><time>2026-04-11T09:27:25Z</time></trkpt><trkpt lat="46.074378280297374" lon="11.211857133933677"><ele>435.33333333333337</ele><time>2026-04-11T09:27:26Z</time></trkpt><trkpt lat="46.07450830065141" lon="11.211608690499798"><ele>435.0</ele><time>2026-04-11T09:27:27Z</time></trkpt><trkpt lat="46.074638746154875" lon="11.21135800457249"><ele>434.66666666666663</ele><time>2026-04-11T09:27:28Z</time></trkpt><trkpt lat="46.074770036562924" lon="11.21110829689895"><ele>434.3333333333333</ele><time>2026-04-11T09:27:29Z</time></trkpt><trkpt lat="46.0749024468111" lon="11.210860295989567"><ele>434.0</ele><time>2026-04-11T09:27:30Z</time></trkpt><trkpt lat="46.07503466342389" lon="11.210615356343562"><ele>434.0</ele><time>2026-04-11T09:27:31Z</time></trkpt><trkpt lat="46.07516156131313" lon="11.210366767366057"><ele>434.0</ele><time>2026-04-11T09:27:32Z</time></trkpt><trkpt lat="46.075283066766474" lon="11.21011087658392"><ele>434.0</ele><time>2026-04-11T09:27:33Z</time></trkpt><trkpt lat="46.07539647324964" lon="11.209848852973089"><ele>433.0</ele><time>2026-04-11T09:27:34Z</time></trkpt><trkpt lat="46.075501753663794" lon="11.20958078387403"><ele>432.0</ele><time>2026-04-11T09:27:35Z</time></trkpt><trkpt lat="46.07560208278025" lon="11.209307465874698"><ele>431.0</ele><time>2026-04-11T09:27:36Z</time></trkpt><trkpt lat="46.07569775057042" lon="11.209029037938365"><ele>431.0</ele><time>2026-04-11T09:27:37Z</time></trkpt><trkpt lat="46.07578940171905" lon="11.208750054132675"><ele>431.0</ele><time>2026-04-11T09:27:38Z</time></trkpt><trkpt lat="46.07588231500108" lon="11.20846993655234"><ele>431.0</ele><time>2026-04-11T09:27:39Z</time></trkpt><trkpt lat="46.0759769233031" lon="11.20819520098736"><ele>429.66666666666663</ele><time>2026-04-11T09:27:40Z</time></trkpt><trkpt lat="46.07607176936062" lon="11.207920789231933"><ele>428.33333333333337</ele><time>2026-04-11T09:27:41Z</time></trkpt><trkpt lat="46.07616637357671" lon="11.207643275786854"><ele>427.0</ele><time>2026-04-11T09:27:42Z</time></trkpt><trkpt lat="46.07625919475069" lon="11.207364502463466"><ele>426.6666666666667</ele><time>2026-04-11T09:27:43Z</time></trkpt><trkpt lat="46.07635312215726" lon="11.207085643809435"><ele>426.33333333333337</ele><time>2026-04-11T09:27:44Z</time></trkpt><trkpt lat="46.076449214851294" lon="11.206810896572748"><ele>426.0</ele><time>2026-04-11T09:27:45Z</time></trkpt><trkpt lat="46.07655228586475" lon="11.206541788932652"><ele>426.66666666666663</ele><time>2026-04-11T09:27:46Z</time></trkpt><trkpt lat="46.07666500362306" lon="11.206277414875501"><ele>427.3333333333333</ele><time>2026-04-11T09:27:47Z</time></trkpt><trkpt lat="46.07678465716013" lon="11.20601872251967"><ele>428.0</ele><time>2026-04-11T09:27:48Z</time></trkpt><trkpt lat="46.07691209280807" lon="11.205767554395445"><ele>427.3333333333333</ele><time>2026-04-11T09:27:49Z</time></trkpt><trkpt lat="46.077047695047845" lon="11.205527592836898"><ele>426.66666666666663</ele><time>2026-04-11T09:27:50Z</time></trkpt><trkpt lat="46.077188900010924" lon="11.205297538318217"><ele>426.0</ele><time>2026-04-11T09:27:51Z</time></trkpt><trkpt lat="46.07733390444823" lon="11.20507607679397"><ele>426.33333333333337</ele><time>2026-04-11T09:27:52Z</time></trkpt><trkpt lat="46.07748222764465" lon="11.204863474346896"><ele>426.6666666666667</ele><time>2026-04-11T09:27:53Z</time></trkpt><trkpt lat="46.07763201131589" lon="11.204655769875076"><ele>427.0</ele><time>2026-04-11T09:27:54Z</time></trkpt><trkpt lat="46.077781605159544" lon="11.20445109822179"><ele>426.33333333333337</ele><time>2026-04-11T09:27:55Z</time></trkpt><trkpt lat="46.077932927162806" lon="11.204245830230425"><ele>425.66666666666663</ele><time>2026-04-11T09:27:56Z</time></trkpt><trkpt lat="46.07808358215932" lon="11.20403815020563"><ele>425.0</ele><time>2026-04-11T09:27:57Z</time></trkpt><trkpt lat="46.07823589804128" lon="11.203834920711603"><ele>424.0</ele><time>2026-04-11T09:27:58Z</time></trkpt><trkpt lat="46.07838838255268" lon="11.203628164116372"><ele>423.0</ele><time>2026-04-11T09:27:59Z</time></trkpt><trkpt lat="46.07853916172523" lon="11.20342470621025"><ele>422.0</ele><time>2026-04-11T09:28:00Z</time></trkpt><trkpt lat="46.07868684412524" lon="11.203220413066546"><ele>422.0</ele><time>2026-04-11T09:28:01Z</time></trkpt><trkpt lat="46.07883334291407" lon="11.203008593598547"><ele>422.0</ele><time>2026-04-11T09:28:02Z</time></trkpt><trkpt lat="46.078982687489955" lon="11.20278776497826"><ele>422.0</ele><time>2026-04-11T09:28:03Z</time></trkpt><trkpt lat="46.07913891799387" lon="11.20256720264222"><ele>422.0</ele><time>2026-04-11T09:28:04Z</time></trkpt><trkpt lat="46.079297159926284" lon="11.202348948743873"><ele>422.0</ele><time>2026-04-11T09:28:05Z</time></trkpt><trkpt lat="46.07945465339232" lon="11.202130096798376"><ele>422.0</ele><time>2026-04-11T09:28:06Z</time></trkpt><trkpt lat="46.079614792477564" lon="11.201912607617396"><ele>421.66666666666663</ele><time>2026-04-11T09:28:07Z</time></trkpt><trkpt lat="46.0797703213919" lon="11.201692546604471"><ele>421.33333333333337</ele><time>2026-04-11T09:28:08Z</time></trkpt><trkpt lat="46.07992327128191" lon="11.201464533306188"><ele>421.0</ele><time>2026-04-11T09:28:09Z</time></trkpt><trkpt lat="46.08006606684665" lon="11.20122626667774"><ele>419.6666666666667</ele><time>2026-04-11T09:28:10Z</time></trkpt><trkpt lat="46.08019327178345" lon="11.200967304071598"><ele>418.33333333333337</ele><time>2026-04-11T09:28:11Z</time></trkpt><trkpt lat="46.08031370079512" lon="11.200703349394695"><ele>417.0</ele><time>2026-04-11T09:28:12Z</time></trkpt><trkpt lat="46.08042990609554" lon="11.20043726119914"><ele>417.0</ele><time>2026-04-11T09:28:13Z</time></trkpt><trkpt lat="46.08054721619273" lon="11.200169313780323"><ele>417.0</ele><time>2026-04-11T09:28:14Z</time></trkpt><trkpt lat="46.080662009417686" lon="11.199903807047518"><ele>417.0</ele><time>2026-04-11T09:28:15Z</time></trkpt><trkpt lat="46.08077526046961" lon="11.199639305384148"><ele>414.66666666666663</ele><time>2026-04-11T09:28:16Z</time></trkpt><trkpt lat="46.08088824462398" lon="11.199375261075273"><ele>412.3333333333333</ele><time>2026-04-11T09:28:17Z</time></trkpt><trkpt lat="46.08100196290987" lon="11.199112757341032"><ele>410.0</ele><time>2026-04-11T09:28:18Z</time></trkpt><trkpt lat="46.08111336238314" lon="11.198851425926277"><ele>409.66666666666663</ele><time>2026-04-11T09:28:19Z</time></trkpt><trkpt lat="46.08122559688921" lon="11.198589553542817"><ele>409.33333333333337</ele><time>2026-04-11T09:28:20Z</time></trkpt><trkpt lat="46.081337992473095" lon="11.198331807561221"><ele>409.0</ele><time>2026-04-11T09:28:21Z</time></trkpt><trkpt lat="46.081448688112005" lon="11.198073684616817"><ele>409.0</ele><time>2026-04-11T09:28:22Z</time></trkpt><trkpt lat="46.0815540727571" lon="11.197813225730794"><ele>409.0</ele><time>2026-04-11T09:28:23Z</time></trkpt><trkpt lat="46.081650052171284" lon="11.197549584543248"><ele>409.0</ele><time>2026-04-11T09:28:24Z</time></trkpt><trkpt lat="46.08173404147344" lon="11.197280191481433"><ele>407.33333333333337</ele><time>2026-04-11T09:28:25Z</time></trkpt><trkpt lat="46.081802068877515" lon="11.19700405806359"><ele>405.66666666666663</ele><time>2026-04-11T09:28:26Z</time></trkpt><trkpt lat="46.08185248025661" lon="11.196713984261178"><ele>404.0</ele><time>2026-04-11T09:28:27Z</time></trkpt><trkpt lat="46.08188982180163" lon="11.19641555782474"><ele>404.0</ele><time>2026-04-11T09:28:28Z</time></trkpt><trkpt lat="46.081916960310586" lon="11.196111751927338"><ele>404.0</ele><time>2026-04-11T09:28:29Z</time></trkpt><trkpt lat="46.081934441405515" lon="11.195805113054677"><ele>404.0</ele><time>2026-04-11T09:28:30Z</time></trkpt><trkpt lat="46.081954362881454" lon="11.195497410583316"><ele>403.3333333333333</ele><time>2026-04-11T09:28:31Z</time></trkpt><trkpt lat="46.081976704595384" lon="11.195193844982118"><ele>402.66666666666663</ele><time>2026-04-11T09:28:32Z</time></trkpt><trkpt lat="46.08200194002248" lon="11.19488947810864"><ele>402.0</ele><time>2026-04-11T09:28:33Z</time></trkpt><trkpt lat="46.08202889090969" lon="11.194588228415183"><ele>401.0</ele><time>2026-04-11T09:28:34Z</time></trkpt><trkpt lat="46.08205457042443" lon="11.194290659195822"><ele>400.0</ele><time>2026-04-11T09:28:35Z</time></trkpt><trkpt lat="46.08208033976495" lon="11.193989513377549"><ele>399.0</ele><time>2026-04-11T09:28:36Z</time></trkpt><trkpt lat="46.082106232117646" lon="11.19368674547304"><ele>398.0</ele><time>2026-04-11T09:28:37Z</time></trkpt><trkpt lat="46.08213185839403" lon="11.19338379033926"><ele>397.0</ele><time>2026-04-11T09:28:38Z</time></trkpt><trkpt lat="46.08215581312141" lon="11.193076041190272"><ele>396.0</ele><time>2026-04-11T09:28:39Z</time></trkpt><trkpt lat="46.08218118452845" lon="11.192770205604733"><ele>394.66666666666663</ele><time>2026-04-11T09:28:40Z</time></trkpt><trkpt lat="46.08220627177436" lon="11.192465573467127"><ele>393.3333333333333</ele><time>2026-04-11T09:28:41Z</time></trkpt><trkpt lat="46.08222990286514" lon="11.192157171196227"><ele>392.0</ele><time>2026-04-11T09:28:42Z</time></trkpt><trkpt lat="46.08225377345868" lon="11.19184671026552"><ele>391.0</ele><time>2026-04-11T09:28:43Z</time></trkpt><trkpt lat="46.08227731653453" lon="11.191535307596626"><ele>390.0</ele><time>2026-04-11T09:28:44Z</time></trkpt><trkpt lat="46.082307732782944" lon="11.191207835014676"><ele>389.0</ele><time>2026-04-11T09:28:45Z</time></trkpt><trkpt lat="46.08234559373354" lon="11.190873863027226"><ele>387.0</ele><time>2026-04-11T09:28:46Z</time></trkpt><trkpt lat="46.08238674166853" lon="11.190539674506583"><ele>385.0</ele><time>2026-04-11T09:28:47Z</time></trkpt><trkpt lat="46.08242693590163" lon="11.190212539730092"><ele>389.5</ele><time>2026-04-11T09:28:48Z</time></trkpt><trkpt lat="46.08245995905914" lon="11.189887963194533"><ele>394.0</ele><time>2026-04-11T09:28:49Z</time></trkpt><trkpt lat="46.08248095555751" lon="11.189564428580862"><ele>394.0</ele><time>2026-04-11T09:28:50Z</time></trkpt><trkpt lat="46.082489751258166" lon="11.189240742403165"><ele>394.0</ele><time>2026-04-11T09:28:51Z</time></trkpt><trkpt lat="46.08248646514017" lon="11.188921827070136"><ele>394.0</ele><time>2026-04-11T09:28:52Z</time></trkpt><trkpt lat="46.0824698602448" lon="11.188606996598462"><ele>393.0</ele><time>2026-04-11T09:28:53Z</time></trkpt><trkpt lat="46.08244685902988" lon="11.18829612883337"><ele>392.0</ele><time>2026-04-11T09:28:54Z</time></trkpt><trkpt lat="46.082417174257216" lon="11.187989801344408"><ele>391.0</ele><time>2026-04-11T09:28:55Z</time></trkpt><trkpt lat="46.082386529665236" lon="11.187684823859794"><ele>388.6666666666667</ele><time>2026-04-11T09:28:56Z</time></trkpt><trkpt lat="46.082357744989935" lon="11.18738354618819"><ele>386.33333333333337</ele><time>2026-04-11T09:28:57Z</time></trkpt><trkpt lat="46.08233175163768" lon="11.18708022634648"><ele>384.0</ele><time>2026-04-11T09:28:58Z</time></trkpt><trkpt lat="46.082313344816356" lon="11.186776825868801"><ele>384.66666666666663</ele><time>2026-04-11T09:28:59Z</time></trkpt><trkpt lat="46.08231136189352" lon="11.186472137586673"><ele>385.3333333333333</ele><time>2026-04-11T09:29:00Z</time></trkpt><trkpt lat="46.08233696113983" lon="11.186170977466286"><ele>386.0</ele><time>2026-04-11T09:29:01Z</time></trkpt><trkpt lat="46.08239096958009" lon="11.18587815289828"><ele>388.66666666666663</ele><time>2026-04-11T09:29:02Z</time></trkpt><trkpt lat="46.082471887492964" lon="11.185600295439261"><ele>391.33333333333337</ele><time>2026-04-11T09:29:03Z</time></trkpt><trkpt lat="46.082573382746666" lon="11.185331171768674"><ele>394.0</ele><time>2026-04-11T09:29:04Z</time></trkpt><trkpt lat="46.082677275648" lon="11.185072311041312"><ele>391.33333333333337</ele><time>2026-04-11T09:29:05Z</time></trkpt><trkpt lat="46.082778229981756" lon="11.184813672254974"><ele>388.66666666666663</ele><time>2026-04-11T09:29:06Z</time></trkpt><trkpt lat="46.08287926488317" lon="11.184551596417498"><ele>386.0</ele><time>2026-04-11T09:29:07Z</time></trkpt><trkpt lat="46.08297796454117" lon="11.184289050167619"><ele>386.0</ele><time>2026-04-11T09:29:08Z</time></trkpt><trkpt lat="46.083075660008724" lon="11.184025072194492"><ele>386.0</ele><time>2026-04-11T09:29:09Z</time></trkpt><trkpt lat="46.08317460275284" lon="11.183761337099842"><ele>386.0</ele><time>2026-04-11T09:29:10Z</time></trkpt><trkpt lat="46.083267693145096" lon="11.183493062102585"><ele>390.66666666666663</ele><time>2026-04-11T09:29:11Z</time></trkpt><trkpt lat="46.0833415712204" lon="11.183215916658693"><ele>395.33333333333337</ele><time>2026-04-11T09:29:12Z</time></trkpt><trkpt lat="46.083397913793526" lon="11.182928754510918"><ele>400.0</ele><time>2026-04-11T09:29:13Z</time></trkpt><trkpt lat="46.08343187841054" lon="11.18263518641825"><ele>401.0</ele><time>2026-04-11T09:29:14Z</time></trkpt><trkpt lat="46.0834439314051" lon="11.182336455048805"><ele>402.0</ele><time>2026-04-11T09:29:15Z</time></trkpt><trkpt lat="46.083429024042914" lon="11.182038194943512"><ele>403.0</ele><time>2026-04-11T09:29:16Z</time></trkpt><trkpt lat="46.08339949613193" lon="11.181736946259933"><ele>405.6666666666667</ele><time>2026-04-11T09:29:17Z</time></trkpt><trkpt lat="46.0833518031416" lon="11.181439026510965"><ele>408.33333333333337</ele><time>2026-04-11T09:29:18Z</time></trkpt><trkpt lat="46.08330192148956" lon="11.181139152610568"><ele>411.0</ele><time>2026-04-11T09:29:19Z</time></trkpt><trkpt lat="46.0832464646284" lon="11.180847201231193"><ele>400.6666666666667</ele><time>2026-04-11T09:29:20Z</time></trkpt><trkpt lat="46.08319589630903" lon="11.180553111106487"><ele>390.33333333333337</ele><time>2026-04-11T09:29:21Z</time></trkpt><trkpt lat="46.083152330198914" lon="11.180249869938377"><ele>380.0</ele><time>2026-04-11T09:29:22.023Z</time></trkpt><trkpt lat="46.083119406451004" lon="11.179955791479426"><ele>380.5</ele><time>2026-04-11T09:29:23.015Z</time></trkpt><trkpt lat="46.08309829888091" lon="11.179664826192763"><ele>381.0</ele><time>2026-04-11T09:29:24Z</time></trkpt><trkpt lat="46.08313717439615" lon="11.179286415912971"><ele>380.0</ele><time>2026-04-11T09:29:25Z</time></trkpt><trkpt lat="46.08314064557614" lon="11.178975619881236"><ele>379.0</ele><time>2026-04-11T09:29:26Z</time></trkpt><trkpt lat="46.083142276587054" lon="11.178667264418609"><ele>378.0</ele><time>2026-04-11T09:29:27Z</time></trkpt><trkpt lat="46.08314122106339" lon="11.178362584943123"><ele>377.0</ele><time>2026-04-11T09:29:28Z</time></trkpt><trkpt lat="46.0831312532181" lon="11.178059892514"><ele>376.0</ele><time>2026-04-11T09:29:29Z</time></trkpt><trkpt lat="46.0831147320186" lon="11.177756917889129"><ele>375.0</ele><time>2026-04-11T09:29:30Z</time></trkpt><trkpt lat="46.08309242436195" lon="11.177454380890158"><ele>375.6666666666667</ele><time>2026-04-11T09:29:31Z</time></trkpt><trkpt lat="46.08306505873393" lon="11.177147809551656"><ele>376.33333333333337</ele><time>2026-04-11T09:29:32Z</time></trkpt><trkpt lat="46.08303510430162" lon="11.176840301285333"><ele>377.0</ele><time>2026-04-11T09:29:33Z</time></trkpt><trkpt lat="46.08300637556271" lon="11.176529294861728"><ele>383.6666666666667</ele><time>2026-04-11T09:29:34Z</time></trkpt><trkpt lat="46.0829755127489" lon="11.176218791581894"><ele>390.33333333333337</ele><time>2026-04-11T09:29:35Z</time></trkpt><trkpt lat="46.08295146087591" lon="11.175900728051813"><ele>397.0</ele><time>2026-04-11T09:29:36Z</time></trkpt><trkpt lat="46.08292639028639" lon="11.175576353730976"><ele>421.5</ele><time>2026-04-11T09:29:37Z</time></trkpt><trkpt lat="46.08290173936281" lon="11.17524234806798"><ele>446.0</ele><time>2026-04-11T09:29:38.013Z</time></trkpt><trkpt lat="46.0828803411951" lon="11.17490398300029"><ele>454.0</ele><time>2026-04-11T09:29:39.02Z</time></trkpt><trkpt lat="46.082860113946225" lon="11.17455597135777"><ele>462.0</ele><time>2026-04-11T09:29:40.024Z</time></trkpt><trkpt lat="46.08284037283022" lon="11.174208878578868"><ele>345.0</ele><time>2026-04-11T09:29:41.021Z</time></trkpt><trkpt lat="46.07789061967849" lon="11.155217941860812"><ele>345.0</ele><time>2026-04-11T09:30:54Z</time></trkpt><trkpt lat="46.077814359168954" lon="11.155032547576642"><ele>345.0</ele><time>2026-04-11T09:30:55Z</time></trkpt><trkpt lat="46.07779224241711" lon="11.154813699834461"><ele>345.0</ele><time>2026-04-11T09:30:56Z</time></trkpt><trkpt lat="46.07772086775447" lon="11.154603549847351"><ele>350.3333333333333</ele><time>2026-04-11T09:30:57Z</time></trkpt><trkpt lat="46.077654820924465" lon="11.154372856596364"><ele>355.66666666666663</ele><time>2026-04-11T09:30:58Z</time></trkpt><trkpt lat="46.07759677423982" lon="11.154141262769027"><ele>361.0</ele><time>2026-04-11T09:30:59Z</time></trkpt><trkpt lat="46.077543959805375" lon="11.153902003748017"><ele>357.66666666666663</ele><time>2026-04-11T09:31:00Z</time></trkpt><trkpt lat="46.07749663874102" lon="11.153649842785855"><ele>354.3333333333333</ele><time>2026-04-11T09:31:01Z</time></trkpt><trkpt lat="46.07745137547773" lon="11.153398106108241"><ele>351.0</ele><time>2026-04-11T09:31:02Z</time></trkpt><trkpt lat="46.077414449401346" lon="11.153141981757042"><ele>351.0</ele><time>2026-04-11T09:31:03Z</time></trkpt><trkpt lat="46.07738055653684" lon="11.152879814466578"><ele>351.0</ele><time>2026-04-11T09:31:04.001Z</time></trkpt><trkpt lat="46.07735497480807" lon="11.152608253569447"><ele>351.0</ele><time>2026-04-11T09:31:05.023Z</time></trkpt><trkpt lat="46.07733919072852" lon="11.152342770392051"><ele>356.0</ele><time>2026-04-11T09:31:06.021Z</time></trkpt><trkpt lat="46.07733030433393" lon="11.152086546534047"><ele>361.0</ele><time>2026-04-11T09:31:07.015Z</time></trkpt><trkpt lat="46.077321237740875" lon="11.151818734733743"><ele>366.0</ele><time>2026-04-11T09:31:08.022Z</time></trkpt><trkpt lat="46.07732031445496" lon="11.151546397475322"><ele>437.0</ele><time>2026-04-11T09:31:09.024Z</time></trkpt><trkpt lat="46.077759350513496" lon="11.147519486335764"><ele>413.0</ele><time>2026-04-11T09:31:13.61Z</time></trkpt><trkpt lat="46.07790767287333" lon="11.146377575356695"><ele>402.0</ele><time>2026-04-11T09:31:14.608Z</time></trkpt><trkpt lat="46.0780541391561" lon="11.14523319818972"><ele>396.0</ele><time>2026-04-11T09:31:15.608Z</time></trkpt><trkpt lat="46.07820249274927" lon="11.144088145001236"><ele>381.0</ele><time>2026-04-11T09:31:16.609Z</time></trkpt><trkpt lat="46.078352029287096" lon="11.14294613277314"><ele>374.0</ele><time>2026-04-11T09:31:17.608Z</time></trkpt><trkpt lat="46.078535130177194" lon="11.141811706616236"><ele>380.0</ele><time>2026-04-11T09:31:18.609Z</time></trkpt><trkpt lat="46.07878985788513" lon="11.14070778954244"><ele>388.0</ele><time>2026-04-11T09:31:19.609Z</time></trkpt><trkpt lat="46.07911381577689" lon="11.139643900372112"><ele>385.0</ele><time>2026-04-11T09:31:20.608Z</time></trkpt><trkpt lat="46.07950020962842" lon="11.138620310142397"><ele>387.0</ele><time>2026-04-11T09:31:21.609Z</time></trkpt><trkpt lat="46.07994899211988" lon="11.13765455780531"><ele>378.0</ele><time>2026-04-11T09:31:22.608Z</time></trkpt><trkpt lat="46.080458684944766" lon="11.136749021828416"><ele>372.0</ele><time>2026-04-11T09:31:23.609Z</time></trkpt><trkpt lat="46.081021617469496" lon="11.135913086228214"><ele>366.0</ele><time>2026-04-11T09:31:24.609Z</time></trkpt><trkpt lat="46.08160883857316" lon="11.13511415779558"><ele>354.0</ele><time>2026-04-11T09:31:25.608Z</time></trkpt><trkpt lat="46.08219843534911" lon="11.134316891512459"><ele>359.0</ele><time>2026-04-11T09:31:26.608Z</time></trkpt><trkpt lat="46.082785432609874" lon="11.13351404007878"><ele>369.0</ele><time>2026-04-11T09:31:27.609Z</time></trkpt><trkpt lat="46.08337360661517" lon="11.132714976373467"><ele>379.0</ele><time>2026-04-11T09:31:28.608Z</time></trkpt><trkpt lat="46.08396065409062" lon="11.131914534129162"><ele>400.0</ele><time>2026-04-11T09:31:29.608Z</time></trkpt><trkpt lat="46.084547709019525" lon="11.131112912333753"><ele>391.0</ele><time>2026-04-11T09:31:30.608Z</time></trkpt><trkpt lat="46.085135070024435" lon="11.130309900798157"><ele>371.0</ele><time>2026-04-11T09:31:31.609Z</time></trkpt><trkpt lat="46.08572235411052" lon="11.129510912162557"><ele>341.0</ele><time>2026-04-11T09:31:32.608Z</time></trkpt><trkpt lat="46.086310310864405" lon="11.128710507357486"><ele>310.0</ele><time>2026-04-11T09:31:33.608Z</time></trkpt><trkpt lat="46.08689697926303" lon="11.12790892873378"><ele>298.0</ele><time>2026-04-11T09:31:34.608Z</time></trkpt><trkpt lat="46.08748341196517" lon="11.127106711729747"><ele>276.0</ele><time>2026-04-11T09:31:35.608Z</time></trkpt><trkpt lat="46.0880709533053" lon="11.126303850107448"><ele>268.0</ele><time>2026-04-11T09:31:36.609Z</time></trkpt><trkpt lat="46.088658672117695" lon="11.125504349957202"><ele>252.0</ele><time>2026-04-11T09:31:37.608Z</time></trkpt><trkpt lat="46.089245422358864" lon="11.124701539660684"><ele>234.0</ele><time>2026-04-11T09:31:38.609Z</time></trkpt><trkpt lat="46.08983231577547" lon="11.123902335097773"><ele>222.0</ele><time>2026-04-11T09:31:39.607Z</time></trkpt><trkpt lat="46.09046464145709" lon="11.123177065127518"><ele>243.0</ele><time>2026-04-11T09:31:40.608Z</time></trkpt><trkpt lat="46.09106763676038" lon="11.123234651069101"><ele>236.0</ele><time>2026-04-11T09:32:53Z</time></trkpt><trkpt lat="46.09121637087949" lon="11.122648395238418"><ele>229.0</ele><time>2026-04-11T09:32:54Z</time></trkpt><trkpt lat="46.091319443549" lon="11.12255913713333"><ele>229.0</ele><time>2026-04-11T09:32:55Z</time></trkpt><trkpt lat="46.09143840630362" lon="11.122490708404715"><ele>229.0</ele><time>2026-04-11T09:32:56Z</time></trkpt><trkpt lat="46.091566290698914" lon="11.122441053590931"><ele>229.0</ele><time>2026-04-11T09:32:57Z</time></trkpt><trkpt lat="46.09169817332009" lon="11.122391089886394"><ele>229.0</ele><time>2026-04-11T09:32:58Z</time></trkpt><trkpt lat="46.09183709930959" lon="11.12232807183495"><ele>219.66666666666666</ele><time>2026-04-11T09:32:59Z</time></trkpt><trkpt lat="46.091987894967936" lon="11.122278990756373"><ele>210.33333333333331</ele><time>2026-04-11T09:33:00Z</time></trkpt><trkpt lat="46.09213382045905" lon="11.122220173502013"><ele>201.0</ele><time>2026-04-11T09:33:01Z</time></trkpt><trkpt lat="46.092289522530685" lon="11.12217526972625"><ele>204.33333333333331</ele><time>2026-04-11T09:33:02Z</time></trkpt><trkpt lat="46.092449491619234" lon="11.122132413841463"><ele>207.66666666666666</ele><time>2026-04-11T09:33:03Z</time></trkpt><trkpt lat="46.09260839307122" lon="11.122093036028923"><ele>211.0</ele><time>2026-04-11T09:33:04Z</time></trkpt><trkpt lat="46.09276989133679" lon="11.122050043613944"><ele>211.0</ele><time>2026-04-11T09:33:05Z</time></trkpt><trkpt lat="46.092932509058166" lon="11.122002518646498"><ele>211.0</ele><time>2026-04-11T09:33:06Z</time></trkpt><trkpt lat="46.09310031860536" lon="11.121961902182768"><ele>211.0</ele><time>2026-04-11T09:33:07Z</time></trkpt><trkpt lat="46.093272286315326" lon="11.121929547339198"><ele>212.33333333333331</ele><time>2026-04-11T09:33:08Z</time></trkpt><trkpt lat="46.09344667939386" lon="11.121894406704126"><ele>213.66666666666669</ele><time>2026-04-11T09:33:09Z</time></trkpt><trkpt lat="46.09362895354471" lon="11.121866435243911"><ele>215.0</ele><time>2026-04-11T09:33:10.001Z</time></trkpt><trkpt lat="46.09380914567818" lon="11.121837639027598"><ele>215.0</ele><time>2026-04-11T09:33:11.001Z</time></trkpt><trkpt lat="46.09398574204693" lon="11.1217929000394"><ele>215.0</ele><time>2026-04-11T09:33:12.001Z</time></trkpt><trkpt lat="46.09416502979907" lon="11.121748984234973"><ele>215.0</ele><time>2026-04-11T09:33:13.001Z</time></trkpt><trkpt lat="46.09434283241698" lon="11.12169615281343"><ele>214.0</ele><time>2026-04-11T09:33:14.001Z</time></trkpt><trkpt lat="46.09451998856117" lon="11.121630857281886"><ele>213.0</ele><time>2026-04-11T09:33:15.001Z</time></trkpt><trkpt lat="46.09469262045505" lon="11.121540935861907"><ele>212.0</ele><time>2026-04-11T09:33:16.001Z</time></trkpt><trkpt lat="46.09485789323776" lon="11.121434562385609"><ele>206.66666666666669</ele><time>2026-04-11T09:33:17.001Z</time></trkpt><trkpt lat="46.09501622811045" lon="11.121313343647369"><ele>201.33333333333331</ele><time>2026-04-11T09:33:18.001Z</time></trkpt><trkpt lat="46.09516555981151" lon="11.121174406288779"><ele>196.0</ele><time>2026-04-11T09:33:19.001Z</time></trkpt><trkpt lat="46.09530762523643" lon="11.121022134801509"><ele>196.0</ele><time>2026-04-11T09:33:20.001Z</time></trkpt><trkpt lat="46.09543838190147" lon="11.120856689013848"><ele>196.0</ele><time>2026-04-11T09:33:21.001Z</time></trkpt><trkpt lat="46.095560569268606" lon="11.120677168652545"><ele>196.0</ele><time>2026-04-11T09:33:22Z</time></trkpt><trkpt lat="46.095673907896625" lon="11.120488941836369"><ele>195.0</ele><time>2026-04-11T09:33:23Z</time></trkpt><trkpt lat="46.09577758795742" lon="11.120281534206258"><ele>194.0</ele><time>2026-04-11T09:33:24Z</time></trkpt><trkpt lat="46.095870668782204" lon="11.120063560531518"><ele>193.0</ele><time>2026-04-11T09:33:25Z</time></trkpt><trkpt lat="46.09595014201087" lon="11.119833461213474"><ele>192.0</ele><time>2026-04-11T09:33:26Z</time></trkpt><trkpt lat="46.0960236419727" lon="11.119596613735812"><ele>191.0</ele><time>2026-04-11T09:33:27Z</time></trkpt><trkpt lat="46.09609354002609" lon="11.119356055259324"><ele>190.0</ele><time>2026-04-11T09:33:28Z</time></trkpt><trkpt lat="46.09615966035435" lon="11.119116272822515"><ele>191.0</ele><time>2026-04-11T09:33:29Z</time></trkpt><trkpt lat="46.0962243225813" lon="11.118875484362706"><ele>192.0</ele><time>2026-04-11T09:33:30Z</time></trkpt><trkpt lat="46.0962907197207" lon="11.118629667498965"><ele>193.0</ele><time>2026-04-11T09:33:31Z</time></trkpt><trkpt lat="46.09635747896519" lon="11.118385870799521"><ele>193.33333333333331</ele><time>2026-04-11T09:33:32Z</time></trkpt><trkpt lat="46.09642248130546" lon="11.118142265667478"><ele>193.66666666666669</ele><time>2026-04-11T09:33:33Z</time></trkpt><trkpt lat="46.096484193894256" lon="11.117897173151249"><ele>194.0</ele><time>2026-04-11T09:33:34Z</time></trkpt><trkpt lat="46.09653726316914" lon="11.117651326988907"><ele>193.33333333333334</ele><time>2026-04-11T09:33:35Z</time></trkpt><trkpt lat="46.09657564279744" lon="11.11740206835258"><ele>192.66666666666669</ele><time>2026-04-11T09:33:36Z</time></trkpt><trkpt lat="46.09660189356321" lon="11.117143016076739"><ele>192.0</ele><time>2026-04-11T09:33:37Z</time></trkpt><trkpt lat="46.09661961588466" lon="11.116876048876808"><ele>191.66666666666666</ele><time>2026-04-11T09:33:38Z</time></trkpt><trkpt lat="46.096625700165774" lon="11.116606388139148"><ele>191.33333333333331</ele><time>2026-04-11T09:33:39Z</time></trkpt><trkpt lat="46.09662137878008" lon="11.116334034068224"><ele>191.0</ele><time>2026-04-11T09:33:40Z</time></trkpt><trkpt lat="46.096603771736866" lon="11.116066184600898"><ele>191.33333333333331</ele><time>2026-04-11T09:33:41Z</time></trkpt><trkpt lat="46.096572547433034" lon="11.115799771690504"><ele>191.66666666666666</ele><time>2026-04-11T09:33:42Z</time></trkpt><trkpt lat="46.0965315229394" lon="11.115534875927981"><ele>192.0</ele><time>2026-04-11T09:33:43Z</time></trkpt><trkpt lat="46.096481616290085" lon="11.115274477681377"><ele>191.33333333333334</ele><time>2026-04-11T09:33:44Z</time></trkpt><trkpt lat="46.096435745950366" lon="11.115013363064476"><ele>190.66666666666669</ele><time>2026-04-11T09:33:45Z</time></trkpt><trkpt lat="46.09638882660813" lon="11.114756345074662"><ele>190.0</ele><time>2026-04-11T09:33:46Z</time></trkpt><trkpt lat="46.09634114738593" lon="11.11449641203377"><ele>190.0</ele><time>2026-04-11T09:33:47Z</time></trkpt><trkpt lat="46.096291381028486" lon="11.114237842156587"><ele>190.0</ele><time>2026-04-11T09:33:48Z</time></trkpt><trkpt lat="46.096242653831325" lon="11.113978429284526"><ele>190.0</ele><time>2026-04-11T09:33:49Z</time></trkpt><trkpt lat="46.0961947442655" lon="11.113722025379435"><ele>191.0</ele><time>2026-04-11T09:33:50Z</time></trkpt><trkpt lat="46.09614999857077" lon="11.113465588008738"><ele>192.0</ele><time>2026-04-11T09:33:51Z</time></trkpt><trkpt lat="46.09610476281905" lon="11.113210006382845"><ele>193.0</ele><time>2026-04-11T09:33:52Z</time></trkpt><trkpt lat="46.09605931518073" lon="11.112956350679005"><ele>193.66666666666666</ele><time>2026-04-11T09:33:53Z</time></trkpt><trkpt lat="46.09601170297048" lon="11.112705253743671"><ele>194.33333333333331</ele><time>2026-04-11T09:33:54Z</time></trkpt><trkpt lat="46.09596337505135" lon="11.112450971510372"><ele>195.0</ele><time>2026-04-11T09:33:55Z</time></trkpt><trkpt lat="46.095916416936845" lon="11.112193945990851"><ele>193.66666666666666</ele><time>2026-04-11T09:33:56Z</time></trkpt><trkpt lat="46.09586738219565" lon="11.111933866608215"><ele>192.33333333333331</ele><time>2026-04-11T09:33:57Z</time></trkpt><trkpt lat="46.09581747015661" lon="11.111667441544792"><ele>191.0</ele><time>2026-04-11T09:33:58Z</time></trkpt><trkpt lat="46.09577111541646" lon="11.11139818851393"><ele>191.0</ele><time>2026-04-11T09:33:59Z</time></trkpt><trkpt lat="46.095727914969814" lon="11.111132916329868"><ele>191.0</ele><time>2026-04-11T09:34:00Z</time></trkpt><trkpt lat="46.09568480499047" lon="11.11087348470592"><ele>191.0</ele><time>2026-04-11T09:34:01Z</time></trkpt><trkpt lat="46.095637081921595" lon="11.11062711877213"><ele>191.33333333333331</ele><time>2026-04-11T09:34:02Z</time></trkpt><trkpt lat="46.09558722344702" lon="11.110384716114488"><ele>191.66666666666666</ele><time>2026-04-11T09:34:03Z</time></trkpt><trkpt lat="46.09553417812025" lon="11.110142915069368"><ele>192.0</ele><time>2026-04-11T09:34:04Z</time></trkpt><trkpt lat="46.095474427749735" lon="11.109886857114557"><ele>192.0</ele><time>2026-04-11T09:34:05Z</time></trkpt><trkpt lat="46.0954175542181" lon="11.109619813146695"><ele>192.0</ele><time>2026-04-11T09:34:06Z</time></trkpt><trkpt lat="46.09536891287724" lon="11.109344336627561"><ele>192.0</ele><time>2026-04-11T09:34:07Z</time></trkpt><trkpt lat="46.09532624779654" lon="11.109063458732658"><ele>192.0</ele><time>2026-04-11T09:34:08Z</time></trkpt><trkpt lat="46.09528262286632" lon="11.10878510071478"><ele>192.0</ele><time>2026-04-11T09:34:09Z</time></trkpt><trkpt lat="46.09523138829675" lon="11.108507295771995"><ele>192.0</ele><time>2026-04-11T09:34:10Z</time></trkpt><trkpt lat="46.09518047359176" lon="11.108233114741502"><ele>192.0</ele><time>2026-04-11T09:34:11Z</time></trkpt><trkpt lat="46.095126737717216" lon="11.10795949813767"><ele>192.0</ele><time>2026-04-11T09:34:12Z</time></trkpt><trkpt lat="46.09506496764494" lon="11.107677694042055"><ele>192.0</ele><time>2026-04-11T09:34:13Z</time></trkpt><trkpt lat="46.09499473286923" lon="11.107408345597579"><ele>192.66666666666669</ele><time>2026-04-11T09:34:14Z</time></trkpt><trkpt lat="46.09491848825282" lon="11.107128070717417"><ele>193.33333333333334</ele><time>2026-04-11T09:34:15Z</time></trkpt><trkpt lat="46.094831043940026" lon="11.10685854175411"><ele>194.0</ele><time>2026-04-11T09:34:16Z</time></trkpt><trkpt lat="46.09473934589937" lon="11.106604222198559"><ele>194.0</ele><time>2026-04-11T09:34:17Z</time></trkpt><trkpt lat="46.09465142547845" lon="11.106356644536113"><ele>194.0</ele><time>2026-04-11T09:34:18Z</time></trkpt><trkpt lat="46.09459684977717" lon="11.106144177612352"><ele>194.0</ele><time>2026-04-11T09:34:19Z</time></trkpt><trkpt lat="46.09452138028824" lon="11.10588363833481"><ele>193.0</ele><time>2026-04-11T09:34:20Z</time></trkpt><trkpt lat="46.094381845838235" lon="11.105558240698292"><ele>192.0</ele><time>2026-04-11T09:34:21Z</time></trkpt><trkpt lat="46.09428147277088" lon="11.105267120627682"><ele>192.0</ele><time>2026-04-11T09:34:22Z</time></trkpt><trkpt lat="46.094200405913824" lon="11.105026167334817"><ele>192.0</ele><time>2026-04-11T09:34:23Z</time></trkpt><trkpt lat="46.0941127322619" lon="11.10477696717527"><ele>192.0</ele><time>2026-04-11T09:34:24Z</time></trkpt><trkpt lat="46.09402917370616" lon="11.104526547440052"><ele>192.33333333333331</ele><time>2026-04-11T09:34:25Z</time></trkpt><trkpt lat="46.09393341612112" lon="11.104297887098307"><ele>192.66666666666666</ele><time>2026-04-11T09:34:26Z</time></trkpt><trkpt lat="46.09383649315916" lon="11.10404105925967"><ele>193.0</ele><time>2026-04-11T09:34:27Z</time></trkpt><trkpt lat="46.09375169219187" lon="11.103800775404745"><ele>193.0</ele><time>2026-04-11T09:34:28Z</time></trkpt><trkpt lat="46.09366514013429" lon="11.103583113299473"><ele>193.0</ele><time>2026-04-11T09:34:29Z</time></trkpt><trkpt lat="46.09357577372288" lon="11.103378295497343"><ele>193.0</ele><time>2026-04-11T09:34:30Z</time></trkpt><trkpt lat="46.093476701744" lon="11.10317411293685"><ele>192.66666666666666</ele><time>2026-04-11T09:34:31Z</time></trkpt><trkpt lat="46.093366348190735" lon="11.102988397659482"><ele>192.33333333333331</ele><time>2026-04-11T09:34:32Z</time></trkpt><trkpt lat="46.093237797334424" lon="11.102822118952016"><ele>192.0</ele><time>2026-04-11T09:34:33Z</time></trkpt><trkpt lat="46.09309493563544" lon="11.102669130336436"><ele>191.66666666666666</ele><time>2026-04-11T09:34:34Z</time></trkpt><trkpt lat="46.092928879458306" lon="11.102535667182492"><ele>191.33333333333331</ele><time>2026-04-11T09:34:35Z</time></trkpt><trkpt lat="46.09276004061987" lon="11.102409660837004"><ele>191.0</ele><time>2026-04-11T09:34:36Z</time></trkpt><trkpt lat="46.09258770708641" lon="11.102303991820342"><ele>191.0</ele><time>2026-04-11T09:34:37Z</time></trkpt><trkpt lat="46.09240724711364" lon="11.102221809771251"><ele>191.0</ele><time>2026-04-11T09:34:38Z</time></trkpt><trkpt lat="46.092222818205755" lon="11.102154239224808"><ele>191.0</ele><time>2026-04-11T09:34:39Z</time></trkpt><trkpt lat="46.09203516434992" lon="11.102114471174808"><ele>191.0</ele><time>2026-04-11T09:34:40Z</time></trkpt><trkpt lat="46.09184076987692" lon="11.102104686124001"><ele>191.0</ele><time>2026-04-11T09:34:41Z</time></trkpt><trkpt lat="46.091647165561355" lon="11.102121279768856"><ele>191.0</ele><time>2026-04-11T09:34:42Z</time></trkpt><trkpt lat="46.091452524287746" lon="11.102165118827632"><ele>190.66666666666666</ele><time>2026-04-11T09:34:43Z</time></trkpt><trkpt lat="46.09126108033436" lon="11.10223541247112"><ele>190.33333333333334</ele><time>2026-04-11T09:34:44Z</time></trkpt><trkpt lat="46.09107081209202" lon="11.102331040224044"><ele>190.0</ele><time>2026-04-11T09:34:45Z</time></trkpt><trkpt lat="46.09089146531888" lon="11.102447722792336"><ele>190.0</ele><time>2026-04-11T09:34:46Z</time></trkpt><trkpt lat="46.09071053918911" lon="11.102574372076287"><ele>190.0</ele><time>2026-04-11T09:34:47Z</time></trkpt><trkpt lat="46.09052878102601" lon="11.102702942201807"><ele>190.0</ele><time>2026-04-11T09:34:48Z</time></trkpt><trkpt lat="46.090347271804546" lon="11.102828356906297"><ele>190.0</ele><time>2026-04-11T09:34:49Z</time></trkpt><trkpt lat="46.090165660731344" lon="11.102951502013648"><ele>190.0</ele><time>2026-04-11T09:34:50Z</time></trkpt><trkpt lat="46.08998403260909" lon="11.103086360692181"><ele>190.0</ele><time>2026-04-11T09:34:51Z</time></trkpt><trkpt lat="46.08980046707953" lon="11.103202707675054"><ele>190.0</ele><time>2026-04-11T09:34:52Z</time></trkpt><trkpt lat="46.089614929366235" lon="11.103323090402542"><ele>190.0</ele><time>2026-04-11T09:34:53Z</time></trkpt><trkpt lat="46.089437227262124" lon="11.103424244944417"><ele>190.0</ele><time>2026-04-11T09:34:54Z</time></trkpt><trkpt lat="46.089257290472695" lon="11.103530184812684"><ele>190.0</ele><time>2026-04-11T09:34:55Z</time></trkpt><trkpt lat="46.089081670321164" lon="11.103641683990558"><ele>190.0</ele><time>2026-04-11T09:34:56Z</time></trkpt><trkpt lat="46.08891084274953" lon="11.103754131492027"><ele>190.0</ele><time>2026-04-11T09:34:57Z</time></trkpt><trkpt lat="46.088742150433234" lon="11.103868273272958"><ele>190.0</ele><time>2026-04-11T09:34:58Z</time></trkpt><trkpt lat="46.088577178936134" lon="11.103983713141577"><ele>190.0</ele><time>2026-04-11T09:34:59Z</time></trkpt><trkpt lat="46.08841572301634" lon="11.104113356044158"><ele>190.0</ele><time>2026-04-11T09:35:00Z</time></trkpt><trkpt lat="46.08825289860377" lon="11.104267342141162"><ele>190.33333333333334</ele><time>2026-04-11T09:35:01Z</time></trkpt><trkpt lat="46.08808891640996" lon="11.10442296714597"><ele>190.66666666666666</ele><time>2026-04-11T09:35:02Z</time></trkpt><trkpt lat="46.08792905758597" lon="11.104578028032789"><ele>191.0</ele><time>2026-04-11T09:35:03Z</time></trkpt><trkpt lat="46.087769151936776" lon="11.10473682911442"><ele>191.0</ele><time>2026-04-11T09:35:04Z</time></trkpt><trkpt lat="46.087614098310475" lon="11.104903321721887"><ele>191.0</ele><time>2026-04-11T09:35:04.999Z</time></trkpt><trkpt lat="46.08746160200243" lon="11.105077934010001"><ele>191.0</ele><time>2026-04-11T09:35:05.999Z</time></trkpt><trkpt lat="46.087310713851835" lon="11.105257580090653"><ele>191.0</ele><time>2026-04-11T09:35:06.999Z</time></trkpt><trkpt lat="46.087161955274304" lon="11.105440597106782"><ele>191.0</ele><time>2026-04-11T09:35:07.999Z</time></trkpt><trkpt lat="46.08701327425032" lon="11.105628993630125"><ele>191.0</ele><time>2026-04-11T09:35:08.999Z</time></trkpt><trkpt lat="46.086872612500365" lon="11.10582814100896"><ele>191.0</ele><time>2026-04-11T09:35:09.999Z</time></trkpt><trkpt lat="46.08674029558546" lon="11.106042841614327"><ele>191.0</ele><time>2026-04-11T09:35:10.999Z</time></trkpt><trkpt lat="46.08661212741203" lon="11.106268267653606"><ele>191.0</ele><time>2026-04-11T09:35:11.999Z</time></trkpt><trkpt lat="46.086485720382214" lon="11.106504289656336"><ele>190.66666666666666</ele><time>2026-04-11T09:35:12.999Z</time></trkpt><trkpt lat="46.0863621054239" lon="11.106733381839021"><ele>190.33333333333334</ele><time>2026-04-11T09:35:13.999Z</time></trkpt><trkpt lat="46.08623873011981" lon="11.106956613178035"><ele>190.0</ele><time>2026-04-11T09:35:14.999Z</time></trkpt><trkpt lat="46.08611363860289" lon="11.107184875815944"><ele>190.0</ele><time>2026-04-11T09:35:16Z</time></trkpt><trkpt lat="46.08599111300101" lon="11.107410565729179"><ele>190.0</ele><time>2026-04-11T09:35:17Z</time></trkpt><trkpt lat="46.08586664932839" lon="11.107636690564696"><ele>190.0</ele><time>2026-04-11T09:35:18Z</time></trkpt><trkpt lat="46.08574339109503" lon="11.107862995296104"><ele>190.0</ele><time>2026-04-11T09:35:19Z</time></trkpt><trkpt lat="46.08561934664311" lon="11.108085469538453"><ele>190.0</ele><time>2026-04-11T09:35:20Z</time></trkpt><trkpt lat="46.0854956130049" lon="11.108308486733737"><ele>190.0</ele><time>2026-04-11T09:35:21Z</time></trkpt><trkpt lat="46.08537198208706" lon="11.108526858728242"><ele>190.0</ele><time>2026-04-11T09:35:22Z</time></trkpt><trkpt lat="46.08525021387848" lon="11.108745440336593"><ele>190.0</ele><time>2026-04-11T09:35:23Z</time></trkpt><trkpt lat="46.08513154903483" lon="11.108961482443362"><ele>190.0</ele><time>2026-04-11T09:35:24Z</time></trkpt><trkpt lat="46.08501579385281" lon="11.109176599588253"><ele>189.66666666666669</ele><time>2026-04-11T09:35:25Z</time></trkpt><trkpt lat="46.08489787178128" lon="11.109393067691439"><ele>189.33333333333334</ele><time>2026-04-11T09:35:26Z</time></trkpt><trkpt lat="46.08477934924751" lon="11.109605132909639"><ele>189.0</ele><time>2026-04-11T09:35:27Z</time></trkpt><trkpt lat="46.08465828285923" lon="11.109817671606292"><ele>189.66666666666666</ele><time>2026-04-11T09:35:28Z</time></trkpt><trkpt lat="46.08453856134057" lon="11.110032443622302"><ele>190.33333333333331</ele><time>2026-04-11T09:35:29Z</time></trkpt><trkpt lat="46.0844188386803" lon="11.110247722798455"><ele>191.0</ele><time>2026-04-11T09:35:30Z</time></trkpt><trkpt lat="46.084299353843555" lon="11.110466730150366"><ele>191.0</ele><time>2026-04-11T09:35:31Z</time></trkpt><trkpt lat="46.08417675886249" lon="11.1106874220539"><ele>191.0</ele><time>2026-04-11T09:35:32Z</time></trkpt><trkpt lat="46.084055434826624" lon="11.110912297689792"><ele>191.0</ele><time>2026-04-11T09:35:33Z</time></trkpt><trkpt lat="46.08393306266193" lon="11.111135788787424"><ele>191.66666666666666</ele><time>2026-04-11T09:35:34Z</time></trkpt><trkpt lat="46.083808627602096" lon="11.111358498547574"><ele>192.33333333333331</ele><time>2026-04-11T09:35:35Z</time></trkpt><trkpt lat="46.08368329528658" lon="11.111581170088792"><ele>193.0</ele><time>2026-04-11T09:35:36Z</time></trkpt><trkpt lat="46.08355885502786" lon="11.111803788760547"><ele>193.33333333333331</ele><time>2026-04-11T09:35:37Z</time></trkpt><trkpt lat="46.08343388971083" lon="11.112029945977222"><ele>193.66666666666669</ele><time>2026-04-11T09:35:38Z</time></trkpt><trkpt lat="46.08331178607282" lon="11.112253312731049"><ele>194.0</ele><time>2026-04-11T09:35:39Z</time></trkpt><trkpt lat="46.08318731258546" lon="11.112472012611681"><ele>192.66666666666669</ele><time>2026-04-11T09:35:40Z</time></trkpt><trkpt lat="46.08305570720304" lon="11.112680302498937"><ele>191.33333333333334</ele><time>2026-04-11T09:35:41Z</time></trkpt><trkpt lat="46.08291418356426" lon="11.112872376422533"><ele>190.0</ele><time>2026-04-11T09:35:42Z</time></trkpt><trkpt lat="46.082759435884" lon="11.113036935203906"><ele>190.0</ele><time>2026-04-11T09:35:43Z</time></trkpt><trkpt lat="46.08259517484272" lon="11.113170362959316"><ele>190.0</ele><time>2026-04-11T09:35:44Z</time></trkpt><trkpt lat="46.08242700907932" lon="11.113273717220796"><ele>190.0</ele><time>2026-04-11T09:35:45Z</time></trkpt><trkpt lat="46.08225434323739" lon="11.113362137701996"><ele>190.66666666666669</ele><time>2026-04-11T09:35:46Z</time></trkpt><trkpt lat="46.082083565374546" lon="11.11342337766394"><ele>191.33333333333334</ele><time>2026-04-11T09:35:47Z</time></trkpt><trkpt lat="46.081915026818216" lon="11.113468661592226"><ele>192.0</ele><time>2026-04-11T09:35:48Z</time></trkpt><trkpt lat="46.08174175423218" lon="11.113488558084999"><ele>191.33333333333334</ele><time>2026-04-11T09:35:49Z</time></trkpt><trkpt lat="46.08157487534089" lon="11.11348430517151"><ele>190.66666666666669</ele><time>2026-04-11T09:35:50Z</time></trkpt><trkpt lat="46.0814061379338" lon="11.113455128877643"><ele>190.0</ele><time>2026-04-11T09:35:51Z</time></trkpt><trkpt lat="46.08124214081384" lon="11.113399586342698"><ele>190.0</ele><time>2026-04-11T09:35:52Z</time></trkpt><trkpt lat="46.08108055719933" lon="11.113334490413862"><ele>190.0</ele><time>2026-04-11T09:35:53Z</time></trkpt><trkpt lat="46.08092103307914" lon="11.11325179032421"><ele>190.0</ele><time>2026-04-11T09:35:54Z</time></trkpt><trkpt lat="46.0807635773881" lon="11.113164948572367"><ele>190.0</ele><time>2026-04-11T09:35:55Z</time></trkpt><trkpt lat="46.08060589724486" lon="11.113076226798034"><ele>190.0</ele><time>2026-04-11T09:35:56Z</time></trkpt><trkpt lat="46.08044483699669" lon="11.112988026017156"><ele>190.0</ele><time>2026-04-11T09:35:57Z</time></trkpt><trkpt lat="46.08028484574777" lon="11.112904281866196"><ele>190.0</ele><time>2026-04-11T09:35:58Z</time></trkpt><trkpt lat="46.08012338680669" lon="11.112816302586138"><ele>190.0</ele><time>2026-04-11T09:35:59Z</time></trkpt><trkpt lat="46.079958911186566" lon="11.11272935400807"><ele>190.0</ele><time>2026-04-11T09:36:00Z</time></trkpt><trkpt lat="46.07979387679771" lon="11.112641813815582"><ele>190.0</ele><time>2026-04-11T09:36:01Z</time></trkpt><trkpt lat="46.07962828211362" lon="11.112547642708252"><ele>190.0</ele><time>2026-04-11T09:36:02Z</time></trkpt><trkpt lat="46.07946072524925" lon="11.112450916540862"><ele>190.0</ele><time>2026-04-11T09:36:03Z</time></trkpt><trkpt lat="46.07929352565559" lon="11.112360080466518"><ele>189.33333333333334</ele><time>2026-04-11T09:36:04Z</time></trkpt><trkpt lat="46.07912545304503" lon="11.112271392432113"><ele>188.66666666666666</ele><time>2026-04-11T09:36:05Z</time></trkpt><trkpt lat="46.078956109046295" lon="11.11219089077346"><ele>188.0</ele><time>2026-04-11T09:36:06Z</time></trkpt><trkpt lat="46.078782849592386" lon="11.112122591758032"><ele>188.0</ele><time>2026-04-11T09:36:07Z</time></trkpt><trkpt lat="46.07860771724113" lon="11.112073926160903"><ele>188.0</ele><time>2026-04-11T09:36:08Z</time></trkpt><trkpt lat="46.0784315942906" lon="11.112050174675625"><ele>188.0</ele><time>2026-04-11T09:36:09Z</time></trkpt><trkpt lat="46.07825575482853" lon="11.112045799847992"><ele>189.0</ele><time>2026-04-11T09:36:10Z</time></trkpt><trkpt lat="46.07808347888615" lon="11.112063486989836"><ele>190.0</ele><time>2026-04-11T09:36:11Z</time></trkpt><trkpt lat="46.07791015294503" lon="11.112100538785906"><ele>191.0</ele><time>2026-04-11T09:36:12Z</time></trkpt><trkpt lat="46.07773852634213" lon="11.11215575698553"><ele>191.0</ele><time>2026-04-11T09:36:13Z</time></trkpt><trkpt lat="46.0775700744779" lon="11.112220705977936"><ele>191.0</ele><time>2026-04-11T09:36:14Z</time></trkpt><trkpt lat="46.07740237273164" lon="11.112288375275702"><ele>191.0</ele><time>2026-04-11T09:36:15Z</time></trkpt><trkpt lat="46.077233725390315" lon="11.112349873981561"><ele>191.66666666666666</ele><time>2026-04-11T09:36:16Z</time></trkpt><trkpt lat="46.07706404457054" lon="11.112401427979675"><ele>192.33333333333331</ele><time>2026-04-11T09:36:17Z</time></trkpt><trkpt lat="46.076895787397945" lon="11.112444456154309"><ele>193.0</ele><time>2026-04-11T09:36:18Z</time></trkpt><trkpt lat="46.076721434789" lon="11.112476263486903"><ele>191.66666666666666</ele><time>2026-04-11T09:36:19Z</time></trkpt><trkpt lat="46.07654542302434" lon="11.112503533154182"><ele>190.33333333333331</ele><time>2026-04-11T09:36:20Z</time></trkpt><trkpt lat="46.07636908707125" lon="11.112528892000459"><ele>189.0</ele><time>2026-04-11T09:36:21Z</time></trkpt><trkpt lat="46.0761921051916" lon="11.112552063940349"><ele>189.0</ele><time>2026-04-11T09:36:22Z</time></trkpt><trkpt lat="46.076010190434715" lon="11.112562630492068"><ele>189.0</ele><time>2026-04-11T09:36:23Z</time></trkpt><trkpt lat="46.07582633171168" lon="11.112562124596346"><ele>189.0</ele><time>2026-04-11T09:36:24Z</time></trkpt><trkpt lat="46.07564369491222" lon="11.11255013228825"><ele>190.33333333333331</ele><time>2026-04-11T09:36:25Z</time></trkpt><trkpt lat="46.07545964054961" lon="11.112526516266676"><ele>191.66666666666666</ele><time>2026-04-11T09:36:26Z</time></trkpt><trkpt lat="46.0752761213872" lon="11.112496902351257"><ele>193.0</ele><time>2026-04-11T09:36:27Z</time></trkpt><trkpt lat="46.075092616738765" lon="11.112458191445462"><ele>217.0</ele><time>2026-04-11T09:36:28Z</time></trkpt><trkpt lat="46.074910150415" lon="11.112403511546617"><ele>241.0</ele><time>2026-04-11T09:36:29Z</time></trkpt><trkpt lat="46.07472686217704" lon="11.112335566482711"><ele>265.0</ele><time>2026-04-11T09:36:30Z</time></trkpt><trkpt lat="46.074547791877315" lon="11.112257620573777"><ele>265.0</ele><time>2026-04-11T09:36:31Z</time></trkpt><trkpt lat="46.07437113223865" lon="11.112170548209646"><ele>265.0</ele><time>2026-04-11T09:36:32Z</time></trkpt><trkpt lat="46.07418610491905" lon="11.112088740310812"><ele>265.0</ele><time>2026-04-11T09:36:33Z</time></trkpt><trkpt lat="46.0740002122682" lon="11.112009817652702"><ele>276.0</ele><time>2026-04-11T09:36:34Z</time></trkpt><trkpt lat="46.07381103633521" lon="11.111931851584833"><ele>287.0</ele><time>2026-04-11T09:36:35.021Z</time></trkpt><trkpt lat="46.07362679033667" lon="11.111855402637016"><ele>298.0</ele><time>2026-04-11T09:36:36.016Z</time></trkpt><trkpt lat="46.07345244348359" lon="11.111746706664047"><ele>298.0</ele><time>2026-04-11T09:36:37.013Z</time></trkpt><trkpt lat="46.07328676908094" lon="11.11161874334975"><ele>298.0</ele><time>2026-04-11T09:36:38.023Z</time></trkpt><trkpt lat="46.073128724245706" lon="11.111485957908881"><ele>298.0</ele><time>2026-04-11T09:36:39.019Z</time></trkpt><trkpt lat="46.071519055279566" lon="11.109697401292005"><ele>197.0</ele><time>2026-04-11T09:36:42.606Z</time></trkpt><trkpt lat="46.06673283972411" lon="11.110918913046932"><ele>196.0</ele><time>2026-04-11T09:37:14.999Z</time></trkpt><trkpt lat="46.06655436825483" lon="11.111032566231232"><ele>195.0</ele><time>2026-04-11T09:37:15.999Z</time></trkpt><trkpt lat="46.06633644079536" lon="11.111042516650876"><ele>194.0</ele><time>2026-04-11T09:37:16.999Z</time></trkpt><trkpt lat="46.066156422337286" lon="11.111109367820383"><ele>194.0</ele><time>2026-04-11T09:37:17.999Z</time></trkpt><trkpt lat="46.065978735124915" lon="11.111174526410558"><ele>194.0</ele><time>2026-04-11T09:37:18.999Z</time></trkpt><trkpt lat="46.06578865385683" lon="11.111238124767889"><ele>194.0</ele><time>2026-04-11T09:37:19.999Z</time></trkpt><trkpt lat="46.065596600804625" lon="11.111323699695948"><ele>191.66666666666669</ele><time>2026-04-11T09:37:20.999Z</time></trkpt><trkpt lat="46.06539642915219" lon="11.111368220618381"><ele>189.33333333333334</ele><time>2026-04-11T09:37:22Z</time></trkpt><trkpt lat="46.06521558403773" lon="11.11138873140703"><ele>187.0</ele><time>2026-04-11T09:37:23Z</time></trkpt><trkpt lat="46.06501788295063" lon="11.111414862626882"><ele>188.33333333333334</ele><time>2026-04-11T09:37:24Z</time></trkpt><trkpt lat="46.064850299254566" lon="11.111419265925283"><ele>189.66666666666666</ele><time>2026-04-11T09:37:25Z</time></trkpt><trkpt lat="46.06467281472593" lon="11.11141055418582"><ele>191.0</ele><time>2026-04-11T09:37:26Z</time></trkpt><trkpt lat="46.06449198439261" lon="11.111376105638296"><ele>191.0</ele><time>2026-04-11T09:37:27Z</time></trkpt><trkpt lat="46.064310220998486" lon="11.111323893120133"><ele>191.0</ele><time>2026-04-11T09:37:28Z</time></trkpt><trkpt lat="46.064137909428666" lon="11.111276641512232"><ele>191.0</ele><time>2026-04-11T09:37:29Z</time></trkpt><trkpt lat="46.063965970548736" lon="11.111230819276493"><ele>190.33333333333331</ele><time>2026-04-11T09:37:30Z</time></trkpt><trkpt lat="46.0637930211965" lon="11.111191313084118"><ele>189.66666666666666</ele><time>2026-04-11T09:37:31Z</time></trkpt><trkpt lat="46.063618523442344" lon="11.111141690245299"><ele>189.0</ele><time>2026-04-11T09:37:32Z</time></trkpt><trkpt lat="46.06344063720645" lon="11.111089732698389"><ele>189.33333333333334</ele><time>2026-04-11T09:37:33Z</time></trkpt><trkpt lat="46.06326392445667" lon="11.111048336417284"><ele>189.66666666666669</ele><time>2026-04-11T09:37:34Z</time></trkpt><trkpt lat="46.06308717137296" lon="11.110998598813646"><ele>190.0</ele><time>2026-04-11T09:37:35Z</time></trkpt><trkpt lat="46.0629052592488" lon="11.11094409584895"><ele>190.0</ele><time>2026-04-11T09:37:36Z</time></trkpt><trkpt lat="46.062721381916155" lon="11.110891341028983"><ele>190.0</ele><time>2026-04-11T09:37:37Z</time></trkpt><trkpt lat="46.06254553999641" lon="11.110846612414486"><ele>190.0</ele><time>2026-04-11T09:37:38Z</time></trkpt><trkpt lat="46.062372280475074" lon="11.110797755536904"><ele>189.66666666666669</ele><time>2026-04-11T09:37:39Z</time></trkpt><trkpt lat="46.06220144026862" lon="11.11076051141491"><ele>189.33333333333334</ele><time>2026-04-11T09:37:40Z</time></trkpt><trkpt lat="46.062036292068704" lon="11.110721241680759"><ele>189.0</ele><time>2026-04-11T09:37:41Z</time></trkpt><trkpt lat="46.0618726911128" lon="11.110666500430142"><ele>191.0</ele><time>2026-04-11T09:37:42Z</time></trkpt><trkpt lat="46.06170435246028" lon="11.110613438688926"><ele>193.0</ele><time>2026-04-11T09:37:43Z</time></trkpt><trkpt lat="46.06152852487218" lon="11.110569535864384"><ele>195.0</ele><time>2026-04-11T09:37:44Z</time></trkpt><trkpt lat="46.061346669305244" lon="11.1105212999961"><ele>195.0</ele><time>2026-04-11T09:37:45Z</time></trkpt><trkpt lat="46.06116256172372" lon="11.110470904802826"><ele>195.0</ele><time>2026-04-11T09:37:46Z</time></trkpt><trkpt lat="46.060978007534835" lon="11.110422458134815"><ele>195.0</ele><time>2026-04-11T09:37:47Z</time></trkpt><trkpt lat="46.060789752934866" lon="11.110369922832215"><ele>194.66666666666669</ele><time>2026-04-11T09:37:48Z</time></trkpt><trkpt lat="46.06059935774393" lon="11.11031812989224"><ele>194.33333333333334</ele><time>2026-04-11T09:37:49Z</time></trkpt><trkpt lat="46.06040967999741" lon="11.11027045596787"><ele>194.0</ele><time>2026-04-11T09:37:50Z</time></trkpt><trkpt lat="46.0602167565076" lon="11.110218714572095"><ele>194.0</ele><time>2026-04-11T09:37:51Z</time></trkpt><trkpt lat="46.060026315159774" lon="11.110165997221923"><ele>194.0</ele><time>2026-04-11T09:37:52Z</time></trkpt><trkpt lat="46.05983666909134" lon="11.110116020318719"><ele>194.0</ele><time>2026-04-11T09:37:53Z</time></trkpt><trkpt lat="46.05964564002939" lon="11.110069314128406"><ele>192.66666666666669</ele><time>2026-04-11T09:37:54Z</time></trkpt><trkpt lat="46.05945680374445" lon="11.110018188385375"><ele>191.33333333333334</ele><time>2026-04-11T09:37:55Z</time></trkpt><trkpt lat="46.05926651759757" lon="11.109966428301632"><ele>190.0</ele><time>2026-04-11T09:37:56Z</time></trkpt><trkpt lat="46.05907715966631" lon="11.109914121070775"><ele>191.33333333333334</ele><time>2026-04-11T09:37:57Z</time></trkpt><trkpt lat="46.05888906991375" lon="11.1098609367281"><ele>192.66666666666669</ele><time>2026-04-11T09:37:58Z</time></trkpt><trkpt lat="46.058701462008855" lon="11.109811447150404"><ele>194.0</ele><time>2026-04-11T09:37:59Z</time></trkpt><trkpt lat="46.0585131884153" lon="11.10976521527202"><ele>194.0</ele><time>2026-04-11T09:38:00Z</time></trkpt><trkpt lat="46.058325341050185" lon="11.109715002558168"><ele>194.0</ele><time>2026-04-11T09:38:01Z</time></trkpt><trkpt lat="46.05813831670214" lon="11.109667022882455"><ele>194.0</ele><time>2026-04-11T09:38:02Z</time></trkpt><trkpt lat="46.05794735567627" lon="11.109614530894119"><ele>193.0</ele><time>2026-04-11T09:38:03Z</time></trkpt><trkpt lat="46.05775804080123" lon="11.109562850795522"><ele>192.0</ele><time>2026-04-11T09:38:04Z</time></trkpt><trkpt lat="46.05756879960374" lon="11.109512570001874"><ele>191.0</ele><time>2026-04-11T09:38:05Z</time></trkpt><trkpt lat="46.05737828326589" lon="11.109458637719829"><ele>191.0</ele><time>2026-04-11T09:38:06Z</time></trkpt><trkpt lat="46.057189432896145" lon="11.109408311680747"><ele>191.0</ele><time>2026-04-11T09:38:07Z</time></trkpt><trkpt lat="46.05699862713775" lon="11.109358258768635"><ele>191.0</ele><time>2026-04-11T09:38:08Z</time></trkpt><trkpt lat="46.056805251051955" lon="11.10930836813841"><ele>190.0</ele><time>2026-04-11T09:38:09Z</time></trkpt><trkpt lat="46.05661354862137" lon="11.10925438567996"><ele>189.0</ele><time>2026-04-11T09:38:10Z</time></trkpt><trkpt lat="46.05642114874689" lon="11.109200518959746"><ele>188.0</ele><time>2026-04-11T09:38:11Z</time></trkpt><trkpt lat="46.05622685804109" lon="11.109150192465393"><ele>188.0</ele><time>2026-04-11T09:38:12Z</time></trkpt><trkpt lat="46.056035189221106" lon="11.10910671708174"><ele>188.0</ele><time>2026-04-11T09:38:13Z</time></trkpt><trkpt lat="46.05584084358972" lon="11.109071006729012"><ele>188.0</ele><time>2026-04-11T09:38:14Z</time></trkpt><trkpt lat="46.05564547684224" lon="11.109047630283998"><ele>187.33333333333331</ele><time>2026-04-11T09:38:15Z</time></trkpt><trkpt lat="46.05545153083445" lon="11.109041235963188"><ele>186.66666666666666</ele><time>2026-04-11T09:38:16Z</time></trkpt><trkpt lat="46.05525781350831" lon="11.109046846232118"><ele>186.0</ele><time>2026-04-11T09:38:17Z</time></trkpt><trkpt lat="46.055063774661726" lon="11.109074744667288"><ele>186.33333333333334</ele><time>2026-04-11T09:38:18Z</time></trkpt><trkpt lat="46.05487588311209" lon="11.10913295765927"><ele>186.66666666666669</ele><time>2026-04-11T09:38:19Z</time></trkpt><trkpt lat="46.0546894798124" lon="11.109205376372463"><ele>187.0</ele><time>2026-04-11T09:38:20Z</time></trkpt><trkpt lat="46.054511764358246" lon="11.109306064822462"><ele>187.0</ele><time>2026-04-11T09:38:21Z</time></trkpt><trkpt lat="46.05433938890996" lon="11.109436371729874"><ele>187.0</ele><time>2026-04-11T09:38:22Z</time></trkpt><trkpt lat="46.05417823263398" lon="11.109583901796107"><ele>187.0</ele><time>2026-04-11T09:38:23Z</time></trkpt><trkpt lat="46.054021251688276" lon="11.109754111648607"><ele>187.66666666666669</ele><time>2026-04-11T09:38:24Z</time></trkpt><trkpt lat="46.053883188244235" lon="11.109945650829077"><ele>188.33333333333334</ele><time>2026-04-11T09:38:25Z</time></trkpt><trkpt lat="46.053751956429096" lon="11.110141473673947"><ele>189.0</ele><time>2026-04-11T09:38:26Z</time></trkpt><trkpt lat="46.053623003070555" lon="11.110343043673055"><ele>189.0</ele><time>2026-04-11T09:38:27Z</time></trkpt><trkpt lat="46.05349712878347" lon="11.110553457771864"><ele>189.0</ele><time>2026-04-11T09:38:28Z</time></trkpt><trkpt lat="46.05336734831399" lon="11.110762326032537"><ele>189.0</ele><time>2026-04-11T09:38:29Z</time></trkpt><trkpt lat="46.05323476461415" lon="11.110966456445352"><ele>189.66666666666666</ele><time>2026-04-11T09:38:30Z</time></trkpt><trkpt lat="46.05310341190201" lon="11.111169470115367"><ele>190.33333333333331</ele><time>2026-04-11T09:38:31Z</time></trkpt><trkpt lat="46.052971508600024" lon="11.111370506620537"><ele>191.0</ele><time>2026-04-11T09:38:32Z</time></trkpt><trkpt lat="46.05284136657451" lon="11.111573638350455"><ele>190.0</ele><time>2026-04-11T09:38:33Z</time></trkpt><trkpt lat="46.05271059994145" lon="11.111776140500789"><ele>189.0</ele><time>2026-04-11T09:38:34Z</time></trkpt><trkpt lat="46.052580463671966" lon="11.111974718946662"><ele>188.0</ele><time>2026-04-11T09:38:35Z</time></trkpt><trkpt lat="46.05245271730589" lon="11.112166206133475"><ele>188.0</ele><time>2026-04-11T09:38:36Z</time></trkpt><trkpt lat="46.052321557001044" lon="11.1123485686152"><ele>188.0</ele><time>2026-04-11T09:38:37Z</time></trkpt><trkpt lat="46.05217215867962" lon="11.112505368994055"><ele>188.0</ele><time>2026-04-11T09:38:37.999Z</time></trkpt><trkpt lat="46.052012633034934" lon="11.112634003313099"><ele>188.0</ele><time>2026-04-11T09:38:38.999Z</time></trkpt><trkpt lat="46.05184133790168" lon="11.112735415430848"><ele>188.0</ele><time>2026-04-11T09:38:39.999Z</time></trkpt><trkpt lat="46.05166331676781" lon="11.112812626089985"><ele>188.0</ele><time>2026-04-11T09:38:40.999Z</time></trkpt><trkpt lat="46.05147955860212" lon="11.112870955867475"><ele>187.33333333333331</ele><time>2026-04-11T09:38:41.999Z</time></trkpt><trkpt lat="46.05129546128145" lon="11.112897565184369"><ele>186.66666666666666</ele><time>2026-04-11T09:38:42.999Z</time></trkpt><trkpt lat="46.05110858180129" lon="11.112894429496542"><ele>186.0</ele><time>2026-04-11T09:38:43.999Z</time></trkpt><trkpt lat="46.05092807793813" lon="11.112865201331518"><ele>186.33333333333334</ele><time>2026-04-11T09:38:44.999Z</time></trkpt><trkpt lat="46.05074747263551" lon="11.112809240380738"><ele>186.66666666666669</ele><time>2026-04-11T09:38:45.999Z</time></trkpt><trkpt lat="46.05057267571942" lon="11.112734358178189"><ele>187.0</ele><time>2026-04-11T09:38:46.999Z</time></trkpt><trkpt lat="46.0503974268823" lon="11.112654176220135"><ele>187.0</ele><time>2026-04-11T09:38:47.999Z</time></trkpt><trkpt lat="46.050226547532766" lon="11.11257978726682"><ele>187.0</ele><time>2026-04-11T09:38:48.999Z</time></trkpt><trkpt lat="46.05005180586102" lon="11.11251680144175"><ele>187.0</ele><time>2026-04-11T09:38:49.999Z</time></trkpt><trkpt lat="46.049874504723675" lon="11.112461625457422"><ele>187.66666666666669</ele><time>2026-04-11T09:38:50.999Z</time></trkpt><trkpt lat="46.049699698380536" lon="11.112420322124914"><ele>188.33333333333334</ele><time>2026-04-11T09:38:51.999Z</time></trkpt><trkpt lat="46.04952000630653" lon="11.112400425903889"><ele>189.0</ele><time>2026-04-11T09:38:52.999Z</time></trkpt><trkpt lat="46.049344797550475" lon="11.112411607655092"><ele>189.0</ele><time>2026-04-11T09:38:53.999Z</time></trkpt><trkpt lat="46.04917159389928" lon="11.11244542143578"><ele>189.0</ele><time>2026-04-11T09:38:54.999Z</time></trkpt><trkpt lat="46.0489981311232" lon="11.11250018064969"><ele>189.0</ele><time>2026-04-11T09:38:55.999Z</time></trkpt><trkpt lat="46.04882888496822" lon="11.112584168051246"><ele>189.0</ele><time>2026-04-11T09:38:56.999Z</time></trkpt><trkpt lat="46.048662642034756" lon="11.112689481111431"><ele>189.0</ele><time>2026-04-11T09:38:57.999Z</time></trkpt><trkpt lat="46.04850024702697" lon="11.112811016629813"><ele>189.0</ele><time>2026-04-11T09:38:58.999Z</time></trkpt><trkpt lat="46.04834214541347" lon="11.112942023895727"><ele>188.66666666666666</ele><time>2026-04-11T09:38:59.999Z</time></trkpt><trkpt lat="46.048186767200946" lon="11.113070146286567"><ele>188.33333333333331</ele><time>2026-04-11T09:39:00.999Z</time></trkpt><trkpt lat="46.0480273569613" lon="11.113193258984012"><ele>188.0</ele><time>2026-04-11T09:39:01.999Z</time></trkpt><trkpt lat="46.04787109333004" lon="11.113312830446933"><ele>188.0</ele><time>2026-04-11T09:39:02.999Z</time></trkpt><trkpt lat="46.04771276854073" lon="11.113427050395655"><ele>188.0</ele><time>2026-04-11T09:39:03.999Z</time></trkpt><trkpt lat="46.047564627942904" lon="11.113550090601164"><ele>188.0</ele><time>2026-04-11T09:39:04.999Z</time></trkpt><trkpt lat="46.04742771141593" lon="11.113687320038352"><ele>188.0</ele><time>2026-04-11T09:39:05.999Z</time></trkpt><trkpt lat="46.04730843131698" lon="11.1138431872406"><ele>188.0</ele><time>2026-04-11T09:39:06.999Z</time></trkpt><trkpt lat="46.047210894410114" lon="11.114017249443966"><ele>188.0</ele><time>2026-04-11T09:39:07.999Z</time></trkpt><trkpt lat="46.047133905405566" lon="11.114206650148114"><ele>188.0</ele><time>2026-04-11T09:39:08.999Z</time></trkpt><trkpt lat="46.0470737467215" lon="11.114408039164006"><ele>188.0</ele><time>2026-04-11T09:39:09.999Z</time></trkpt><trkpt lat="46.04703402883486" lon="11.114616400251847"><ele>188.0</ele><time>2026-04-11T09:39:10.999Z</time></trkpt><trkpt lat="46.04699265238637" lon="11.114816285131345"><ele>188.0</ele><time>2026-04-11T09:39:11.999Z</time></trkpt><trkpt lat="46.04695230579177" lon="11.114993054663362"><ele>187.8</ele><time>2026-04-11T09:39:12.999Z</time></trkpt><trkpt lat="46.046913099533015" lon="11.115147977294194"><ele>187.60000000000002</ele><time>2026-04-11T09:39:13.999Z</time></trkpt><trkpt lat="46.04686380837396" lon="11.115293140560087"><ele>187.39999999999998</ele><time>2026-04-11T09:39:14.999Z</time></trkpt><trkpt lat="46.04680222482088" lon="11.115422141315904"><ele>187.2</ele><time>2026-04-11T09:39:15.999Z</time></trkpt><trkpt lat="46.046730847072496" lon="11.115542603801067"><ele>187.0</ele><time>2026-04-11T09:39:16.999Z</time></trkpt><trkpt lat="46.046653017262415" lon="11.115659789625782"><ele>186.75</ele><time>2026-04-11T09:39:17.999Z</time></trkpt><trkpt lat="46.04656599528028" lon="11.115767288036617"><ele>186.5</ele><time>2026-04-11T09:39:18.999Z</time></trkpt><trkpt lat="46.046472307879675" lon="11.115868028446505"><ele>186.25</ele><time>2026-04-11T09:39:19.999Z</time></trkpt><trkpt lat="46.04637900919566" lon="11.115971022401247"><ele>186.0</ele><time>2026-04-11T09:39:20.999Z</time></trkpt><trkpt lat="46.04628327630026" lon="11.116074439434724"><ele>186.0</ele><time>2026-04-11T09:39:21.999Z</time></trkpt><trkpt lat="46.04618721777173" lon="11.116173660186977"><ele>186.0</ele><time>2026-04-11T09:39:22.999Z</time></trkpt><trkpt lat="46.046093317989055" lon="11.116265398583277"><ele>186.0</ele><time>2026-04-11T09:39:23.999Z</time></trkpt><trkpt lat="46.04599631374946" lon="11.116359610860487"><ele>186.0</ele><time>2026-04-11T09:39:24.999Z</time></trkpt><trkpt lat="46.04589743122415" lon="11.116454886009556"><ele>185.75</ele><time>2026-04-11T09:39:25.999Z</time></trkpt><trkpt lat="46.04579309418108" lon="11.11653858143718"><ele>185.5</ele><time>2026-04-11T09:39:26.999Z</time></trkpt><trkpt lat="46.045682455220295" lon="11.116615672967955"><ele>185.25</ele><time>2026-04-11T09:39:28Z</time></trkpt><trkpt lat="46.04557065630378" lon="11.116681735870976"><ele>185.0</ele><time>2026-04-11T09:39:29Z</time></trkpt><trkpt lat="46.045455577082315" lon="11.116739499373779"><ele>186.0</ele><time>2026-04-11T09:39:30Z</time></trkpt><trkpt lat="46.045337238552186" lon="11.116788211448382"><ele>187.0</ele><time>2026-04-11T09:39:31Z</time></trkpt><trkpt lat="46.045215778524685" lon="11.11682806898501"><ele>188.0</ele><time>2026-04-11T09:39:32Z</time></trkpt><trkpt lat="46.0450885698932" lon="11.116864688959488"><ele>189.0</ele><time>2026-04-11T09:39:33Z</time></trkpt><trkpt lat="46.044948002994" lon="11.116906351653387"><ele>189.66666666666666</ele><time>2026-04-11T09:39:34Z</time></trkpt><trkpt lat="46.044785154083954" lon="11.116954846968778"><ele>190.33333333333331</ele><time>2026-04-11T09:39:35Z</time></trkpt><trkpt lat="46.044611295815045" lon="11.117018564024422"><ele>191.0</ele><time>2026-04-11T09:39:36Z</time></trkpt><trkpt lat="46.044424306470184" lon="11.117098152215235"><ele>191.0</ele><time>2026-04-11T09:39:37Z</time></trkpt><trkpt lat="46.04427571220715" lon="11.117202500273764"><ele>191.0</ele><time>2026-04-11T09:39:38Z</time></trkpt><trkpt lat="46.04414237969516" lon="11.117304725674654"><ele>191.0</ele><time>2026-04-11T09:39:39Z</time></trkpt><trkpt lat="46.04401642858352" lon="11.117425608966881"><ele>190.0</ele><time>2026-04-11T09:39:40Z</time></trkpt><trkpt lat="46.0438915049523" lon="11.117551846650258"><ele>189.0</ele><time>2026-04-11T09:39:41Z</time></trkpt><trkpt lat="46.04377224740513" lon="11.117685937625257"><ele>188.0</ele><time>2026-04-11T09:39:42Z</time></trkpt><trkpt lat="46.04365376395232" lon="11.11781799915639"><ele>188.0</ele><time>2026-04-11T09:39:43Z</time></trkpt><trkpt lat="46.04353572137773" lon="11.117946780872078"><ele>188.0</ele><time>2026-04-11T09:39:44Z</time></trkpt><trkpt lat="46.04341879189992" lon="11.118072931142807"><ele>188.0</ele><time>2026-04-11T09:39:45Z</time></trkpt><trkpt lat="46.043293962771926" lon="11.118199155505055"><ele>188.0</ele><time>2026-04-11T09:39:46Z</time></trkpt><trkpt lat="46.04316387104869" lon="11.118332532633389"><ele>187.66666666666666</ele><time>2026-04-11T09:39:47Z</time></trkpt><trkpt lat="46.043035992690335" lon="11.118459687844425"><ele>187.33333333333334</ele><time>2026-04-11T09:39:48Z</time></trkpt><trkpt lat="46.04291123531014" lon="11.11859779474512"><ele>187.0</ele><time>2026-04-11T09:39:49Z</time></trkpt><trkpt lat="46.04278686506824" lon="11.118738488524796"><ele>187.0</ele><time>2026-04-11T09:39:50Z</time></trkpt><trkpt lat="46.042662400235116" lon="11.11888130408419"><ele>187.0</ele><time>2026-04-11T09:39:51Z</time></trkpt><trkpt lat="46.04253463202328" lon="11.1190188667205"><ele>187.0</ele><time>2026-04-11T09:39:52Z</time></trkpt><trkpt lat="46.042406965196264" lon="11.119158490773563"><ele>188.0</ele><time>2026-04-11T09:39:53Z</time></trkpt><trkpt lat="46.04227854714224" lon="11.119301090553147"><ele>189.0</ele><time>2026-04-11T09:39:54Z</time></trkpt><trkpt lat="46.0421506057704" lon="11.119446103538515"><ele>190.0</ele><time>2026-04-11T09:39:55Z</time></trkpt><trkpt lat="46.042024044098284" lon="11.119590796599182"><ele>190.0</ele><time>2026-04-11T09:39:56Z</time></trkpt><trkpt lat="46.041893332844786" lon="11.119736302250827"><ele>190.0</ele><time>2026-04-11T09:39:57Z</time></trkpt><trkpt lat="46.041762356759435" lon="11.119884379622842"><ele>190.0</ele><time>2026-04-11T09:39:58Z</time></trkpt><trkpt lat="46.041627652007726" lon="11.120033908802927"><ele>188.66666666666669</ele><time>2026-04-11T09:39:59Z</time></trkpt><trkpt lat="46.04149349562065" lon="11.120183313726333"><ele>187.33333333333334</ele><time>2026-04-11T09:40:00Z</time></trkpt><trkpt lat="46.04135786051054" lon="11.1203346984439"><ele>186.0</ele><time>2026-04-11T09:40:01Z</time></trkpt><trkpt lat="46.04122099765081" lon="11.120484827346095"><ele>186.0</ele><time>2026-04-11T09:40:02Z</time></trkpt><trkpt lat="46.04108347841229" lon="11.120633185508375"><ele>186.0</ele><time>2026-04-11T09:40:03Z</time></trkpt><trkpt lat="46.040947562759165" lon="11.1207844535213"><ele>186.0</ele><time>2026-04-11T09:40:04Z</time></trkpt><trkpt lat="46.040812232070515" lon="11.120939049598022"><ele>186.33333333333334</ele><time>2026-04-11T09:40:05Z</time></trkpt><trkpt lat="46.04067618336843" lon="11.121091711413438"><ele>186.66666666666669</ele><time>2026-04-11T09:40:06Z</time></trkpt><trkpt lat="46.04053765179264" lon="11.121243165529174"><ele>187.0</ele><time>2026-04-11T09:40:07Z</time></trkpt><trkpt lat="46.04039975865568" lon="11.121396830862192"><ele>187.0</ele><time>2026-04-11T09:40:08Z</time></trkpt><trkpt lat="46.04026105137604" lon="11.121550238616951"><ele>187.0</ele><time>2026-04-11T09:40:09Z</time></trkpt><trkpt lat="46.040124890486105" lon="11.121703918345"><ele>187.0</ele><time>2026-04-11T09:40:10Z</time></trkpt><trkpt lat="46.03999295045345" lon="11.121863158399393"><ele>185.0</ele><time>2026-04-11T09:40:11Z</time></trkpt><trkpt lat="46.03985766613924" lon="11.122028304853362"><ele>183.0</ele><time>2026-04-11T09:40:12Z</time></trkpt><trkpt lat="46.03971536295501" lon="11.122194770034744"><ele>181.0</ele><time>2026-04-11T09:40:13Z</time></trkpt><trkpt lat="46.03956564210996" lon="11.122356246408232"><ele>181.0</ele><time>2026-04-11T09:40:14Z</time></trkpt><trkpt lat="46.039410336509796" lon="11.122507105324457"><ele>181.0</ele><time>2026-04-11T09:40:15Z</time></trkpt><trkpt lat="46.03925012147925" lon="11.122650147426432"><ele>181.0</ele><time>2026-04-11T09:40:16Z</time></trkpt><trkpt lat="46.03909139676082" lon="11.122789696382712"><ele>181.0</ele><time>2026-04-11T09:40:17Z</time></trkpt><trkpt lat="46.038932757983375" lon="11.122926077642989"><ele>181.0</ele><time>2026-04-11T09:40:18Z</time></trkpt><trkpt lat="46.03877712926417" lon="11.123065166079366"><ele>181.0</ele><time>2026-04-11T09:40:19Z</time></trkpt><trkpt lat="46.038620816551884" lon="11.123207636344333"><ele>181.66666666666669</ele><time>2026-04-11T09:40:20Z</time></trkpt><trkpt lat="46.0384616177471" lon="11.123349105813457"><ele>182.33333333333334</ele><time>2026-04-11T09:40:21Z</time></trkpt><trkpt lat="46.03830106687495" lon="11.123489449889135"><ele>183.0</ele><time>2026-04-11T09:40:22Z</time></trkpt><trkpt lat="46.03814502272097" lon="11.123631302457362"><ele>183.33333333333334</ele><time>2026-04-11T09:40:23Z</time></trkpt><trkpt lat="46.03798829675404" lon="11.123774916576364"><ele>183.66666666666669</ele><time>2026-04-11T09:40:24Z</time></trkpt><trkpt lat="46.03783112613319" lon="11.123917513040213"><ele>184.0</ele><time>2026-04-11T09:40:25Z</time></trkpt><trkpt lat="46.03767278065087" lon="11.124058922396957"><ele>184.33333333333334</ele><time>2026-04-11T09:40:26Z</time></trkpt><trkpt lat="46.037515270051706" lon="11.124199721598401"><ele>184.66666666666666</ele><time>2026-04-11T09:40:27Z</time></trkpt><trkpt lat="46.037357500673416" lon="11.124334349803735"><ele>185.0</ele><time>2026-04-11T09:40:28Z</time></trkpt><trkpt lat="46.037198717324955" lon="11.1244630486929"><ele>185.0</ele><time>2026-04-11T09:40:29Z</time></trkpt><trkpt lat="46.037040022463316" lon="11.124580783552885"><ele>185.0</ele><time>2026-04-11T09:40:30Z</time></trkpt><trkpt lat="46.03688065679653" lon="11.124687023323823"><ele>185.0</ele><time>2026-04-11T09:40:31Z</time></trkpt><trkpt lat="46.036718445858895" lon="11.124783929971457"><ele>185.0</ele><time>2026-04-11T09:40:32Z</time></trkpt><trkpt lat="46.03654830048075" lon="11.124870362848124"><ele>185.0</ele><time>2026-04-11T09:40:33Z</time></trkpt><trkpt lat="46.036379524187176" lon="11.124930464676938"><ele>185.0</ele><time>2026-04-11T09:40:34Z</time></trkpt><trkpt lat="46.03621955788124" lon="11.12497500778209"><ele>185.33333333333331</ele><time>2026-04-11T09:40:35Z</time></trkpt><trkpt lat="46.036065716142524" lon="11.125019015628107"><ele>185.66666666666666</ele><time>2026-04-11T09:40:36Z</time></trkpt><trkpt lat="46.03591280209383" lon="11.125052979545728"><ele>186.0</ele><time>2026-04-11T09:40:37Z</time></trkpt><trkpt lat="46.035768340310746" lon="11.125093528238953"><ele>186.0</ele><time>2026-04-11T09:40:38Z</time></trkpt><trkpt lat="46.03563312243176" lon="11.125139582351842"><ele>186.0</ele><time>2026-04-11T09:40:38.999Z</time></trkpt><trkpt lat="46.03550993823111" lon="11.125198004732027"><ele>186.0</ele><time>2026-04-11T09:40:39.999Z</time></trkpt><trkpt lat="46.0354058153559" lon="11.125254709008306"><ele>186.0</ele><time>2026-04-11T09:40:40.999Z</time></trkpt><trkpt lat="46.03530984031399" lon="11.125301091293952"><ele>186.0</ele><time>2026-04-11T09:40:41.999Z</time></trkpt><trkpt lat="46.03522003803557" lon="11.125334983922727"><ele>186.0</ele><time>2026-04-11T09:40:42.999Z</time></trkpt><trkpt lat="46.03513250129083" lon="11.125347808957153"><ele>186.0</ele><time>2026-04-11T09:40:43.999Z</time></trkpt><trkpt lat="46.03505102950232" lon="11.125325333371498"><ele>186.0</ele><time>2026-04-11T09:40:44.999Z</time></trkpt><trkpt lat="46.034959852044054" lon="11.125258016676849"><ele>186.0</ele><time>2026-04-11T09:40:45.999Z</time></trkpt><trkpt lat="46.03485428874791" lon="11.125227200683051"><ele>186.0</ele><time>2026-04-11T09:40:46.999Z</time></trkpt><trkpt lat="46.034793270092734" lon="11.125054095085893"><ele>186.0</ele><time>2026-04-11T09:40:47.999Z</time></trkpt><trkpt lat="46.03473600695539" lon="11.124913507429351"><ele>186.0</ele><time>2026-04-11T09:40:48.999Z</time></trkpt><trkpt lat="46.0347081955914" lon="11.124748640738575"><ele>186.0</ele><time>2026-04-11T09:40:49.999Z</time></trkpt><trkpt lat="46.03471281696836" lon="11.124572908237834"><ele>185.75</ele><time>2026-04-11T09:40:50.999Z</time></trkpt><trkpt lat="46.03472362376521" lon="11.1243918558004"><ele>185.5</ele><time>2026-04-11T09:40:51.999Z</time></trkpt><trkpt lat="46.034743027789894" lon="11.12420679459503"><ele>185.25</ele><time>2026-04-11T09:40:52.999Z</time></trkpt><trkpt lat="46.034768055486595" lon="11.124020698504742"><ele>185.0</ele><time>2026-04-11T09:40:53.999Z</time></trkpt><trkpt lat="46.0347960000962" lon="11.1238379736814"><ele>185.0</ele><time>2026-04-11T09:40:54.999Z</time></trkpt><trkpt lat="46.03483157810124" lon="11.123652961226876"><ele>185.0</ele><time>2026-04-11T09:40:55.999Z</time></trkpt><trkpt lat="46.034868686154425" lon="11.12346626112301"><ele>185.0</ele><time>2026-04-11T09:40:56.999Z</time></trkpt><trkpt lat="46.03490817129764" lon="11.123274580609166"><ele>185.0</ele><time>2026-04-11T09:40:57.999Z</time></trkpt><trkpt lat="46.03494676985359" lon="11.123082483502762"><ele>185.0</ele><time>2026-04-11T09:40:58.999Z</time></trkpt><trkpt lat="46.03498273068441" lon="11.122902491483755"><ele>185.0</ele><time>2026-04-11T09:40:59.999Z</time></trkpt><trkpt lat="46.035013270414275" lon="11.122743966048542"><ele>185.0</ele><time>2026-04-11T09:41:00.999Z</time></trkpt><trkpt lat="46.03503961486143" lon="11.122603650124873"><ele>185.0</ele><time>2026-04-11T09:41:01.999Z</time></trkpt><trkpt lat="46.03506482507771" lon="11.122481123935897"><ele>185.0</ele><time>2026-04-11T09:41:02.999Z</time></trkpt><trkpt lat="46.03508491200194" lon="11.122359321517276"><ele>185.16666666666666</ele><time>2026-04-11T09:41:03.999Z</time></trkpt><trkpt lat="46.03511561946061" lon="11.122241384396414"><ele>185.33333333333331</ele><time>2026-04-11T09:41:04.999Z</time></trkpt><trkpt lat="46.035163819292954" lon="11.122134732089487"><ele>185.5</ele><time>2026-04-11T09:41:05.999Z</time></trkpt><trkpt lat="46.035229508522974" lon="11.122057524980034"><ele>185.66666666666666</ele><time>2026-04-11T09:41:06.999Z</time></trkpt><trkpt lat="46.03529403028861" lon="11.12198921605259"><ele>185.83333333333334</ele><time>2026-04-11T09:41:07.999Z</time></trkpt><trkpt lat="46.03533976122347" lon="11.121895750991744"><ele>186.0</ele><time>2026-04-11T09:41:08.999Z</time></trkpt><trkpt lat="46.03536838205269" lon="11.121783027483856"><ele>186.0</ele><time>2026-04-11T09:41:09.999Z</time></trkpt><trkpt lat="46.03537317580504" lon="11.1216594633823"><ele>186.0</ele><time>2026-04-11T09:41:10.999Z</time></trkpt><trkpt lat="46.035359200877444" lon="11.121532112310764"><ele>186.0</ele><time>2026-04-11T09:41:11.999Z</time></trkpt><trkpt lat="46.03527983244793" lon="11.121455286432074"><ele>186.0</ele><time>2026-04-11T09:41:12.999Z</time></trkpt><trkpt lat="46.03520595420282" lon="11.121372290399986"><ele>186.0</ele><time>2026-04-11T09:41:13.999Z</time></trkpt><trkpt lat="46.03523081493579" lon="11.121116410590918"><ele>186.0</ele><time>2026-04-11T09:41:14.999Z</time></trkpt><trkpt lat="46.035175930211324" lon="11.120955474061264"><ele>186.0</ele><time>2026-04-11T09:41:15.999Z</time></trkpt><trkpt lat="46.035131708685824" lon="11.120785899610794"><ele>186.0</ele><time>2026-04-11T09:41:16.999Z</time></trkpt><trkpt lat="46.03509719399485" lon="11.120613421126931"><ele>186.0</ele><time>2026-04-11T09:41:17.999Z</time></trkpt><trkpt lat="46.03506875037413" lon="11.120436888760254"><ele>185.25</ele><time>2026-04-11T09:41:18.999Z</time></trkpt><trkpt lat="46.035038008436004" lon="11.120261100834785"><ele>184.5</ele><time>2026-04-11T09:41:19.999Z</time></trkpt><trkpt lat="46.03500877243471" lon="11.12008287622352"><ele>183.75</ele><time>2026-04-11T09:41:20.999Z</time></trkpt><trkpt lat="46.034978574955666" lon="11.11990294441724"><ele>183.0</ele><time>2026-04-11T09:41:21.999Z</time></trkpt><trkpt lat="46.034946282738595" lon="11.119723424054033"><ele>182.75</ele><time>2026-04-11T09:41:22.999Z</time></trkpt><trkpt lat="46.034912313972114" lon="11.119537635869028"><ele>182.5</ele><time>2026-04-11T09:41:23.999Z</time></trkpt><trkpt lat="46.03487923983854" lon="11.1193532432346"><ele>182.25</ele><time>2026-04-11T09:41:24.999Z</time></trkpt><trkpt lat="46.03484015261445" lon="11.119175470810795"><ele>182.0</ele><time>2026-04-11T09:41:25.999Z</time></trkpt><trkpt lat="46.034791296511344" lon="11.11900400228455"><ele>183.0</ele><time>2026-04-11T09:41:26.999Z</time></trkpt><trkpt lat="46.03473682069727" lon="11.118830044688249"><ele>184.0</ele><time>2026-04-11T09:41:27.999Z</time></trkpt><trkpt lat="46.03467589929783" lon="11.118664724344589"><ele>185.0</ele><time>2026-04-11T09:41:28.999Z</time></trkpt><trkpt lat="46.03460481199445" lon="11.118504908707825"><ele>186.0</ele><time>2026-04-11T09:41:29.999Z</time></trkpt><trkpt lat="46.034522957857355" lon="11.118358220606861"><ele>185.5</ele><time>2026-04-11T09:41:30.999Z</time></trkpt><trkpt lat="46.03443127389457" lon="11.118223443759705"><ele>185.0</ele><time>2026-04-11T09:41:31.999Z</time></trkpt><trkpt lat="46.034334643484385" lon="11.118097065885774"><ele>184.5</ele><time>2026-04-11T09:41:32.999Z</time></trkpt><trkpt lat="46.03423238853462" lon="11.117980048496078"><ele>184.0</ele><time>2026-04-11T09:41:34Z</time></trkpt><trkpt lat="46.03412693491754" lon="11.11787023060517"><ele>184.0</ele><time>2026-04-11T09:41:35Z</time></trkpt><trkpt lat="46.03401693401621" lon="11.117766905060998"><ele>184.0</ele><time>2026-04-11T09:41:36Z</time></trkpt><trkpt lat="46.03390801216199" lon="11.117659222576158"><ele>184.0</ele><time>2026-04-11T09:41:37Z</time></trkpt><trkpt lat="46.03379804985423" lon="11.117555998529337"><ele>184.0</ele><time>2026-04-11T09:41:38Z</time></trkpt><trkpt lat="46.03368411366138" lon="11.117457183500216"><ele>183.75</ele><time>2026-04-11T09:41:39Z</time></trkpt><trkpt lat="46.033571418303566" lon="11.11736040765893"><ele>183.5</ele><time>2026-04-11T09:41:40Z</time></trkpt><trkpt lat="46.03346047812697" lon="11.11725789697668"><ele>183.25</ele><time>2026-04-11T09:41:41Z</time></trkpt><trkpt lat="46.03335319602111" lon="11.117151008782422"><ele>183.0</ele><time>2026-04-11T09:41:42Z</time></trkpt><trkpt lat="46.0332511500807" lon="11.117029914436438"><ele>183.0</ele><time>2026-04-11T09:41:43Z</time></trkpt><trkpt lat="46.033161977721484" lon="11.116898380670492"><ele>183.0</ele><time>2026-04-11T09:41:44Z</time></trkpt><trkpt lat="46.03308672375146" lon="11.116751875162317"><ele>183.0</ele><time>2026-04-11T09:41:45Z</time></trkpt><trkpt lat="46.03302475674586" lon="11.116593864337416"><ele>183.0</ele><time>2026-04-11T09:41:46Z</time></trkpt><trkpt lat="46.032974113185425" lon="11.116423621066577"><ele>184.25</ele><time>2026-04-11T09:41:47Z</time></trkpt><trkpt lat="46.032938846990774" lon="11.116240388177447"><ele>185.5</ele><time>2026-04-11T09:41:48Z</time></trkpt><trkpt lat="46.0329232477069" lon="11.116052202185267"><ele>186.75</ele><time>2026-04-11T09:41:49Z</time></trkpt><trkpt lat="46.032922306224606" lon="11.115861297604235"><ele>188.0</ele><time>2026-04-11T09:41:50Z</time></trkpt><trkpt lat="46.032936793556665" lon="11.115673061191169"><ele>188.75</ele><time>2026-04-11T09:41:51Z</time></trkpt><trkpt lat="46.03296836650211" lon="11.115488353164624"><ele>189.5</ele><time>2026-04-11T09:41:52Z</time></trkpt><trkpt lat="46.03301495520176" lon="11.115307752191717"><ele>190.25</ele><time>2026-04-11T09:41:53Z</time></trkpt><trkpt lat="46.03308155819787" lon="11.11513875743535"><ele>191.0</ele><time>2026-04-11T09:41:54Z</time></trkpt><trkpt lat="46.033162628389285" lon="11.114978735624664"><ele>191.75</ele><time>2026-04-11T09:41:55Z</time></trkpt><trkpt lat="46.0332572611084" lon="11.114830687116905"><ele>192.5</ele><time>2026-04-11T09:41:56Z</time></trkpt><trkpt lat="46.03336193062736" lon="11.114695465500132"><ele>193.25</ele><time>2026-04-11T09:41:57Z</time></trkpt><trkpt lat="46.03347021894603" lon="11.1145757852408"><ele>194.0</ele><time>2026-04-11T09:41:58Z</time></trkpt><trkpt lat="46.03357730025495" lon="11.114463904473334"><ele>194.0</ele><time>2026-04-11T09:41:59Z</time></trkpt><trkpt lat="46.03367764586262" lon="11.114359028441443"><ele>194.0</ele><time>2026-04-11T09:42:00Z</time></trkpt><trkpt lat="46.03376916778191" lon="11.114267703747068"><ele>194.0</ele><time>2026-04-11T09:42:01Z</time></trkpt><trkpt lat="46.03385027118377" lon="11.11420123676513"><ele>194.0</ele><time>2026-04-11T09:42:02Z</time></trkpt><trkpt lat="46.03392123366791" lon="11.114156426944685"><ele>194.0</ele><time>2026-04-11T09:42:03Z</time></trkpt><trkpt lat="46.033997428888334" lon="11.11413887059066"><ele>194.0</ele><time>2026-04-11T09:42:04Z</time></trkpt><trkpt lat="46.034090479351974" lon="11.114142759295346"><ele>194.0</ele><time>2026-04-11T09:42:05Z</time></trkpt><trkpt lat="46.03417937593382" lon="11.114135056497016"><ele>194.0</ele><time>2026-04-11T09:42:06Z</time></trkpt><trkpt lat="46.034260450016475" lon="11.114105100429885"><ele>194.0</ele><time>2026-04-11T09:42:07Z</time></trkpt><trkpt lat="46.03430094552319" lon="11.11397441467281"><ele>194.0</ele><time>2026-04-11T09:42:08Z</time></trkpt><trkpt lat="46.03431016482089" lon="11.113846551194124"><ele>194.6</ele><time>2026-04-11T09:42:09Z</time></trkpt><trkpt lat="46.034306756670986" lon="11.113723482097733"><ele>195.2</ele><time>2026-04-11T09:42:10Z</time></trkpt><trkpt lat="46.03422735967353" lon="11.113619369745892"><ele>195.79999999999998</ele><time>2026-04-11T09:42:11Z</time></trkpt><trkpt lat="46.034147052354896" lon="11.113554029012185"><ele>196.39999999999998</ele><time>2026-04-11T09:42:12Z</time></trkpt><trkpt lat="46.03405476086344" lon="11.113512075596475"><ele>197.0</ele><time>2026-04-11T09:42:13Z</time></trkpt><trkpt lat="46.03395289115597" lon="11.1134748695594"><ele>197.0</ele><time>2026-04-11T09:42:14Z</time></trkpt><trkpt lat="46.03383965001427" lon="11.113458006964471"><ele>197.0</ele><time>2026-04-11T09:42:15Z</time></trkpt><trkpt lat="46.0337225482796" lon="11.1133692486293"><ele>197.0</ele><time>2026-04-11T09:42:16Z</time></trkpt><trkpt lat="46.03360118090056" lon="11.113313779801189"><ele>197.0</ele><time>2026-04-11T09:42:17Z</time></trkpt><trkpt lat="46.03348183077667" lon="11.113255707087934"><ele>197.39999999999998</ele><time>2026-04-11T09:42:18Z</time></trkpt><trkpt lat="46.0333627087507" lon="11.113198810164999"><ele>197.79999999999998</ele><time>2026-04-11T09:42:19Z</time></trkpt><trkpt lat="46.033247970804666" lon="11.113147184034675"><ele>198.2</ele><time>2026-04-11T09:42:20Z</time></trkpt><trkpt lat="46.03314720525519" lon="11.113098318535666"><ele>198.6</ele><time>2026-04-11T09:42:21Z</time></trkpt><trkpt lat="46.033054930902345" lon="11.113057483669976"><ele>199.0</ele><time>2026-04-11T09:42:22Z</time></trkpt><trkpt lat="46.03297704099277" lon="11.113023310745461"><ele>199.0</ele><time>2026-04-11T09:42:23Z</time></trkpt><trkpt lat="46.03289460319104" lon="11.112970799155278"><ele>199.0</ele><time>2026-04-11T09:42:25Z</time></trkpt><trkpt lat="46.03280777979284" lon="11.112959249083778"><ele>199.0</ele><time>2026-04-11T09:43:42Z</time></trkpt><trkpt lat="46.032668126843156" lon="11.112909698077774"><ele>199.0</ele><time>2026-04-11T09:43:44Z</time></trkpt><trkpt lat="46.032568253718786" lon="11.11286226022042"><ele>199.0</ele><time>2026-04-11T09:43:45Z</time></trkpt><trkpt lat="46.032456177453405" lon="11.112805877535244"><ele>197.25</ele><time>2026-04-11T09:43:46Z</time></trkpt><trkpt lat="46.032328238057396" lon="11.112744186194432"><ele>195.5</ele><time>2026-04-11T09:43:47Z</time></trkpt><trkpt lat="46.032192343594104" lon="11.112684056390679"><ele>193.75</ele><time>2026-04-11T09:43:48Z</time></trkpt><trkpt lat="46.0320563609523" lon="11.112618179731115"><ele>192.0</ele><time>2026-04-11T09:43:49Z</time></trkpt><trkpt lat="46.0319161941339" lon="11.112550673237852"><ele>192.0</ele><time>2026-04-11T09:43:50Z</time></trkpt><trkpt lat="46.03177172323152" lon="11.112482295437383"><ele>192.0</ele><time>2026-04-11T09:43:51Z</time></trkpt><trkpt lat="46.031624970801744" lon="11.112412951530791"><ele>192.0</ele><time>2026-04-11T09:43:52Z</time></trkpt><trkpt lat="46.031479651721305" lon="11.112339680675474"><ele>190.33333333333334</ele><time>2026-04-11T09:43:53Z</time></trkpt><trkpt lat="46.03133383121884" lon="11.112267620869654"><ele>188.66666666666669</ele><time>2026-04-11T09:43:54Z</time></trkpt><trkpt lat="46.0311757037839" lon="11.112201942897352"><ele>187.0</ele><time>2026-04-11T09:43:55Z</time></trkpt><trkpt lat="46.03102067830119" lon="11.112135613371334"><ele>187.0</ele><time>2026-04-11T09:43:56Z</time></trkpt><trkpt lat="46.03086510111978" lon="11.11206754039824"><ele>187.0</ele><time>2026-04-11T09:43:57Z</time></trkpt><trkpt lat="46.03070860689984" lon="11.111997399155191"><ele>187.0</ele><time>2026-04-11T09:43:58Z</time></trkpt><trkpt lat="46.03054996723749" lon="11.111931635028686"><ele>186.33333333333334</ele><time>2026-04-11T09:43:59Z</time></trkpt><trkpt lat="46.030368916685326" lon="11.111861295539832"><ele>185.66666666666666</ele><time>2026-04-11T09:44:00Z</time></trkpt><trkpt lat="46.03017122748092" lon="11.111793787681949"><ele>185.0</ele><time>2026-04-11T09:44:01Z</time></trkpt><trkpt lat="46.02997129211437" lon="11.11174245489538"><ele>185.0</ele><time>2026-04-11T09:44:02Z</time></trkpt><trkpt lat="46.02976871342588" lon="11.111709996880418"><ele>185.0</ele><time>2026-04-11T09:44:03Z</time></trkpt><trkpt lat="46.029563114021045" lon="11.111683299274798"><ele>185.0</ele><time>2026-04-11T09:44:04Z</time></trkpt><trkpt lat="46.02935696401478" lon="11.111657810750701"><ele>185.0</ele><time>2026-04-11T09:44:05Z</time></trkpt><trkpt lat="46.02914991853551" lon="11.111641338754858"><ele>185.0</ele><time>2026-04-11T09:44:06Z</time></trkpt><trkpt lat="46.0289441446431" lon="11.111628755144316"><ele>185.0</ele><time>2026-04-11T09:44:07Z</time></trkpt><trkpt lat="46.02873904955784" lon="11.111612910500716"><ele>185.66666666666666</ele><time>2026-04-11T09:44:08Z</time></trkpt><trkpt lat="46.02853497002448" lon="11.111600375039"><ele>186.33333333333334</ele><time>2026-04-11T09:44:09Z</time></trkpt><trkpt lat="46.02833438230034" lon="11.111586978930077"><ele>187.0</ele><time>2026-04-11T09:44:10Z</time></trkpt><trkpt lat="46.028114565011954" lon="11.11157057463986"><ele>194.0</ele><time>2026-04-11T09:44:11Z</time></trkpt><trkpt lat="46.02788614935017" lon="11.1115584472219"><ele>201.0</ele><time>2026-04-11T09:44:12Z</time></trkpt><trkpt lat="46.027729493926756" lon="11.111541260219521"><ele>208.0</ele><time>2026-04-11T09:44:13Z</time></trkpt><trkpt lat="46.02753007019066" lon="11.11153500469456"><ele>209.33333333333331</ele><time>2026-04-11T09:44:14Z</time></trkpt><trkpt lat="46.02732640519776" lon="11.111523629894494"><ele>210.66666666666669</ele><time>2026-04-11T09:44:15Z</time></trkpt><trkpt lat="46.02712745337562" lon="11.111512720008555"><ele>212.0</ele><time>2026-04-11T09:44:16Z</time></trkpt><trkpt lat="46.026930563324164" lon="11.111499395504488"><ele>212.0</ele><time>2026-04-11T09:44:17Z</time></trkpt><trkpt lat="46.026733283167516" lon="11.111486851113193"><ele>212.0</ele><time>2026-04-11T09:44:18Z</time></trkpt><trkpt lat="46.026538096888764" lon="11.111475091653691"><ele>212.0</ele><time>2026-04-11T09:44:19Z</time></trkpt><trkpt lat="46.02634073593971" lon="11.111471741927797"><ele>212.0</ele><time>2026-04-11T09:44:20Z</time></trkpt><trkpt lat="46.02614210881521" lon="11.111469241965281"><ele>212.0</ele><time>2026-04-11T09:44:21Z</time></trkpt><trkpt lat="46.02594242305027" lon="11.11147552532647"><ele>212.0</ele><time>2026-04-11T09:44:22Z</time></trkpt><trkpt lat="46.02574160718164" lon="11.111498156997152"><ele>205.33333333333334</ele><time>2026-04-11T09:44:23Z</time></trkpt><trkpt lat="46.02554316201725" lon="11.111521632895174"><ele>198.66666666666669</ele><time>2026-04-11T09:44:24Z</time></trkpt><trkpt lat="46.025345418776894" lon="11.111550530203651"><ele>192.0</ele><time>2026-04-11T09:44:25Z</time></trkpt><trkpt lat="46.025146229816364" lon="11.111583228148634"><ele>195.33333333333331</ele><time>2026-04-11T09:44:26Z</time></trkpt><trkpt lat="46.02494573899725" lon="11.111624050590583"><ele>198.66666666666666</ele><time>2026-04-11T09:44:27Z</time></trkpt><trkpt lat="46.02474566788092" lon="11.111660056517318"><ele>202.0</ele><time>2026-04-11T09:44:28Z</time></trkpt><trkpt lat="46.02454586806055" lon="11.111691799129876"><ele>202.0</ele><time>2026-04-11T09:44:29Z</time></trkpt><trkpt lat="46.024343834223" lon="11.111724672456607"><ele>202.0</ele><time>2026-04-11T09:44:30Z</time></trkpt><trkpt lat="46.02414094499034" lon="11.111758562482233"><ele>202.0</ele><time>2026-04-11T09:44:31Z</time></trkpt><trkpt lat="46.02394240853412" lon="11.111803420635976"><ele>204.0</ele><time>2026-04-11T09:44:32Z</time></trkpt><trkpt lat="46.02374373418576" lon="11.11184407319699"><ele>206.0</ele><time>2026-04-11T09:44:33Z</time></trkpt><trkpt lat="46.02354461008685" lon="11.111876335900876"><ele>208.0</ele><time>2026-04-11T09:44:34Z</time></trkpt><trkpt lat="46.0233402458075" lon="11.111907302993895"><ele>207.0</ele><time>2026-04-11T09:44:35Z</time></trkpt><trkpt lat="46.02311958867928" lon="11.111900504401616"><ele>206.0</ele><time>2026-04-11T09:44:36Z</time></trkpt><trkpt lat="46.02294308864721" lon="11.11196523055043"><ele>205.0</ele><time>2026-04-11T09:44:37Z</time></trkpt><trkpt lat="46.0227369752104" lon="11.111992468115607"><ele>205.0</ele><time>2026-04-11T09:44:38Z</time></trkpt><trkpt lat="46.02253574155815" lon="11.111997076701869"><ele>205.0</ele><time>2026-04-11T09:44:39Z</time></trkpt><trkpt lat="46.02233412337154" lon="11.111984343472473"><ele>205.0</ele><time>2026-04-11T09:44:40Z</time></trkpt><trkpt lat="46.02213347753494" lon="11.111959038934097"><ele>200.0</ele><time>2026-04-11T09:44:41Z</time></trkpt><trkpt lat="46.021940090592764" lon="11.11191862748316"><ele>195.0</ele><time>2026-04-11T09:44:42Z</time></trkpt><trkpt lat="46.02176233320241" lon="11.111870028970577"><ele>190.0</ele><time>2026-04-11T09:44:43Z</time></trkpt><trkpt lat="46.021606128806276" lon="11.111818791482001"><ele>188.25</ele><time>2026-04-11T09:44:44Z</time></trkpt><trkpt lat="46.021469789340166" lon="11.11176367314197"><ele>186.5</ele><time>2026-04-11T09:44:45Z</time></trkpt><trkpt lat="46.021354857764216" lon="11.111703861149735"><ele>184.75</ele><time>2026-04-11T09:44:46Z</time></trkpt><trkpt lat="46.02125239966476" lon="11.111630645530864"><ele>183.0</ele><time>2026-04-11T09:44:46.999Z</time></trkpt><trkpt lat="46.02118216544459" lon="11.111529669598099"><ele>182.75</ele><time>2026-04-11T09:44:47.999Z</time></trkpt><trkpt lat="46.021121425399855" lon="11.11139903479833"><ele>182.5</ele><time>2026-04-11T09:44:48.999Z</time></trkpt><trkpt lat="46.02103352518221" lon="11.111284151282666"><ele>182.25</ele><time>2026-04-11T09:44:49.999Z</time></trkpt><trkpt lat="46.02091645833215" lon="11.11121883740424"><ele>182.0</ele><time>2026-04-11T09:44:50.999Z</time></trkpt><trkpt lat="46.02079124436737" lon="11.1112103936025"><ele>182.0</ele><time>2026-04-11T09:44:51.999Z</time></trkpt><trkpt lat="46.020674194833646" lon="11.111258458048079"><ele>182.0</ele><time>2026-04-11T09:44:52.999Z</time></trkpt><trkpt lat="46.02059715044416" lon="11.111373505677019"><ele>182.0</ele><time>2026-04-11T09:44:53.999Z</time></trkpt><trkpt lat="46.020457903734055" lon="11.111155068212692"><ele>182.0</ele><time>2026-04-11T09:44:54.999Z</time></trkpt><trkpt lat="46.02032159828044" lon="11.111057522798584"><ele>182.0</ele><time>2026-04-11T09:44:55.999Z</time></trkpt><trkpt lat="46.020175576119584" lon="11.110934013862138"><ele>182.0</ele><time>2026-04-11T09:44:56.999Z</time></trkpt><trkpt lat="46.02001693599615" lon="11.11081782104206"><ele>182.0</ele><time>2026-04-11T09:44:57.999Z</time></trkpt><trkpt lat="46.01986128645627" lon="11.110697330255276"><ele>182.33333333333331</ele><time>2026-04-11T09:44:58.999Z</time></trkpt><trkpt lat="46.01970631242617" lon="11.11057918445601"><ele>182.66666666666666</ele><time>2026-04-11T09:44:59.999Z</time></trkpt><trkpt lat="46.01954870234933" lon="11.110460441902799"><ele>183.0</ele><time>2026-04-11T09:45:00.999Z</time></trkpt><trkpt lat="46.019389360505045" lon="11.110341497259682"><ele>183.0</ele><time>2026-04-11T09:45:01.999Z</time></trkpt><trkpt lat="46.019227899482615" lon="11.110221399876897"><ele>183.0</ele><time>2026-04-11T09:45:02.999Z</time></trkpt><trkpt lat="46.01906660417522" lon="11.110099442239202"><ele>183.0</ele><time>2026-04-11T09:45:03.999Z</time></trkpt><trkpt lat="46.01890996247509" lon="11.109980510059351"><ele>183.33333333333334</ele><time>2026-04-11T09:45:04.999Z</time></trkpt><trkpt lat="46.018757125082445" lon="11.109862344106734"><ele>183.66666666666669</ele><time>2026-04-11T09:45:05.999Z</time></trkpt><trkpt lat="46.0186067646533" lon="11.1097483732789"><ele>184.0</ele><time>2026-04-11T09:45:06.999Z</time></trkpt><trkpt lat="46.01845657429161" lon="11.109635130200898"><ele>183.33333333333334</ele><time>2026-04-11T09:45:07.999Z</time></trkpt><trkpt lat="46.01830765038761" lon="11.109522319175365"><ele>182.66666666666666</ele><time>2026-04-11T09:45:08.999Z</time></trkpt><trkpt lat="46.01816045302901" lon="11.10940859110124"><ele>182.0</ele><time>2026-04-11T09:45:09.999Z</time></trkpt><trkpt lat="46.01801198073413" lon="11.109294188845187"><ele>182.0</ele><time>2026-04-11T09:45:10.999Z</time></trkpt><trkpt lat="46.01786244645579" lon="11.10918481157773"><ele>182.0</ele><time>2026-04-11T09:45:11.999Z</time></trkpt><trkpt lat="46.01771049635035" lon="11.109071434735114"><ele>182.0</ele><time>2026-04-11T09:45:12.999Z</time></trkpt><trkpt lat="46.01756215689062" lon="11.108954481233917"><ele>182.33333333333331</ele><time>2026-04-11T09:45:13.999Z</time></trkpt><trkpt lat="46.01741168635278" lon="11.10884391015566"><ele>182.66666666666666</ele><time>2026-04-11T09:45:14.999Z</time></trkpt><trkpt lat="46.01726427255265" lon="11.10873210747027"><ele>183.0</ele><time>2026-04-11T09:45:15.999Z</time></trkpt><trkpt lat="46.01711777242229" lon="11.108617636824173"><ele>183.0</ele><time>2026-04-11T09:45:16.999Z</time></trkpt><trkpt lat="46.01697266203986" lon="11.108503276133177"><ele>183.0</ele><time>2026-04-11T09:45:17.999Z</time></trkpt><trkpt lat="46.01682805213456" lon="11.108389945099193"><ele>183.0</ele><time>2026-04-11T09:45:18.999Z</time></trkpt><trkpt lat="46.01668599539826" lon="11.10828023396388"><ele>184.0</ele><time>2026-04-11T09:45:19.999Z</time></trkpt><trkpt lat="46.01654807376078" lon="11.108174791214461"><ele>185.0</ele><time>2026-04-11T09:45:20.999Z</time></trkpt><trkpt lat="46.01640982917898" lon="11.10806969091913"><ele>186.0</ele><time>2026-04-11T09:45:21.999Z</time></trkpt><trkpt lat="46.0162697812948" lon="11.107962157382119"><ele>186.0</ele><time>2026-04-11T09:45:22.999Z</time></trkpt><trkpt lat="46.01612765911515" lon="11.107852547538386"><ele>186.0</ele><time>2026-04-11T09:45:23.999Z</time></trkpt><trkpt lat="46.01598502545604" lon="11.107743631676232"><ele>186.0</ele><time>2026-04-11T09:45:24.999Z</time></trkpt><trkpt lat="46.01584292150579" lon="11.107632980549962"><ele>185.66666666666666</ele><time>2026-04-11T09:45:25.999Z</time></trkpt><trkpt lat="46.015701453309035" lon="11.107522250110613"><ele>185.33333333333331</ele><time>2026-04-11T09:45:26.999Z</time></trkpt><trkpt lat="46.015559511581536" lon="11.107413924054876"><ele>185.0</ele><time>2026-04-11T09:45:27.999Z</time></trkpt><trkpt lat="46.0154168979151" lon="11.10730529683471"><ele>185.0</ele><time>2026-04-11T09:45:28.999Z</time></trkpt><trkpt lat="46.01527391225343" lon="11.107198566338646"><ele>185.0</ele><time>2026-04-11T09:45:29.999Z</time></trkpt><trkpt lat="46.01513464699543" lon="11.10708944628806"><ele>185.0</ele><time>2026-04-11T09:45:30.999Z</time></trkpt><trkpt lat="46.01499261374507" lon="11.106978812552352"><ele>184.66666666666666</ele><time>2026-04-11T09:45:31.999Z</time></trkpt><trkpt lat="46.01484673995444" lon="11.106871062536179"><ele>184.33333333333334</ele><time>2026-04-11T09:45:32.999Z</time></trkpt><trkpt lat="46.01470197712627" lon="11.106761847954635"><ele>184.0</ele><time>2026-04-11T09:45:33.999Z</time></trkpt><trkpt lat="46.01455906924312" lon="11.106653026968665"><ele>184.33333333333334</ele><time>2026-04-11T09:45:34.999Z</time></trkpt><trkpt lat="46.0144150830821" lon="11.106543176814027"><ele>184.66666666666666</ele><time>2026-04-11T09:45:35.999Z</time></trkpt><trkpt lat="46.01427053307078" lon="11.10643083821291"><ele>185.0</ele><time>2026-04-11T09:45:36.999Z</time></trkpt><trkpt lat="46.014128287288486" lon="11.106318116820066"><ele>183.66666666666666</ele><time>2026-04-11T09:45:37.999Z</time></trkpt><trkpt lat="46.013985624524324" lon="11.106205754284954"><ele>182.33333333333334</ele><time>2026-04-11T09:45:38.999Z</time></trkpt><trkpt lat="46.01384444740229" lon="11.106097958992077"><ele>181.0</ele><time>2026-04-11T09:45:39.999Z</time></trkpt><trkpt lat="46.01370551033623" lon="11.10599078315739"><ele>181.0</ele><time>2026-04-11T09:45:40.999Z</time></trkpt><trkpt lat="46.01356656331774" lon="11.1058904759585"><ele>181.0</ele><time>2026-04-11T09:45:41.999Z</time></trkpt><trkpt lat="46.0134279528265" lon="11.105791734497314"><ele>181.0</ele><time>2026-04-11T09:45:42.999Z</time></trkpt><trkpt lat="46.01328531428852" lon="11.105711560119273"><ele>182.25</ele><time>2026-04-11T09:45:43.999Z</time></trkpt><trkpt lat="46.013144714591114" lon="11.105653503509656"><ele>183.5</ele><time>2026-04-11T09:45:44.999Z</time></trkpt><trkpt lat="46.01302056933318" lon="11.105606772683588"><ele>184.75</ele><time>2026-04-11T09:45:46Z</time></trkpt><trkpt lat="46.01290749015529" lon="11.1055708411114"><ele>186.0</ele><time>2026-04-11T09:45:47Z</time></trkpt><trkpt lat="46.01280555421167" lon="11.105519317514457"><ele>186.0</ele><time>2026-04-11T09:45:48Z</time></trkpt><trkpt lat="46.01272156037509" lon="11.105453691719735"><ele>186.0</ele><time>2026-04-11T09:45:49Z</time></trkpt><trkpt lat="46.01264604506821" lon="11.105351688034654"><ele>186.0</ele><time>2026-04-11T09:45:50Z</time></trkpt><trkpt lat="46.01257552947518" lon="11.105254096923018"><ele>186.0</ele><time>2026-04-11T09:45:51Z</time></trkpt><trkpt lat="46.01249475600237" lon="11.105187135542211"><ele>186.0</ele><time>2026-04-11T09:45:52Z</time></trkpt><trkpt lat="46.01238426118201" lon="11.105169860639387"><ele>189.5</ele><time>2026-04-11T09:45:53Z</time></trkpt><trkpt lat="46.012267888391726" lon="11.105198209829327"><ele>193.0</ele><time>2026-04-11T09:45:54Z</time></trkpt><trkpt lat="46.012165588621194" lon="11.105273167728026"><ele>196.5</ele><time>2026-04-11T09:45:55Z</time></trkpt><trkpt lat="46.012084369762334" lon="11.105378395755006"><ele>200.0</ele><time>2026-04-11T09:45:56Z</time></trkpt><trkpt lat="46.0120212775496" lon="11.105509425022312"><ele>200.0</ele><time>2026-04-11T09:45:57Z</time></trkpt><trkpt lat="46.01193488474886" lon="11.10561889044234"><ele>200.0</ele><time>2026-04-11T09:45:58Z</time></trkpt><trkpt lat="46.011850134622684" lon="11.105728153228949"><ele>200.0</ele><time>2026-04-11T09:45:59Z</time></trkpt><trkpt lat="46.011728054076826" lon="11.105785461805226"><ele>200.0</ele><time>2026-04-11T09:46:00Z</time></trkpt><trkpt lat="46.01160482058099" lon="11.10583018165677"><ele>198.0</ele><time>2026-04-11T09:46:01Z</time></trkpt><trkpt lat="46.01148623054068" lon="11.1059017016517"><ele>196.0</ele><time>2026-04-11T09:46:02Z</time></trkpt><trkpt lat="46.011369475807456" lon="11.10600082100635"><ele>194.0</ele><time>2026-04-11T09:46:03Z</time></trkpt><trkpt lat="46.01125177650541" lon="11.106107875066934"><ele>192.0</ele><time>2026-04-11T09:46:04Z</time></trkpt><trkpt lat="46.01113579985092" lon="11.106229809608486"><ele>192.0</ele><time>2026-04-11T09:46:05Z</time></trkpt><trkpt lat="46.011020509297566" lon="11.106358686850923"><ele>192.0</ele><time>2026-04-11T09:46:06Z</time></trkpt><trkpt lat="46.01089446941986" lon="11.106496332551528"><ele>192.0</ele><time>2026-04-11T09:46:07Z</time></trkpt><trkpt lat="46.01076037772998" lon="11.10663881423094"><ele>191.0</ele><time>2026-04-11T09:46:08Z</time></trkpt><trkpt lat="46.010626854695325" lon="11.10678797901535"><ele>190.0</ele><time>2026-04-11T09:46:09Z</time></trkpt><trkpt lat="46.01049415715751" lon="11.106934158107062"><ele>189.0</ele><time>2026-04-11T09:46:10Z</time></trkpt><trkpt lat="46.0103645444413" lon="11.107072734188142"><ele>189.0</ele><time>2026-04-11T09:46:11Z</time></trkpt><trkpt lat="46.01023314348673" lon="11.107211247003873"><ele>189.0</ele><time>2026-04-11T09:46:12Z</time></trkpt><trkpt lat="46.010103400482514" lon="11.107350740986734"><ele>189.0</ele><time>2026-04-11T09:46:13Z</time></trkpt><trkpt lat="46.0099740358449" lon="11.107492554632625"><ele>189.0</ele><time>2026-04-11T09:46:14Z</time></trkpt><trkpt lat="46.00984304029064" lon="11.107635964677423"><ele>189.0</ele><time>2026-04-11T09:46:15Z</time></trkpt><trkpt lat="46.0097061188496" lon="11.107775952148668"><ele>189.0</ele><time>2026-04-11T09:46:16Z</time></trkpt><trkpt lat="46.00956269529327" lon="11.107899026827758"><ele>189.0</ele><time>2026-04-11T09:46:17Z</time></trkpt><trkpt lat="46.00940806286595" lon="11.108003347410186"><ele>189.0</ele><time>2026-04-11T09:46:18Z</time></trkpt><trkpt lat="46.00924712729" lon="11.108081769743077"><ele>189.0</ele><time>2026-04-11T09:46:19Z</time></trkpt><trkpt lat="46.00907802183517" lon="11.108138918211935"><ele>191.0</ele><time>2026-04-11T09:46:20Z</time></trkpt><trkpt lat="46.008901785116606" lon="11.108174621661176"><ele>193.0</ele><time>2026-04-11T09:46:21Z</time></trkpt><trkpt lat="46.008727439045" lon="11.108168225700107"><ele>195.0</ele><time>2026-04-11T09:46:22Z</time></trkpt><trkpt lat="46.00855547935141" lon="11.108159555981922"><ele>195.0</ele><time>2026-04-11T09:46:23Z</time></trkpt><trkpt lat="46.00838412573797" lon="11.10813279869369"><ele>195.0</ele><time>2026-04-11T09:46:24Z</time></trkpt><trkpt lat="46.008217190997016" lon="11.108081844496853"><ele>195.0</ele><time>2026-04-11T09:46:25Z</time></trkpt><trkpt lat="46.008053606577555" lon="11.108013503544157"><ele>195.33333333333331</ele><time>2026-04-11T09:46:26Z</time></trkpt><trkpt lat="46.00789361252394" lon="11.107932249543392"><ele>195.66666666666666</ele><time>2026-04-11T09:46:27Z</time></trkpt><trkpt lat="46.00772969419003" lon="11.10785826110721"><ele>196.0</ele><time>2026-04-11T09:46:28Z</time></trkpt><trkpt lat="46.00756331633026" lon="11.107792266522658"><ele>195.33333333333331</ele><time>2026-04-11T09:46:29Z</time></trkpt><trkpt lat="46.007396273463016" lon="11.107721184455274"><ele>194.66666666666669</ele><time>2026-04-11T09:46:30Z</time></trkpt><trkpt lat="46.007226175093564" lon="11.10765011337246"><ele>194.0</ele><time>2026-04-11T09:46:31Z</time></trkpt><trkpt lat="46.00705381530527" lon="11.107586187951235"><ele>194.0</ele><time>2026-04-11T09:46:32Z</time></trkpt><trkpt lat="46.00687642835206" lon="11.10752142747549"><ele>194.0</ele><time>2026-04-11T09:46:33Z</time></trkpt><trkpt lat="46.00669625031225" lon="11.10745671409671"><ele>194.0</ele><time>2026-04-11T09:46:34Z</time></trkpt><trkpt lat="46.006517549685306" lon="11.107390147997295"><ele>192.33333333333334</ele><time>2026-04-11T09:46:35Z</time></trkpt><trkpt lat="46.00633589479663" lon="11.107321804170788"><ele>190.66666666666669</ele><time>2026-04-11T09:46:36Z</time></trkpt><trkpt lat="46.00615434686626" lon="11.107250203909489"><ele>189.0</ele><time>2026-04-11T09:46:37Z</time></trkpt><trkpt lat="46.00597144851483" lon="11.107179423927652"><ele>188.33333333333334</ele><time>2026-04-11T09:46:38Z</time></trkpt><trkpt lat="46.00578742246796" lon="11.107106341145117"><ele>187.66666666666669</ele><time>2026-04-11T09:46:39Z</time></trkpt><trkpt lat="46.00559303352796" lon="11.10702920521312"><ele>187.0</ele><time>2026-04-11T09:46:40Z</time></trkpt><trkpt lat="46.00536661009545" lon="11.106939799207636"><ele>187.0</ele><time>2026-04-11T09:46:41Z</time></trkpt><trkpt lat="46.005125681042436" lon="11.10684390313473"><ele>187.0</ele><time>2026-04-11T09:46:42Z</time></trkpt><trkpt lat="46.00488207406404" lon="11.106750117238098"><ele>187.0</ele><time>2026-04-11T09:46:43Z</time></trkpt><trkpt lat="46.00464358178976" lon="11.106655302259295"><ele>187.0</ele><time>2026-04-11T09:46:44Z</time></trkpt><trkpt lat="46.00440927774712" lon="11.106566739251914"><ele>186.33333333333334</ele><time>2026-04-11T09:46:45Z</time></trkpt><trkpt lat="46.004199563037965" lon="11.106474108165768"><ele>185.66666666666666</ele><time>2026-04-11T09:46:46Z</time></trkpt><trkpt lat="46.00398241925664" lon="11.106388506601371"><ele>185.0</ele><time>2026-04-11T09:46:47Z</time></trkpt><trkpt lat="46.003764682553665" lon="11.106295150617719"><ele>184.66666666666666</ele><time>2026-04-11T09:46:48Z</time></trkpt><trkpt lat="46.003554935228586" lon="11.106209575039147"><ele>184.33333333333334</ele><time>2026-04-11T09:46:49Z</time></trkpt><trkpt lat="46.0033485050074" lon="11.106130752199771"><ele>184.0</ele><time>2026-04-11T09:46:50Z</time></trkpt><trkpt lat="46.00314850562079" lon="11.106036860708112"><ele>184.0</ele><time>2026-04-11T09:46:51Z</time></trkpt><trkpt lat="46.002974640524045" lon="11.105894520792688"><ele>184.0</ele><time>2026-04-11T09:46:52Z</time></trkpt><trkpt lat="46.002799332679885" lon="11.105746762115515"><ele>184.0</ele><time>2026-04-11T09:46:53Z</time></trkpt><trkpt lat="46.002634305064305" lon="11.105582433874607"><ele>183.66666666666669</ele><time>2026-04-11T09:46:54Z</time></trkpt><trkpt lat="46.002474999278526" lon="11.105409872003705"><ele>183.33333333333334</ele><time>2026-04-11T09:46:55Z</time></trkpt><trkpt lat="46.00231125416082" lon="11.10523209552352"><ele>183.0</ele><time>2026-04-11T09:46:56Z</time></trkpt><trkpt lat="46.002151753819604" lon="11.105059968683706"><ele>184.66666666666666</ele><time>2026-04-11T09:46:57Z</time></trkpt><trkpt lat="46.00199454751785" lon="11.104888450528826"><ele>186.33333333333331</ele><time>2026-04-11T09:46:57.999Z</time></trkpt><trkpt lat="46.001835662967906" lon="11.104712591839183"><ele>188.0</ele><time>2026-04-11T09:46:58.999Z</time></trkpt><trkpt lat="46.00167061423404" lon="11.104558277595643"><ele>187.0</ele><time>2026-04-11T09:46:59.999Z</time></trkpt><trkpt lat="46.00151597569493" lon="11.104384039664833"><ele>186.0</ele><time>2026-04-11T09:47:00.999Z</time></trkpt><trkpt lat="46.00135912165735" lon="11.104215233770343"><ele>185.0</ele><time>2026-04-11T09:47:01.999Z</time></trkpt><trkpt lat="46.001199052625324" lon="11.104058405547699"><ele>185.66666666666666</ele><time>2026-04-11T09:47:02.999Z</time></trkpt><trkpt lat="46.00102268498291" lon="11.103945830431822"><ele>186.33333333333334</ele><time>2026-04-11T09:47:03.999Z</time></trkpt><trkpt lat="46.00084091967536" lon="11.103877487551534"><ele>187.0</ele><time>2026-04-11T09:47:04.999Z</time></trkpt><trkpt lat="46.00064889681966" lon="11.103835633500532"><ele>187.0</ele><time>2026-04-11T09:47:05.999Z</time></trkpt><trkpt lat="46.00046229913084" lon="11.10380560212956"><ele>187.0</ele><time>2026-04-11T09:47:06.999Z</time></trkpt><trkpt lat="46.00026992713221" lon="11.103761024475258"><ele>187.0</ele><time>2026-04-11T09:47:07.999Z</time></trkpt><trkpt lat="46.00009692738214" lon="11.103723062351824"><ele>187.0</ele><time>2026-04-11T09:47:08.999Z</time></trkpt><trkpt lat="45.999880191891364" lon="11.103614960475253"><ele>187.0</ele><time>2026-04-11T09:47:09.999Z</time></trkpt><trkpt lat="45.999713274411725" lon="11.103472546600342"><ele>187.0</ele><time>2026-04-11T09:47:10.999Z</time></trkpt><trkpt lat="45.999552877360294" lon="11.103298575669305"><ele>188.0</ele><time>2026-04-11T09:47:11.999Z</time></trkpt><trkpt lat="45.999394778956685" lon="11.103117118573063"><ele>189.0</ele><time>2026-04-11T09:47:12.999Z</time></trkpt><trkpt lat="45.99928782984103" lon="11.102867197201247"><ele>190.0</ele><time>2026-04-11T09:47:13.999Z</time></trkpt><trkpt lat="45.999145734386055" lon="11.10268329182407"><ele>190.0</ele><time>2026-04-11T09:47:14.999Z</time></trkpt><trkpt lat="45.99899246134225" lon="11.10249366319341"><ele>190.0</ele><time>2026-04-11T09:47:15.999Z</time></trkpt><trkpt lat="45.99879107520749" lon="11.10233451351514"><ele>190.0</ele><time>2026-04-11T09:47:16.999Z</time></trkpt><trkpt lat="45.99862442226306" lon="11.102158039501074"><ele>189.33333333333334</ele><time>2026-04-11T09:47:17.999Z</time></trkpt><trkpt lat="45.99846482849722" lon="11.101972064438227"><ele>188.66666666666666</ele><time>2026-04-11T09:47:18.999Z</time></trkpt><trkpt lat="45.99831161863058" lon="11.101775164286313"><ele>188.0</ele><time>2026-04-11T09:47:19.999Z</time></trkpt><trkpt lat="45.99815003989417" lon="11.101582375453114"><ele>199.0</ele><time>2026-04-11T09:47:20.999Z</time></trkpt><trkpt lat="45.99798786209269" lon="11.101398290375633"><ele>210.0</ele><time>2026-04-11T09:47:21.999Z</time></trkpt><trkpt lat="45.99782133820409" lon="11.101229251905682"><ele>221.0</ele><time>2026-04-11T09:47:22.999Z</time></trkpt><trkpt lat="45.99762535364562" lon="11.101088978566946"><ele>223.66666666666669</ele><time>2026-04-11T09:47:23.999Z</time></trkpt><trkpt lat="45.9974282193397" lon="11.10095056081585"><ele>226.33333333333331</ele><time>2026-04-11T09:47:24.999Z</time></trkpt><trkpt lat="45.997243824579385" lon="11.10081728696591"><ele>229.0</ele><time>2026-04-11T09:47:25.999Z</time></trkpt><trkpt lat="45.99705082747336" lon="11.100682168511254"><ele>229.0</ele><time>2026-04-11T09:47:26.999Z</time></trkpt><trkpt lat="45.99685775919717" lon="11.100545865151641"><ele>229.0</ele><time>2026-04-11T09:47:27.999Z</time></trkpt><trkpt lat="45.996664464423134" lon="11.100406986809846"><ele>229.0</ele><time>2026-04-11T09:47:28.999Z</time></trkpt><trkpt lat="45.99647162589655" lon="11.100272963202928"><ele>231.0</ele><time>2026-04-11T09:47:29.999Z</time></trkpt><trkpt lat="45.99628025412755" lon="11.100137126269424"><ele>233.0</ele><time>2026-04-11T09:47:30.999Z</time></trkpt><trkpt lat="45.99608862794085" lon="11.100001846321597"><ele>235.0</ele><time>2026-04-11T09:47:31.999Z</time></trkpt><trkpt lat="45.995896502612304" lon="11.099861427860679"><ele>222.0</ele><time>2026-04-11T09:47:32.999Z</time></trkpt><trkpt lat="45.99570603047368" lon="11.09972338539838"><ele>209.0</ele><time>2026-04-11T09:47:33.999Z</time></trkpt><trkpt lat="45.99551355129999" lon="11.09959085598672"><ele>196.0</ele><time>2026-04-11T09:47:34.999Z</time></trkpt><trkpt lat="45.995324777004264" lon="11.099453250629894"><ele>196.0</ele><time>2026-04-11T09:47:35.999Z</time></trkpt><trkpt lat="45.9951328119508" lon="11.099317316198736"><ele>196.0</ele><time>2026-04-11T09:47:36.999Z</time></trkpt><trkpt lat="45.994939276999226" lon="11.099192359415863"><ele>196.0</ele><time>2026-04-11T09:47:37.999Z</time></trkpt><trkpt lat="45.994741925289254" lon="11.099076788838827"><ele>199.33333333333331</ele><time>2026-04-11T09:47:38.999Z</time></trkpt><trkpt lat="45.99454596523713" lon="11.098969110331307"><ele>202.66666666666669</ele><time>2026-04-11T09:47:39.999Z</time></trkpt><trkpt lat="45.994347726429744" lon="11.09887358756359"><ele>206.0</ele><time>2026-04-11T09:47:40.999Z</time></trkpt><trkpt lat="45.99414829521312" lon="11.098790986780255"><ele>198.66666666666669</ele><time>2026-04-11T09:47:41.999Z</time></trkpt><trkpt lat="45.993951082143894" lon="11.098714476264748"><ele>191.33333333333334</ele><time>2026-04-11T09:47:42.999Z</time></trkpt><trkpt lat="45.993745684214815" lon="11.09864598704916"><ele>184.0</ele><time>2026-04-11T09:47:43.999Z</time></trkpt><trkpt lat="45.993541722356234" lon="11.098576194066236"><ele>183.33333333333334</ele><time>2026-04-11T09:47:44.999Z</time></trkpt><trkpt lat="45.99333434560589" lon="11.09850397689506"><ele>182.66666666666666</ele><time>2026-04-11T09:47:45.999Z</time></trkpt><trkpt lat="45.99312415480695" lon="11.098432335370278"><ele>182.0</ele><time>2026-04-11T09:47:46.999Z</time></trkpt><trkpt lat="45.99291859126824" lon="11.098356135449043"><ele>182.0</ele><time>2026-04-11T09:47:47.999Z</time></trkpt><trkpt lat="45.99271627875219" lon="11.098284720531813"><ele>182.0</ele><time>2026-04-11T09:47:48.999Z</time></trkpt><trkpt lat="45.99251426640769" lon="11.098211389121571"><ele>182.0</ele><time>2026-04-11T09:47:49.999Z</time></trkpt><trkpt lat="45.99231354125312" lon="11.0981395011394"><ele>184.33333333333331</ele><time>2026-04-11T09:47:50.999Z</time></trkpt><trkpt lat="45.99211268955089" lon="11.09806651883274"><ele>186.66666666666666</ele><time>2026-04-11T09:47:52Z</time></trkpt><trkpt lat="45.991909360717706" lon="11.098008081647695"><ele>189.0</ele><time>2026-04-11T09:47:53Z</time></trkpt><trkpt lat="45.99170954945693" lon="11.097936385647897"><ele>186.66666666666666</ele><time>2026-04-11T09:47:54Z</time></trkpt><trkpt lat="45.99150963478934" lon="11.097868359218088"><ele>184.33333333333331</ele><time>2026-04-11T09:47:55Z</time></trkpt><trkpt lat="45.99130702893343" lon="11.097801695620436"><ele>182.0</ele><time>2026-04-11T09:47:56Z</time></trkpt><trkpt lat="45.99111252284998" lon="11.09774283424283"><ele>182.0</ele><time>2026-04-11T09:47:57Z</time></trkpt><trkpt lat="45.99091936878558" lon="11.09766376261225"><ele>182.0</ele><time>2026-04-11T09:47:58Z</time></trkpt><trkpt lat="45.99072152498958" lon="11.097587880866385"><ele>182.0</ele><time>2026-04-11T09:47:59Z</time></trkpt><trkpt lat="45.99052353921468" lon="11.097518551205425"><ele>182.0</ele><time>2026-04-11T09:48:00Z</time></trkpt><trkpt lat="45.99032793184078" lon="11.097449550197727"><ele>182.0</ele><time>2026-04-11T09:48:01Z</time></trkpt><trkpt lat="45.99012986973218" lon="11.097382422298772"><ele>182.0</ele><time>2026-04-11T09:48:02Z</time></trkpt><trkpt lat="45.98993265332338" lon="11.097318010039775"><ele>182.33333333333331</ele><time>2026-04-11T09:48:03Z</time></trkpt><trkpt lat="45.989736517234306" lon="11.09724459692425"><ele>182.66666666666666</ele><time>2026-04-11T09:48:04Z</time></trkpt><trkpt lat="45.989541322646915" lon="11.09716897189671"><ele>183.0</ele><time>2026-04-11T09:48:05Z</time></trkpt><trkpt lat="45.98934584948762" lon="11.09709779496132"><ele>182.66666666666666</ele><time>2026-04-11T09:48:06Z</time></trkpt><trkpt lat="45.9891496516176" lon="11.097031431341835"><ele>182.33333333333331</ele><time>2026-04-11T09:48:07Z</time></trkpt><trkpt lat="45.98895144527891" lon="11.09696387066165"><ele>182.0</ele><time>2026-04-11T09:48:08Z</time></trkpt><trkpt lat="45.98875872800055" lon="11.096896501467413"><ele>182.0</ele><time>2026-04-11T09:48:09Z</time></trkpt><trkpt lat="45.988563957149104" lon="11.096832697235532"><ele>182.0</ele><time>2026-04-11T09:48:10Z</time></trkpt><trkpt lat="45.988365640284954" lon="11.096770219272505"><ele>182.0</ele><time>2026-04-11T09:48:11Z</time></trkpt><trkpt lat="45.98816918223546" lon="11.096702422831012"><ele>181.66666666666666</ele><time>2026-04-11T09:48:12Z</time></trkpt><trkpt lat="45.98797475651665" lon="11.096629623326175"><ele>181.33333333333334</ele><time>2026-04-11T09:48:13Z</time></trkpt><trkpt lat="45.98778169505697" lon="11.096556930664994"><ele>181.0</ele><time>2026-04-11T09:48:14Z</time></trkpt><trkpt lat="45.98758784321873" lon="11.096484092990593"><ele>182.0</ele><time>2026-04-11T09:48:15Z</time></trkpt><trkpt lat="45.98739520484006" lon="11.096416008454412"><ele>183.0</ele><time>2026-04-11T09:48:16Z</time></trkpt><trkpt lat="45.98720202833986" lon="11.096347241702484"><ele>184.0</ele><time>2026-04-11T09:48:17Z</time></trkpt><trkpt lat="45.987012082426375" lon="11.0962801094881"><ele>184.0</ele><time>2026-04-11T09:48:18Z</time></trkpt><trkpt lat="45.98682429284316" lon="11.096193282401208"><ele>184.0</ele><time>2026-04-11T09:48:19Z</time></trkpt><trkpt lat="45.98663747612343" lon="11.096101450240734"><ele>184.0</ele><time>2026-04-11T09:48:20Z</time></trkpt><trkpt lat="45.98645922326394" lon="11.095984877066265"><ele>183.66666666666669</ele><time>2026-04-11T09:48:21Z</time></trkpt><trkpt lat="45.98628601503935" lon="11.095862990853453"><ele>183.33333333333334</ele><time>2026-04-11T09:48:22Z</time></trkpt><trkpt lat="45.986107107664424" lon="11.0957376123439"><ele>183.0</ele><time>2026-04-11T09:48:23Z</time></trkpt><trkpt lat="45.985935496360135" lon="11.095610009000577"><ele>183.0</ele><time>2026-04-11T09:48:24Z</time></trkpt><trkpt lat="45.9857590567679" lon="11.095486814401088"><ele>183.0</ele><time>2026-04-11T09:48:25Z</time></trkpt><trkpt lat="45.98558044888458" lon="11.09536043007756"><ele>183.0</ele><time>2026-04-11T09:48:26Z</time></trkpt><trkpt lat="45.985403689982334" lon="11.095236334328389"><ele>183.0</ele><time>2026-04-11T09:48:27Z</time></trkpt><trkpt lat="45.985236527910935" lon="11.095112683635325"><ele>183.0</ele><time>2026-04-11T09:48:28Z</time></trkpt><trkpt lat="45.9850750978772" lon="11.094999907425056"><ele>183.0</ele><time>2026-04-11T09:48:29Z</time></trkpt><trkpt lat="45.984926828926554" lon="11.09491050850999"><ele>185.25</ele><time>2026-04-11T09:48:30Z</time></trkpt><trkpt lat="45.98478878327394" lon="11.09484387315282"><ele>187.5</ele><time>2026-04-11T09:48:31Z</time></trkpt><trkpt lat="45.98465849581698" lon="11.094793600083218"><ele>189.75</ele><time>2026-04-11T09:48:32Z</time></trkpt><trkpt lat="45.9845388523092" lon="11.094753998040927"><ele>192.0</ele><time>2026-04-11T09:48:33Z</time></trkpt><trkpt lat="45.9844346708171" lon="11.094732359433314"><ele>192.0</ele><time>2026-04-11T09:48:34Z</time></trkpt><trkpt lat="45.98433749488717" lon="11.094716069635812"><ele>192.0</ele><time>2026-04-11T09:48:35Z</time></trkpt><trkpt lat="45.98424823506932" lon="11.094690299223268"><ele>192.0</ele><time>2026-04-11T09:48:36Z</time></trkpt><trkpt lat="45.98416967971019" lon="11.09461940056591"><ele>192.0</ele><time>2026-04-11T09:48:37Z</time></trkpt><trkpt lat="45.98409359672479" lon="11.09450253541172"><ele>192.0</ele><time>2026-04-11T09:48:38Z</time></trkpt><trkpt lat="45.98400982502597" lon="11.094364542983197"><ele>191.0</ele><time>2026-04-11T09:48:39Z</time></trkpt><trkpt lat="45.983930007263126" lon="11.094215743064714"><ele>190.0</ele><time>2026-04-11T09:48:40Z</time></trkpt><trkpt lat="45.983855623981555" lon="11.094044500711867"><ele>189.0</ele><time>2026-04-11T09:48:41Z</time></trkpt><trkpt lat="45.983753066517096" lon="11.093884257765557"><ele>188.0</ele><time>2026-04-11T09:48:42Z</time></trkpt><trkpt lat="45.98361586290519" lon="11.093747833353868"><ele>189.0</ele><time>2026-04-11T09:48:43Z</time></trkpt><trkpt lat="45.98347027042944" lon="11.093616519066698"><ele>190.0</ele><time>2026-04-11T09:48:44Z</time></trkpt><trkpt lat="45.983331377702974" lon="11.09347294678403"><ele>191.0</ele><time>2026-04-11T09:48:45Z</time></trkpt><trkpt lat="45.98320364089675" lon="11.093306141036843"><ele>195.0</ele><time>2026-04-11T09:48:46Z</time></trkpt><trkpt lat="45.98306413453722" lon="11.093152974809716"><ele>199.0</ele><time>2026-04-11T09:48:47Z</time></trkpt><trkpt lat="45.9829174992457" lon="11.093020586914461"><ele>203.0</ele><time>2026-04-11T09:48:48Z</time></trkpt><trkpt lat="45.98278464677719" lon="11.092861823650626"><ele>203.0</ele><time>2026-04-11T09:48:49Z</time></trkpt><trkpt lat="45.9826468350415" lon="11.092706998974737"><ele>203.0</ele><time>2026-04-11T09:48:50Z</time></trkpt><trkpt lat="45.98250627602569" lon="11.092551660505917"><ele>203.0</ele><time>2026-04-11T09:48:51Z</time></trkpt><trkpt lat="45.98236824944775" lon="11.092398577962255"><ele>205.66666666666669</ele><time>2026-04-11T09:48:52Z</time></trkpt><trkpt lat="45.98223361831839" lon="11.09225556402429"><ele>208.33333333333331</ele><time>2026-04-11T09:48:53Z</time></trkpt><trkpt lat="45.982101635522106" lon="11.092118167677345"><ele>211.0</ele><time>2026-04-11T09:48:54Z</time></trkpt><trkpt lat="45.981963863349435" lon="11.091982220679936"><ele>211.0</ele><time>2026-04-11T09:48:55Z</time></trkpt><trkpt lat="45.98181764382608" lon="11.09186508469818"><ele>211.0</ele><time>2026-04-11T09:48:56Z</time></trkpt><trkpt lat="45.981665279357344" lon="11.091773061980359"><ele>211.0</ele><time>2026-04-11T09:48:57Z</time></trkpt><trkpt lat="45.98150625113116" lon="11.091702224861006"><ele>208.75</ele><time>2026-04-11T09:48:58Z</time></trkpt><trkpt lat="45.981375280012735" lon="11.09165136615454"><ele>206.5</ele><time>2026-04-11T09:48:59Z</time></trkpt><trkpt lat="45.98126499370225" lon="11.091612771674225"><ele>204.25</ele><time>2026-04-11T09:49:00Z</time></trkpt><trkpt lat="45.981160075470434" lon="11.091591086043735"><ele>202.0</ele><time>2026-04-11T09:49:01Z</time></trkpt><trkpt lat="45.98106564143206" lon="11.09156829459284"><ele>203.39999999999998</ele><time>2026-04-11T09:49:02Z</time></trkpt><trkpt lat="45.980977712642805" lon="11.091545128024057"><ele>204.79999999999998</ele><time>2026-04-11T09:49:03Z</time></trkpt><trkpt lat="45.98089719709996" lon="11.091531164979502"><ele>206.2</ele><time>2026-04-11T09:49:04Z</time></trkpt><trkpt lat="45.98079749620804" lon="11.09146052073423"><ele>207.6</ele><time>2026-04-11T09:49:06Z</time></trkpt><trkpt lat="45.98075065876632" lon="11.091387561407156"><ele>209.0</ele><time>2026-04-11T09:49:08.999Z</time></trkpt><trkpt lat="45.98073681916881" lon="11.091244204085275"><ele>209.0</ele><time>2026-04-11T09:49:10.999Z</time></trkpt><trkpt lat="45.98070859106978" lon="11.091118445781994"><ele>209.0</ele><time>2026-04-11T09:49:11.999Z</time></trkpt><trkpt lat="45.98065710736812" lon="11.090971335527376"><ele>209.0</ele><time>2026-04-11T09:49:12.999Z</time></trkpt><trkpt lat="45.9806202788189" lon="11.090816601434605"><ele>209.0</ele><time>2026-04-11T09:49:13.999Z</time></trkpt><trkpt lat="45.980575073754814" lon="11.09070723744888"><ele>209.0</ele><time>2026-04-11T09:49:14.999Z</time></trkpt><trkpt lat="45.980523540052936" lon="11.090590000061855"><ele>218.79999999999998</ele><time>2026-04-11T09:49:16.999Z</time></trkpt><trkpt lat="45.9804714257488" lon="11.090521915215238"><ele>228.6</ele><time>2026-04-11T09:49:19.999Z</time></trkpt><trkpt lat="45.98041560235" lon="11.09044724452078"><ele>238.4</ele><time>2026-04-11T09:49:20.999Z</time></trkpt><trkpt lat="45.98032831076139" lon="11.090363398494128"><ele>248.2</ele><time>2026-04-11T09:49:21.999Z</time></trkpt><trkpt lat="45.98023492630103" lon="11.090273021964222"><ele>258.0</ele><time>2026-04-11T09:49:22.999Z</time></trkpt><trkpt lat="45.98009830978761" lon="11.090188791912725"><ele>248.66666666666669</ele><time>2026-04-11T09:49:23.999Z</time></trkpt><trkpt lat="45.97993346673908" lon="11.090114440952384"><ele>239.33333333333334</ele><time>2026-04-11T09:49:24.999Z</time></trkpt><trkpt lat="45.979765946335085" lon="11.090051074331086"><ele>230.0</ele><time>2026-04-11T09:49:25.999Z</time></trkpt><trkpt lat="45.97960642009798" lon="11.089989188087737"><ele>232.33333333333334</ele><time>2026-04-11T09:49:26.999Z</time></trkpt><trkpt lat="45.97944127516614" lon="11.089914780832594"><ele>234.66666666666669</ele><time>2026-04-11T09:49:27.999Z</time></trkpt><trkpt lat="45.97928746332493" lon="11.089800396355317"><ele>237.0</ele><time>2026-04-11T09:49:28.999Z</time></trkpt><trkpt lat="45.97913490412805" lon="11.08967938063897"><ele>237.0</ele><time>2026-04-11T09:49:29.999Z</time></trkpt><trkpt lat="45.97898138055726" lon="11.089560762900287"><ele>237.0</ele><time>2026-04-11T09:49:30.999Z</time></trkpt><trkpt lat="45.9788358816704" lon="11.089422584908572"><ele>237.0</ele><time>2026-04-11T09:49:31.999Z</time></trkpt><trkpt lat="45.978691118358824" lon="11.089296733907899"><ele>237.0</ele><time>2026-04-11T09:49:32.999Z</time></trkpt><trkpt lat="45.97855908553296" lon="11.089150906887038"><ele>237.0</ele><time>2026-04-11T09:49:33.999Z</time></trkpt><trkpt lat="45.978421912207104" lon="11.089025014218171"><ele>237.0</ele><time>2026-04-11T09:49:34.999Z</time></trkpt><trkpt lat="45.97827772827191" lon="11.088915876573909"><ele>239.66666666666669</ele><time>2026-04-11T09:49:35.999Z</time></trkpt><trkpt lat="45.978144214599475" lon="11.088783193229792"><ele>242.33333333333334</ele><time>2026-04-11T09:49:36.999Z</time></trkpt><trkpt lat="45.978007022400995" lon="11.088654958051515"><ele>245.0</ele><time>2026-04-11T09:49:37.999Z</time></trkpt><trkpt lat="45.977865524833106" lon="11.08852549985911"><ele>245.0</ele><time>2026-04-11T09:49:38.999Z</time></trkpt><trkpt lat="45.97772815970761" lon="11.088397447684162"><ele>245.0</ele><time>2026-04-11T09:49:39.999Z</time></trkpt><trkpt lat="45.97759202912947" lon="11.088272001743105"><ele>245.0</ele><time>2026-04-11T09:49:40.999Z</time></trkpt><trkpt lat="45.97745427634957" lon="11.088149846330886"><ele>248.66666666666669</ele><time>2026-04-11T09:49:41.999Z</time></trkpt><trkpt lat="45.977313000856334" lon="11.088031510582542"><ele>252.33333333333331</ele><time>2026-04-11T09:49:42.999Z</time></trkpt><trkpt lat="45.97716636983073" lon="11.0879259711905"><ele>256.0</ele><time>2026-04-11T09:49:43.999Z</time></trkpt><trkpt lat="45.97700948919557" lon="11.087852710945617"><ele>256.0</ele><time>2026-04-11T09:49:44.999Z</time></trkpt><trkpt lat="45.97684932094263" lon="11.087804243628282"><ele>256.0</ele><time>2026-04-11T09:49:45.999Z</time></trkpt><trkpt lat="45.97668576704607" lon="11.08778461159696"><ele>256.0</ele><time>2026-04-11T09:49:46.999Z</time></trkpt><trkpt lat="45.97652099663899" lon="11.08778657177469"><ele>251.66666666666666</ele><time>2026-04-11T09:49:47.999Z</time></trkpt><trkpt lat="45.97635442327939" lon="11.08780690975905"><ele>247.33333333333331</ele><time>2026-04-11T09:49:48.999Z</time></trkpt><trkpt lat="45.97619256343072" lon="11.087852871390426"><ele>243.0</ele><time>2026-04-11T09:49:49.999Z</time></trkpt><trkpt lat="45.97602986866778" lon="11.087903749082928"><ele>243.0</ele><time>2026-04-11T09:49:50.999Z</time></trkpt><trkpt lat="45.975870104355316" lon="11.087950415879307"><ele>243.0</ele><time>2026-04-11T09:49:51.999Z</time></trkpt><trkpt lat="45.9757098497673" lon="11.08797060781294"><ele>243.0</ele><time>2026-04-11T09:49:52.999Z</time></trkpt><trkpt lat="45.97554073118813" lon="11.087962753515253"><ele>251.0</ele><time>2026-04-11T09:49:53.999Z</time></trkpt><trkpt lat="45.97537690047214" lon="11.087923805083268"><ele>259.0</ele><time>2026-04-11T09:49:54.999Z</time></trkpt><trkpt lat="45.9752173322068" lon="11.087858653151896"><ele>267.0</ele><time>2026-04-11T09:49:55.999Z</time></trkpt><trkpt lat="45.97506165224115" lon="11.087770419333136"><ele>266.0</ele><time>2026-04-11T09:49:56.999Z</time></trkpt><trkpt lat="45.97491375588358" lon="11.087654340609832"><ele>265.0</ele><time>2026-04-11T09:49:58Z</time></trkpt><trkpt lat="45.97477675268037" lon="11.087519384952497"><ele>264.0</ele><time>2026-04-11T09:49:59Z</time></trkpt><trkpt lat="45.9746429322891" lon="11.08737725807538"><ele>273.3333333333333</ele><time>2026-04-11T09:50:00Z</time></trkpt><trkpt lat="45.974512511327305" lon="11.087238802222592"><ele>282.66666666666663</ele><time>2026-04-11T09:50:01Z</time></trkpt><trkpt lat="45.97436828229674" lon="11.087140627704267"><ele>292.0</ele><time>2026-04-11T09:50:02Z</time></trkpt><trkpt lat="45.97422409021224" lon="11.087073532046967"><ele>289.25</ele><time>2026-04-11T09:50:03Z</time></trkpt><trkpt lat="45.97410910756803" lon="11.08696315624923"><ele>286.5</ele><time>2026-04-11T09:50:04Z</time></trkpt><trkpt lat="45.9740225656909" lon="11.086789417510543"><ele>283.75</ele><time>2026-04-11T09:50:05Z</time></trkpt><trkpt lat="45.973942939032504" lon="11.086597207321889"><ele>281.0</ele><time>2026-04-11T09:50:06Z</time></trkpt><trkpt lat="45.973848266779676" lon="11.086452426780708"><ele>288.0</ele><time>2026-04-11T09:50:07Z</time></trkpt><trkpt lat="45.97372373012818" lon="11.086366802300786"><ele>295.0</ele><time>2026-04-11T09:50:08Z</time></trkpt><trkpt lat="45.97358160950425" lon="11.086327974240575"><ele>302.0</ele><time>2026-04-11T09:50:09Z</time></trkpt><trkpt lat="45.973426699282776" lon="11.086338994054104"><ele>309.0</ele><time>2026-04-11T09:50:10Z</time></trkpt><trkpt lat="45.97326805021586" lon="11.086401145255692"><ele>311.3333333333333</ele><time>2026-04-11T09:50:11Z</time></trkpt><trkpt lat="45.97310895427903" lon="11.08646932106963"><ele>313.66666666666663</ele><time>2026-04-11T09:50:12Z</time></trkpt><trkpt lat="45.97296081488237" lon="11.086577825184323"><ele>316.0</ele><time>2026-04-11T09:50:13Z</time></trkpt><trkpt lat="45.97279643577478" lon="11.086665027981436"><ele>310.66666666666663</ele><time>2026-04-11T09:50:14Z</time></trkpt><trkpt lat="45.97264168719856" lon="11.08676013195551"><ele>305.3333333333333</ele><time>2026-04-11T09:50:15Z</time></trkpt><trkpt lat="45.972476979190105" lon="11.086851887703155"><ele>300.0</ele><time>2026-04-11T09:50:16Z</time></trkpt><trkpt lat="45.97231850927857" lon="11.086952635468647"><ele>300.0</ele><time>2026-04-11T09:50:17Z</time></trkpt><trkpt lat="45.97214892864458" lon="11.087018156268464"><ele>300.0</ele><time>2026-04-11T09:50:18Z</time></trkpt><trkpt lat="45.97197787402961" lon="11.087043146756704"><ele>300.0</ele><time>2026-04-11T09:50:19Z</time></trkpt><trkpt lat="45.97180280858621" lon="11.08704386949189"><ele>307.3333333333333</ele><time>2026-04-11T09:50:20Z</time></trkpt><trkpt lat="45.97163809396287" lon="11.08708332065973"><ele>314.66666666666663</ele><time>2026-04-11T09:50:21Z</time></trkpt><trkpt lat="45.97149446912831" lon="11.087180323302261"><ele>322.0</ele><time>2026-04-11T09:50:22Z</time></trkpt><trkpt lat="45.9713672873634" lon="11.087277636987674"><ele>322.0</ele><time>2026-04-11T09:50:23Z</time></trkpt><trkpt lat="45.97127463039369" lon="11.08737405987221"><ele>322.0</ele><time>2026-04-11T09:50:24Z</time></trkpt><trkpt lat="45.97120041180959" lon="11.087431018493108"><ele>322.0</ele><time>2026-04-11T09:50:25Z</time></trkpt><trkpt lat="45.97113068878683" lon="11.087452663563012"><ele>322.0</ele><time>2026-04-11T09:50:26Z</time></trkpt><trkpt lat="45.97105640469734" lon="11.087428987559466"><ele>322.0</ele><time>2026-04-11T09:50:27Z</time></trkpt><trkpt lat="45.97103297269782" lon="11.087335741178665"><ele>322.0</ele><time>2026-04-11T09:50:28Z</time></trkpt><trkpt lat="45.971059468112216" lon="11.087234748982956"><ele>322.0</ele><time>2026-04-11T09:50:29Z</time></trkpt><trkpt lat="45.97114408923281" lon="11.087135024008314"><ele>322.0</ele><time>2026-04-11T09:50:30Z</time></trkpt><trkpt lat="45.971263756790165" lon="11.087039220319813"><ele>322.0</ele><time>2026-04-11T09:50:31Z</time></trkpt><trkpt lat="45.97140178672274" lon="11.086948622619643"><ele>322.0</ele><time>2026-04-11T09:50:32Z</time></trkpt><trkpt lat="45.97153613200584" lon="11.086840399146569"><ele>322.0</ele><time>2026-04-11T09:50:33Z</time></trkpt><trkpt lat="45.97168198534548" lon="11.086717958395418"><ele>322.0</ele><time>2026-04-11T09:50:34Z</time></trkpt><trkpt lat="45.97182807273132" lon="11.086587083422325"><ele>322.0</ele><time>2026-04-11T09:50:35Z</time></trkpt><trkpt lat="45.97196804692971" lon="11.086442445512624"><ele>326.0</ele><time>2026-04-11T09:50:36Z</time></trkpt><trkpt lat="45.9721051794442" lon="11.08629189566785"><ele>330.0</ele><time>2026-04-11T09:50:37Z</time></trkpt><trkpt lat="45.97224159911501" lon="11.086141659072785"><ele>334.0</ele><time>2026-04-11T09:50:38Z</time></trkpt><trkpt lat="45.972377289346895" lon="11.085997314087926"><ele>334.0</ele><time>2026-04-11T09:50:39Z</time></trkpt><trkpt lat="45.97251486887263" lon="11.085853603528536"><ele>334.0</ele><time>2026-04-11T09:50:40Z</time></trkpt><trkpt lat="45.972649233304054" lon="11.085704866893176"><ele>334.0</ele><time>2026-04-11T09:50:41Z</time></trkpt><trkpt lat="45.97278408350953" lon="11.085557940370219"><ele>337.66666666666663</ele><time>2026-04-11T09:50:42Z</time></trkpt><trkpt lat="45.972923063774985" lon="11.085414540234439"><ele>341.3333333333333</ele><time>2026-04-11T09:50:43Z</time></trkpt><trkpt lat="45.973060532924414" lon="11.085270513414791"><ele>345.0</ele><time>2026-04-11T09:50:44Z</time></trkpt><trkpt lat="45.973196032399" lon="11.085125325653099"><ele>345.0</ele><time>2026-04-11T09:50:45Z</time></trkpt><trkpt lat="45.973333206231565" lon="11.08497797670847"><ele>345.0</ele><time>2026-04-11T09:50:46Z</time></trkpt><trkpt lat="45.97347357478679" lon="11.084831568249104"><ele>345.0</ele><time>2026-04-11T09:50:47Z</time></trkpt><trkpt lat="45.973614566262064" lon="11.084686102269027"><ele>348.0</ele><time>2026-04-11T09:50:48Z</time></trkpt><trkpt lat="45.97375824148348" lon="11.084546760812158"><ele>351.0</ele><time>2026-04-11T09:50:49Z</time></trkpt><trkpt lat="45.973905206598396" lon="11.08442022727913"><ele>354.0</ele><time>2026-04-11T09:50:50Z</time></trkpt><trkpt lat="45.97405396205833" lon="11.084306496929665"><ele>354.0</ele><time>2026-04-11T09:50:51Z</time></trkpt><trkpt lat="45.974202730477465" lon="11.084195234525055"><ele>354.0</ele><time>2026-04-11T09:50:52Z</time></trkpt><trkpt lat="45.97435056252345" lon="11.084091925280148"><ele>354.0</ele><time>2026-04-11T09:50:53Z</time></trkpt><trkpt lat="45.97450620616869" lon="11.084032208712562"><ele>364.0</ele><time>2026-04-11T09:50:54Z</time></trkpt><trkpt lat="45.97466454962914" lon="11.084016837284008"><ele>374.0</ele><time>2026-04-11T09:50:55Z</time></trkpt><trkpt lat="45.97481611450698" lon="11.084009354509076"><ele>384.0</ele><time>2026-04-11T09:50:56Z</time></trkpt><trkpt lat="45.97496934162604" lon="11.083990246601878"><ele>384.0</ele><time>2026-04-11T09:50:57Z</time></trkpt><trkpt lat="45.975120820901665" lon="11.08395265977153"><ele>384.0</ele><time>2026-04-11T09:50:58Z</time></trkpt><trkpt lat="45.975268088867224" lon="11.083871737517589"><ele>384.0</ele><time>2026-04-11T09:50:59Z</time></trkpt><trkpt lat="45.975422372892574" lon="11.0837843032591"><ele>384.0</ele><time>2026-04-11T09:51:00Z</time></trkpt><trkpt lat="45.97557194670424" lon="11.083681120401295"><ele>384.0</ele><time>2026-04-11T09:51:01Z</time></trkpt><trkpt lat="45.97572127038416" lon="11.083579500587792"><ele>384.0</ele><time>2026-04-11T09:51:02Z</time></trkpt><trkpt lat="45.975874602901335" lon="11.083488882632464"><ele>380.6666666666667</ele><time>2026-04-11T09:51:03Z</time></trkpt><trkpt lat="45.97603350685747" lon="11.083419615902663"><ele>377.33333333333337</ele><time>2026-04-11T09:51:04Z</time></trkpt><trkpt lat="45.976198852823224" lon="11.083382125133113"><ele>374.0</ele><time>2026-04-11T09:51:05Z</time></trkpt><trkpt lat="45.97636325654276" lon="11.08335788552662"><ele>374.0</ele><time>2026-04-11T09:51:06Z</time></trkpt><trkpt lat="45.976525529165876" lon="11.083335677956393"><ele>374.0</ele><time>2026-04-11T09:51:07Z</time></trkpt><trkpt lat="45.97667862782493" lon="11.083295485806593"><ele>374.0</ele><time>2026-04-11T09:51:08Z</time></trkpt><trkpt lat="45.97682404313533" lon="11.083226090435291"><ele>368.0</ele><time>2026-04-11T09:51:09Z</time></trkpt><trkpt lat="45.976956791164454" lon="11.083127692336266"><ele>362.0</ele><time>2026-04-11T09:51:10Z</time></trkpt><trkpt lat="45.977056233141916" lon="11.083019900896852"><ele>356.0</ele><time>2026-04-11T09:51:11Z</time></trkpt><trkpt lat="45.97712265743378" lon="11.08291678240452"><ele>350.0</ele><time>2026-04-11T09:51:12Z</time></trkpt><trkpt lat="45.97712828258811" lon="11.082785649737247"><ele>350.0</ele><time>2026-04-11T09:51:13Z</time></trkpt><trkpt lat="45.97707896768473" lon="11.08268382743693"><ele>350.0</ele><time>2026-04-11T09:51:14Z</time></trkpt><trkpt lat="45.9770003191757" lon="11.082612835978159"><ele>350.0</ele><time>2026-04-11T09:51:15Z</time></trkpt><trkpt lat="45.97689627550958" lon="11.0825409163593"><ele>350.0</ele><time>2026-04-11T09:51:16Z</time></trkpt><trkpt lat="45.976772417512784" lon="11.082444041870954"><ele>350.0</ele><time>2026-04-11T09:51:17Z</time></trkpt><trkpt lat="45.97663625983784" lon="11.082352913660298"><ele>353.6666666666667</ele><time>2026-04-11T09:51:18Z</time></trkpt><trkpt lat="45.9764881241124" lon="11.082260205234899"><ele>357.3333333333333</ele><time>2026-04-11T09:51:19Z</time></trkpt><trkpt lat="45.976332816887" lon="11.082164796130822"><ele>361.0</ele><time>2026-04-11T09:51:19.999Z</time></trkpt><trkpt lat="45.9761763736936" lon="11.082081719919744"><ele>361.0</ele><time>2026-04-11T09:51:20.999Z</time></trkpt><trkpt lat="45.97601225700079" lon="11.082021055852962"><ele>361.0</ele><time>2026-04-11T09:51:21.999Z</time></trkpt><trkpt lat="45.97585538890142" lon="11.081941124708734"><ele>361.0</ele><time>2026-04-11T09:51:22.999Z</time></trkpt><trkpt lat="45.97570436580142" lon="11.081856727417051"><ele>370.3333333333333</ele><time>2026-04-11T09:51:23.999Z</time></trkpt><trkpt lat="45.97557269381666" lon="11.08173043320135"><ele>379.66666666666663</ele><time>2026-04-11T09:51:24.999Z</time></trkpt><trkpt lat="45.97546112340891" lon="11.08157127737028"><ele>389.0</ele><time>2026-04-11T09:51:25.999Z</time></trkpt><trkpt lat="45.97537557383183" lon="11.081378742470376"><ele>389.0</ele><time>2026-04-11T09:51:26.999Z</time></trkpt><trkpt lat="45.97530035814431" lon="11.081171342517816"><ele>389.0</ele><time>2026-04-11T09:51:27.999Z</time></trkpt><trkpt lat="45.975266073755364" lon="11.080943519177088"><ele>389.0</ele><time>2026-04-11T09:51:28.999Z</time></trkpt><trkpt lat="45.975266789116745" lon="11.080712083963853"><ele>394.66666666666663</ele><time>2026-04-11T09:51:29.999Z</time></trkpt><trkpt lat="45.97530448787403" lon="11.08048268232471"><ele>400.33333333333337</ele><time>2026-04-11T09:51:30.999Z</time></trkpt><trkpt lat="45.97536305588067" lon="11.080261530286721"><ele>406.0</ele><time>2026-04-11T09:51:31.999Z</time></trkpt><trkpt lat="45.975423480478376" lon="11.080039286812326"><ele>412.0</ele><time>2026-04-11T09:51:32.999Z</time></trkpt><trkpt lat="45.97548452402364" lon="11.079818712251253"><ele>418.0</ele><time>2026-04-11T09:51:33.999Z</time></trkpt><trkpt lat="45.97554015740325" lon="11.079598408983351"><ele>424.0</ele><time>2026-04-11T09:51:34.999Z</time></trkpt><trkpt lat="45.975602208606" lon="11.079377671017623"><ele>424.0</ele><time>2026-04-11T09:51:35.999Z</time></trkpt><trkpt lat="45.97566463534658" lon="11.079153332319907"><ele>424.0</ele><time>2026-04-11T09:51:36.999Z</time></trkpt><trkpt lat="45.975730362207074" lon="11.078930696016776"><ele>424.0</ele><time>2026-04-11T09:51:37.999Z</time></trkpt><trkpt lat="45.97578917920567" lon="11.078706301627909"><ele>431.6666666666667</ele><time>2026-04-11T09:51:38.999Z</time></trkpt><trkpt lat="45.97584878900632" lon="11.078483307103896"><ele>439.33333333333337</ele><time>2026-04-11T09:51:39.999Z</time></trkpt><trkpt lat="45.97590332823268" lon="11.078263349407635"><ele>447.0</ele><time>2026-04-11T09:51:40.999Z</time></trkpt><trkpt lat="45.97593192961529" lon="11.078034937423284"><ele>452.66666666666663</ele><time>2026-04-11T09:51:41.999Z</time></trkpt><trkpt lat="45.975931068568734" lon="11.07779584099341"><ele>458.3333333333333</ele><time>2026-04-11T09:51:42.999Z</time></trkpt><trkpt lat="45.97590290758082" lon="11.077559246063897"><ele>464.0</ele><time>2026-04-11T09:51:43.999Z</time></trkpt><trkpt lat="45.9758489693163" lon="11.077327257228621"><ele>464.0</ele><time>2026-04-11T09:51:44.999Z</time></trkpt><trkpt lat="45.97578777913688" lon="11.077097798437563"><ele>464.0</ele><time>2026-04-11T09:51:45.999Z</time></trkpt><trkpt lat="45.97574479194517" lon="11.076859239583726"><ele>464.0</ele><time>2026-04-11T09:51:46.999Z</time></trkpt><trkpt lat="45.97568518902265" lon="11.07662637152384"><ele>464.3333333333333</ele><time>2026-04-11T09:51:47.999Z</time></trkpt><trkpt lat="45.97562452271233" lon="11.07639180778231"><ele>464.66666666666663</ele><time>2026-04-11T09:51:48.999Z</time></trkpt><trkpt lat="45.97556097642782" lon="11.076143948259464"><ele>465.0</ele><time>2026-04-11T09:51:49.999Z</time></trkpt><trkpt lat="45.97551128658727" lon="11.075903576506073"><ele>461.0</ele><time>2026-04-11T09:51:50.999Z</time></trkpt><trkpt lat="45.97548129120777" lon="11.075656778418262"><ele>457.0</ele><time>2026-04-11T09:51:52.023Z</time></trkpt><trkpt lat="45.97547759667641" lon="11.075408822977469"><ele>453.0</ele><time>2026-04-11T09:51:53.021Z</time></trkpt><trkpt lat="45.9754867628679" lon="11.075146176218116"><ele>456.0</ele><time>2026-04-11T09:51:54.016Z</time></trkpt><trkpt lat="45.97549797410109" lon="11.074871909897281"><ele>459.0</ele><time>2026-04-11T09:51:55.017Z</time></trkpt><trkpt lat="45.97550930286775" lon="11.074594768186232"><ele>462.0</ele><time>2026-04-11T09:51:56.021Z</time></trkpt><trkpt lat="45.975520619227325" lon="11.074317930145419"><ele>461.0</ele><time>2026-04-11T09:51:57.022Z</time></trkpt><trkpt lat="45.97554948650513" lon="11.07363877854719"><ele>461.0</ele><time>2026-04-11T09:51:59.999Z</time></trkpt><trkpt lat="45.97556190181267" lon="11.073371645194836"><ele>461.0</ele><time>2026-04-11T09:52:00.999Z</time></trkpt><trkpt lat="45.97556976487215" lon="11.07310553853056"><ele>461.0</ele><time>2026-04-11T09:52:01.999Z</time></trkpt><trkpt lat="45.97557224286978" lon="11.072833026289688"><ele>445.0</ele><time>2026-04-11T09:52:03.016Z</time></trkpt><trkpt lat="45.97543721415777" lon="11.072001874402652"><ele>445.0</ele><time>2026-04-11T09:52:05.999Z</time></trkpt><trkpt lat="45.9753617305193" lon="11.071770520561584"><ele>445.0</ele><time>2026-04-11T09:52:06.999Z</time></trkpt><trkpt lat="45.9752790568715" lon="11.071543974774094"><ele>445.0</ele><time>2026-04-11T09:52:07.999Z</time></trkpt><trkpt lat="45.97520147546341" lon="11.071334565061747"><ele>445.8</ele><time>2026-04-11T09:52:09Z</time></trkpt><trkpt lat="45.975127206055625" lon="11.071134094888839"><ele>446.6</ele><time>2026-04-11T09:52:10Z</time></trkpt><trkpt lat="45.97508502396808" lon="11.071020236286094"><ele>447.4</ele><time>2026-04-11T09:52:11Z</time></trkpt><trkpt lat="45.97505149381792" lon="11.070929730839978"><ele>448.2</ele><time>2026-04-11T09:52:12Z</time></trkpt><trkpt lat="45.9750167026819" lon="11.070830019333462"><ele>449.0</ele><time>2026-04-11T09:52:13Z</time></trkpt><trkpt lat="45.97499062586302" lon="11.070745923328394"><ele>459.0</ele><time>2026-04-11T09:52:14Z</time></trkpt><trkpt lat="45.97485571181003" lon="11.070686877128558"><ele>469.0</ele><time>2026-04-11T09:52:15Z</time></trkpt><trkpt lat="45.97473672199217" lon="11.070660841250882"><ele>479.0</ele><time>2026-04-11T09:52:17Z</time></trkpt><trkpt lat="45.97471780464346" lon="11.070472973843565"><ele>489.0</ele><time>2026-04-11T09:52:19Z</time></trkpt><trkpt lat="45.974693640092894" lon="11.070322804843446"><ele>489.0</ele><time>2026-04-11T09:52:20Z</time></trkpt><trkpt lat="45.974651018226105" lon="11.070132141437488"><ele>489.0</ele><time>2026-04-11T09:52:21Z</time></trkpt><trkpt lat="45.97459813618003" lon="11.06995218919184"><ele>489.0</ele><time>2026-04-11T09:52:22Z</time></trkpt><trkpt lat="45.97458399063257" lon="11.069718971889884"><ele>489.0</ele><time>2026-04-11T09:52:23Z</time></trkpt><trkpt lat="45.97451869630111" lon="11.06952804693384"><ele>489.0</ele><time>2026-04-11T09:52:24Z</time></trkpt><trkpt lat="45.974467451875526" lon="11.06934460136135"><ele>489.0</ele><time>2026-04-11T09:52:25Z</time></trkpt><trkpt lat="45.974451106246114" lon="11.06916156077903"><ele>489.0</ele><time>2026-04-11T09:52:26Z</time></trkpt><trkpt lat="45.9744628057101" lon="11.06896618538939"><ele>489.0</ele><time>2026-04-11T09:52:27Z</time></trkpt><trkpt lat="45.974507877859175" lon="11.068796745345049"><ele>493.5</ele><time>2026-04-11T09:52:28Z</time></trkpt><trkpt lat="45.97457297053987" lon="11.068621316135937"><ele>498.0</ele><time>2026-04-11T09:52:29Z</time></trkpt><trkpt lat="45.974633456667625" lon="11.068418967226341"><ele>502.5</ele><time>2026-04-11T09:52:30Z</time></trkpt><trkpt lat="45.9747210443564" lon="11.068232126178708"><ele>507.0</ele><time>2026-04-11T09:52:31Z</time></trkpt><trkpt lat="45.97477805052078" lon="11.068018755389224"><ele>512.3333333333334</ele><time>2026-04-11T09:52:32Z</time></trkpt><trkpt lat="45.97481136043333" lon="11.067791740327806"><ele>517.6666666666667</ele><time>2026-04-11T09:52:33Z</time></trkpt><trkpt lat="45.974820866846315" lon="11.067561706181149"><ele>523.0</ele><time>2026-04-11T09:52:34Z</time></trkpt><trkpt lat="45.97480287208534" lon="11.06733208097168"><ele>524.0</ele><time>2026-04-11T09:52:35Z</time></trkpt><trkpt lat="45.97475887798286" lon="11.067107378964822"><ele>525.0</ele><time>2026-04-11T09:52:36Z</time></trkpt><trkpt lat="45.974688068947266" lon="11.066893660909704"><ele>526.0</ele><time>2026-04-11T09:52:37Z</time></trkpt><trkpt lat="45.97461884095907" lon="11.06668704643019"><ele>528.3333333333334</ele><time>2026-04-11T09:52:38Z</time></trkpt><trkpt lat="45.97457987988535" lon="11.066472413340657"><ele>530.6666666666666</ele><time>2026-04-11T09:52:39Z</time></trkpt><trkpt lat="45.974562893147265" lon="11.066240760615317"><ele>533.0</ele><time>2026-04-11T09:52:40Z</time></trkpt><trkpt lat="45.97457533996867" lon="11.06600732620705"><ele>533.0</ele><time>2026-04-11T09:52:41Z</time></trkpt><trkpt lat="45.974611517218186" lon="11.06578144897529"><ele>533.0</ele><time>2026-04-11T09:52:42Z</time></trkpt><trkpt lat="45.97466828375673" lon="11.065553073174533"><ele>533.0</ele><time>2026-04-11T09:52:43Z</time></trkpt><trkpt lat="45.97471476481758" lon="11.065319574663159"><ele>538.0</ele><time>2026-04-11T09:52:44Z</time></trkpt><trkpt lat="45.974782106034596" lon="11.06509612082904"><ele>543.0</ele><time>2026-04-11T09:52:45Z</time></trkpt><trkpt lat="45.974842272372435" lon="11.064872826788406"><ele>548.0</ele><time>2026-04-11T09:52:46Z</time></trkpt><trkpt lat="45.97490444109739" lon="11.064650666681988"><ele>552.0</ele><time>2026-04-11T09:52:47Z</time></trkpt><trkpt lat="45.974957979127545" lon="11.064427417018017"><ele>556.0</ele><time>2026-04-11T09:52:48Z</time></trkpt><trkpt lat="45.97497978930227" lon="11.064193180753215"><ele>560.0</ele><time>2026-04-11T09:52:49Z</time></trkpt><trkpt lat="45.97499927057293" lon="11.063946944976573"><ele>561.0</ele><time>2026-04-11T09:52:50Z</time></trkpt><trkpt lat="45.97498709034391" lon="11.06369440809818"><ele>562.0</ele><time>2026-04-11T09:52:51Z</time></trkpt><trkpt lat="45.974953695671125" lon="11.063443708790702"><ele>563.0</ele><time>2026-04-11T09:52:52Z</time></trkpt><trkpt lat="45.974902532338795" lon="11.063200682450171"><ele>559.6666666666666</ele><time>2026-04-11T09:52:53Z</time></trkpt><trkpt lat="45.97483268261992" lon="11.062961142827733"><ele>556.3333333333334</ele><time>2026-04-11T09:52:54Z</time></trkpt><trkpt lat="45.97473788365328" lon="11.062744221324921"><ele>553.0</ele><time>2026-04-11T09:52:55Z</time></trkpt><trkpt lat="45.97462015569166" lon="11.062542607044314"><ele>554.3333333333334</ele><time>2026-04-11T09:52:56Z</time></trkpt><trkpt lat="45.9744871608599" lon="11.06238171957472"><ele>555.6666666666666</ele><time>2026-04-11T09:52:57Z</time></trkpt><trkpt lat="45.974357384818745" lon="11.062223931852639"><ele>557.0</ele><time>2026-04-11T09:52:58Z</time></trkpt><trkpt lat="45.97422315158323" lon="11.062060724899789"><ele>560.6666666666666</ele><time>2026-04-11T09:52:59Z</time></trkpt><trkpt lat="45.974098436555366" lon="11.061891053985926"><ele>564.3333333333334</ele><time>2026-04-11T09:53:00Z</time></trkpt><trkpt lat="45.97397858708897" lon="11.06171432113872"><ele>568.0</ele><time>2026-04-11T09:53:01Z</time></trkpt><trkpt lat="45.97386892924689" lon="11.061522836722114"><ele>568.0</ele><time>2026-04-11T09:53:02Z</time></trkpt><trkpt lat="45.97376424709699" lon="11.061318414712758"><ele>568.0</ele><time>2026-04-11T09:53:03Z</time></trkpt><trkpt lat="45.97365790856141" lon="11.061109260639235"><ele>568.0</ele><time>2026-04-11T09:53:04Z</time></trkpt><trkpt lat="45.97355172912871" lon="11.06090055050456"><ele>571.0</ele><time>2026-04-11T09:53:05Z</time></trkpt><trkpt lat="45.973445426593244" lon="11.060697727457912"><ele>574.0</ele><time>2026-04-11T09:53:06Z</time></trkpt><trkpt lat="45.97334327257985" lon="11.06049361081033"><ele>577.0</ele><time>2026-04-11T09:53:07Z</time></trkpt><trkpt lat="45.97323036098346" lon="11.060295957340793"><ele>586.0</ele><time>2026-04-11T09:53:08Z</time></trkpt><trkpt lat="45.97310187145294" lon="11.060118671223227"><ele>595.0</ele><time>2026-04-11T09:53:09Z</time></trkpt><trkpt lat="45.972977673837256" lon="11.059953156314476"><ele>604.0</ele><time>2026-04-11T09:53:10Z</time></trkpt><trkpt lat="45.97285967901123" lon="11.059784258648769"><ele>606.2</ele><time>2026-04-11T09:53:11Z</time></trkpt><trkpt lat="45.97277428413666" lon="11.059620262134981"><ele>608.4</ele><time>2026-04-11T09:53:12Z</time></trkpt><trkpt lat="45.97275177655889" lon="11.05948528964866"><ele>610.6</ele><time>2026-04-11T09:53:13Z</time></trkpt><trkpt lat="45.972756340795875" lon="11.059374024478048"><ele>612.8</ele><time>2026-04-11T09:53:14Z</time></trkpt><trkpt lat="45.97277769665557" lon="11.059279505950972"><ele>615.0</ele><time>2026-04-11T09:53:15Z</time></trkpt><trkpt lat="45.97282382740365" lon="11.059129019191188"><ele>618.2</ele><time>2026-04-11T09:53:16Z</time></trkpt><trkpt lat="45.97287964808647" lon="11.058964016969613"><ele>621.4</ele><time>2026-04-11T09:53:17Z</time></trkpt><trkpt lat="45.97290716689739" lon="11.05883365547416"><ele>624.6</ele><time>2026-04-11T09:53:18Z</time></trkpt><trkpt lat="45.97297105900889" lon="11.058778202040717"><ele>627.8</ele><time>2026-04-11T09:53:19Z</time></trkpt><trkpt lat="45.9730550292536" lon="11.05875540750926"><ele>631.0</ele><time>2026-04-11T09:53:20Z</time></trkpt><trkpt lat="45.9731516828086" lon="11.058871275987084"><ele>631.0</ele><time>2026-04-11T09:53:21Z</time></trkpt><trkpt lat="45.97324134971373" lon="11.058948800950128"><ele>631.0</ele><time>2026-04-11T09:53:22Z</time></trkpt><trkpt lat="45.97332680914156" lon="11.059019145668458"><ele>631.0</ele><time>2026-04-11T09:53:23Z</time></trkpt><trkpt lat="45.973435263651425" lon="11.058985063862885"><ele>631.0</ele><time>2026-04-11T09:53:23.999Z</time></trkpt><trkpt lat="45.97350794773165" lon="11.05891673975625"><ele>631.0</ele><time>2026-04-11T09:53:24.999Z</time></trkpt><trkpt lat="45.973547866279986" lon="11.058797987200748"><ele>631.0</ele><time>2026-04-11T09:53:25.999Z</time></trkpt><trkpt lat="45.973568625961015" lon="11.058663909833038"><ele>631.0</ele><time>2026-04-11T09:53:26.999Z</time></trkpt><trkpt lat="45.973522588557735" lon="11.058528870659828"><ele>631.0</ele><time>2026-04-11T09:53:27.999Z</time></trkpt><trkpt lat="45.973424827814476" lon="11.05843115460634"><ele>631.0</ele><time>2026-04-11T09:53:28.999Z</time></trkpt><trkpt lat="45.973320279575084" lon="11.058326690534297"><ele>631.0</ele><time>2026-04-11T09:53:29.999Z</time></trkpt><trkpt lat="45.97321828328674" lon="11.058216617115256"><ele>634.5</ele><time>2026-04-11T09:53:30.999Z</time></trkpt><trkpt lat="45.973119902967696" lon="11.058115527462277"><ele>638.0</ele><time>2026-04-11T09:53:31.999Z</time></trkpt><trkpt lat="45.97299325882162" lon="11.058056893283206"><ele>641.5</ele><time>2026-04-11T09:53:32.999Z</time></trkpt><trkpt lat="45.972853101049445" lon="11.058024995609967"><ele>645.0</ele><time>2026-04-11T09:53:33.999Z</time></trkpt><trkpt lat="45.97269479018876" lon="11.05802695191885"><ele>645.0</ele><time>2026-04-11T09:53:34.999Z</time></trkpt><trkpt lat="45.97253795721399" lon="11.058059970966388"><ele>645.0</ele><time>2026-04-11T09:53:35.999Z</time></trkpt><trkpt lat="45.972357639547454" lon="11.058058959302787"><ele>645.0</ele><time>2026-04-11T09:53:36.999Z</time></trkpt><trkpt lat="45.97216797289586" lon="11.058051992669474"><ele>645.5</ele><time>2026-04-11T09:53:37.999Z</time></trkpt><trkpt lat="45.97201668422212" lon="11.058042726220712"><ele>646.0</ele><time>2026-04-11T09:53:38.999Z</time></trkpt><trkpt lat="45.971889011423876" lon="11.058014576958394"><ele>646.5</ele><time>2026-04-11T09:53:39.999Z</time></trkpt><trkpt lat="45.971778851430294" lon="11.058040263951298"><ele>647.0</ele><time>2026-04-11T09:53:40.999Z</time></trkpt><trkpt lat="45.97168634674822" lon="11.05805615530674"><ele>647.75</ele><time>2026-04-11T09:53:41.999Z</time></trkpt><trkpt lat="45.971627164975466" lon="11.058177738284822"><ele>648.5</ele><time>2026-04-11T09:53:42.999Z</time></trkpt><trkpt lat="45.971630568107805" lon="11.058342350309887"><ele>649.25</ele><time>2026-04-11T09:53:43.999Z</time></trkpt><trkpt lat="45.9716514150968" lon="11.058510031326959"><ele>650.0</ele><time>2026-04-11T09:53:44.999Z</time></trkpt><trkpt lat="45.97169533236109" lon="11.058699949576509"><ele>645.6666666666666</ele><time>2026-04-11T09:53:45.999Z</time></trkpt><trkpt lat="45.97174094677352" lon="11.058946036689555"><ele>641.3333333333334</ele><time>2026-04-11T09:53:46.999Z</time></trkpt><trkpt lat="45.97178657275697" lon="11.059205516794657"><ele>637.0</ele><time>2026-04-11T09:53:47.999Z</time></trkpt><trkpt lat="45.97183104817528" lon="11.059488016425261"><ele>638.0</ele><time>2026-04-11T09:53:48.999Z</time></trkpt><trkpt lat="45.97188402906181" lon="11.059780239819101"><ele>639.0</ele><time>2026-04-11T09:53:49.999Z</time></trkpt><trkpt lat="45.97193492854807" lon="11.060066939388426"><ele>640.0</ele><time>2026-04-11T09:53:50.999Z</time></trkpt><trkpt lat="45.97197789616348" lon="11.060315020220363"><ele>640.0</ele><time>2026-04-11T09:53:51.999Z</time></trkpt><trkpt lat="45.97203637991443" lon="11.06055311804787"><ele>640.0</ele><time>2026-04-11T09:53:52.999Z</time></trkpt><trkpt lat="45.972121749605755" lon="11.060775217716095"><ele>640.0</ele><time>2026-04-11T09:53:53.999Z</time></trkpt><trkpt lat="45.97221650841151" lon="11.06099513282893"><ele>645.0</ele><time>2026-04-11T09:53:54.999Z</time></trkpt><trkpt lat="45.97231004964411" lon="11.06122372861462"><ele>650.0</ele><time>2026-04-11T09:53:55.999Z</time></trkpt><trkpt lat="45.972406140642974" lon="11.061450022575729"><ele>655.0</ele><time>2026-04-11T09:53:56.999Z</time></trkpt><trkpt lat="45.972503425853404" lon="11.0616738394913"><ele>647.3333333333334</ele><time>2026-04-11T09:53:57.999Z</time></trkpt><trkpt lat="45.97259716498094" lon="11.061891582925476"><ele>639.6666666666666</ele><time>2026-04-11T09:53:58.999Z</time></trkpt><trkpt lat="45.97268308448674" lon="11.062101307939308"><ele>632.0</ele><time>2026-04-11T09:53:59.999Z</time></trkpt><trkpt lat="45.97276148754093" lon="11.062283826947743"><ele>632.0</ele><time>2026-04-11T09:54:00.999Z</time></trkpt><trkpt lat="45.97282085911769" lon="11.062443082642393"><ele>632.0</ele><time>2026-04-11T09:54:01.999Z</time></trkpt><trkpt lat="45.972843630402956" lon="11.062601551960007"><ele>632.0</ele><time>2026-04-11T09:54:02.999Z</time></trkpt><trkpt lat="45.972825285176064" lon="11.062771973559684"><ele>632.0</ele><time>2026-04-11T09:54:03.999Z</time></trkpt><trkpt lat="45.9727652976865" lon="11.062915758684515"><ele>635.5</ele><time>2026-04-11T09:54:04.999Z</time></trkpt><trkpt lat="45.97267861255428" lon="11.063014520869787"><ele>639.0</ele><time>2026-04-11T09:54:05.999Z</time></trkpt><trkpt lat="45.97257369039514" lon="11.063068334440091"><ele>642.5</ele><time>2026-04-11T09:54:06.999Z</time></trkpt><trkpt lat="45.97245617618874" lon="11.063046403597328"><ele>646.0</ele><time>2026-04-11T09:54:07.999Z</time></trkpt><trkpt lat="45.972344962263435" lon="11.062990114576484"><ele>652.0</ele><time>2026-04-11T09:54:08.999Z</time></trkpt><trkpt lat="45.97225381249412" lon="11.062871787794405"><ele>658.0</ele><time>2026-04-11T09:54:09.999Z</time></trkpt><trkpt lat="45.97216368604998" lon="11.062690103459722"><ele>664.0</ele><time>2026-04-11T09:54:10.999Z</time></trkpt><trkpt lat="45.97205728419021" lon="11.062513012903839"><ele>670.0</ele><time>2026-04-11T09:54:11.999Z</time></trkpt><trkpt lat="45.97195987949621" lon="11.062313288428427"><ele>670.0</ele><time>2026-04-11T09:54:12.999Z</time></trkpt><trkpt lat="45.97185759779689" lon="11.062117883008387"><ele>670.0</ele><time>2026-04-11T09:54:13.999Z</time></trkpt><trkpt lat="45.97176339472547" lon="11.061900939629982"><ele>670.0</ele><time>2026-04-11T09:54:15Z</time></trkpt><trkpt lat="45.97164625049239" lon="11.06169935768131"><ele>675.0</ele><time>2026-04-11T09:54:16Z</time></trkpt><trkpt lat="45.9715185939093" lon="11.061512254002956"><ele>680.0</ele><time>2026-04-11T09:54:17Z</time></trkpt><trkpt lat="45.9713887819194" lon="11.061329524482804"><ele>685.0</ele><time>2026-04-11T09:54:18Z</time></trkpt><trkpt lat="45.9712706820693" lon="11.061133682724314"><ele>685.0</ele><time>2026-04-11T09:54:19Z</time></trkpt><trkpt lat="45.97116660368583" lon="11.060915238772012"><ele>685.0</ele><time>2026-04-11T09:54:20Z</time></trkpt><trkpt lat="45.97104799577014" lon="11.060705003386612"><ele>685.0</ele><time>2026-04-11T09:54:21Z</time></trkpt><trkpt lat="45.97094322217218" lon="11.06047979425245"><ele>688.3333333333334</ele><time>2026-04-11T09:54:22Z</time></trkpt><trkpt lat="45.97084758948165" lon="11.06024846514915"><ele>691.6666666666666</ele><time>2026-04-11T09:54:23Z</time></trkpt><trkpt lat="45.97072779047585" lon="11.06003375634478"><ele>695.0</ele><time>2026-04-11T09:54:24Z</time></trkpt><trkpt lat="45.97059413320743" lon="11.059838182723896"><ele>695.0</ele><time>2026-04-11T09:54:25Z</time></trkpt><trkpt lat="45.97045586792966" lon="11.059646787156483"><ele>695.0</ele><time>2026-04-11T09:54:26Z</time></trkpt><trkpt lat="45.97030838969405" lon="11.059460076740224"><ele>695.0</ele><time>2026-04-11T09:54:27Z</time></trkpt><trkpt lat="45.9701648193619" lon="11.05926423739531"><ele>690.3333333333333</ele><time>2026-04-11T09:54:28Z</time></trkpt><trkpt lat="45.97002603866517" lon="11.059061061733408"><ele>685.6666666666666</ele><time>2026-04-11T09:54:29Z</time></trkpt><trkpt lat="45.96988681890299" lon="11.058854563420951"><ele>681.0</ele><time>2026-04-11T09:54:30Z</time></trkpt><trkpt lat="45.96975222519485" lon="11.058648192170967"><ele>685.6666666666666</ele><time>2026-04-11T09:54:31Z</time></trkpt><trkpt lat="45.969607177081166" lon="11.05844219876403"><ele>690.3333333333333</ele><time>2026-04-11T09:54:32Z</time></trkpt><trkpt lat="45.96948071781625" lon="11.058195867290861"><ele>695.0</ele><time>2026-04-11T09:54:33Z</time></trkpt><trkpt lat="45.9693595267922" lon="11.057946834892697"><ele>695.0</ele><time>2026-04-11T09:54:34Z</time></trkpt><trkpt lat="45.969240041994865" lon="11.0576969413457"><ele>695.0</ele><time>2026-04-11T09:54:35Z</time></trkpt><trkpt lat="45.96921155663765" lon="11.05731627534084"><ele>701.0</ele><time>2026-04-11T09:54:36Z</time></trkpt><trkpt lat="45.96903731735336" lon="11.05702292023966"><ele>707.0</ele><time>2026-04-11T09:54:37Z</time></trkpt><trkpt lat="45.96863840443215" lon="11.057441168372096"><ele>707.0</ele><time>2026-04-11T09:54:38Z</time></trkpt><trkpt lat="45.968469349790475" lon="11.057287709401614"><ele>707.0</ele><time>2026-04-11T09:54:39Z</time></trkpt><trkpt lat="45.96831088057119" lon="11.057139631976597"><ele>707.0</ele><time>2026-04-11T09:54:40Z</time></trkpt><trkpt lat="45.968179094266546" lon="11.056959667911341"><ele>714.0</ele><time>2026-04-11T09:54:41Z</time></trkpt><trkpt lat="45.9680495529292" lon="11.056734370371661"><ele>721.0</ele><time>2026-04-11T09:54:42Z</time></trkpt><trkpt lat="45.96791927383888" lon="11.056504740685346"><ele>728.0</ele><time>2026-04-11T09:54:43Z</time></trkpt><trkpt lat="45.967772129190216" lon="11.056286783241461"><ele>728.0</ele><time>2026-04-11T09:54:44Z</time></trkpt><trkpt lat="45.96761823806856" lon="11.05609249488647"><ele>728.0</ele><time>2026-04-11T09:54:45Z</time></trkpt><trkpt lat="45.967469439351206" lon="11.055896892784565"><ele>728.0</ele><time>2026-04-11T09:54:46Z</time></trkpt><trkpt lat="45.967331566169854" lon="11.055691741351291"><ele>736.6666666666666</ele><time>2026-04-11T09:54:47Z</time></trkpt><trkpt lat="45.96719517082263" lon="11.05546414580127"><ele>745.3333333333334</ele><time>2026-04-11T09:54:48Z</time></trkpt><trkpt lat="45.9670643022991" lon="11.055245772482335"><ele>754.0</ele><time>2026-04-11T09:54:49Z</time></trkpt><trkpt lat="45.966931219213954" lon="11.05502471637239"><ele>748.6666666666667</ele><time>2026-04-11T09:54:50Z</time></trkpt><trkpt lat="45.96680100847637" lon="11.054801570045846"><ele>743.3333333333334</ele><time>2026-04-11T09:54:51Z</time></trkpt><trkpt lat="45.96666681141816" lon="11.05457699008329"><ele>738.0</ele><time>2026-04-11T09:54:52Z</time></trkpt><trkpt lat="45.966546026276234" lon="11.054350886165302"><ele>748.0</ele><time>2026-04-11T09:54:53Z</time></trkpt><trkpt lat="45.96643684122337" lon="11.054105886952525"><ele>758.0</ele><time>2026-04-11T09:54:54Z</time></trkpt><trkpt lat="45.96632843989647" lon="11.053863419765872"><ele>768.0</ele><time>2026-04-11T09:54:55Z</time></trkpt><trkpt lat="45.96622309304449" lon="11.053629709478589"><ele>768.0</ele><time>2026-04-11T09:54:56Z</time></trkpt><trkpt lat="45.966111180445594" lon="11.053390923482398"><ele>768.0</ele><time>2026-04-11T09:54:57Z</time></trkpt><trkpt lat="45.96598538509821" lon="11.05316354044154"><ele>768.0</ele><time>2026-04-11T09:54:58Z</time></trkpt><trkpt lat="45.96585819757634" lon="11.052945827914106"><ele>772.6666666666667</ele><time>2026-04-11T09:54:59Z</time></trkpt><trkpt lat="45.96572743188265" lon="11.052724894316876"><ele>777.3333333333334</ele><time>2026-04-11T09:55:00Z</time></trkpt><trkpt lat="45.96560371199315" lon="11.052516006111423"><ele>782.0</ele><time>2026-04-11T09:55:01Z</time></trkpt><trkpt lat="45.965474802838415" lon="11.05229818237822"><ele>782.0</ele><time>2026-04-11T09:55:02Z</time></trkpt><trkpt lat="45.965344693699116" lon="11.052079068916361"><ele>782.0</ele><time>2026-04-11T09:55:03Z</time></trkpt><trkpt lat="45.96521392040924" lon="11.051857489402893"><ele>782.0</ele><time>2026-04-11T09:55:04Z</time></trkpt><trkpt lat="45.96508613300872" lon="11.051639758447985"><ele>790.3333333333334</ele><time>2026-04-11T09:55:05Z</time></trkpt><trkpt lat="45.96495564276592" lon="11.051416491502728"><ele>798.6666666666667</ele><time>2026-04-11T09:55:06Z</time></trkpt><trkpt lat="45.96483451083597" lon="11.05120827292736"><ele>807.0</ele><time>2026-04-11T09:55:07Z</time></trkpt><trkpt lat="45.96470946424976" lon="11.05099580944807"><ele>803.3333333333333</ele><time>2026-04-11T09:55:08Z</time></trkpt><trkpt lat="45.96458152885148" lon="11.050779985944578"><ele>799.6666666666666</ele><time>2026-04-11T09:55:09Z</time></trkpt><trkpt lat="45.96441158367601" lon="11.050595990230267"><ele>796.0</ele><time>2026-04-11T09:55:10Z</time></trkpt><trkpt lat="45.96428186714646" lon="11.05037787993807"><ele>803.0</ele><time>2026-04-11T09:55:11Z</time></trkpt><trkpt lat="45.964155938379676" lon="11.05016222170075"><ele>810.0</ele><time>2026-04-11T09:55:12Z</time></trkpt><trkpt lat="45.96403117380218" lon="11.049959998289145"><ele>817.0</ele><time>2026-04-11T09:55:13Z</time></trkpt><trkpt lat="45.963893270821124" lon="11.049766993478777"><ele>817.0</ele><time>2026-04-11T09:55:14Z</time></trkpt><trkpt lat="45.96378927041828" lon="11.049508669126034"><ele>817.0</ele><time>2026-04-11T09:55:15Z</time></trkpt><trkpt lat="45.963695342960776" lon="11.049228647013935"><ele>817.0</ele><time>2026-04-11T09:55:16Z</time></trkpt><trkpt lat="45.96361823548783" lon="11.048990786245009"><ele>817.6666666666666</ele><time>2026-04-11T09:55:17Z</time></trkpt><trkpt lat="45.9635476789847" lon="11.048782153084984"><ele>818.3333333333333</ele><time>2026-04-11T09:55:18Z</time></trkpt><trkpt lat="45.96347110529219" lon="11.04855381205427"><ele>819.0</ele><time>2026-04-11T09:55:19Z</time></trkpt><trkpt lat="45.963386205002905" lon="11.048296463337483"><ele>826.3333333333333</ele><time>2026-04-11T09:55:20Z</time></trkpt><trkpt lat="45.96329825418276" lon="11.0480385985926"><ele>833.6666666666666</ele><time>2026-04-11T09:55:21Z</time></trkpt><trkpt lat="45.96320562895821" lon="11.047785946842199"><ele>841.0</ele><time>2026-04-11T09:55:22Z</time></trkpt><trkpt lat="45.963076585462645" lon="11.047546953042367"><ele>840.0</ele><time>2026-04-11T09:55:23Z</time></trkpt><trkpt lat="45.962954748376234" lon="11.047329506280672"><ele>839.0</ele><time>2026-04-11T09:55:24Z</time></trkpt><trkpt lat="45.96282883131409" lon="11.047109194997141"><ele>838.0</ele><time>2026-04-11T09:55:25Z</time></trkpt><trkpt lat="45.96269454520702" lon="11.046889128516865"><ele>838.0</ele><time>2026-04-11T09:55:26Z</time></trkpt><trkpt lat="45.96255587781161" lon="11.0466574529044"><ele>838.0</ele><time>2026-04-11T09:55:27Z</time></trkpt><trkpt lat="45.962422072763296" lon="11.046432838093443"><ele>838.0</ele><time>2026-04-11T09:55:28Z</time></trkpt><trkpt lat="45.96228742753646" lon="11.046205676065062"><ele>841.6666666666666</ele><time>2026-04-11T09:55:29Z</time></trkpt><trkpt lat="45.96215130199643" lon="11.045987787355447"><ele>845.3333333333333</ele><time>2026-04-11T09:55:30Z</time></trkpt><trkpt lat="45.96202727638303" lon="11.04577737502838"><ele>849.0</ele><time>2026-04-11T09:55:31Z</time></trkpt><trkpt lat="45.961912513357944" lon="11.045558318476248"><ele>852.3333333333333</ele><time>2026-04-11T09:55:32Z</time></trkpt><trkpt lat="45.96181191288717" lon="11.04530930471493"><ele>855.6666666666666</ele><time>2026-04-11T09:55:33Z</time></trkpt><trkpt lat="45.96173497407331" lon="11.045044344947954"><ele>859.0</ele><time>2026-04-11T09:55:34Z</time></trkpt><trkpt lat="45.96165388122024" lon="11.044776526169896"><ele>862.3333333333333</ele><time>2026-04-11T09:55:35Z</time></trkpt><trkpt lat="45.96155769321899" lon="11.044511834813672"><ele>865.6666666666667</ele><time>2026-04-11T09:55:36Z</time></trkpt><trkpt lat="45.961490511956825" lon="11.044229226819175"><ele>869.0</ele><time>2026-04-11T09:55:37Z</time></trkpt><trkpt lat="45.96140930096402" lon="11.04395355039074"><ele>872.0</ele><time>2026-04-11T09:55:38Z</time></trkpt><trkpt lat="45.961308769647935" lon="11.043692330352915"><ele>875.0</ele><time>2026-04-11T09:55:39Z</time></trkpt><trkpt lat="45.96122240207116" lon="11.043422538306153"><ele>878.0</ele><time>2026-04-11T09:55:40Z</time></trkpt><trkpt lat="45.96109400834898" lon="11.043186529462181"><ele>876.6666666666667</ele><time>2026-04-11T09:55:40.999Z</time></trkpt><trkpt lat="45.960966563471956" lon="11.042952281482085"><ele>875.3333333333333</ele><time>2026-04-11T09:55:41.999Z</time></trkpt><trkpt lat="45.96081950476449" lon="11.04274115735944"><ele>874.0</ele><time>2026-04-11T09:55:42.999Z</time></trkpt><trkpt lat="45.96066243201892" lon="11.042546293849984"><ele>873.3333333333333</ele><time>2026-04-11T09:55:43.999Z</time></trkpt><trkpt lat="45.96049689362312" lon="11.04236612095849"><ele>872.6666666666667</ele><time>2026-04-11T09:55:44.999Z</time></trkpt><trkpt lat="45.96035166780106" lon="11.042163609942353"><ele>872.0</ele><time>2026-04-11T09:55:45.999Z</time></trkpt><trkpt lat="45.96018698184573" lon="11.04199446355527"><ele>872.0</ele><time>2026-04-11T09:55:46.999Z</time></trkpt><trkpt lat="45.96004473080119" lon="11.041785782585857"><ele>872.0</ele><time>2026-04-11T09:55:47.999Z</time></trkpt><trkpt lat="45.95992816100368" lon="11.041578315841308"><ele>872.0</ele><time>2026-04-11T09:55:48.999Z</time></trkpt><trkpt lat="45.95983661927125" lon="11.041353099782105"><ele>872.6666666666667</ele><time>2026-04-11T09:55:49.999Z</time></trkpt><trkpt lat="45.95974746399083" lon="11.041100572511738"><ele>873.3333333333333</ele><time>2026-04-11T09:55:50.999Z</time></trkpt><trkpt lat="45.959656571227285" lon="11.040844601134081"><ele>874.0</ele><time>2026-04-11T09:55:51.999Z</time></trkpt><trkpt lat="45.95955735824797" lon="11.040590148186226"><ele>874.0</ele><time>2026-04-11T09:55:52.999Z</time></trkpt><trkpt lat="45.959460355554285" lon="11.040328476401895"><ele>874.0</ele><time>2026-04-11T09:55:53.999Z</time></trkpt><trkpt lat="45.95936607285931" lon="11.040060137331471"><ele>874.0</ele><time>2026-04-11T09:55:54.999Z</time></trkpt><trkpt lat="45.95928698449993" lon="11.039785153916629"><ele>877.3333333333333</ele><time>2026-04-11T09:55:55.999Z</time></trkpt><trkpt lat="45.959193585752686" lon="11.039521158019049"><ele>880.6666666666667</ele><time>2026-04-11T09:55:56.999Z</time></trkpt><trkpt lat="45.95909514864269" lon="11.039260405888754"><ele>884.0</ele><time>2026-04-11T09:55:57.999Z</time></trkpt><trkpt lat="45.95897273197905" lon="11.039016160256082"><ele>884.0</ele><time>2026-04-11T09:55:58.999Z</time></trkpt><trkpt lat="45.95884755315775" lon="11.038781855272967"><ele>884.0</ele><time>2026-04-11T09:55:59.999Z</time></trkpt><trkpt lat="45.9587197369685" lon="11.038549732465015"><ele>884.0</ele><time>2026-04-11T09:56:00.999Z</time></trkpt><trkpt lat="45.95861928847937" lon="11.038293785536505"><ele>884.6666666666667</ele><time>2026-04-11T09:56:01.999Z</time></trkpt><trkpt lat="45.95852199357529" lon="11.038039160873408"><ele>885.3333333333333</ele><time>2026-04-11T09:56:02.999Z</time></trkpt><trkpt lat="45.958425694049936" lon="11.037781148719603"><ele>886.0</ele><time>2026-04-11T09:56:03.999Z</time></trkpt><trkpt lat="45.95833057630722" lon="11.037530951837232"><ele>888.3333333333333</ele><time>2026-04-11T09:56:04.999Z</time></trkpt><trkpt lat="45.958237082376115" lon="11.037272033917422"><ele>890.6666666666667</ele><time>2026-04-11T09:56:05.999Z</time></trkpt><trkpt lat="45.95814105201957" lon="11.037027071265753"><ele>893.0</ele><time>2026-04-11T09:56:06.999Z</time></trkpt><trkpt lat="45.958064053338866" lon="11.036820188183798"><ele>892.3333333333334</ele><time>2026-04-11T09:56:07.999Z</time></trkpt><trkpt lat="45.95797052412031" lon="11.036540793146914"><ele>891.6666666666667</ele><time>2026-04-11T09:56:08.999Z</time></trkpt><trkpt lat="45.95792836197771" lon="11.036299137434199"><ele>891.0</ele><time>2026-04-11T09:56:09.999Z</time></trkpt><trkpt lat="45.95790929870524" lon="11.03604114468694"><ele>890.6666666666667</ele><time>2026-04-11T09:56:10.999Z</time></trkpt><trkpt lat="45.95788665129714" lon="11.035786871490517"><ele>890.3333333333334</ele><time>2026-04-11T09:56:11.999Z</time></trkpt><trkpt lat="45.957870474023125" lon="11.035532208354065"><ele>890.0</ele><time>2026-04-11T09:56:12.999Z</time></trkpt><trkpt lat="45.95784670511232" lon="11.035278059096166"><ele>890.0</ele><time>2026-04-11T09:56:13.999Z</time></trkpt><trkpt lat="45.9577896793555" lon="11.03503985796069"><ele>890.0</ele><time>2026-04-11T09:56:14.999Z</time></trkpt><trkpt lat="45.95771006549611" lon="11.034822186343382"><ele>890.0</ele><time>2026-04-11T09:56:15.999Z</time></trkpt><trkpt lat="45.957623364103306" lon="11.034594365653495"><ele>890.0</ele><time>2026-04-11T09:56:16.999Z</time></trkpt><trkpt lat="45.95754052625798" lon="11.034371832307821"><ele>890.0</ele><time>2026-04-11T09:56:17.999Z</time></trkpt><trkpt lat="45.95746057709857" lon="11.034149955371804"><ele>890.0</ele><time>2026-04-11T09:56:18.999Z</time></trkpt><trkpt lat="45.95738621600263" lon="11.033939964121632"><ele>892.5</ele><time>2026-04-11T09:56:19.999Z</time></trkpt><trkpt lat="45.957339472300085" lon="11.033747579687141"><ele>895.0</ele><time>2026-04-11T09:56:21Z</time></trkpt><trkpt lat="45.95734299812867" lon="11.033547587557425"><ele>897.5</ele><time>2026-04-11T09:56:22Z</time></trkpt><trkpt lat="45.95738350211214" lon="11.03333830759003"><ele>900.0</ele><time>2026-04-11T09:56:23Z</time></trkpt><trkpt lat="45.95744202065051" lon="11.033091139225787"><ele>900.0</ele><time>2026-04-11T09:56:24Z</time></trkpt><trkpt lat="45.957495217197526" lon="11.032870615078352"><ele>900.0</ele><time>2026-04-11T09:56:25Z</time></trkpt><trkpt lat="45.957541259791874" lon="11.032654102251698"><ele>900.0</ele><time>2026-04-11T09:56:26Z</time></trkpt><trkpt lat="45.95756393059438" lon="11.032443562191427"><ele>900.5</ele><time>2026-04-11T09:56:27Z</time></trkpt><trkpt lat="45.957548591471635" lon="11.032274878362092"><ele>901.0</ele><time>2026-04-11T09:56:28Z</time></trkpt><trkpt lat="45.95748346947631" lon="11.032162540541497"><ele>901.5</ele><time>2026-04-11T09:56:29Z</time></trkpt><trkpt lat="45.95740498507533" lon="11.032060002279367"><ele>902.0</ele><time>2026-04-11T09:56:30Z</time></trkpt><trkpt lat="45.957319905928706" lon="11.03192027253359"><ele>902.0</ele><time>2026-04-11T09:56:31Z</time></trkpt><trkpt lat="45.957210374750005" lon="11.03174489481647"><ele>902.0</ele><time>2026-04-11T09:56:32Z</time></trkpt><trkpt lat="45.95707734127013" lon="11.031549507290439"><ele>902.0</ele><time>2026-04-11T09:56:33Z</time></trkpt><trkpt lat="45.95693604215019" lon="11.031341979935018"><ele>902.6666666666667</ele><time>2026-04-11T09:56:34Z</time></trkpt><trkpt lat="45.95678933128265" lon="11.03112709338695"><ele>903.3333333333333</ele><time>2026-04-11T09:56:35Z</time></trkpt><trkpt lat="45.95664197183615" lon="11.03091052632949"><ele>904.0</ele><time>2026-04-11T09:56:36Z</time></trkpt><trkpt lat="45.95650123934236" lon="11.030703699749003"><ele>904.0</ele><time>2026-04-11T09:56:37Z</time></trkpt><trkpt lat="45.95636011104676" lon="11.03049629024284"><ele>904.0</ele><time>2026-04-11T09:56:38Z</time></trkpt><trkpt lat="45.956210472783916" lon="11.030309256454649"><ele>904.0</ele><time>2026-04-11T09:56:39Z</time></trkpt><trkpt lat="45.95608721356093" lon="11.030092870174693"><ele>902.6666666666666</ele><time>2026-04-11T09:56:40Z</time></trkpt><trkpt lat="45.955952368035014" lon="11.02989283783628"><ele>901.3333333333333</ele><time>2026-04-11T09:56:41Z</time></trkpt><trkpt lat="45.95581620212714" lon="11.029693618010551"><ele>900.0</ele><time>2026-04-11T09:56:42Z</time></trkpt><trkpt lat="45.955680440732124" lon="11.029490348804392"><ele>903.3333333333333</ele><time>2026-04-11T09:56:43Z</time></trkpt><trkpt lat="45.955544843861986" lon="11.029281725097524"><ele>906.6666666666666</ele><time>2026-04-11T09:56:44Z</time></trkpt><trkpt lat="45.95541339849186" lon="11.029065524510402"><ele>910.0</ele><time>2026-04-11T09:56:45Z</time></trkpt><trkpt lat="45.95528331054841" lon="11.028847746367564"><ele>910.0</ele><time>2026-04-11T09:56:46Z</time></trkpt><trkpt lat="45.955154857209344" lon="11.028630225282667"><ele>910.0</ele><time>2026-04-11T09:56:47Z</time></trkpt><trkpt lat="45.95501538271584" lon="11.02843109619564"><ele>910.0</ele><time>2026-04-11T09:56:48Z</time></trkpt><trkpt lat="45.954905526030814" lon="11.028224515286649"><ele>911.6666666666666</ele><time>2026-04-11T09:56:49Z</time></trkpt><trkpt lat="45.95479305781246" lon="11.028014358531918"><ele>913.3333333333333</ele><time>2026-04-11T09:56:50Z</time></trkpt><trkpt lat="45.95467855509343" lon="11.027810072205689"><ele>915.0</ele><time>2026-04-11T09:56:51Z</time></trkpt><trkpt lat="45.954565055072" lon="11.027597094554594"><ele>916.6666666666667</ele><time>2026-04-11T09:56:52Z</time></trkpt><trkpt lat="45.95444306033854" lon="11.027397086896949"><ele>918.3333333333334</ele><time>2026-04-11T09:56:53Z</time></trkpt><trkpt lat="45.95433465400548" lon="11.027179962028587"><ele>920.0</ele><time>2026-04-11T09:56:54Z</time></trkpt><trkpt lat="45.95422357818827" lon="11.026974757450295"><ele>922.3333333333334</ele><time>2026-04-11T09:56:55Z</time></trkpt><trkpt lat="45.95410722238958" lon="11.026778686476753"><ele>924.6666666666667</ele><time>2026-04-11T09:56:56Z</time></trkpt><trkpt lat="45.95395697967223" lon="11.026635862438733"><ele>927.0</ele><time>2026-04-11T09:56:57Z</time></trkpt><trkpt lat="45.95384357658946" lon="11.026465982244137"><ele>927.75</ele><time>2026-04-11T09:56:58Z</time></trkpt><trkpt lat="45.953738915081814" lon="11.026335463354009"><ele>928.5</ele><time>2026-04-11T09:56:59Z</time></trkpt><trkpt lat="45.95363690147258" lon="11.026215884775374"><ele>929.25</ele><time>2026-04-11T09:57:00Z</time></trkpt><trkpt lat="45.953542424900775" lon="11.02611399623271"><ele>930.0</ele><time>2026-04-11T09:57:01Z</time></trkpt><trkpt lat="45.953463705461616" lon="11.026035810843293"><ele>930.0</ele><time>2026-04-11T09:57:02Z</time></trkpt><trkpt lat="45.953375004473585" lon="11.025979702830286"><ele>930.0</ele><time>2026-04-11T09:57:03Z</time></trkpt><trkpt lat="45.95329711974452" lon="11.025900511250665"><ele>930.0</ele><time>2026-04-11T09:57:04Z</time></trkpt><trkpt lat="45.95322116416833" lon="11.025831626557398"><ele>930.0</ele><time>2026-04-11T09:57:05Z</time></trkpt><trkpt lat="45.9531360927362" lon="11.025753889227998"><ele>930.0</ele><time>2026-04-11T09:57:06Z</time></trkpt><trkpt lat="45.95304020414259" lon="11.025633987385682"><ele>931.5</ele><time>2026-04-11T09:57:07Z</time></trkpt><trkpt lat="45.95292077445626" lon="11.025528230234183"><ele>933.0</ele><time>2026-04-11T09:57:08Z</time></trkpt><trkpt lat="45.9528096125144" lon="11.0254066702801"><ele>934.5</ele><time>2026-04-11T09:57:09Z</time></trkpt><trkpt lat="45.952680065954425" lon="11.025334193384204"><ele>936.0</ele><time>2026-04-11T09:57:10Z</time></trkpt><trkpt lat="45.9525395733511" lon="11.02528463037116"><ele>936.0</ele><time>2026-04-11T09:57:11Z</time></trkpt><trkpt lat="45.95240458958625" lon="11.025231450773369"><ele>936.0</ele><time>2026-04-11T09:57:12Z</time></trkpt><trkpt lat="45.952296077394536" lon="11.025147005419749"><ele>936.0</ele><time>2026-04-11T09:57:13Z</time></trkpt><trkpt lat="45.95223860623979" lon="11.025030086153286"><ele>936.0</ele><time>2026-04-11T09:57:14Z</time></trkpt><trkpt lat="45.95215411410049" lon="11.024886272560176"><ele>938.0</ele><time>2026-04-11T09:57:15Z</time></trkpt><trkpt lat="45.952064368168024" lon="11.024741115270578"><ele>940.0</ele><time>2026-04-11T09:57:16Z</time></trkpt><trkpt lat="45.95194520339613" lon="11.024618886662335"><ele>942.0</ele><time>2026-04-11T09:57:17Z</time></trkpt><trkpt lat="45.95182340263024" lon="11.024523812108097"><ele>944.0</ele><time>2026-04-11T09:57:18Z</time></trkpt><trkpt lat="45.95172502081357" lon="11.024406174318406"><ele>942.75</ele><time>2026-04-11T09:57:19Z</time></trkpt><trkpt lat="45.951634342660434" lon="11.024290594614182"><ele>941.5</ele><time>2026-04-11T09:57:20Z</time></trkpt><trkpt lat="45.95156523199218" lon="11.024153969755211"><ele>940.25</ele><time>2026-04-11T09:57:21Z</time></trkpt><trkpt lat="45.95150362999574" lon="11.024007466036561"><ele>939.0</ele><time>2026-04-11T09:57:22Z</time></trkpt><trkpt lat="45.95142953625524" lon="11.023862432817346"><ele>939.0</ele><time>2026-04-11T09:57:23Z</time></trkpt><trkpt lat="45.951364773967136" lon="11.02370837877536"><ele>939.0</ele><time>2026-04-11T09:57:24Z</time></trkpt><trkpt lat="45.95130249152162" lon="11.0235545689168"><ele>939.0</ele><time>2026-04-11T09:57:25Z</time></trkpt><trkpt lat="45.9512355880816" lon="11.023402559821747"><ele>939.0</ele><time>2026-04-11T09:57:26Z</time></trkpt><trkpt lat="45.95117405594927" lon="11.023252886783943"><ele>938.75</ele><time>2026-04-11T09:57:27Z</time></trkpt><trkpt lat="45.95110840263875" lon="11.02310799854312"><ele>938.5</ele><time>2026-04-11T09:57:28Z</time></trkpt><trkpt lat="45.95104330200441" lon="11.022969382267648"><ele>938.25</ele><time>2026-04-11T09:57:29Z</time></trkpt><trkpt lat="45.95097414330024" lon="11.022836994084305"><ele>938.0</ele><time>2026-04-11T09:57:30Z</time></trkpt><trkpt lat="45.950892048760885" lon="11.022722187705224"><ele>935.25</ele><time>2026-04-11T09:57:31Z</time></trkpt><trkpt lat="45.95081607085757" lon="11.02259342612244"><ele>932.5</ele><time>2026-04-11T09:57:32Z</time></trkpt><trkpt lat="45.95073595209611" lon="11.022476229137958"><ele>929.75</ele><time>2026-04-11T09:57:32.999Z</time></trkpt><trkpt lat="45.950654026235256" lon="11.022354627377975"><ele>927.0</ele><time>2026-04-11T09:57:33.999Z</time></trkpt><trkpt lat="45.95057132509931" lon="11.022230781332658"><ele>927.0</ele><time>2026-04-11T09:57:34.999Z</time></trkpt><trkpt lat="45.950486058849854" lon="11.02210270727713"><ele>927.0</ele><time>2026-04-11T09:57:35.999Z</time></trkpt><trkpt lat="45.950390775756844" lon="11.02198656661167"><ele>927.0</ele><time>2026-04-11T09:57:36.999Z</time></trkpt><trkpt lat="45.95031484114368" lon="11.021847130592088"><ele>927.0</ele><time>2026-04-11T09:57:37.999Z</time></trkpt><trkpt lat="45.95025156242475" lon="11.021696702584046"><ele>926.5</ele><time>2026-04-11T09:57:38.999Z</time></trkpt><trkpt lat="45.95022235456832" lon="11.021526880912262"><ele>926.0</ele><time>2026-04-11T09:57:39.999Z</time></trkpt><trkpt lat="45.95018073620246" lon="11.02136603221957"><ele>925.5</ele><time>2026-04-11T09:57:40.999Z</time></trkpt><trkpt lat="45.95011704047837" lon="11.021217177734439"><ele>925.0</ele><time>2026-04-11T09:57:41.999Z</time></trkpt><trkpt lat="45.950070295299255" lon="11.021069683469507"><ele>925.0</ele><time>2026-04-11T09:57:42.999Z</time></trkpt><trkpt lat="45.95003358690768" lon="11.020920897410639"><ele>925.0</ele><time>2026-04-11T09:57:43.999Z</time></trkpt><trkpt lat="45.950009982260994" lon="11.020773701142778"><ele>925.0</ele><time>2026-04-11T09:57:44.999Z</time></trkpt><trkpt lat="45.94998612876694" lon="11.020627568772984"><ele>925.0</ele><time>2026-04-11T09:57:45.999Z</time></trkpt><trkpt lat="45.94995137113645" lon="11.02048786841787"><ele>925.0</ele><time>2026-04-11T09:57:46.999Z</time></trkpt><trkpt lat="45.94986352097542" lon="11.02038979268197"><ele>924.9999999999999</ele><time>2026-04-11T09:57:47.999Z</time></trkpt><trkpt lat="45.949795316769645" lon="11.020269926226302"><ele>925.0</ele><time>2026-04-11T09:57:48.999Z</time></trkpt><trkpt lat="45.949731334130156" lon="11.020155652668043"><ele>925.0</ele><time>2026-04-11T09:57:49.999Z</time></trkpt><trkpt lat="45.949671324291685" lon="11.020047515385562"><ele>925.0</ele><time>2026-04-11T09:57:50.999Z</time></trkpt><trkpt lat="45.949618161218034" lon="11.019965491955386"><ele>924.9999999999999</ele><time>2026-04-11T09:57:51.999Z</time></trkpt><trkpt lat="45.94957244928889" lon="11.019900422762461"><ele>925.0</ele><time>2026-04-11T09:57:52.999Z</time></trkpt><trkpt lat="45.94952448496464" lon="11.019837413980333"><ele>924.1666666666666</ele><time>2026-04-11T09:57:53.999Z</time></trkpt><trkpt lat="45.949457270381934" lon="11.01975008004502"><ele>923.3333333333333</ele><time>2026-04-11T09:57:55.999Z</time></trkpt><trkpt lat="45.949407798007556" lon="11.019662666014089"><ele>922.5</ele><time>2026-04-11T09:57:57.999Z</time></trkpt><trkpt lat="45.949349110193026" lon="11.019526053657303"><ele>921.6666666666667</ele><time>2026-04-11T09:57:59.999Z</time></trkpt><trkpt lat="45.94932283697856" lon="11.019439715564411"><ele>920.8333333333334</ele><time>2026-04-11T09:58:00.999Z</time></trkpt><trkpt lat="45.949302420771126" lon="11.019348722581217"><ele>920.0</ele><time>2026-04-11T09:58:01.999Z</time></trkpt><trkpt lat="45.94928202582729" lon="11.019254688290523"><ele>920.0000000000001</ele><time>2026-04-11T09:58:02.999Z</time></trkpt><trkpt lat="45.94925179663867" lon="11.019154167511651"><ele>920.0</ele><time>2026-04-11T09:58:03.999Z</time></trkpt><trkpt lat="45.94923836046587" lon="11.01902940480125"><ele>920.0</ele><time>2026-04-11T09:58:04.999Z</time></trkpt><trkpt lat="45.949224992665904" lon="11.018930838937514"><ele>920.0</ele><time>2026-04-11T09:58:05.999Z</time></trkpt><trkpt lat="45.94919766079231" lon="11.018812826441312"><ele>920.0000000000001</ele><time>2026-04-11T09:58:06.999Z</time></trkpt><trkpt lat="45.94915400681973" lon="11.018678998588854"><ele>920.0</ele><time>2026-04-11T09:58:07.999Z</time></trkpt><trkpt lat="45.949083266308016" lon="11.018511975839928"><ele>924.0</ele><time>2026-04-11T09:58:08.999Z</time></trkpt><trkpt lat="45.94901181350357" lon="11.018305593736681"><ele>928.0</ele><time>2026-04-11T09:58:09.999Z</time></trkpt><trkpt lat="45.948962857672974" lon="11.018075897478463"><ele>932.0</ele><time>2026-04-11T09:58:10.999Z</time></trkpt><trkpt lat="45.94887415328512" lon="11.017850212431753"><ele>932.0</ele><time>2026-04-11T09:58:11.999Z</time></trkpt><trkpt lat="45.94879334362743" lon="11.017618405831682"><ele>932.0</ele><time>2026-04-11T09:58:12.999Z</time></trkpt><trkpt lat="45.948709341467435" lon="11.017392689678394"><ele>932.0</ele><time>2026-04-11T09:58:13.999Z</time></trkpt><trkpt lat="45.94861963425513" lon="11.017179843347963"><ele>932.5</ele><time>2026-04-11T09:58:14.999Z</time></trkpt><trkpt lat="45.94856745128767" lon="11.017094637268901"><ele>933.0</ele><time>2026-04-11T09:58:16.999Z</time></trkpt><trkpt lat="45.94851697047682" lon="11.016934931853017"><ele>933.5</ele><time>2026-04-11T09:58:17.999Z</time></trkpt><trkpt lat="45.94847066285923" lon="11.016763308856913"><ele>934.0</ele><time>2026-04-11T09:58:18.999Z</time></trkpt><trkpt lat="45.948428971515405" lon="11.016599607269818"><ele>936.0</ele><time>2026-04-11T09:58:19.999Z</time></trkpt><trkpt lat="45.94838825216187" lon="11.016435037538677"><ele>938.0</ele><time>2026-04-11T09:58:20.999Z</time></trkpt><trkpt lat="45.948349579423365" lon="11.016271774603135"><ele>940.0</ele><time>2026-04-11T09:58:21.999Z</time></trkpt><trkpt lat="45.948309405120966" lon="11.01612136880303"><ele>942.0</ele><time>2026-04-11T09:58:22.999Z</time></trkpt><trkpt lat="45.948240658098136" lon="11.015946438564411"><ele>945.75</ele><time>2026-04-11T09:58:23.999Z</time></trkpt><trkpt lat="45.94816645916001" lon="11.015810642935206"><ele>949.5</ele><time>2026-04-11T09:58:24.999Z</time></trkpt><trkpt lat="45.9480607942172" lon="11.015713517958211"><ele>953.25</ele><time>2026-04-11T09:58:25.999Z</time></trkpt><trkpt lat="45.94791832438834" lon="11.015665415416764"><ele>957.0</ele><time>2026-04-11T09:58:27Z</time></trkpt><trkpt lat="45.94781266152993" lon="11.015568084622917"><ele>957.0</ele><time>2026-04-11T09:58:28Z</time></trkpt><trkpt lat="45.947739857011406" lon="11.015445328860295"><ele>957.0</ele><time>2026-04-11T09:58:29Z</time></trkpt><trkpt lat="45.9477013394854" lon="11.015310453190963"><ele>957.0</ele><time>2026-04-11T09:58:30Z</time></trkpt><trkpt lat="45.94764338941465" lon="11.015155345395756"><ele>957.0</ele><time>2026-04-11T09:58:31Z</time></trkpt><trkpt lat="45.94757813158409" lon="11.015021926299656"><ele>957.0</ele><time>2026-04-11T09:58:32Z</time></trkpt><trkpt lat="45.9475197745438" lon="11.014875778051682"><ele>958.4000000000001</ele><time>2026-04-11T09:58:33Z</time></trkpt><trkpt lat="45.94746159998687" lon="11.014730955317352"><ele>959.8000000000001</ele><time>2026-04-11T09:58:34Z</time></trkpt><trkpt lat="45.94740323985124" lon="11.014596515273247"><ele>961.2</ele><time>2026-04-11T09:58:35Z</time></trkpt><trkpt lat="45.947336430092875" lon="11.014480851272747"><ele>962.6</ele><time>2026-04-11T09:58:36Z</time></trkpt><trkpt lat="45.947253334603495" lon="11.014390486408676"><ele>964.0</ele><time>2026-04-11T09:58:37Z</time></trkpt><trkpt lat="45.94714805565427" lon="11.01430378318976"><ele>964.0</ele><time>2026-04-11T09:58:38Z</time></trkpt><trkpt lat="45.94704311920515" lon="11.014212033265848"><ele>964.0</ele><time>2026-04-11T09:58:39Z</time></trkpt><trkpt lat="45.94693488386168" lon="11.01412108669778"><ele>964.0</ele><time>2026-04-11T09:58:40Z</time></trkpt><trkpt lat="45.94683052677642" lon="11.014040828507305"><ele>964.0</ele><time>2026-04-11T09:58:41Z</time></trkpt><trkpt lat="45.94673037863265" lon="11.013927692380733"><ele>963.75</ele><time>2026-04-11T09:58:42Z</time></trkpt><trkpt lat="45.94664821694966" lon="11.013802357710523"><ele>963.5</ele><time>2026-04-11T09:58:43Z</time></trkpt><trkpt lat="45.94655178533859" lon="11.013690337885672"><ele>963.25</ele><time>2026-04-11T09:58:44Z</time></trkpt><trkpt lat="45.946452476979154" lon="11.013579438313686"><ele>963.0</ele><time>2026-04-11T09:58:45Z</time></trkpt><trkpt lat="45.94636989245677" lon="11.013477455613431"><ele>963.0</ele><time>2026-04-11T09:58:46Z</time></trkpt><trkpt lat="45.94629429483505" lon="11.013358210801549"><ele>963.0</ele><time>2026-04-11T09:58:47Z</time></trkpt><trkpt lat="45.94623278641764" lon="11.01323722774613"><ele>963.0</ele><time>2026-04-11T09:58:48Z</time></trkpt><trkpt lat="45.94616946626287" lon="11.013110288297371"><ele>963.0</ele><time>2026-04-11T09:58:49Z</time></trkpt><trkpt lat="45.94611529968172" lon="11.013001124852803"><ele>963.0</ele><time>2026-04-11T09:58:50Z</time></trkpt><trkpt lat="45.946064734867264" lon="11.012891957352617"><ele>965.0</ele><time>2026-04-11T09:58:51Z</time></trkpt><trkpt lat="45.946021732082414" lon="11.01279629741101"><ele>967.0</ele><time>2026-04-11T09:58:52Z</time></trkpt><trkpt lat="45.945993503730286" lon="11.012658729148896"><ele>969.0</ele><time>2026-04-11T09:58:54Z</time></trkpt><trkpt lat="45.94597838647952" lon="11.012497891681317"><ele>971.0</ele><time>2026-04-11T09:58:56Z</time></trkpt><trkpt lat="45.94597216307439" lon="11.012380723698271"><ele>973.0</ele><time>2026-04-11T09:58:57Z</time></trkpt><trkpt lat="45.94596723666899" lon="11.012255449835173"><ele>975.0</ele><time>2026-04-11T09:58:58Z</time></trkpt><trkpt lat="45.94594820737582" lon="11.012118485025328"><ele>977.0</ele><time>2026-04-11T09:58:59Z</time></trkpt><trkpt lat="45.94591229061321" lon="11.011980842460574"><ele>979.0</ele><time>2026-04-11T09:59:00Z</time></trkpt><trkpt lat="45.94582698928662" lon="11.011853382050935"><ele>981.0</ele><time>2026-04-11T09:59:01Z</time></trkpt><trkpt lat="45.945716487858384" lon="11.011778732741801"><ele>983.0</ele><time>2026-04-11T09:59:02Z</time></trkpt><trkpt lat="45.94562241865133" lon="11.01173483216115"><ele>978.5999999999999</ele><time>2026-04-11T09:59:03Z</time></trkpt><trkpt lat="45.945504335082205" lon="11.011697307068475"><ele>974.1999999999999</ele><time>2026-04-11T09:59:04Z</time></trkpt><trkpt lat="45.945400141020876" lon="11.011687985559771"><ele>969.8</ele><time>2026-04-11T09:59:05Z</time></trkpt><trkpt lat="45.94529481609359" lon="11.011678917504204"><ele>965.4</ele><time>2026-04-11T09:59:06Z</time></trkpt><trkpt lat="45.94518408596484" lon="11.011669384037175"><ele>961.0</ele><time>2026-04-11T09:59:07Z</time></trkpt><trkpt lat="45.945078126720674" lon="11.011678755608306"><ele>960.8</ele><time>2026-04-11T09:59:08Z</time></trkpt><trkpt lat="45.94495165366726" lon="11.011668457568225"><ele>960.5999999999999</ele><time>2026-04-11T09:59:09Z</time></trkpt><trkpt lat="45.944834499468854" lon="11.011649111298652"><ele>960.4</ele><time>2026-04-11T09:59:10Z</time></trkpt><trkpt lat="45.94473175823582" lon="11.011643472003115"><ele>960.2</ele><time>2026-04-11T09:59:11Z</time></trkpt><trkpt lat="45.94464465757914" lon="11.011584235269789"><ele>960.0</ele><time>2026-04-11T09:59:12Z</time></trkpt><trkpt lat="45.94457165679207" lon="11.011529942538605"><ele>960.0</ele><time>2026-04-11T09:59:13Z</time></trkpt><trkpt lat="45.94450708690414" lon="11.01145479197239"><ele>960.0</ele><time>2026-04-11T09:59:14Z</time></trkpt><trkpt lat="45.944427936280015" lon="11.011376113057725"><ele>960.0</ele><time>2026-04-11T09:59:15Z</time></trkpt><trkpt lat="45.9443552525488" lon="11.011266881142852"><ele>960.0</ele><time>2026-04-11T09:59:16Z</time></trkpt><trkpt lat="45.944276754107115" lon="11.011151798555993"><ele>960.0</ele><time>2026-04-11T09:59:17Z</time></trkpt><trkpt lat="45.94419195181309" lon="11.011062324574683"><ele>957.25</ele><time>2026-04-11T09:59:18Z</time></trkpt><trkpt lat="45.944093486785896" lon="11.01098869455752"><ele>954.5</ele><time>2026-04-11T09:59:19Z</time></trkpt><trkpt lat="45.94398070279818" lon="11.01094850903543"><ele>951.75</ele><time>2026-04-11T09:59:20Z</time></trkpt><trkpt lat="45.943862898394556" lon="11.010919553128764"><ele>949.0</ele><time>2026-04-11T09:59:21Z</time></trkpt><trkpt lat="45.943746577984065" lon="11.010895144535844"><ele>949.0</ele><time>2026-04-11T09:59:22Z</time></trkpt><trkpt lat="45.943627450763785" lon="11.010861958804542"><ele>949.0</ele><time>2026-04-11T09:59:23Z</time></trkpt><trkpt lat="45.943521402362755" lon="11.010826957618884"><ele>949.0</ele><time>2026-04-11T09:59:24Z</time></trkpt><trkpt lat="45.943404790838564" lon="11.010795954324701"><ele>949.0</ele><time>2026-04-11T09:59:25Z</time></trkpt><trkpt lat="45.94329710650358" lon="11.01076048682643"><ele>951.0</ele><time>2026-04-11T09:59:26Z</time></trkpt><trkpt lat="45.94319527360377" lon="11.010763341645703"><ele>953.0</ele><time>2026-04-11T09:59:27Z</time></trkpt><trkpt lat="45.94307170575546" lon="11.010758725801205"><ele>955.0</ele><time>2026-04-11T09:59:28Z</time></trkpt><trkpt lat="45.94296077513579" lon="11.01077582624889"><ele>957.0</ele><time>2026-04-11T09:59:29Z</time></trkpt><trkpt lat="45.94284273230119" lon="11.010812382737242"><ele>957.0</ele><time>2026-04-11T09:59:30Z</time></trkpt><trkpt lat="45.94272976995614" lon="11.01080998197244"><ele>957.0</ele><time>2026-04-11T09:59:31Z</time></trkpt><trkpt lat="45.942612414742996" lon="11.010806865733526"><ele>957.0</ele><time>2026-04-11T09:59:32Z</time></trkpt><trkpt lat="45.94251508202727" lon="11.01076929630177"><ele>957.0</ele><time>2026-04-11T09:59:33Z</time></trkpt><trkpt lat="45.94241573069434" lon="11.010730945510238"><ele>957.0</ele><time>2026-04-11T09:59:34Z</time></trkpt><trkpt lat="45.9423090774997" lon="11.010683654742557"><ele>955.0</ele><time>2026-04-11T09:59:35Z</time></trkpt><trkpt lat="45.94220810215635" lon="11.010631514904679"><ele>953.0</ele><time>2026-04-11T09:59:36Z</time></trkpt><trkpt lat="45.94211205546512" lon="11.010567117832743"><ele>951.0</ele><time>2026-04-11T09:59:36.999Z</time></trkpt><trkpt lat="45.94201706448714" lon="11.010485632869694"><ele>949.0</ele><time>2026-04-11T09:59:37.999Z</time></trkpt><trkpt lat="45.941928588306084" lon="11.010401775194323"><ele>947.0</ele><time>2026-04-11T09:59:38.999Z</time></trkpt><trkpt lat="45.9418380186013" lon="11.01030998917451"><ele>947.0</ele><time>2026-04-11T09:59:39.999Z</time></trkpt><trkpt lat="45.9417421584829" lon="11.010210973843098"><ele>947.0</ele><time>2026-04-11T09:59:40.999Z</time></trkpt><trkpt lat="45.94165493179175" lon="11.010146800210183"><ele>947.0</ele><time>2026-04-11T09:59:41.999Z</time></trkpt><trkpt lat="45.941559897689736" lon="11.010044982569182"><ele>947.0</ele><time>2026-04-11T09:59:42.999Z</time></trkpt><trkpt lat="45.94147204127242" lon="11.009937160211841"><ele>946.8</ele><time>2026-04-11T09:59:43.999Z</time></trkpt><trkpt lat="45.941377481342265" lon="11.009843256769775"><ele>946.6</ele><time>2026-04-11T09:59:44.999Z</time></trkpt><trkpt lat="45.94127738647264" lon="11.009750535275666"><ele>946.3999999999999</ele><time>2026-04-11T09:59:45.999Z</time></trkpt><trkpt lat="45.94119195961115" lon="11.00967228202684"><ele>946.1999999999999</ele><time>2026-04-11T09:59:46.999Z</time></trkpt><trkpt lat="45.94111840832924" lon="11.00960054426881"><ele>946.0</ele><time>2026-04-11T09:59:47.999Z</time></trkpt><trkpt lat="45.94103230303791" lon="11.009568011751771"><ele>946.0</ele><time>2026-04-11T09:59:48.999Z</time></trkpt><trkpt lat="45.94093581008891" lon="11.00955753838056"><ele>945.9999999999999</ele><time>2026-04-11T09:59:49.999Z</time></trkpt><trkpt lat="45.940822058441064" lon="11.00958625323341"><ele>945.9999999999999</ele><time>2026-04-11T09:59:50.999Z</time></trkpt><trkpt lat="45.94073103271488" lon="11.009620095397981"><ele>946.0</ele><time>2026-04-11T09:59:51.999Z</time></trkpt><trkpt lat="45.94064871006164" lon="11.009654039826778"><ele>946.0</ele><time>2026-04-11T09:59:52.999Z</time></trkpt><trkpt lat="45.94056021166616" lon="11.009691383146928"><ele>945.3333333333333</ele><time>2026-04-11T09:59:53.999Z</time></trkpt><trkpt lat="45.94046501396681" lon="11.009729310145037"><ele>944.6666666666666</ele><time>2026-04-11T09:59:54.999Z</time></trkpt><trkpt lat="45.94037844340146" lon="11.00976091843125"><ele>944.0</ele><time>2026-04-11T09:59:55.999Z</time></trkpt><trkpt lat="45.94028985105171" lon="11.009783560310963"><ele>943.3333333333333</ele><time>2026-04-11T09:59:56.999Z</time></trkpt><trkpt lat="45.940215014605265" lon="11.009794097867944"><ele>942.6666666666666</ele><time>2026-04-11T09:59:57.999Z</time></trkpt><trkpt lat="45.94011954337887" lon="11.009795732301212"><ele>942.0</ele><time>2026-04-11T09:59:58.999Z</time></trkpt><trkpt lat="45.94002676556677" lon="11.009785518176702"><ele>942.0</ele><time>2026-04-11T09:59:59.999Z</time></trkpt><trkpt lat="45.93991555868839" lon="11.009770093608898"><ele>942.0</ele><time>2026-04-11T10:00:00.999Z</time></trkpt><trkpt lat="45.93980321258151" lon="11.009754510953725"><ele>942.0</ele><time>2026-04-11T10:00:01.999Z</time></trkpt><trkpt lat="45.939669173545" lon="11.00973581804466"><ele>942.0</ele><time>2026-04-11T10:00:02.999Z</time></trkpt><trkpt lat="45.93955381183653" lon="11.009718886094328"><ele>942.0</ele><time>2026-04-11T10:00:03.999Z</time></trkpt><trkpt lat="45.93942255684979" lon="11.009697053207551"><ele>942.0</ele><time>2026-04-11T10:00:04.999Z</time></trkpt><trkpt lat="45.93929890344667" lon="11.009674426782476"><ele>942.0</ele><time>2026-04-11T10:00:05.999Z</time></trkpt><trkpt lat="45.93915342044013" lon="11.009647650932811"><ele>942.0</ele><time>2026-04-11T10:00:06.999Z</time></trkpt><trkpt lat="45.93901634592356" lon="11.009630456032804"><ele>940.0</ele><time>2026-04-11T10:00:07.999Z</time></trkpt><trkpt lat="45.93890071960832" lon="11.009618269645499"><ele>938.0</ele><time>2026-04-11T10:00:08.999Z</time></trkpt><trkpt lat="45.93877493325787" lon="11.009595540225208"><ele>936.0</ele><time>2026-04-11T10:00:09.999Z</time></trkpt><trkpt lat="45.93865493618544" lon="11.00958147205061"><ele>934.0</ele><time>2026-04-11T10:00:10.999Z</time></trkpt><trkpt lat="45.93854740554217" lon="11.009535491328085"><ele>934.0</ele><time>2026-04-11T10:00:11.999Z</time></trkpt><trkpt lat="45.93843634829628" lon="11.009509334235021"><ele>934.0</ele><time>2026-04-11T10:00:12.999Z</time></trkpt><trkpt lat="45.93832996168849" lon="11.009466594656123"><ele>934.0</ele><time>2026-04-11T10:00:13.999Z</time></trkpt><trkpt lat="45.93821961242338" lon="11.009398220751532"><ele>934.0</ele><time>2026-04-11T10:00:14.999Z</time></trkpt><trkpt lat="45.938126427158835" lon="11.009312330951332"><ele>934.5</ele><time>2026-04-11T10:00:15.999Z</time></trkpt><trkpt lat="45.93801538064716" lon="11.009218017651449"><ele>935.0</ele><time>2026-04-11T10:00:16.999Z</time></trkpt><trkpt lat="45.93791797693545" lon="11.009096750345343"><ele>935.5</ele><time>2026-04-11T10:00:17.999Z</time></trkpt><trkpt lat="45.93781106775466" lon="11.008982390302938"><ele>936.0</ele><time>2026-04-11T10:00:18.999Z</time></trkpt><trkpt lat="45.937697058588824" lon="11.008884985062803"><ele>936.0</ele><time>2026-04-11T10:00:19.999Z</time></trkpt><trkpt lat="45.937575306533425" lon="11.008805367687007"><ele>936.0</ele><time>2026-04-11T10:00:20.999Z</time></trkpt><trkpt lat="45.93745378654354" lon="11.008742173764032"><ele>936.0</ele><time>2026-04-11T10:00:21.999Z</time></trkpt><trkpt lat="45.93733020771918" lon="11.008691317831062"><ele>936.0</ele><time>2026-04-11T10:00:22.999Z</time></trkpt><trkpt lat="45.937204825413914" lon="11.008652819932065"><ele>933.25</ele><time>2026-04-11T10:00:23.999Z</time></trkpt><trkpt lat="45.93708018162381" lon="11.008644043121153"><ele>930.5</ele><time>2026-04-11T10:00:24.999Z</time></trkpt><trkpt lat="45.93695348864762" lon="11.008643373122364"><ele>927.75</ele><time>2026-04-11T10:00:25.999Z</time></trkpt><trkpt lat="45.93682762566338" lon="11.008637310830194"><ele>925.0</ele><time>2026-04-11T10:00:26.999Z</time></trkpt><trkpt lat="45.93670124916834" lon="11.008630416972688"><ele>923.0</ele><time>2026-04-11T10:00:27.999Z</time></trkpt><trkpt lat="45.9365807375085" lon="11.00862577531657"><ele>921.0</ele><time>2026-04-11T10:00:28.999Z</time></trkpt><trkpt lat="45.936457987062646" lon="11.008616398537391"><ele>919.0</ele><time>2026-04-11T10:00:29.999Z</time></trkpt><trkpt lat="45.936335199254195" lon="11.008605364303383"><ele>917.0</ele><time>2026-04-11T10:00:30.999Z</time></trkpt><trkpt lat="45.93621455561407" lon="11.008597520691314"><ele>917.0</ele><time>2026-04-11T10:00:31.999Z</time></trkpt><trkpt lat="45.93609989511966" lon="11.008592433749357"><ele>917.0</ele><time>2026-04-11T10:00:33Z</time></trkpt><trkpt lat="45.935990309994736" lon="11.008585686582236"><ele>917.0</ele><time>2026-04-11T10:00:34Z</time></trkpt><trkpt lat="45.93587827292423" lon="11.008576764832435"><ele>917.0</ele><time>2026-04-11T10:00:35Z</time></trkpt><trkpt lat="45.93576871482174" lon="11.008571990992559"><ele>917.0</ele><time>2026-04-11T10:00:36Z</time></trkpt><trkpt lat="45.93566790640974" lon="11.008559628736684"><ele>917.0</ele><time>2026-04-11T10:00:37Z</time></trkpt><trkpt lat="45.93555467406043" lon="11.008551934400174"><ele>917.0</ele><time>2026-04-11T10:00:38Z</time></trkpt><trkpt lat="45.93544117091081" lon="11.008546341279374"><ele>917.0</ele><time>2026-04-11T10:00:39Z</time></trkpt><trkpt lat="45.935328431284155" lon="11.008542093714507"><ele>917.0</ele><time>2026-04-11T10:00:40Z</time></trkpt><trkpt lat="45.93520921166965" lon="11.008523006644031"><ele>917.0</ele><time>2026-04-11T10:00:41Z</time></trkpt><trkpt lat="45.9350992142988" lon="11.008519601965258"><ele>917.0</ele><time>2026-04-11T10:00:42Z</time></trkpt><trkpt lat="45.9349814831268" lon="11.008510394241823"><ele>917.0</ele><time>2026-04-11T10:00:43Z</time></trkpt><trkpt lat="45.934864496220435" lon="11.00850081095955"><ele>917.0</ele><time>2026-04-11T10:00:44Z</time></trkpt><trkpt lat="45.934757273689584" lon="11.008513843738736"><ele>916.0</ele><time>2026-04-11T10:00:45Z</time></trkpt><trkpt lat="45.93466261375361" lon="11.008533433211868"><ele>915.0</ele><time>2026-04-11T10:00:46Z</time></trkpt><trkpt lat="45.93457273465972" lon="11.008561491659155"><ele>914.0</ele><time>2026-04-11T10:00:47Z</time></trkpt><trkpt lat="45.93449443076113" lon="11.008604714969314"><ele>913.0</ele><time>2026-04-11T10:00:48Z</time></trkpt><trkpt lat="45.9344040859537" lon="11.00865803592215"><ele>912.0</ele><time>2026-04-11T10:00:49Z</time></trkpt><trkpt lat="45.93430360048812" lon="11.008705487450355"><ele>911.2</ele><time>2026-04-11T10:00:50Z</time></trkpt><trkpt lat="45.934211949093395" lon="11.008716119564518"><ele>910.4000000000001</ele><time>2026-04-11T10:00:51Z</time></trkpt><trkpt lat="45.93410484147561" lon="11.008735321282044"><ele>909.5999999999999</ele><time>2026-04-11T10:00:52Z</time></trkpt><trkpt lat="45.93400413998687" lon="11.00869935185745"><ele>908.8</ele><time>2026-04-11T10:00:53Z</time></trkpt><trkpt lat="45.93392051189721" lon="11.008631220037408"><ele>908.0</ele><time>2026-04-11T10:00:54Z</time></trkpt><trkpt lat="45.933843580373065" lon="11.008540663012043"><ele>908.0</ele><time>2026-04-11T10:00:55Z</time></trkpt><trkpt lat="45.933766798564214" lon="11.008455006891348"><ele>908.0</ele><time>2026-04-11T10:00:56Z</time></trkpt><trkpt lat="45.93369011829946" lon="11.008374549331494"><ele>908.0</ele><time>2026-04-11T10:00:57Z</time></trkpt><trkpt lat="45.933610281334914" lon="11.008311482958847"><ele>908.0</ele><time>2026-04-11T10:00:58Z</time></trkpt><trkpt lat="45.93352666273056" lon="11.008254770919837"><ele>908.0</ele><time>2026-04-11T10:00:59Z</time></trkpt><trkpt lat="45.93344382538328" lon="11.008195831398739"><ele>910.0</ele><time>2026-04-11T10:01:00Z</time></trkpt><trkpt lat="45.933355280657246" lon="11.00813624634279"><ele>912.0</ele><time>2026-04-11T10:01:01Z</time></trkpt><trkpt lat="45.933255606477495" lon="11.008081134788824"><ele>914.0</ele><time>2026-04-11T10:01:02Z</time></trkpt><trkpt lat="45.933151431553334" lon="11.008022231339611"><ele>916.0</ele><time>2026-04-11T10:01:03Z</time></trkpt><trkpt lat="45.93305073899942" lon="11.007959725652906"><ele>918.0</ele><time>2026-04-11T10:01:04Z</time></trkpt><trkpt lat="45.93297206330448" lon="11.007877925188556"><ele>918.0</ele><time>2026-04-11T10:01:05Z</time></trkpt><trkpt lat="45.93290197719944" lon="11.007781751634104"><ele>918.0</ele><time>2026-04-11T10:01:06Z</time></trkpt><trkpt lat="45.93283331161049" lon="11.00767686898828"><ele>918.0</ele><time>2026-04-11T10:01:07Z</time></trkpt><trkpt lat="45.93276718481555" lon="11.007579211033272"><ele>918.0</ele><time>2026-04-11T10:01:08Z</time></trkpt><trkpt lat="45.93270675952906" lon="11.007486449240877"><ele>918.0</ele><time>2026-04-11T10:01:09Z</time></trkpt><trkpt lat="45.932647087849354" lon="11.007398488898552"><ele>920.5</ele><time>2026-04-11T10:01:10Z</time></trkpt><trkpt lat="45.93256904319824" lon="11.007351813900826"><ele>923.0</ele><time>2026-04-11T10:01:11Z</time></trkpt><trkpt lat="45.93248915256045" lon="11.007311850936027"><ele>925.5</ele><time>2026-04-11T10:01:12Z</time></trkpt><trkpt lat="45.932405558093166" lon="11.007295084269225"><ele>928.0</ele><time>2026-04-11T10:01:13Z</time></trkpt><trkpt lat="45.932319134871825" lon="11.007270947533817"><ele>930.5</ele><time>2026-04-11T10:01:14Z</time></trkpt><trkpt lat="45.93222788772304" lon="11.007235269695094"><ele>933.0</ele><time>2026-04-11T10:01:15Z</time></trkpt><trkpt lat="45.93212873177589" lon="11.00721336443934"><ele>933.0</ele><time>2026-04-11T10:01:16Z</time></trkpt><trkpt lat="45.932026041414446" lon="11.00719704510541"><ele>933.0</ele><time>2026-04-11T10:01:17Z</time></trkpt><trkpt lat="45.93192226436184" lon="11.007177702018236"><ele>933.0</ele><time>2026-04-11T10:01:18Z</time></trkpt><trkpt lat="45.93181342716452" lon="11.007158950384166"><ele>933.0</ele><time>2026-04-11T10:01:19Z</time></trkpt><trkpt lat="45.93169998560101" lon="11.007142642402018"><ele>933.0</ele><time>2026-04-11T10:01:20Z</time></trkpt><trkpt lat="45.93158418508605" lon="11.007139096776282"><ele>929.8</ele><time>2026-04-11T10:01:21Z</time></trkpt><trkpt lat="45.931467918742705" lon="11.00713826945963"><ele>926.5999999999999</ele><time>2026-04-11T10:01:22Z</time></trkpt><trkpt lat="45.93135319959507" lon="11.00713425320347"><ele>923.4000000000001</ele><time>2026-04-11T10:01:23Z</time></trkpt><trkpt lat="45.931245196551394" lon="11.00713297851012"><ele>920.2</ele><time>2026-04-11T10:01:24Z</time></trkpt><trkpt lat="45.93115158507821" lon="11.007141059416751"><ele>917.0</ele><time>2026-04-11T10:01:25Z</time></trkpt><trkpt lat="45.931062096803686" lon="11.007159818904668"><ele>917.0000000000001</ele><time>2026-04-11T10:01:26Z</time></trkpt><trkpt lat="45.93098072284221" lon="11.007182973954757"><ele>917.0</ele><time>2026-04-11T10:01:27Z</time></trkpt><trkpt lat="45.9309057854031" lon="11.007212565247675"><ele>917.0</ele><time>2026-04-11T10:01:28Z</time></trkpt><trkpt lat="45.930829352188034" lon="11.007243317388893"><ele>917.0</ele><time>2026-04-11T10:01:29Z</time></trkpt><trkpt lat="45.93074918213509" lon="11.00726879152688"><ele>917.0000000000001</ele><time>2026-04-11T10:01:30Z</time></trkpt><trkpt lat="45.93066525637969" lon="11.007295582085773"><ele>917.0</ele><time>2026-04-11T10:01:31Z</time></trkpt><trkpt lat="45.930577200178604" lon="11.007322828512434"><ele>914.6</ele><time>2026-04-11T10:01:32Z</time></trkpt><trkpt lat="45.93048525497982" lon="11.007353804353592"><ele>912.2</ele><time>2026-04-11T10:01:33Z</time></trkpt><trkpt lat="45.930389633352966" lon="11.00738352477267"><ele>909.8</ele><time>2026-04-11T10:01:34Z</time></trkpt><trkpt lat="45.93029194359293" lon="11.00741277603484"><ele>907.4</ele><time>2026-04-11T10:01:35Z</time></trkpt><trkpt lat="45.930193416199465" lon="11.007442631660917"><ele>905.0</ele><time>2026-04-11T10:01:36Z</time></trkpt><trkpt lat="45.930092239043525" lon="11.007473554346353"><ele>901.0</ele><time>2026-04-11T10:01:36.999Z</time></trkpt><trkpt lat="45.929989185742684" lon="11.007498136319338"><ele>897.0</ele><time>2026-04-11T10:01:37.999Z</time></trkpt><trkpt lat="45.92988027272127" lon="11.007521925090415"><ele>893.0</ele><time>2026-04-11T10:01:38.999Z</time></trkpt><trkpt lat="45.92976990007816" lon="11.007552689343223"><ele>889.0</ele><time>2026-04-11T10:01:39.999Z</time></trkpt><trkpt lat="45.92965744368597" lon="11.007590103862972"><ele>885.0</ele><time>2026-04-11T10:01:40.999Z</time></trkpt><trkpt lat="45.92954509316284" lon="11.0076252258812"><ele>885.0</ele><time>2026-04-11T10:01:41.999Z</time></trkpt><trkpt lat="45.92943104081097" lon="11.007662014189334"><ele>885.0</ele><time>2026-04-11T10:01:42.999Z</time></trkpt><trkpt lat="45.92931528812419" lon="11.007697743474173"><ele>885.0</ele><time>2026-04-11T10:01:43.999Z</time></trkpt><trkpt lat="45.92920139510463" lon="11.007732604096876"><ele>885.0</ele><time>2026-04-11T10:01:44.999Z</time></trkpt><trkpt lat="45.929084225696556" lon="11.007769231311627"><ele>883.0</ele><time>2026-04-11T10:01:45.999Z</time></trkpt><trkpt lat="45.928967116677654" lon="11.007800788221948"><ele>881.0</ele><time>2026-04-11T10:01:46.999Z</time></trkpt><trkpt lat="45.92884943890338" lon="11.007818055787709"><ele>879.0</ele><time>2026-04-11T10:01:47.999Z</time></trkpt><trkpt lat="45.92873189950456" lon="11.007799412766126"><ele>877.0</ele><time>2026-04-11T10:01:48.999Z</time></trkpt><trkpt lat="45.92861681635042" lon="11.007746078434629"><ele>877.0</ele><time>2026-04-11T10:01:49.999Z</time></trkpt><trkpt lat="45.92851398560259" lon="11.007648352171714"><ele>877.0</ele><time>2026-04-11T10:01:50.999Z</time></trkpt><trkpt lat="45.928427580032256" lon="11.007535572549392"><ele>877.0</ele><time>2026-04-11T10:01:51.999Z</time></trkpt><trkpt lat="45.92834764145454" lon="11.00741921680746"><ele>877.0</ele><time>2026-04-11T10:01:52.999Z</time></trkpt><trkpt lat="45.92827406276716" lon="11.007302250731446"><ele>876.0</ele><time>2026-04-11T10:01:53.999Z</time></trkpt><trkpt lat="45.928198540267516" lon="11.007190205300361"><ele>875.0</ele><time>2026-04-11T10:01:54.999Z</time></trkpt><trkpt lat="45.92812527019797" lon="11.007084084532137"><ele>874.0</ele><time>2026-04-11T10:01:55.999Z</time></trkpt><trkpt lat="45.92805275687058" lon="11.00698230345114"><ele>873.0</ele><time>2026-04-11T10:01:56.999Z</time></trkpt><trkpt lat="45.92798102194598" lon="11.00688281502471"><ele>872.0</ele><time>2026-04-11T10:01:57.999Z</time></trkpt><trkpt lat="45.927915706733145" lon="11.006779245702576"><ele>872.0</ele><time>2026-04-11T10:01:58.999Z</time></trkpt><trkpt lat="45.92784959339323" lon="11.006677913812558"><ele>872.0</ele><time>2026-04-11T10:01:59.999Z</time></trkpt><trkpt lat="45.92778397509918" lon="11.00657795530603"><ele>872.0</ele><time>2026-04-11T10:02:00.999Z</time></trkpt><trkpt lat="45.92771883230455" lon="11.006480610788678"><ele>872.0</ele><time>2026-04-11T10:02:01.999Z</time></trkpt><trkpt lat="45.927654660654945" lon="11.00638485348366"><ele>872.0</ele><time>2026-04-11T10:02:02.999Z</time></trkpt><trkpt lat="45.92758946685719" lon="11.006288729861575"><ele>871.2</ele><time>2026-04-11T10:02:03.999Z</time></trkpt><trkpt lat="45.92752545781773" lon="11.006192477597752"><ele>870.4000000000001</ele><time>2026-04-11T10:02:04.999Z</time></trkpt><trkpt lat="45.92746019014101" lon="11.006097591092677"><ele>869.5999999999999</ele><time>2026-04-11T10:02:05.999Z</time></trkpt><trkpt lat="45.92739593803975" lon="11.006000776378443"><ele>868.8</ele><time>2026-04-11T10:02:06.999Z</time></trkpt><trkpt lat="45.92733052910452" lon="11.00590565725429"><ele>868.0</ele><time>2026-04-11T10:02:07.999Z</time></trkpt><trkpt lat="45.92726356985444" lon="11.00580746165739"><ele>868.0</ele><time>2026-04-11T10:02:08.999Z</time></trkpt><trkpt lat="45.92719558321317" lon="11.005704440436883"><ele>868.0</ele><time>2026-04-11T10:02:09.999Z</time></trkpt><trkpt lat="45.92712426911631" lon="11.00560677356231"><ele>868.0</ele><time>2026-04-11T10:02:10.999Z</time></trkpt><trkpt lat="45.92704690178519" lon="11.00551373245194"><ele>868.0</ele><time>2026-04-11T10:02:11.999Z</time></trkpt><trkpt lat="45.92696505614775" lon="11.00542674485853"><ele>868.0</ele><time>2026-04-11T10:02:12.999Z</time></trkpt><trkpt lat="45.92687865825783" lon="11.005346694096302"><ele>868.0</ele><time>2026-04-11T10:02:13.999Z</time></trkpt><trkpt lat="45.926790930374324" lon="11.00526886593393"><ele>868.0</ele><time>2026-04-11T10:02:14.999Z</time></trkpt><trkpt lat="45.92670347709986" lon="11.005192626340303"><ele>868.0</ele><time>2026-04-11T10:02:15.999Z</time></trkpt><trkpt lat="45.92661316766596" lon="11.00512278797842"><ele>868.0</ele><time>2026-04-11T10:02:16.999Z</time></trkpt><trkpt lat="45.92652006898411" lon="11.005061559800895"><ele>868.0</ele><time>2026-04-11T10:02:17.999Z</time></trkpt><trkpt lat="45.92642137067863" lon="11.005000797685899"><ele>868.4</ele><time>2026-04-11T10:02:18.999Z</time></trkpt><trkpt lat="45.92631993117923" lon="11.004943703818515"><ele>868.8</ele><time>2026-04-11T10:02:19.999Z</time></trkpt><trkpt lat="45.9262153931012" lon="11.004892157076268"><ele>869.2</ele><time>2026-04-11T10:02:20.999Z</time></trkpt><trkpt lat="45.92612574733712" lon="11.004802588155936"><ele>869.6</ele><time>2026-04-11T10:02:21.999Z</time></trkpt><trkpt lat="45.92603471591705" lon="11.004738560738721"><ele>870.0</ele><time>2026-04-11T10:02:22.999Z</time></trkpt><trkpt lat="45.92593192697928" lon="11.00466879732426"><ele>866.4</ele><time>2026-04-11T10:02:23.999Z</time></trkpt><trkpt lat="45.92581919164446" lon="11.004655551105142"><ele>862.8</ele><time>2026-04-11T10:02:24.999Z</time></trkpt><trkpt lat="45.92572202020581" lon="11.004683755608037"><ele>859.2</ele><time>2026-04-11T10:02:25.999Z</time></trkpt><trkpt lat="45.92563726370827" lon="11.004807194490223"><ele>855.6</ele><time>2026-04-11T10:02:26.999Z</time></trkpt><trkpt lat="45.925653519603685" lon="11.004970142130446"><ele>852.0</ele><time>2026-04-11T10:02:27.999Z</time></trkpt><trkpt lat="45.92573221744512" lon="11.004831821444132"><ele>852.0</ele><time>2026-04-11T10:02:28.999Z</time></trkpt><trkpt lat="45.92575814558235" lon="11.004958914711565"><ele>852.0</ele><time>2026-04-11T10:02:29.999Z</time></trkpt><trkpt lat="45.925815621005064" lon="11.00508511532713"><ele>852.0</ele><time>2026-04-11T10:02:30.999Z</time></trkpt><trkpt lat="45.925886141965606" lon="11.005199239361733"><ele>852.0</ele><time>2026-04-11T10:02:31.999Z</time></trkpt><trkpt lat="45.925939660876786" lon="11.005329255007503"><ele>852.0</ele><time>2026-04-11T10:02:32.999Z</time></trkpt><trkpt lat="45.925987632290926" lon="11.00544994134061"><ele>852.3333333333334</ele><time>2026-04-11T10:02:33.999Z</time></trkpt><trkpt lat="45.92602205708695" lon="11.005558494901168"><ele>852.6666666666667</ele><time>2026-04-11T10:02:34.999Z</time></trkpt><trkpt lat="45.92606311296402" lon="11.005653690144525"><ele>853.0</ele><time>2026-04-11T10:02:35.999Z</time></trkpt><trkpt lat="45.92612593518979" lon="11.005793542955987"><ele>853.3333333333334</ele><time>2026-04-11T10:02:37.999Z</time></trkpt><trkpt lat="45.92617162213528" lon="11.005926108720613"><ele>853.6666666666667</ele><time>2026-04-11T10:02:40Z</time></trkpt><trkpt lat="45.92620926968589" lon="11.006009319919007"><ele>854.0</ele><time>2026-04-11T10:02:41Z</time></trkpt><trkpt lat="45.926231917843374" lon="11.006147322414225"><ele>851.25</ele><time>2026-04-11T10:02:42Z</time></trkpt><trkpt lat="45.92625627661339" lon="11.006301122933314"><ele>848.5</ele><time>2026-04-11T10:02:43Z</time></trkpt><trkpt lat="45.926251065752055" lon="11.006476890781208"><ele>845.75</ele><time>2026-04-11T10:02:44Z</time></trkpt><trkpt lat="45.926227077487376" lon="11.006653508441303"><ele>843.0</ele><time>2026-04-11T10:02:45Z</time></trkpt><trkpt lat="45.926194218893585" lon="11.006825673955813"><ele>842.25</ele><time>2026-04-11T10:02:46Z</time></trkpt><trkpt lat="45.92615839481742" lon="11.007001097415033"><ele>841.5</ele><time>2026-04-11T10:02:47Z</time></trkpt><trkpt lat="45.92612403571235" lon="11.007172039014845"><ele>840.75</ele><time>2026-04-11T10:02:48Z</time></trkpt><trkpt lat="45.926091644446785" lon="11.007335419573694"><ele>840.0</ele><time>2026-04-11T10:02:49Z</time></trkpt><trkpt lat="45.92605992932242" lon="11.007495623807833"><ele>839.75</ele><time>2026-04-11T10:02:50Z</time></trkpt><trkpt lat="45.926039055578755" lon="11.00765908267304"><ele>839.5</ele><time>2026-04-11T10:02:51Z</time></trkpt><trkpt lat="45.92599943441049" lon="11.007822614895668"><ele>839.25</ele><time>2026-04-11T10:02:52Z</time></trkpt><trkpt lat="45.92596609783416" lon="11.00797368884912"><ele>839.0</ele><time>2026-04-11T10:02:53Z</time></trkpt><trkpt lat="45.925933438126265" lon="11.008129073604312"><ele>839.0</ele><time>2026-04-11T10:02:54Z</time></trkpt><trkpt lat="45.92591517214513" lon="11.00828672398758"><ele>839.0</ele><time>2026-04-11T10:02:55Z</time></trkpt><trkpt lat="45.925915881077415" lon="11.008448104298509"><ele>839.0</ele><time>2026-04-11T10:02:56Z</time></trkpt><trkpt lat="45.925936067608866" lon="11.00861093414451"><ele>839.0</ele><time>2026-04-11T10:02:57Z</time></trkpt><trkpt lat="45.92596939324132" lon="11.00877101985666"><ele>838.75</ele><time>2026-04-11T10:02:58Z</time></trkpt><trkpt lat="45.92602182635475" lon="11.008922087088346"><ele>838.5</ele><time>2026-04-11T10:02:59Z</time></trkpt><trkpt lat="45.92609281664942" lon="11.009056048375026"><ele>838.25</ele><time>2026-04-11T10:03:00Z</time></trkpt><trkpt lat="45.92617182441458" lon="11.009183665486889"><ele>838.0</ele><time>2026-04-11T10:03:01Z</time></trkpt><trkpt lat="45.926245267132735" lon="11.009320035245318"><ele>836.5</ele><time>2026-04-11T10:03:02Z</time></trkpt><trkpt lat="45.92632079469753" lon="11.009452105854022"><ele>835.0</ele><time>2026-04-11T10:03:03Z</time></trkpt><trkpt lat="45.92639156116298" lon="11.009588283311064"><ele>833.5</ele><time>2026-04-11T10:03:04Z</time></trkpt><trkpt lat="45.926462546617024" lon="11.009723161702443"><ele>832.0</ele><time>2026-04-11T10:03:05Z</time></trkpt><trkpt lat="45.926528326872166" lon="11.009848722129826"><ele>832.0</ele><time>2026-04-11T10:03:06Z</time></trkpt><trkpt lat="45.926584365970946" lon="11.009964944488587"><ele>832.0</ele><time>2026-04-11T10:03:07Z</time></trkpt><trkpt lat="45.926644523381306" lon="11.010061040337964"><ele>832.0</ele><time>2026-04-11T10:03:08Z</time></trkpt><trkpt lat="45.92666621556019" lon="11.010161947909992"><ele>832.0</ele><time>2026-04-11T10:03:09Z</time></trkpt><trkpt lat="45.92661680194257" lon="11.010317586383302"><ele>832.0</ele><time>2026-04-11T10:03:11Z</time></trkpt><trkpt lat="45.926544318372265" lon="11.010322178123142"><ele>832.0</ele><time>2026-04-11T10:03:12Z</time></trkpt><trkpt lat="45.92647609376667" lon="11.01026068552683"><ele>832.0</ele><time>2026-04-11T10:03:13Z</time></trkpt><trkpt lat="45.92642456916796" lon="11.010158141255236"><ele>832.0</ele><time>2026-04-11T10:03:14Z</time></trkpt><trkpt lat="45.92637421053777" lon="11.01004653709952"><ele>832.0</ele><time>2026-04-11T10:03:15Z</time></trkpt><trkpt lat="45.92632122934751" lon="11.009933497020745"><ele>832.0</ele><time>2026-04-11T10:03:16Z</time></trkpt><trkpt lat="45.92625929954072" lon="11.009831118856802"><ele>832.0</ele><time>2026-04-11T10:03:17Z</time></trkpt><trkpt lat="45.92618790112839" lon="11.009735285022304"><ele>832.0</ele><time>2026-04-11T10:03:18Z</time></trkpt><trkpt lat="45.9261063031861" lon="11.009650342467092"><ele>832.0</ele><time>2026-04-11T10:03:19Z</time></trkpt><trkpt lat="45.92601403947463" lon="11.009577133171577"><ele>832.0</ele><time>2026-04-11T10:03:20Z</time></trkpt><trkpt lat="45.92591612272795" lon="11.009510768792593"><ele>832.0</ele><time>2026-04-11T10:03:21Z</time></trkpt><trkpt lat="45.92581834991602" lon="11.009438100389222"><ele>828.6</ele><time>2026-04-11T10:03:22Z</time></trkpt><trkpt lat="45.92572273689719" lon="11.009357196801279"><ele>825.2</ele><time>2026-04-11T10:03:23Z</time></trkpt><trkpt lat="45.92563502787387" lon="11.009260533386271"><ele>821.8</ele><time>2026-04-11T10:03:24Z</time></trkpt><trkpt lat="45.92555169623984" lon="11.009157477243262"><ele>818.4</ele><time>2026-04-11T10:03:25Z</time></trkpt><trkpt lat="45.92547433012263" lon="11.009045513954362"><ele>815.0</ele><time>2026-04-11T10:03:26Z</time></trkpt><trkpt lat="45.92540151718828" lon="11.008923719474259"><ele>815.0</ele><time>2026-04-11T10:03:27Z</time></trkpt><trkpt lat="45.9253312864437" lon="11.00880179070798"><ele>815.0</ele><time>2026-04-11T10:03:28Z</time></trkpt><trkpt lat="45.92525710050532" lon="11.008684193252412"><ele>815.0</ele><time>2026-04-11T10:03:29Z</time></trkpt><trkpt lat="45.925182334776245" lon="11.00856592970911"><ele>815.0</ele><time>2026-04-11T10:03:30Z</time></trkpt><trkpt lat="45.925104883572416" lon="11.00844845083608"><ele>815.0</ele><time>2026-04-11T10:03:31Z</time></trkpt><trkpt lat="45.92502977185043" lon="11.008327158036694"><ele>812.25</ele><time>2026-04-11T10:03:32Z</time></trkpt><trkpt lat="45.92495269116158" lon="11.008208125460675"><ele>809.5</ele><time>2026-04-11T10:03:33Z</time></trkpt><trkpt lat="45.92486323676186" lon="11.008102262241817"><ele>806.75</ele><time>2026-04-11T10:03:34Z</time></trkpt><trkpt lat="45.924761310495946" lon="11.008022976487664"><ele>804.0</ele><time>2026-04-11T10:03:35Z</time></trkpt><trkpt lat="45.92464723534522" lon="11.007975629993938"><ele>804.0</ele><time>2026-04-11T10:03:36Z</time></trkpt><trkpt lat="45.924530118810765" lon="11.007947802149566"><ele>804.0</ele><time>2026-04-11T10:03:37Z</time></trkpt><trkpt lat="45.92441283448172" lon="11.007913345214773"><ele>804.0</ele><time>2026-04-11T10:03:38Z</time></trkpt><trkpt lat="45.92429817530609" lon="11.007873469201785"><ele>804.0</ele><time>2026-04-11T10:03:39Z</time></trkpt><trkpt lat="45.92418635768308" lon="11.007837191589697"><ele>802.0</ele><time>2026-04-11T10:03:40Z</time></trkpt><trkpt lat="45.9240771635964" lon="11.007795652076112"><ele>800.0</ele><time>2026-04-11T10:03:41Z</time></trkpt><trkpt lat="45.92396988709575" lon="11.007757275312327"><ele>798.0</ele><time>2026-04-11T10:03:42Z</time></trkpt><trkpt lat="45.92386315844002" lon="11.007719390355138"><ele>796.0</ele><time>2026-04-11T10:03:42.999Z</time></trkpt><trkpt lat="45.92375726467664" lon="11.00767637617018"><ele>794.0</ele><time>2026-04-11T10:03:43.999Z</time></trkpt><trkpt lat="45.92365275694227" lon="11.007640693836494"><ele>794.0</ele><time>2026-04-11T10:03:44.999Z</time></trkpt><trkpt lat="45.923554210667014" lon="11.00761902366663"><ele>794.0</ele><time>2026-04-11T10:03:45.999Z</time></trkpt><trkpt lat="45.92346427499842" lon="11.00764529748019"><ele>794.0</ele><time>2026-04-11T10:03:46.999Z</time></trkpt><trkpt lat="45.92339934748809" lon="11.007744176172741"><ele>794.0</ele><time>2026-04-11T10:03:47.999Z</time></trkpt><trkpt lat="45.92336447984905" lon="11.007868677184318"><ele>794.0</ele><time>2026-04-11T10:03:48.999Z</time></trkpt><trkpt lat="45.92336261787617" lon="11.008011254676118"><ele>794.0</ele><time>2026-04-11T10:03:49.999Z</time></trkpt><trkpt lat="45.9234005555441" lon="11.008139480566465"><ele>794.0</ele><time>2026-04-11T10:03:50.999Z</time></trkpt><trkpt lat="45.923469743706335" lon="11.00823675643387"><ele>794.0</ele><time>2026-04-11T10:03:51.999Z</time></trkpt><trkpt lat="45.9235602124897" lon="11.008306525499602"><ele>794.0</ele><time>2026-04-11T10:03:52.999Z</time></trkpt><trkpt lat="45.923668217262275" lon="11.008356889089752"><ele>794.0</ele><time>2026-04-11T10:03:53.999Z</time></trkpt><trkpt lat="45.92377908330171" lon="11.008440279527541"><ele>793.5</ele><time>2026-04-11T10:03:54.999Z</time></trkpt><trkpt lat="45.92389996791502" lon="11.00851880082983"><ele>793.0</ele><time>2026-04-11T10:03:55.999Z</time></trkpt><trkpt lat="45.92401491145206" lon="11.008609259060298"><ele>792.5</ele><time>2026-04-11T10:03:56.999Z</time></trkpt><trkpt lat="45.92413629699412" lon="11.008690508989783"><ele>792.0</ele><time>2026-04-11T10:03:57.999Z</time></trkpt><trkpt lat="45.924254248052506" lon="11.008769078532126"><ele>792.0</ele><time>2026-04-11T10:03:58.999Z</time></trkpt><trkpt lat="45.92437200330928" lon="11.00885308285463"><ele>792.0</ele><time>2026-04-11T10:03:59.999Z</time></trkpt><trkpt lat="45.924486452321254" lon="11.008933521281861"><ele>792.0</ele><time>2026-04-11T10:04:00.999Z</time></trkpt><trkpt lat="45.92458564138845" lon="11.009045461984295"><ele>792.0</ele><time>2026-04-11T10:04:01.999Z</time></trkpt><trkpt lat="45.924681674864786" lon="11.00915547060628"><ele>789.25</ele><time>2026-04-11T10:04:02.999Z</time></trkpt><trkpt lat="45.9247667264603" lon="11.009277922435968"><ele>786.5</ele><time>2026-04-11T10:04:03.999Z</time></trkpt><trkpt lat="45.924847962783964" lon="11.009414922543614"><ele>783.75</ele><time>2026-04-11T10:04:04.999Z</time></trkpt><trkpt lat="45.92491908721849" lon="11.009563403794337"><ele>781.0</ele><time>2026-04-11T10:04:05.999Z</time></trkpt><trkpt lat="45.92498068507106" lon="11.009723267829761"><ele>781.0</ele><time>2026-04-11T10:04:06.999Z</time></trkpt><trkpt lat="45.92503301276096" lon="11.009894265257774"><ele>781.0</ele><time>2026-04-11T10:04:07.999Z</time></trkpt><trkpt lat="45.92508439081756" lon="11.010067146233107"><ele>781.0</ele><time>2026-04-11T10:04:08.999Z</time></trkpt><trkpt lat="45.925135273992915" lon="11.010238819874735"><ele>781.0</ele><time>2026-04-11T10:04:09.999Z</time></trkpt><trkpt lat="45.925186141503595" lon="11.010410085806413"><ele>779.75</ele><time>2026-04-11T10:04:10.999Z</time></trkpt><trkpt lat="45.92523896173996" lon="11.010581578497442"><ele>778.5</ele><time>2026-04-11T10:04:11.999Z</time></trkpt><trkpt lat="45.92529202361278" lon="11.01075385572771"><ele>777.25</ele><time>2026-04-11T10:04:12.999Z</time></trkpt><trkpt lat="45.92534100314784" lon="11.010922630230947"><ele>776.0</ele><time>2026-04-11T10:04:13.999Z</time></trkpt><trkpt lat="45.92537701432581" lon="11.01109413241846"><ele>776.0</ele><time>2026-04-11T10:04:14.999Z</time></trkpt><trkpt lat="45.92538742579907" lon="11.011266306076811"><ele>776.0</ele><time>2026-04-11T10:04:15.999Z</time></trkpt><trkpt lat="45.92536673557653" lon="11.011437780480671"><ele>776.0</ele><time>2026-04-11T10:04:16.999Z</time></trkpt><trkpt lat="45.92531327807617" lon="11.011602288462328"><ele>776.0</ele><time>2026-04-11T10:04:17.999Z</time></trkpt><trkpt lat="45.92525861024555" lon="11.011775995725225"><ele>774.0</ele><time>2026-04-11T10:04:18.999Z</time></trkpt><trkpt lat="45.925223283587" lon="11.011953467645526"><ele>772.0</ele><time>2026-04-11T10:04:19.999Z</time></trkpt><trkpt lat="45.92520057290006" lon="11.012129056575965"><ele>770.0</ele><time>2026-04-11T10:04:20.999Z</time></trkpt><trkpt lat="45.92521031203926" lon="11.012311576747969"><ele>768.0</ele><time>2026-04-11T10:04:21.999Z</time></trkpt><trkpt lat="45.92524743665884" lon="11.012497200805413"><ele>766.5</ele><time>2026-04-11T10:04:22.999Z</time></trkpt><trkpt lat="45.92530645851359" lon="11.012677902963096"><ele>765.0</ele><time>2026-04-11T10:04:23.999Z</time></trkpt><trkpt lat="45.925385346136316" lon="11.012830293923388"><ele>763.5</ele><time>2026-04-11T10:04:24.999Z</time></trkpt><trkpt lat="45.9254795797847" lon="11.01296721071945"><ele>762.0</ele><time>2026-04-11T10:04:25.999Z</time></trkpt><trkpt lat="45.92556985648411" lon="11.013113608662643"><ele>762.0</ele><time>2026-04-11T10:04:26.999Z</time></trkpt><trkpt lat="45.9256557070423" lon="11.013268295666135"><ele>762.0</ele><time>2026-04-11T10:04:27.999Z</time></trkpt><trkpt lat="45.92574575645021" lon="11.01341962356187"><ele>762.0</ele><time>2026-04-11T10:04:28.999Z</time></trkpt><trkpt lat="45.92583380829149" lon="11.013576451170305"><ele>762.0</ele><time>2026-04-11T10:04:29.999Z</time></trkpt><trkpt lat="45.92592102302142" lon="11.013730231760075"><ele>763.0</ele><time>2026-04-11T10:04:30.999Z</time></trkpt><trkpt lat="45.925994381121605" lon="11.013899130462"><ele>764.0</ele><time>2026-04-11T10:04:31.999Z</time></trkpt><trkpt lat="45.926071760944595" lon="11.014061644352159"><ele>765.0</ele><time>2026-04-11T10:04:32.999Z</time></trkpt><trkpt lat="45.9261444068098" lon="11.014224857292643"><ele>766.0</ele><time>2026-04-11T10:04:33.999Z</time></trkpt><trkpt lat="45.92622700239739" lon="11.014379590535256"><ele>762.25</ele><time>2026-04-11T10:04:34.999Z</time></trkpt><trkpt lat="45.926292569147435" lon="11.014548850167332"><ele>758.5</ele><time>2026-04-11T10:04:35.999Z</time></trkpt><trkpt lat="45.92635804286747" lon="11.014708975855234"><ele>754.75</ele><time>2026-04-11T10:04:36.999Z</time></trkpt><trkpt lat="45.92642348930303" lon="11.014865226903856"><ele>751.0</ele><time>2026-04-11T10:04:37.999Z</time></trkpt><trkpt lat="45.92649966560596" lon="11.015009196551357"><ele>750.75</ele><time>2026-04-11T10:04:38.999Z</time></trkpt><trkpt lat="45.92658995397574" lon="11.015135481275117"><ele>750.5</ele><time>2026-04-11T10:04:39.999Z</time></trkpt><trkpt lat="45.92669067588264" lon="11.015252306809245"><ele>750.25</ele><time>2026-04-11T10:04:40.999Z</time></trkpt><trkpt lat="45.926789301416015" lon="11.015371643118598"><ele>750.0</ele><time>2026-04-11T10:04:41.999Z</time></trkpt><trkpt lat="45.92689334787403" lon="11.015481405280932"><ele>750.0</ele><time>2026-04-11T10:04:42.999Z</time></trkpt><trkpt lat="45.92699596762052" lon="11.015598058312"><ele>750.0</ele><time>2026-04-11T10:04:43.999Z</time></trkpt><trkpt lat="45.92708765086802" lon="11.015731312697973"><ele>750.0</ele><time>2026-04-11T10:04:45Z</time></trkpt><trkpt lat="45.92717422302831" lon="11.015879338392242"><ele>750.0</ele><time>2026-04-11T10:04:46Z</time></trkpt><trkpt lat="45.9272602347175" lon="11.016025936412731"><ele>747.5</ele><time>2026-04-11T10:04:47Z</time></trkpt><trkpt lat="45.92734987190064" lon="11.016167283266018"><ele>745.0</ele><time>2026-04-11T10:04:48Z</time></trkpt><trkpt lat="45.92743265179973" lon="11.016310652701167"><ele>742.5</ele><time>2026-04-11T10:04:49Z</time></trkpt><trkpt lat="45.927543241614686" lon="11.016405730568257"><ele>740.0</ele><time>2026-04-11T10:04:50Z</time></trkpt><trkpt lat="45.927656393806814" lon="11.016460210485599"><ele>740.0</ele><time>2026-04-11T10:04:51Z</time></trkpt><trkpt lat="45.92775426023183" lon="11.016475040507407"><ele>740.0</ele><time>2026-04-11T10:04:52Z</time></trkpt><trkpt lat="45.927830053574915" lon="11.016501736939833"><ele>740.0</ele><time>2026-04-11T10:04:53Z</time></trkpt><trkpt lat="45.92785892937857" lon="11.01658427296104"><ele>740.0</ele><time>2026-04-11T10:04:54Z</time></trkpt><trkpt lat="45.92783584943017" lon="11.016695192700688"><ele>740.0</ele><time>2026-04-11T10:04:55Z</time></trkpt><trkpt lat="45.92777053425858" lon="11.016778391987621"><ele>740.0</ele><time>2026-04-11T10:04:56Z</time></trkpt><trkpt lat="45.92768451538698" lon="11.016781551165622"><ele>738.25</ele><time>2026-04-11T10:04:57Z</time></trkpt><trkpt lat="45.92760362287559" lon="11.016709341252978"><ele>736.5</ele><time>2026-04-11T10:04:58Z</time></trkpt><trkpt lat="45.92751235693955" lon="11.016612214716659"><ele>734.75</ele><time>2026-04-11T10:04:59Z</time></trkpt><trkpt lat="45.92740327268782" lon="11.016549810510696"><ele>733.0</ele><time>2026-04-11T10:05:00Z</time></trkpt><trkpt lat="45.92728010551958" lon="11.016506244181471"><ele>733.0</ele><time>2026-04-11T10:05:01Z</time></trkpt><trkpt lat="45.927156211939575" lon="11.016484011876383"><ele>733.0</ele><time>2026-04-11T10:05:02Z</time></trkpt><trkpt lat="45.92703440481198" lon="11.016472668727696"><ele>733.0</ele><time>2026-04-11T10:05:03Z</time></trkpt><trkpt lat="45.92691242202428" lon="11.016454001058097"><ele>733.0</ele><time>2026-04-11T10:05:04Z</time></trkpt><trkpt lat="45.92678961903662" lon="11.01643874965035"><ele>730.0</ele><time>2026-04-11T10:05:05Z</time></trkpt><trkpt lat="45.926668721984015" lon="11.016424355131502"><ele>727.0</ele><time>2026-04-11T10:05:06Z</time></trkpt><trkpt lat="45.92654742153997" lon="11.016406961206307"><ele>724.0</ele><time>2026-04-11T10:05:07Z</time></trkpt><trkpt lat="45.92642670672278" lon="11.016386358533492"><ele>721.0</ele><time>2026-04-11T10:05:08Z</time></trkpt><trkpt lat="45.92630647381604" lon="11.016351642025077"><ele>721.0</ele><time>2026-04-11T10:05:09Z</time></trkpt><trkpt lat="45.926200130111866" lon="11.016301644511683"><ele>721.0</ele><time>2026-04-11T10:05:10Z</time></trkpt><trkpt lat="45.92610594667357" lon="11.016243583880174"><ele>721.0</ele><time>2026-04-11T10:05:11Z</time></trkpt><trkpt lat="45.926022435198206" lon="11.01618138821432"><ele>721.0</ele><time>2026-04-11T10:05:12Z</time></trkpt><trkpt lat="45.92594804544618" lon="11.016113055579167"><ele>721.0</ele><time>2026-04-11T10:05:13Z</time></trkpt><trkpt lat="45.92588153825746" lon="11.01606590979596"><ele>717.4</ele><time>2026-04-11T10:05:14Z</time></trkpt><trkpt lat="45.92579331297666" lon="11.016067529333114"><ele>713.8</ele><time>2026-04-11T10:05:15Z</time></trkpt><trkpt lat="45.925730758318835" lon="11.016103505990067"><ele>710.1999999999999</ele><time>2026-04-11T10:05:16Z</time></trkpt><trkpt lat="45.92571585932562" lon="11.016277361841198"><ele>706.5999999999999</ele><time>2026-04-11T10:05:17Z</time></trkpt><trkpt lat="45.9257623589022" lon="11.01641060189062"><ele>703.0</ele><time>2026-04-11T10:05:18Z</time></trkpt><trkpt lat="45.92586420145496" lon="11.016434234259586"><ele>707.5</ele><time>2026-04-11T10:05:19Z</time></trkpt><trkpt lat="45.92596352797962" lon="11.016444404695914"><ele>712.0</ele><time>2026-04-11T10:05:20Z</time></trkpt><trkpt lat="45.92607856077473" lon="11.016484868062852"><ele>716.5</ele><time>2026-04-11T10:05:21Z</time></trkpt><trkpt lat="45.926195143098795" lon="11.016542744730284"><ele>721.0</ele><time>2026-04-11T10:05:22Z</time></trkpt><trkpt lat="45.92630733822971" lon="11.016633001207763"><ele>716.5</ele><time>2026-04-11T10:05:23Z</time></trkpt><trkpt lat="45.92640012533955" lon="11.016744276308891"><ele>712.0</ele><time>2026-04-11T10:05:24Z</time></trkpt><trkpt lat="45.92648816489857" lon="11.016866883439343"><ele>707.5</ele><time>2026-04-11T10:05:25Z</time></trkpt><trkpt lat="45.92657808006369" lon="11.016982125719295"><ele>703.0</ele><time>2026-04-11T10:05:26Z</time></trkpt><trkpt lat="45.926690705057396" lon="11.017060819724755"><ele>707.0</ele><time>2026-04-11T10:05:27Z</time></trkpt><trkpt lat="45.926801238741845" lon="11.017136389332936"><ele>711.0</ele><time>2026-04-11T10:05:28Z</time></trkpt><trkpt lat="45.92691092748853" lon="11.017204303932624"><ele>715.0</ele><time>2026-04-11T10:05:29Z</time></trkpt><trkpt lat="45.92702107632501" lon="11.017257793185847"><ele>719.0</ele><time>2026-04-11T10:05:30Z</time></trkpt><trkpt lat="45.92712183183404" lon="11.017319937835486"><ele>719.0</ele><time>2026-04-11T10:05:31Z</time></trkpt><trkpt lat="45.92721108139208" lon="11.01739466541306"><ele>719.0</ele><time>2026-04-11T10:05:32Z</time></trkpt><trkpt lat="45.92729163714207" lon="11.017476498791535"><ele>719.0</ele><time>2026-04-11T10:05:33Z</time></trkpt><trkpt lat="45.92735651923699" lon="11.017551483744485"><ele>719.0</ele><time>2026-04-11T10:05:34Z</time></trkpt><trkpt lat="45.92740414688403" lon="11.017613618077867"><ele>719.0</ele><time>2026-04-11T10:05:35Z</time></trkpt><trkpt lat="45.9274429862266" lon="11.017687089998086"><ele>719.0</ele><time>2026-04-11T10:05:37Z</time></trkpt><trkpt lat="45.927505984190894" lon="11.017786449275441"><ele>716.6</ele><time>2026-04-11T10:05:40Z</time></trkpt><trkpt lat="45.92756611263048" lon="11.01785418915238"><ele>714.2</ele><time>2026-04-11T10:05:43Z</time></trkpt><trkpt lat="45.927654726749665" lon="11.017851050338656"><ele>711.8000000000001</ele><time>2026-04-11T10:07:18Z</time></trkpt><trkpt lat="45.92772173881336" lon="11.01791811114003"><ele>709.4000000000001</ele><time>2026-04-11T10:07:20Z</time></trkpt><trkpt lat="45.92787134806065" lon="11.017991299650129"><ele>707.0</ele><time>2026-04-11T10:07:22Z</time></trkpt><trkpt lat="45.92798690633284" lon="11.018036367216459"><ele>707.0</ele><time>2026-04-11T10:07:23Z</time></trkpt><trkpt lat="45.92810589356099" lon="11.018078943287804"><ele>707.0</ele><time>2026-04-11T10:07:24Z</time></trkpt><trkpt lat="45.92819977648097" lon="11.018114657776632"><ele>707.0</ele><time>2026-04-11T10:07:25Z</time></trkpt><trkpt lat="45.92827403872636" lon="11.018150991158766"><ele>707.0</ele><time>2026-04-11T10:07:26Z</time></trkpt><trkpt lat="45.92834336863368" lon="11.018276014089375"><ele>707.0</ele><time>2026-04-11T10:07:28Z</time></trkpt><trkpt lat="45.92829929952917" lon="11.018354259618592"><ele>707.0</ele><time>2026-04-11T10:07:29Z</time></trkpt><trkpt lat="45.92822775955305" lon="11.018370342351437"><ele>707.0</ele><time>2026-04-11T10:07:30Z</time></trkpt><trkpt lat="45.928122826036564" lon="11.018343127256465"><ele>707.0</ele><time>2026-04-11T10:07:31Z</time></trkpt><trkpt lat="45.92800824246393" lon="11.018304911680753"><ele>707.0</ele><time>2026-04-11T10:07:32Z</time></trkpt><trkpt lat="45.92788394277365" lon="11.018275096749619"><ele>707.0</ele><time>2026-04-11T10:07:33Z</time></trkpt><trkpt lat="45.92775821001722" lon="11.018242098009042"><ele>707.0</ele><time>2026-04-11T10:07:34Z</time></trkpt><trkpt lat="45.92763350180726" lon="11.018203951607454"><ele>707.0</ele><time>2026-04-11T10:07:35Z</time></trkpt><trkpt lat="45.927508474415966" lon="11.018170816699511"><ele>707.0</ele><time>2026-04-11T10:07:36Z</time></trkpt><trkpt lat="45.927383149201496" lon="11.01815422804529"><ele>707.0</ele><time>2026-04-11T10:07:37Z</time></trkpt><trkpt lat="45.927257372106325" lon="11.018161937572982"><ele>703.5</ele><time>2026-04-11T10:07:38Z</time></trkpt><trkpt lat="45.92712769250966" lon="11.018183781809267"><ele>700.0</ele><time>2026-04-11T10:07:39Z</time></trkpt><trkpt lat="45.92699521626646" lon="11.01816673686877"><ele>696.5</ele><time>2026-04-11T10:07:40Z</time></trkpt><trkpt lat="45.926868550962766" lon="11.018088256797899"><ele>693.0</ele><time>2026-04-11T10:07:41Z</time></trkpt><trkpt lat="45.92675419262227" lon="11.01796594688506"><ele>695.5</ele><time>2026-04-11T10:07:42Z</time></trkpt><trkpt lat="45.926666435448084" lon="11.017810757841698"><ele>698.0</ele><time>2026-04-11T10:07:43Z</time></trkpt><trkpt lat="45.92659186567121" lon="11.017649565012261"><ele>700.5</ele><time>2026-04-11T10:07:44Z</time></trkpt><trkpt lat="45.92649509960246" lon="11.017518699133669"><ele>703.0</ele><time>2026-04-11T10:07:45Z</time></trkpt><trkpt lat="45.926377043285946" lon="11.017423061518333"><ele>703.0</ele><time>2026-04-11T10:07:46Z</time></trkpt><trkpt lat="45.92624221852589" lon="11.017370078843962"><ele>703.0</ele><time>2026-04-11T10:07:47Z</time></trkpt><trkpt lat="45.926099861445266" lon="11.017367390901658"><ele>703.0</ele><time>2026-04-11T10:07:48Z</time></trkpt><trkpt lat="45.92595903955893" lon="11.017401220017518"><ele>703.0</ele><time>2026-04-11T10:07:49Z</time></trkpt><trkpt lat="45.92582571618119" lon="11.017449351711235"><ele>700.0</ele><time>2026-04-11T10:07:50Z</time></trkpt><trkpt lat="45.92569595448865" lon="11.017469040208807"><ele>697.0</ele><time>2026-04-11T10:07:51Z</time></trkpt><trkpt lat="45.92557917437368" lon="11.017442349563296"><ele>694.0</ele><time>2026-04-11T10:07:52Z</time></trkpt><trkpt lat="45.925482780495386" lon="11.017407323602608"><ele>691.0</ele><time>2026-04-11T10:07:53Z</time></trkpt><trkpt lat="45.925398087653605" lon="11.017426185384622"><ele>688.0</ele><time>2026-04-11T10:07:54Z</time></trkpt><trkpt lat="45.92534582005293" lon="11.017523017369486"><ele>681.8</ele><time>2026-04-11T10:07:55Z</time></trkpt><trkpt lat="45.92531442998043" lon="11.017636958780114"><ele>675.5999999999999</ele><time>2026-04-11T10:07:56Z</time></trkpt><trkpt lat="45.92535508798836" lon="11.01775412797917"><ele>669.4000000000001</ele><time>2026-04-11T10:07:57Z</time></trkpt><trkpt lat="45.925434367081905" lon="11.017826495896877"><ele>663.2</ele><time>2026-04-11T10:07:57.999Z</time></trkpt><trkpt lat="45.9255422982496" lon="11.017786866566473"><ele>657.0</ele><time>2026-04-11T10:07:58.999Z</time></trkpt><trkpt lat="45.92564166908207" lon="11.017743669265672"><ele>657.0</ele><time>2026-04-11T10:07:59.999Z</time></trkpt><trkpt lat="45.92576033500959" lon="11.017732227561416"><ele>657.0</ele><time>2026-04-11T10:08:00.999Z</time></trkpt><trkpt lat="45.925887520606494" lon="11.017732886245348"><ele>657.0</ele><time>2026-04-11T10:08:01.999Z</time></trkpt><trkpt lat="45.926016004321426" lon="11.01775906971268"><ele>657.0</ele><time>2026-04-11T10:08:02.999Z</time></trkpt><trkpt lat="45.926139799085085" lon="11.017812331725787"><ele>660.25</ele><time>2026-04-11T10:08:03.999Z</time></trkpt><trkpt lat="45.92626406375615" lon="11.017892931224132"><ele>663.5</ele><time>2026-04-11T10:08:04.999Z</time></trkpt><trkpt lat="45.926379406589255" lon="11.017995900274883"><ele>666.75</ele><time>2026-04-11T10:08:05.999Z</time></trkpt><trkpt lat="45.9264965678" lon="11.018103915784867"><ele>670.0</ele><time>2026-04-11T10:08:06.999Z</time></trkpt><trkpt lat="45.926601881258584" lon="11.01823353478837"><ele>668.5</ele><time>2026-04-11T10:08:07.999Z</time></trkpt><trkpt lat="45.92669831419335" lon="11.01838175906081"><ele>667.0</ele><time>2026-04-11T10:08:08.999Z</time></trkpt><trkpt lat="45.92680993303624" lon="11.018506022297887"><ele>665.5</ele><time>2026-04-11T10:08:09.999Z</time></trkpt><trkpt lat="45.92694066883699" lon="11.018581290110415"><ele>664.0</ele><time>2026-04-11T10:08:10.999Z</time></trkpt><trkpt lat="45.92707248642208" lon="11.018667356421012"><ele>664.0</ele><time>2026-04-11T10:08:11.999Z</time></trkpt><trkpt lat="45.927207762497325" lon="11.018723338025609"><ele>664.0</ele><time>2026-04-11T10:08:12.999Z</time></trkpt><trkpt lat="45.92734785552828" lon="11.018779440850002"><ele>664.0</ele><time>2026-04-11T10:08:13.999Z</time></trkpt><trkpt lat="45.927485781286535" lon="11.018835501003316"><ele>664.0</ele><time>2026-04-11T10:08:14.999Z</time></trkpt><trkpt lat="45.9276145236824" lon="11.018888461802932"><ele>668.75</ele><time>2026-04-11T10:08:15.999Z</time></trkpt><trkpt lat="45.92774628284765" lon="11.018939236641089"><ele>673.5</ele><time>2026-04-11T10:08:16.999Z</time></trkpt><trkpt lat="45.927882897621686" lon="11.018980059830623"><ele>678.25</ele><time>2026-04-11T10:08:17.999Z</time></trkpt><trkpt lat="45.928012121988274" lon="11.0190027260108"><ele>683.0</ele><time>2026-04-11T10:08:18.999Z</time></trkpt><trkpt lat="45.928125466341235" lon="11.019030149953203"><ele>683.0</ele><time>2026-04-11T10:08:19.999Z</time></trkpt><trkpt lat="45.92822893480221" lon="11.019086563886013"><ele>683.0</ele><time>2026-04-11T10:08:20.999Z</time></trkpt><trkpt lat="45.928328533485264" lon="11.019185197457897"><ele>683.0</ele><time>2026-04-11T10:08:21.999Z</time></trkpt><trkpt lat="45.92843464587365" lon="11.019301778443966"><ele>683.0</ele><time>2026-04-11T10:08:22.999Z</time></trkpt><trkpt lat="45.92856970536194" lon="11.019399922550503"><ele>674.6666666666666</ele><time>2026-04-11T10:08:23.999Z</time></trkpt><trkpt lat="45.92872078185059" lon="11.019451738128724"><ele>666.3333333333334</ele><time>2026-04-11T10:08:24.999Z</time></trkpt><trkpt lat="45.9288741336598" lon="11.01947453523374"><ele>658.0</ele><time>2026-04-11T10:08:25.999Z</time></trkpt><trkpt lat="45.929018045405165" lon="11.019503819728062"><ele>658.0</ele><time>2026-04-11T10:08:26.999Z</time></trkpt><trkpt lat="45.9291452583156" lon="11.019551890625713"><ele>658.0</ele><time>2026-04-11T10:08:27.999Z</time></trkpt><trkpt lat="45.92925556445967" lon="11.019638176613354"><ele>658.0</ele><time>2026-04-11T10:08:28.999Z</time></trkpt><trkpt lat="45.92936758343631" lon="11.019750406818147"><ele>658.0</ele><time>2026-04-11T10:08:29.999Z</time></trkpt><trkpt lat="45.92946858167796" lon="11.01988446284192"><ele>656.3333333333334</ele><time>2026-04-11T10:08:30.999Z</time></trkpt><trkpt lat="45.929548347138024" lon="11.020053431614839"><ele>654.6666666666666</ele><time>2026-04-11T10:08:31.999Z</time></trkpt><trkpt lat="45.92962877472652" lon="11.020237539281961"><ele>653.0</ele><time>2026-04-11T10:08:32.999Z</time></trkpt><trkpt lat="45.92973042804222" lon="11.020419957606263"><ele>653.0</ele><time>2026-04-11T10:08:33.999Z</time></trkpt><trkpt lat="45.92983490145383" lon="11.02058753981883"><ele>653.0</ele><time>2026-04-11T10:08:34.999Z</time></trkpt><trkpt lat="45.92994047394643" lon="11.020772953696852"><ele>653.0</ele><time>2026-04-11T10:08:35.999Z</time></trkpt><trkpt lat="45.93006182917131" lon="11.020925983184599"><ele>651.0</ele><time>2026-04-11T10:08:36.999Z</time></trkpt><trkpt lat="45.930189703854204" lon="11.021062055487514"><ele>649.0</ele><time>2026-04-11T10:08:37.999Z</time></trkpt><trkpt lat="45.930327844620656" lon="11.021193457109277"><ele>647.0</ele><time>2026-04-11T10:08:38.999Z</time></trkpt><trkpt lat="45.93046687400738" lon="11.021318441834913"><ele>647.0</ele><time>2026-04-11T10:08:39.999Z</time></trkpt><trkpt lat="45.930604346273384" lon="11.021442026832569"><ele>647.0</ele><time>2026-04-11T10:08:40.999Z</time></trkpt><trkpt lat="45.93073449762556" lon="11.0215579591376"><ele>647.0</ele><time>2026-04-11T10:08:41.999Z</time></trkpt><trkpt lat="45.9308306000987" lon="11.021643199109159"><ele>647.0</ele><time>2026-04-11T10:08:42.999Z</time></trkpt><trkpt lat="45.93091114268005" lon="11.021714638109154"><ele>653.5</ele><time>2026-04-11T10:08:43.999Z</time></trkpt><trkpt lat="45.930990116748696" lon="11.02172071105066"><ele>660.0</ele><time>2026-04-11T10:08:44.999Z</time></trkpt><trkpt lat="45.93125133739267" lon="11.021203242485875"><ele>660.0</ele><time>2026-04-11T10:08:45.999Z</time></trkpt><trkpt lat="45.93131866369426" lon="11.02102309405057"><ele>660.0</ele><time>2026-04-11T10:08:46.999Z</time></trkpt><trkpt lat="45.9313674285024" lon="11.020771117257345"><ele>660.0</ele><time>2026-04-11T10:08:47.999Z</time></trkpt><trkpt lat="45.93159712197511" lon="11.022153114633914"><ele>652.3333333333334</ele><time>2026-04-11T10:08:48.999Z</time></trkpt><trkpt lat="45.93166766670654" lon="11.022221161796264"><ele>644.6666666666666</ele><time>2026-04-11T10:08:49.999Z</time></trkpt><trkpt lat="45.931732312742454" lon="11.022282655348656"><ele>637.0</ele><time>2026-04-11T10:08:50.999Z</time></trkpt><trkpt lat="45.93172293462441" lon="11.022379728137595"><ele>629.3333333333333</ele><time>2026-04-11T10:08:51.999Z</time></trkpt><trkpt lat="45.931679976191894" lon="11.022449595959017"><ele>621.6666666666666</ele><time>2026-04-11T10:08:52.999Z</time></trkpt><trkpt lat="45.93160885519773" lon="11.022477699428455"><ele>614.0</ele><time>2026-04-11T10:08:53.999Z</time></trkpt><trkpt lat="45.93151430599436" lon="11.02242106733114"><ele>614.0</ele><time>2026-04-11T10:08:54.999Z</time></trkpt><trkpt lat="45.93143090663822" lon="11.022302258508764"><ele>614.0</ele><time>2026-04-11T10:08:55.999Z</time></trkpt><trkpt lat="45.931322668384915" lon="11.022186185440725"><ele>614.0</ele><time>2026-04-11T10:08:57Z</time></trkpt><trkpt lat="45.93119382671188" lon="11.022100293010153"><ele>614.0</ele><time>2026-04-11T10:08:58Z</time></trkpt><trkpt lat="45.93103999307777" lon="11.022019185831063"><ele>608.6666666666666</ele><time>2026-04-11T10:08:59Z</time></trkpt><trkpt lat="45.93087013295604" lon="11.021946153561851"><ele>603.3333333333334</ele><time>2026-04-11T10:09:00Z</time></trkpt><trkpt lat="45.93069151639152" lon="11.021864166656155"><ele>598.0</ele><time>2026-04-11T10:09:01Z</time></trkpt><trkpt lat="45.930511857634286" lon="11.021780562286045"><ele>598.0</ele><time>2026-04-11T10:09:02Z</time></trkpt><trkpt lat="45.93033938220215" lon="11.021699420830025"><ele>598.0</ele><time>2026-04-11T10:09:03Z</time></trkpt><trkpt lat="45.93016195856591" lon="11.021618330799853"><ele>598.0</ele><time>2026-04-11T10:09:04Z</time></trkpt><trkpt lat="45.929989993273466" lon="11.02152664076019"><ele>602.3333333333334</ele><time>2026-04-11T10:09:05Z</time></trkpt><trkpt lat="45.92983759239888" lon="11.02139393675021"><ele>606.6666666666666</ele><time>2026-04-11T10:09:06Z</time></trkpt><trkpt lat="45.92967585867338" lon="11.02129303051363"><ele>611.0</ele><time>2026-04-11T10:09:07Z</time></trkpt><trkpt lat="45.9295237591079" lon="11.021175678278373"><ele>611.0</ele><time>2026-04-11T10:09:08Z</time></trkpt><trkpt lat="45.92938828359728" lon="11.02104905950652"><ele>611.0</ele><time>2026-04-11T10:09:09Z</time></trkpt><trkpt lat="45.929270631951255" lon="11.020929930880357"><ele>611.0</ele><time>2026-04-11T10:09:10Z</time></trkpt><trkpt lat="45.92918134910359" lon="11.020799732042168"><ele>611.0</ele><time>2026-04-11T10:09:11Z</time></trkpt><trkpt lat="45.929125918128264" lon="11.020663967983388"><ele>610.5</ele><time>2026-04-11T10:09:12Z</time></trkpt><trkpt lat="45.92908875566179" lon="11.02057379370846"><ele>610.0</ele><time>2026-04-11T10:09:13Z</time></trkpt><trkpt lat="45.92903187492557" lon="11.020496702182855"><ele>609.5</ele><time>2026-04-11T10:09:14Z</time></trkpt><trkpt lat="45.92896343240862" lon="11.020487987074445"><ele>609.0</ele><time>2026-04-11T10:09:15Z</time></trkpt><trkpt lat="45.92888176304479" lon="11.020568908422531"><ele>608.5</ele><time>2026-04-11T10:09:16Z</time></trkpt><trkpt lat="45.92885405332422" lon="11.020721831794015"><ele>608.0</ele><time>2026-04-11T10:09:17Z</time></trkpt><trkpt lat="45.92887717466972" lon="11.020847259632353"><ele>608.75</ele><time>2026-04-11T10:09:18Z</time></trkpt><trkpt lat="45.928956459081625" lon="11.020940753526027"><ele>609.5</ele><time>2026-04-11T10:09:19Z</time></trkpt><trkpt lat="45.929067267131025" lon="11.0210213379581"><ele>610.25</ele><time>2026-04-11T10:09:20Z</time></trkpt><trkpt lat="45.929179818395625" lon="11.021140903948615"><ele>611.0</ele><time>2026-04-11T10:09:21Z</time></trkpt><trkpt lat="45.929291040472805" lon="11.021283947753277"><ele>611.0</ele><time>2026-04-11T10:09:22Z</time></trkpt><trkpt lat="45.92940817081751" lon="11.021444975413417"><ele>611.0</ele><time>2026-04-11T10:09:23Z</time></trkpt><trkpt lat="45.929537778640174" lon="11.021615666733426"><ele>611.0</ele><time>2026-04-11T10:09:24Z</time></trkpt><trkpt lat="45.929666689764474" lon="11.021785454789502"><ele>597.6666666666666</ele><time>2026-04-11T10:09:25Z</time></trkpt><trkpt lat="45.929791963788304" lon="11.021952529396597"><ele>584.3333333333334</ele><time>2026-04-11T10:09:26Z</time></trkpt><trkpt lat="45.9299102385156" lon="11.022124594997448"><ele>571.0</ele><time>2026-04-11T10:09:27Z</time></trkpt><trkpt lat="45.93001111568882" lon="11.022306843194992"><ele>568.6666666666667</ele><time>2026-04-11T10:09:28Z</time></trkpt><trkpt lat="45.93012688053695" lon="11.02249172850781"><ele>566.3333333333334</ele><time>2026-04-11T10:09:29Z</time></trkpt><trkpt lat="45.93020931553035" lon="11.02269723063489"><ele>564.0</ele><time>2026-04-11T10:09:30Z</time></trkpt><trkpt lat="45.93030638200924" lon="11.022893073032211"><ele>564.0</ele><time>2026-04-11T10:09:31Z</time></trkpt><trkpt lat="45.93041822873627" lon="11.023069666129505"><ele>564.0</ele><time>2026-04-11T10:09:32Z</time></trkpt><trkpt lat="45.93050565874504" lon="11.02326100038835"><ele>564.0</ele><time>2026-04-11T10:09:33Z</time></trkpt><trkpt lat="45.93060086031058" lon="11.023425583990727"><ele>560.2</ele><time>2026-04-11T10:09:34Z</time></trkpt><trkpt lat="45.930684048522565" lon="11.023562866452005"><ele>556.4</ele><time>2026-04-11T10:09:35Z</time></trkpt><trkpt lat="45.93075860395337" lon="11.023687563236878"><ele>552.6</ele><time>2026-04-11T10:09:36Z</time></trkpt><trkpt lat="45.93081960004086" lon="11.02379682591611"><ele>548.8</ele><time>2026-04-11T10:09:37Z</time></trkpt><trkpt lat="45.930859757977636" lon="11.023885949539938"><ele>545.0</ele><time>2026-04-11T10:09:38Z</time></trkpt><trkpt lat="45.9308737787515" lon="11.023984621169916"><ele>545.0</ele><time>2026-04-11T10:09:39Z</time></trkpt><trkpt lat="45.93085286571054" lon="11.024072580870879"><ele>545.0</ele><time>2026-04-11T10:09:40Z</time></trkpt><trkpt lat="45.930767741235464" lon="11.024111299544039"><ele>545.0</ele><time>2026-04-11T10:09:41Z</time></trkpt><trkpt lat="45.93067236997094" lon="11.024069313875192"><ele>545.0</ele><time>2026-04-11T10:09:42Z</time></trkpt><trkpt lat="45.93059171501595" lon="11.023947788642868"><ele>545.0</ele><time>2026-04-11T10:09:43Z</time></trkpt><trkpt lat="45.93051988750449" lon="11.023805269648271"><ele>545.0</ele><time>2026-04-11T10:09:44Z</time></trkpt><trkpt lat="45.9304336008689" lon="11.023659116219637"><ele>545.0</ele><time>2026-04-11T10:09:45Z</time></trkpt><trkpt lat="45.93030970126328" lon="11.023547451248849"><ele>545.0</ele><time>2026-04-11T10:09:46Z</time></trkpt><trkpt lat="45.93015941236667" lon="11.023459584783968"><ele>545.0</ele><time>2026-04-11T10:09:47Z</time></trkpt><trkpt lat="45.92999716216069" lon="11.023393487513362"><ele>544.0</ele><time>2026-04-11T10:09:47.999Z</time></trkpt><trkpt lat="45.92983344322287" lon="11.023335916974839"><ele>543.0</ele><time>2026-04-11T10:09:48.999Z</time></trkpt><trkpt lat="45.92967743621637" lon="11.023272931582564"><ele>542.0</ele><time>2026-04-11T10:09:49.999Z</time></trkpt><trkpt lat="45.92952735841005" lon="11.023209283213196"><ele>542.0</ele><time>2026-04-11T10:09:50.999Z</time></trkpt><trkpt lat="45.929388035404614" lon="11.023146376488292"><ele>542.0</ele><time>2026-04-11T10:09:51.999Z</time></trkpt><trkpt lat="45.92925633194856" lon="11.023080174655808"><ele>542.0</ele><time>2026-04-11T10:09:52.999Z</time></trkpt><trkpt lat="45.92913151839725" lon="11.023009414830394"><ele>542.0</ele><time>2026-04-11T10:09:53.999Z</time></trkpt><trkpt lat="45.92901550104939" lon="11.022932513332188"><ele>536.75</ele><time>2026-04-11T10:09:54.999Z</time></trkpt><trkpt lat="45.92889634184174" lon="11.022853618436207"><ele>531.5</ele><time>2026-04-11T10:09:55.999Z</time></trkpt><trkpt lat="45.92877824930957" lon="11.022769726209882"><ele>526.25</ele><time>2026-04-11T10:09:56.999Z</time></trkpt><trkpt lat="45.92865775472211" lon="11.022677631011772"><ele>521.0</ele><time>2026-04-11T10:09:57.999Z</time></trkpt><trkpt lat="45.92853509402481" lon="11.022576223609459"><ele>519.5</ele><time>2026-04-11T10:09:58.999Z</time></trkpt><trkpt lat="45.92841430451489" lon="11.0224773868314"><ele>518.0</ele><time>2026-04-11T10:09:59.999Z</time></trkpt><trkpt lat="45.92830346948897" lon="11.022373998351776"><ele>516.5</ele><time>2026-04-11T10:10:00.999Z</time></trkpt><trkpt lat="45.92819956533529" lon="11.022272622053146"><ele>515.0</ele><time>2026-04-11T10:10:01.999Z</time></trkpt><trkpt lat="45.92810023905387" lon="11.022160763901713"><ele>515.0</ele><time>2026-04-11T10:10:02.999Z</time></trkpt><trkpt lat="45.92803154638703" lon="11.022003099015347"><ele>515.0</ele><time>2026-04-11T10:10:03.999Z</time></trkpt><trkpt lat="45.92796915583488" lon="11.021852592281846"><ele>515.0</ele><time>2026-04-11T10:10:04.999Z</time></trkpt><trkpt lat="45.927905477803016" lon="11.02170583376737"><ele>515.0</ele><time>2026-04-11T10:10:05.999Z</time></trkpt><trkpt lat="45.92784081155397" lon="11.021580585821942"><ele>515.25</ele><time>2026-04-11T10:10:06.999Z</time></trkpt><trkpt lat="45.9277440756355" lon="11.021492555841869"><ele>515.5</ele><time>2026-04-11T10:10:07.999Z</time></trkpt><trkpt lat="45.927618263410075" lon="11.021454652774086"><ele>515.75</ele><time>2026-04-11T10:10:08.999Z</time></trkpt><trkpt lat="45.92748513860286" lon="11.021465045840099"><ele>516.0</ele><time>2026-04-11T10:10:09.999Z</time></trkpt><trkpt lat="45.927358722278946" lon="11.021532663267099"><ele>516.0</ele><time>2026-04-11T10:10:10.999Z</time></trkpt><trkpt lat="45.92723653214" lon="11.021644717563396"><ele>516.0</ele><time>2026-04-11T10:10:11.999Z</time></trkpt><trkpt lat="45.92711559630319" lon="11.021750162027276"><ele>516.0</ele><time>2026-04-11T10:10:12.999Z</time></trkpt><trkpt lat="45.926982350844476" lon="11.021777685479744"><ele>516.0</ele><time>2026-04-11T10:10:13.999Z</time></trkpt><trkpt lat="45.92684324663855" lon="11.02179450421878"><ele>505.66666666666663</ele><time>2026-04-11T10:10:14.999Z</time></trkpt><trkpt lat="45.926699388806284" lon="11.021770990667457"><ele>495.3333333333333</ele><time>2026-04-11T10:10:15.999Z</time></trkpt><trkpt lat="45.92654942762625" lon="11.02171937084621"><ele>485.0</ele><time>2026-04-11T10:10:16.999Z</time></trkpt><trkpt lat="45.926397326275506" lon="11.021662149338596"><ele>492.0</ele><time>2026-04-11T10:10:17.999Z</time></trkpt><trkpt lat="45.926237175301544" lon="11.021618373797864"><ele>499.0</ele><time>2026-04-11T10:10:18.999Z</time></trkpt><trkpt lat="45.92607772571886" lon="11.021559834875358"><ele>506.0</ele><time>2026-04-11T10:10:19.999Z</time></trkpt><trkpt lat="45.925914649003225" lon="11.021498263154923"><ele>499.0</ele><time>2026-04-11T10:10:20.999Z</time></trkpt><trkpt lat="45.92575482096913" lon="11.021429092128159"><ele>492.0</ele><time>2026-04-11T10:10:21.999Z</time></trkpt><trkpt lat="45.92559500747462" lon="11.021362620046887"><ele>485.0</ele><time>2026-04-11T10:10:22.999Z</time></trkpt><trkpt lat="45.92543474613681" lon="11.02128984948735"><ele>485.0</ele><time>2026-04-11T10:10:23.999Z</time></trkpt><trkpt lat="45.92527124624295" lon="11.021209341124674"><ele>485.0</ele><time>2026-04-11T10:10:24.999Z</time></trkpt><trkpt lat="45.92511226529496" lon="11.0211252780792"><ele>485.0</ele><time>2026-04-11T10:10:25.999Z</time></trkpt><trkpt lat="45.92496151450841" lon="11.021040792394947"><ele>480.5</ele><time>2026-04-11T10:10:26.999Z</time></trkpt><trkpt lat="45.92481861834363" lon="11.0209727587578"><ele>476.0</ele><time>2026-04-11T10:10:27.999Z</time></trkpt><trkpt lat="45.92468277664102" lon="11.02094128778081"><ele>471.5</ele><time>2026-04-11T10:10:28.999Z</time></trkpt><trkpt lat="45.924545742670446" lon="11.020981217152972"><ele>467.0</ele><time>2026-04-11T10:10:29.999Z</time></trkpt><trkpt lat="45.924410245464095" lon="11.021053838997451"><ele>467.0</ele><time>2026-04-11T10:10:30.999Z</time></trkpt><trkpt lat="45.92427373207474" lon="11.02115906983231"><ele>467.0</ele><time>2026-04-11T10:10:31.999Z</time></trkpt><trkpt lat="45.924136032229974" lon="11.021260084553738"><ele>467.0</ele><time>2026-04-11T10:10:32.999Z</time></trkpt><trkpt lat="45.92400295686608" lon="11.021320818972294"><ele>467.0</ele><time>2026-04-11T10:10:33.999Z</time></trkpt><trkpt lat="45.92388871163787" lon="11.021367712924816"><ele>465.0</ele><time>2026-04-11T10:10:34.999Z</time></trkpt><trkpt lat="45.92378611448753" lon="11.021345870074692"><ele>463.0</ele><time>2026-04-11T10:10:35.999Z</time></trkpt><trkpt lat="45.92368287903968" lon="11.021287302929608"><ele>461.0</ele><time>2026-04-11T10:10:36.999Z</time></trkpt><trkpt lat="45.92361872544995" lon="11.021127026846308"><ele>459.0</ele><time>2026-04-11T10:10:37.999Z</time></trkpt><trkpt lat="45.92351474109291" lon="11.020986949688652"><ele>459.0</ele><time>2026-04-11T10:10:38.999Z</time></trkpt><trkpt lat="45.92341104029346" lon="11.020828253973505"><ele>459.0</ele><time>2026-04-11T10:10:39.999Z</time></trkpt><trkpt lat="45.923293306598104" lon="11.020677133814052"><ele>459.0</ele><time>2026-04-11T10:10:40.999Z</time></trkpt><trkpt lat="45.92315506950824" lon="11.020550216740768"><ele>456.33333333333337</ele><time>2026-04-11T10:10:41.999Z</time></trkpt><trkpt lat="45.923008364989265" lon="11.020435195227135"><ele>453.6666666666667</ele><time>2026-04-11T10:10:42.999Z</time></trkpt><trkpt lat="45.922854605634875" lon="11.02033213807959"><ele>451.0</ele><time>2026-04-11T10:10:43.999Z</time></trkpt><trkpt lat="45.92268744428067" lon="11.020262372608348"><ele>446.33333333333337</ele><time>2026-04-11T10:10:44.999Z</time></trkpt><trkpt lat="45.922520415403625" lon="11.0202042565563"><ele>441.66666666666663</ele><time>2026-04-11T10:10:45.999Z</time></trkpt><trkpt lat="45.92236133137568" lon="11.020165427042162"><ele>437.0</ele><time>2026-04-11T10:10:46.999Z</time></trkpt><trkpt lat="45.922212905901794" lon="11.02014714442376"><ele>437.0</ele><time>2026-04-11T10:10:47.999Z</time></trkpt><trkpt lat="45.92206923321735" lon="11.020141309142177"><ele>437.0</ele><time>2026-04-11T10:10:48.999Z</time></trkpt><trkpt lat="45.92192278016803" lon="11.020128800535966"><ele>437.0</ele><time>2026-04-11T10:10:49.999Z</time></trkpt><trkpt lat="45.921782348557095" lon="11.020063220687971"><ele>437.0</ele><time>2026-04-11T10:10:50.999Z</time></trkpt><trkpt lat="45.92164294723077" lon="11.019990001878302"><ele>435.66666666666663</ele><time>2026-04-11T10:10:51.999Z</time></trkpt><trkpt lat="45.9215050237857" lon="11.019895279530532"><ele>434.33333333333337</ele><time>2026-04-11T10:10:52.999Z</time></trkpt><trkpt lat="45.921372115925685" lon="11.019777867551321"><ele>433.0</ele><time>2026-04-11T10:10:53.999Z</time></trkpt><trkpt lat="45.92123347446764" lon="11.01966559745932"><ele>433.0</ele><time>2026-04-11T10:10:54.999Z</time></trkpt><trkpt lat="45.921094227453985" lon="11.019536167948852"><ele>433.0</ele><time>2026-04-11T10:10:55.999Z</time></trkpt><trkpt lat="45.92094879186964" lon="11.019407419526335"><ele>433.0</ele><time>2026-04-11T10:10:56.999Z</time></trkpt><trkpt lat="45.92080364212498" lon="11.019274157857849"><ele>433.0</ele><time>2026-04-11T10:10:57.999Z</time></trkpt><trkpt lat="45.92066265232225" lon="11.019152238093758"><ele>433.0</ele><time>2026-04-11T10:10:58.999Z</time></trkpt><trkpt lat="45.92053777756978" lon="11.019026382940925"><ele>433.0</ele><time>2026-04-11T10:10:59.999Z</time></trkpt><trkpt lat="45.92041712306902" lon="11.018925382376882"><ele>433.0</ele><time>2026-04-11T10:11:00.999Z</time></trkpt><trkpt lat="45.920295974632225" lon="11.018838956175538"><ele>433.0</ele><time>2026-04-11T10:11:01.999Z</time></trkpt><trkpt lat="45.92017220710193" lon="11.018804653589948"><ele>433.0</ele><time>2026-04-11T10:11:03Z</time></trkpt><trkpt lat="45.920049808025546" lon="11.018839034927073"><ele>433.0</ele><time>2026-04-11T10:11:04Z</time></trkpt><trkpt lat="45.9199196594348" lon="11.018953039032494"><ele>427.33333333333337</ele><time>2026-04-11T10:11:05Z</time></trkpt><trkpt lat="45.91977072432383" lon="11.019046765733414"><ele>421.66666666666663</ele><time>2026-04-11T10:11:06Z</time></trkpt><trkpt lat="45.91962304103754" lon="11.019129232679546"><ele>416.0</ele><time>2026-04-11T10:11:07Z</time></trkpt><trkpt lat="45.919491203111825" lon="11.019210805203116"><ele>414.0</ele><time>2026-04-11T10:11:08Z</time></trkpt><trkpt lat="45.91936979499465" lon="11.019287675955514"><ele>412.0</ele><time>2026-04-11T10:11:09Z</time></trkpt><trkpt lat="45.919249726413064" lon="11.01932956457247"><ele>410.0</ele><time>2026-04-11T10:11:10Z</time></trkpt><trkpt lat="45.91912925077537" lon="11.01932428337701"><ele>408.0</ele><time>2026-04-11T10:11:11Z</time></trkpt><trkpt lat="45.91899881538146" lon="11.019276760393423"><ele>408.66666666666663</ele><time>2026-04-11T10:11:12Z</time></trkpt><trkpt lat="45.918849299581446" lon="11.019246051212052"><ele>409.3333333333333</ele><time>2026-04-11T10:11:13Z</time></trkpt><trkpt lat="45.91869719530892" lon="11.019182503506899"><ele>410.0</ele><time>2026-04-11T10:11:14Z</time></trkpt><trkpt lat="45.91854415829847" lon="11.019125007492764"><ele>408.3333333333333</ele><time>2026-04-11T10:11:15Z</time></trkpt><trkpt lat="45.91838962338295" lon="11.019072354398162"><ele>406.66666666666663</ele><time>2026-04-11T10:11:16Z</time></trkpt><trkpt lat="45.918235963192735" lon="11.019019954071728"><ele>405.0</ele><time>2026-04-11T10:11:17Z</time></trkpt><trkpt lat="45.91808252855078" lon="11.01896639343898"><ele>405.0</ele><time>2026-04-11T10:11:18Z</time></trkpt><trkpt lat="45.9179345958024" lon="11.018911090302465"><ele>405.0</ele><time>2026-04-11T10:11:19Z</time></trkpt><trkpt lat="45.91779554781591" lon="11.018859959516888"><ele>405.0</ele><time>2026-04-11T10:11:20Z</time></trkpt><trkpt lat="45.91767741637954" lon="11.018819115110462"><ele>405.0</ele><time>2026-04-11T10:11:21Z</time></trkpt><trkpt lat="45.91758147930304" lon="11.018791458727119"><ele>403.1666666666667</ele><time>2026-04-11T10:11:22Z</time></trkpt><trkpt lat="45.91750571828906" lon="11.018851230647632"><ele>401.33333333333337</ele><time>2026-04-11T10:11:23Z</time></trkpt><trkpt lat="45.917460106928644" lon="11.018964996349032"><ele>399.5</ele><time>2026-04-11T10:11:24Z</time></trkpt><trkpt lat="45.91745826824455" lon="11.019094381025607"><ele>397.6666666666667</ele><time>2026-04-11T10:11:25Z</time></trkpt><trkpt lat="45.9175059377391" lon="11.01919683965955"><ele>395.83333333333337</ele><time>2026-04-11T10:11:26Z</time></trkpt><trkpt lat="45.917584796549605" lon="11.01926804654521"><ele>394.0</ele><time>2026-04-11T10:11:27Z</time></trkpt><trkpt lat="45.91767488408198" lon="11.019362254250451"><ele>394.0</ele><time>2026-04-11T10:11:28Z</time></trkpt><trkpt lat="45.91777344763714" lon="11.019490858795049"><ele>394.0</ele><time>2026-04-11T10:11:29Z</time></trkpt><trkpt lat="45.91787367636631" lon="11.019616066705213"><ele>394.0</ele><time>2026-04-11T10:11:30Z</time></trkpt><trkpt lat="45.917981659101216" lon="11.019736894676129"><ele>394.0</ele><time>2026-04-11T10:11:31Z</time></trkpt><trkpt lat="45.91808547219749" lon="11.019858034903903"><ele>394.0</ele><time>2026-04-11T10:11:32Z</time></trkpt><trkpt lat="45.91818726113806" lon="11.01997838322786"><ele>394.0</ele><time>2026-04-11T10:11:33Z</time></trkpt><trkpt lat="45.91827395245313" lon="11.020108605245246"><ele>394.0</ele><time>2026-04-11T10:11:34Z</time></trkpt><trkpt lat="45.918328884215576" lon="11.020254568758913"><ele>394.0</ele><time>2026-04-11T10:11:35Z</time></trkpt><trkpt lat="45.918346027067685" lon="11.020416762373989"><ele>391.0</ele><time>2026-04-11T10:11:36Z</time></trkpt><trkpt lat="45.91830687325489" lon="11.020579591409776"><ele>388.0</ele><time>2026-04-11T10:11:37Z</time></trkpt><trkpt lat="45.91825482441046" lon="11.020721245868305"><ele>385.0</ele><time>2026-04-11T10:11:38Z</time></trkpt><trkpt lat="45.9181796032936" lon="11.020840024907075"><ele>382.0</ele><time>2026-04-11T10:11:39Z</time></trkpt><trkpt lat="45.91806299065938" lon="11.020870085137755"><ele>378.75</ele><time>2026-04-11T10:11:40Z</time></trkpt><trkpt lat="45.91794838713854" lon="11.020911799694442"><ele>375.5</ele><time>2026-04-11T10:11:41Z</time></trkpt><trkpt lat="45.9178318636156" lon="11.020939541668021"><ele>372.25</ele><time>2026-04-11T10:11:42Z</time></trkpt><trkpt lat="45.9177156869673" lon="11.02096453712186"><ele>369.0</ele><time>2026-04-11T10:11:43Z</time></trkpt><trkpt lat="45.91760928481825" lon="11.020981320398336"><ele>370.25</ele><time>2026-04-11T10:11:44Z</time></trkpt><trkpt lat="45.91751186954186" lon="11.020940731825524"><ele>371.5</ele><time>2026-04-11T10:11:45Z</time></trkpt><trkpt lat="45.91741817953233" lon="11.020870818063145"><ele>372.75</ele><time>2026-04-11T10:11:46Z</time></trkpt><trkpt lat="45.91731387878293" lon="11.020780954067007"><ele>374.0</ele><time>2026-04-11T10:11:47Z</time></trkpt><trkpt lat="45.917218854944544" lon="11.020665754740088"><ele>374.0</ele><time>2026-04-11T10:11:48Z</time></trkpt><trkpt lat="45.91711588430143" lon="11.020558372475174"><ele>374.0</ele><time>2026-04-11T10:11:49Z</time></trkpt><trkpt lat="45.91701319514168" lon="11.020454253686479"><ele>374.0</ele><time>2026-04-11T10:11:50Z</time></trkpt><trkpt lat="45.91690772426424" lon="11.020364242784943"><ele>374.0</ele><time>2026-04-11T10:11:51Z</time></trkpt><trkpt lat="45.9168123313417" lon="11.020296799328223"><ele>371.5</ele><time>2026-04-11T10:11:52Z</time></trkpt><trkpt lat="45.91673455304344" lon="11.02023735685287"><ele>369.0</ele><time>2026-04-11T10:11:53Z</time></trkpt><trkpt lat="45.91665765874602" lon="11.0201809947649"><ele>366.5</ele><time>2026-04-11T10:11:54Z</time></trkpt><trkpt lat="45.91658408185004" lon="11.02012238825956"><ele>364.0</ele><time>2026-04-11T10:11:55Z</time></trkpt><trkpt lat="45.91650886317214" lon="11.020051335176795"><ele>361.5</ele><time>2026-04-11T10:11:56Z</time></trkpt><trkpt lat="45.91643204242312" lon="11.019964619271112"><ele>359.0</ele><time>2026-04-11T10:11:57Z</time></trkpt><trkpt lat="45.91636241042584" lon="11.019859539029422"><ele>359.0</ele><time>2026-04-11T10:11:58Z</time></trkpt><trkpt lat="45.91629856408515" lon="11.019737856920674"><ele>359.0</ele><time>2026-04-11T10:11:59Z</time></trkpt><trkpt lat="45.916231781675165" lon="11.019610804915658"><ele>359.0</ele><time>2026-04-11T10:12:00Z</time></trkpt><trkpt lat="45.91616191967792" lon="11.019480107259893"><ele>359.0</ele><time>2026-04-11T10:12:01Z</time></trkpt><trkpt lat="45.91609536878347" lon="11.019350505286177"><ele>359.0</ele><time>2026-04-11T10:12:02Z</time></trkpt><trkpt lat="45.91604460031469" lon="11.019213028083703"><ele>360.79999999999995</ele><time>2026-04-11T10:12:03Z</time></trkpt><trkpt lat="45.91601679914769" lon="11.019075247014458"><ele>362.59999999999997</ele><time>2026-04-11T10:12:04Z</time></trkpt><trkpt lat="45.91600714427265" lon="11.018933520075345"><ele>364.4</ele><time>2026-04-11T10:12:04.999Z</time></trkpt><trkpt lat="45.91601534662786" lon="11.018778040112725"><ele>366.2</ele><time>2026-04-11T10:12:05.999Z</time></trkpt><trkpt lat="45.91602813067808" lon="11.018620609926296"><ele>368.0</ele><time>2026-04-11T10:12:06.999Z</time></trkpt><trkpt lat="45.916038753467184" lon="11.018455190352883"><ele>368.59999999999997</ele><time>2026-04-11T10:12:07.999Z</time></trkpt><trkpt lat="45.91605515842383" lon="11.018293317719321"><ele>369.2</ele><time>2026-04-11T10:12:08.999Z</time></trkpt><trkpt lat="45.91606460176134" lon="11.018142924805195"><ele>369.8</ele><time>2026-04-11T10:12:09.999Z</time></trkpt><trkpt lat="45.91607050141361" lon="11.018001351831392"><ele>370.4</ele><time>2026-04-11T10:12:10.999Z</time></trkpt><trkpt lat="45.91607068836061" lon="11.017851932804799"><ele>371.0</ele><time>2026-04-11T10:12:11.999Z</time></trkpt><trkpt lat="45.91607059032304" lon="11.017696836151568"><ele>371.0</ele><time>2026-04-11T10:12:12.999Z</time></trkpt><trkpt lat="45.916071063044036" lon="11.017533195997371"><ele>371.0</ele><time>2026-04-11T10:12:13.999Z</time></trkpt><trkpt lat="45.916069118822364" lon="11.017368995164235"><ele>371.0</ele><time>2026-04-11T10:12:14.999Z</time></trkpt><trkpt lat="45.91604668977597" lon="11.0172073777107"><ele>371.0</ele><time>2026-04-11T10:12:15.999Z</time></trkpt><trkpt lat="45.91601189022282" lon="11.017062620445495"><ele>371.0</ele><time>2026-04-11T10:12:16.999Z</time></trkpt><trkpt lat="45.91596768935398" lon="11.01693982546337"><ele>372.0</ele><time>2026-04-11T10:12:17.999Z</time></trkpt><trkpt lat="45.91592143598351" lon="11.016817877416765"><ele>373.0</ele><time>2026-04-11T10:12:18.999Z</time></trkpt><trkpt lat="45.91587510199074" lon="11.0167032281324"><ele>374.0</ele><time>2026-04-11T10:12:19.999Z</time></trkpt><trkpt lat="45.91583395754407" lon="11.016592921300276"><ele>375.0</ele><time>2026-04-11T10:12:20.999Z</time></trkpt><trkpt lat="45.91578457340563" lon="11.016504430185265"><ele>376.0</ele><time>2026-04-11T10:12:21.999Z</time></trkpt><trkpt lat="45.915728985972514" lon="11.01644088739349"><ele>377.0</ele><time>2026-04-11T10:12:22.999Z</time></trkpt><trkpt lat="45.915664994557716" lon="11.016462970085831"><ele>370.25</ele><time>2026-04-11T10:12:23.999Z</time></trkpt><trkpt lat="45.91551095649162" lon="11.016425617825155"><ele>363.5</ele><time>2026-04-11T10:12:25.999Z</time></trkpt><trkpt lat="45.915555382927735" lon="11.016653560001698"><ele>356.75</ele><time>2026-04-11T10:12:26.999Z</time></trkpt><trkpt lat="45.91551817132878" lon="11.016778940729926"><ele>350.0</ele><time>2026-04-11T10:12:27.999Z</time></trkpt><trkpt lat="45.915465790587746" lon="11.01692173590343"><ele>346.5</ele><time>2026-04-11T10:12:28.999Z</time></trkpt><trkpt lat="45.91540319643269" lon="11.0170864398846"><ele>343.0</ele><time>2026-04-11T10:12:29.999Z</time></trkpt><trkpt lat="45.91534263172281" lon="11.017249934925895"><ele>339.5</ele><time>2026-04-11T10:12:30.999Z</time></trkpt><trkpt lat="45.91528155397956" lon="11.017421614160503"><ele>336.0</ele><time>2026-04-11T10:12:31.999Z</time></trkpt><trkpt lat="45.91521711893217" lon="11.017611348241374"><ele>335.6666666666667</ele><time>2026-04-11T10:12:32.999Z</time></trkpt><trkpt lat="45.915151897148235" lon="11.017826723866023"><ele>335.33333333333337</ele><time>2026-04-11T10:12:33.999Z</time></trkpt><trkpt lat="45.91507520295832" lon="11.018063166036772"><ele>335.0</ele><time>2026-04-11T10:12:34.999Z</time></trkpt><trkpt lat="45.91499933422231" lon="11.018274258191552"><ele>330.75</ele><time>2026-04-11T10:12:35.999Z</time></trkpt><trkpt lat="45.91493379625284" lon="11.018476266918041"><ele>326.5</ele><time>2026-04-11T10:12:36.999Z</time></trkpt><trkpt lat="45.914847619297134" lon="11.018653862630234"><ele>322.25</ele><time>2026-04-11T10:12:37.999Z</time></trkpt><trkpt lat="45.91478461817062" lon="11.018835371270791"><ele>318.0</ele><time>2026-04-11T10:12:38.999Z</time></trkpt><trkpt lat="45.91471946256007" lon="11.01900121790742"><ele>318.0</ele><time>2026-04-11T10:12:39.999Z</time></trkpt><trkpt lat="45.914628388163955" lon="11.019135452022782"><ele>318.0</ele><time>2026-04-11T10:12:40.999Z</time></trkpt><trkpt lat="45.91450524914741" lon="11.019249842592739"><ele>318.0</ele><time>2026-04-11T10:12:41.999Z</time></trkpt><trkpt lat="45.91436822254524" lon="11.019372368957534"><ele>318.0</ele><time>2026-04-11T10:12:42.999Z</time></trkpt><trkpt lat="45.91422623192663" lon="11.019497173509906"><ele>314.6666666666667</ele><time>2026-04-11T10:12:43.999Z</time></trkpt><trkpt lat="45.91407958366374" lon="11.019624286299738"><ele>311.33333333333337</ele><time>2026-04-11T10:12:44.999Z</time></trkpt><trkpt lat="45.913944068832734" lon="11.019745557501682"><ele>308.0</ele><time>2026-04-11T10:12:45.999Z</time></trkpt><trkpt lat="45.91382297417742" lon="11.019856135019044"><ele>308.0</ele><time>2026-04-11T10:12:46.999Z</time></trkpt><trkpt lat="45.91370478578304" lon="11.019949050259445"><ele>308.0</ele><time>2026-04-11T10:12:47.999Z</time></trkpt><trkpt lat="45.913585437846834" lon="11.0199867303832"><ele>308.0</ele><time>2026-04-11T10:12:48.999Z</time></trkpt><trkpt lat="45.913455832373415" lon="11.020003083385955"><ele>308.0</ele><time>2026-04-11T10:12:49.999Z</time></trkpt><trkpt lat="45.913311615886265" lon="11.019964558512674"><ele>307.0</ele><time>2026-04-11T10:12:50.999Z</time></trkpt><trkpt lat="45.91318235256044" lon="11.019910583071884"><ele>306.0</ele><time>2026-04-11T10:12:51.999Z</time></trkpt><trkpt lat="45.91309211462691" lon="11.019826782477319"><ele>305.0</ele><time>2026-04-11T10:12:52.999Z</time></trkpt><trkpt lat="45.91300971209532" lon="11.019775471711474"><ele>304.0</ele><time>2026-04-11T10:12:53.999Z</time></trkpt><trkpt lat="45.91293126283021" lon="11.019770365612564"><ele>303.0</ele><time>2026-04-11T10:12:54.999Z</time></trkpt><trkpt lat="45.91286709470775" lon="11.019861614779893"><ele>303.0</ele><time>2026-04-11T10:12:55.999Z</time></trkpt><trkpt lat="45.91285779046188" lon="11.019981529855908"><ele>303.0</ele><time>2026-04-11T10:12:56.999Z</time></trkpt><trkpt lat="45.91291939112958" lon="11.020097313916587"><ele>303.0</ele><time>2026-04-11T10:12:57.999Z</time></trkpt><trkpt lat="45.91300023534809" lon="11.020196704950186"><ele>303.0</ele><time>2026-04-11T10:12:58.999Z</time></trkpt><trkpt lat="45.9131014188558" lon="11.020306103579376"><ele>303.0</ele><time>2026-04-11T10:12:59.999Z</time></trkpt><trkpt lat="45.91319758377407" lon="11.020438547902508"><ele>298.5</ele><time>2026-04-11T10:13:00.999Z</time></trkpt><trkpt lat="45.91327697966063" lon="11.020597538069577"><ele>294.0</ele><time>2026-04-11T10:13:01.999Z</time></trkpt><trkpt lat="45.91332839286076" lon="11.020774214042191"><ele>289.5</ele><time>2026-04-11T10:13:02.999Z</time></trkpt><trkpt lat="45.91341469021805" lon="11.020910987511197"><ele>285.0</ele><time>2026-04-11T10:13:03.999Z</time></trkpt><trkpt lat="45.91350730781633" lon="11.021036258101983"><ele>281.25</ele><time>2026-04-11T10:13:04.999Z</time></trkpt><trkpt lat="45.91362523433476" lon="11.0211266699651"><ele>277.5</ele><time>2026-04-11T10:13:05.999Z</time></trkpt><trkpt lat="45.91376224931099" lon="11.021159740880924"><ele>273.75</ele><time>2026-04-11T10:13:06.999Z</time></trkpt><trkpt lat="45.913897797944145" lon="11.021181081388598"><ele>270.0</ele><time>2026-04-11T10:13:07.999Z</time></trkpt><trkpt lat="45.91403035130715" lon="11.021210182138981"><ele>270.0</ele><time>2026-04-11T10:13:09Z</time></trkpt><trkpt lat="45.91415581039523" lon="11.02124662310336"><ele>270.0</ele><time>2026-04-11T10:13:10Z</time></trkpt><trkpt lat="45.91426136094611" lon="11.021308031296583"><ele>270.0</ele><time>2026-04-11T10:13:11Z</time></trkpt><trkpt lat="45.914347024889665" lon="11.021398253078218"><ele>270.0</ele><time>2026-04-11T10:13:12Z</time></trkpt><trkpt lat="45.91440867014505" lon="11.021508347293125"><ele>270.0</ele><time>2026-04-11T10:13:13Z</time></trkpt><trkpt lat="45.91443521912622" lon="11.02164153525726"><ele>270.0</ele><time>2026-04-11T10:13:14Z</time></trkpt><trkpt lat="45.914483454809734" lon="11.021775075252801"><ele>270.0</ele><time>2026-04-11T10:13:15Z</time></trkpt><trkpt lat="45.91453812835732" lon="11.021918837639427"><ele>270.0</ele><time>2026-04-11T10:13:16Z</time></trkpt><trkpt lat="45.914621676175386" lon="11.022033764146293"><ele>270.0</ele><time>2026-04-11T10:13:17Z</time></trkpt><trkpt lat="45.91471411255839" lon="11.0221246372139"><ele>270.0</ele><time>2026-04-11T10:13:18Z</time></trkpt><trkpt lat="45.91478403144711" lon="11.022225613951626"><ele>270.0</ele><time>2026-04-11T10:13:19Z</time></trkpt><trkpt lat="45.9148217767274" lon="11.022364889867296"><ele>270.0</ele><time>2026-04-11T10:13:20Z</time></trkpt><trkpt lat="45.91485737860555" lon="11.022522059407379"><ele>270.0</ele><time>2026-04-11T10:13:21Z</time></trkpt><trkpt lat="45.914897238953486" lon="11.022695104248244"><ele>270.0</ele><time>2026-04-11T10:13:22Z</time></trkpt><trkpt lat="45.91494222182749" lon="11.022873418016939"><ele>267.5</ele><time>2026-04-11T10:13:23Z</time></trkpt><trkpt lat="45.91498754053004" lon="11.023051863149252"><ele>265.0</ele><time>2026-04-11T10:13:24Z</time></trkpt><trkpt lat="45.91503302029357" lon="11.023234369320665"><ele>262.5</ele><time>2026-04-11T10:13:25Z</time></trkpt><trkpt lat="45.91507595079794" lon="11.023419177639719"><ele>260.0</ele><time>2026-04-11T10:13:26Z</time></trkpt><trkpt lat="45.915125262412225" lon="11.02359849274523"><ele>259.0</ele><time>2026-04-11T10:13:27Z</time></trkpt><trkpt lat="45.91517474328408" lon="11.023769203465601"><ele>258.0</ele><time>2026-04-11T10:13:28Z</time></trkpt><trkpt lat="45.91523022805866" lon="11.023920713028613"><ele>257.0</ele><time>2026-04-11T10:13:29Z</time></trkpt><trkpt lat="45.91530416226297" lon="11.024049474145807"><ele>256.0</ele><time>2026-04-11T10:13:30Z</time></trkpt><trkpt lat="45.91539544272778" lon="11.024163115670582"><ele>251.75</ele><time>2026-04-11T10:13:31Z</time></trkpt><trkpt lat="45.91550444928578" lon="11.024245851519813"><ele>247.5</ele><time>2026-04-11T10:13:32Z</time></trkpt><trkpt lat="45.91562594996995" lon="11.024299269260839"><ele>243.25</ele><time>2026-04-11T10:13:33Z</time></trkpt><trkpt lat="45.915750589039824" lon="11.024347394537257"><ele>239.0</ele><time>2026-04-11T10:13:34Z</time></trkpt><trkpt lat="45.91587944109928" lon="11.024387790839514"><ele>241.5</ele><time>2026-04-11T10:13:35Z</time></trkpt><trkpt lat="45.916007525554384" lon="11.02443582883487"><ele>244.0</ele><time>2026-04-11T10:13:36Z</time></trkpt><trkpt lat="45.91613213008749" lon="11.02449408915493"><ele>246.5</ele><time>2026-04-11T10:13:37Z</time></trkpt><trkpt lat="45.91625544875888" lon="11.024584359394987"><ele>249.0</ele><time>2026-04-11T10:13:38Z</time></trkpt><trkpt lat="45.91639934369739" lon="11.024712235730641"><ele>249.0</ele><time>2026-04-11T10:13:39Z</time></trkpt><trkpt lat="45.91654902243809" lon="11.024859527413108"><ele>249.0</ele><time>2026-04-11T10:13:40Z</time></trkpt><trkpt lat="45.916729407466654" lon="11.025043429778188"><ele>249.0</ele><time>2026-04-11T10:13:41Z</time></trkpt><trkpt lat="45.91694386113671" lon="11.025255100076132"><ele>253.5</ele><time>2026-04-11T10:13:42Z</time></trkpt><trkpt lat="45.91712443413308" lon="11.025462791468826"><ele>258.0</ele><time>2026-04-11T10:13:43Z</time></trkpt><trkpt lat="45.917300598422145" lon="11.02565471764819"><ele>258.3333333333333</ele><time>2026-04-11T10:13:44Z</time></trkpt><trkpt lat="45.91745896463142" lon="11.025845014799254"><ele>258.66666666666663</ele><time>2026-04-11T10:13:45Z</time></trkpt><trkpt lat="45.91758754770839" lon="11.02605761034238"><ele>259.0</ele><time>2026-04-11T10:13:46Z</time></trkpt><trkpt lat="45.91770060731223" lon="11.026262762488841"><ele>259.0</ele><time>2026-04-11T10:13:47Z</time></trkpt><trkpt lat="45.91780065983867" lon="11.026475717413069"><ele>259.0</ele><time>2026-04-11T10:13:48Z</time></trkpt><trkpt lat="45.917883443770464" lon="11.026675218742524"><ele>259.0</ele><time>2026-04-11T10:13:49Z</time></trkpt><trkpt lat="45.917966932882116" lon="11.026941551251388"><ele>249.33333333333331</ele><time>2026-04-11T10:13:50Z</time></trkpt><trkpt lat="45.91803587003734" lon="11.02718237706332"><ele>239.66666666666669</ele><time>2026-04-11T10:13:51Z</time></trkpt><trkpt lat="45.91809004905435" lon="11.027419367582144"><ele>230.0</ele><time>2026-04-11T10:13:52Z</time></trkpt><trkpt lat="45.9181419237472" lon="11.027666559469022"><ele>224.0</ele><time>2026-04-11T10:13:53Z</time></trkpt><trkpt lat="45.918191357750366" lon="11.027912657748649"><ele>218.0</ele><time>2026-04-11T10:13:54Z</time></trkpt><trkpt lat="45.918241136426424" lon="11.028159286959125"><ele>212.0</ele><time>2026-04-11T10:13:55Z</time></trkpt><trkpt lat="45.9182897466569" lon="11.028397979649078"><ele>212.75</ele><time>2026-04-11T10:13:56Z</time></trkpt><trkpt lat="45.91833390058462" lon="11.028615495175623"><ele>213.5</ele><time>2026-04-11T10:13:57Z</time></trkpt><trkpt lat="45.91837614755663" lon="11.028823937966612"><ele>214.25</ele><time>2026-04-11T10:13:58Z</time></trkpt><trkpt lat="45.91841767521914" lon="11.029016056956289"><ele>215.0</ele><time>2026-04-11T10:13:59Z</time></trkpt><trkpt lat="45.91845803647192" lon="11.029192979085307"><ele>210.25</ele><time>2026-04-11T10:14:00Z</time></trkpt><trkpt lat="45.91851210375642" lon="11.029356166191121"><ele>205.5</ele><time>2026-04-11T10:14:01Z</time></trkpt><trkpt lat="45.91856413928109" lon="11.02951253503221"><ele>200.75</ele><time>2026-04-11T10:14:02Z</time></trkpt><trkpt lat="45.91863169420701" lon="11.029662214231529"><ele>196.0</ele><time>2026-04-11T10:14:03Z</time></trkpt><trkpt lat="45.918716377754755" lon="11.02980594632978"><ele>196.0</ele><time>2026-04-11T10:14:04Z</time></trkpt><trkpt lat="45.918801342544505" lon="11.029949113563436"><ele>196.0</ele><time>2026-04-11T10:14:05Z</time></trkpt><trkpt lat="45.9188929559168" lon="11.030097174865892"><ele>196.0</ele><time>2026-04-11T10:14:06Z</time></trkpt><trkpt lat="45.918989972600244" lon="11.03025153362521"><ele>196.0</ele><time>2026-04-11T10:14:07Z</time></trkpt><trkpt lat="45.91908388687916" lon="11.030394159341213"><ele>195.4</ele><time>2026-04-11T10:14:08Z</time></trkpt><trkpt lat="45.919159934947345" lon="11.030519105015797"><ele>194.8</ele><time>2026-04-11T10:14:09Z</time></trkpt><trkpt lat="45.91923119073403" lon="11.030641285380987"><ele>194.20000000000002</ele><time>2026-04-11T10:14:10Z</time></trkpt><trkpt lat="45.919292646295226" lon="11.030754544893375"><ele>193.60000000000002</ele><time>2026-04-11T10:14:11Z</time></trkpt><trkpt lat="45.91933275419958" lon="11.03088531578762"><ele>193.0</ele><time>2026-04-11T10:14:12Z</time></trkpt><trkpt lat="45.91935521473226" lon="11.031006389717732"><ele>192.4</ele><time>2026-04-11T10:14:13Z</time></trkpt><trkpt lat="45.91937543726799" lon="11.031150500770178"><ele>191.8</ele><time>2026-04-11T10:14:14Z</time></trkpt><trkpt lat="45.919360846770026" lon="11.031289577269899"><ele>191.2</ele><time>2026-04-11T10:14:15Z</time></trkpt><trkpt lat="45.91935372643937" lon="11.031437097083593"><ele>190.6</ele><time>2026-04-11T10:14:16Z</time></trkpt><trkpt lat="45.9193075447735" lon="11.031573707093663"><ele>190.0</ele><time>2026-04-11T10:14:17Z</time></trkpt><trkpt lat="45.91923501752786" lon="11.031674807291617"><ele>189.6</ele><time>2026-04-11T10:14:18Z</time></trkpt><trkpt lat="45.919180765003986" lon="11.031779382584467"><ele>189.2</ele><time>2026-04-11T10:14:19Z</time></trkpt><trkpt lat="45.9191228058071" lon="11.031847364493306"><ele>188.8</ele><time>2026-04-11T10:14:20Z</time></trkpt><trkpt lat="45.91905828736012" lon="11.031902968999717"><ele>188.4</ele><time>2026-04-11T10:14:22Z</time></trkpt><trkpt lat="45.91900115155736" lon="11.031998081801497"><ele>188.0</ele><time>2026-04-11T10:16:32.999Z</time></trkpt><trkpt lat="45.918910463010995" lon="11.03212397563809"><ele>188.0</ele><time>2026-04-11T10:16:34.999Z</time></trkpt><trkpt lat="45.91882790713124" lon="11.032255343653375"><ele>188.0</ele><time>2026-04-11T10:16:35.999Z</time></trkpt><trkpt lat="45.918724405666254" lon="11.032400088583238"><ele>188.0</ele><time>2026-04-11T10:16:36.999Z</time></trkpt><trkpt lat="45.918601665080935" lon="11.032578887216275"><ele>188.0</ele><time>2026-04-11T10:16:37.999Z</time></trkpt><trkpt lat="45.918456281270636" lon="11.032778904938816"><ele>187.5</ele><time>2026-04-11T10:16:38.999Z</time></trkpt><trkpt lat="45.91828401418112" lon="11.033008343738894"><ele>187.0</ele><time>2026-04-11T10:16:39.999Z</time></trkpt><trkpt lat="45.918121908843936" lon="11.033217807229455"><ele>186.0</ele><time>2026-04-11T10:16:40.999Z</time></trkpt><trkpt lat="45.917987211849315" lon="11.033406969292562"><ele>185.0</ele><time>2026-04-11T10:16:41.999Z</time></trkpt><trkpt lat="45.91786515571208" lon="11.033577042175194"><ele>184.0</ele><time>2026-04-11T10:16:42.999Z</time></trkpt><trkpt lat="45.91774175117825" lon="11.033706257912174"><ele>184.0</ele><time>2026-04-11T10:16:43.999Z</time></trkpt><trkpt lat="45.917613978214476" lon="11.033832946751845"><ele>184.0</ele><time>2026-04-11T10:16:44.999Z</time></trkpt><trkpt lat="45.91749332135911" lon="11.03393536228344"><ele>184.0</ele><time>2026-04-11T10:16:45.999Z</time></trkpt><trkpt lat="45.91737959276773" lon="11.034022707162318"><ele>184.0</ele><time>2026-04-11T10:16:46.999Z</time></trkpt><trkpt lat="45.9172740269113" lon="11.034099459040526"><ele>183.66666666666669</ele><time>2026-04-11T10:16:47.999Z</time></trkpt><trkpt lat="45.91720064148347" lon="11.03419886925442"><ele>183.33333333333334</ele><time>2026-04-11T10:16:48.999Z</time></trkpt><trkpt lat="45.91713609412957" lon="11.034246503004997"><ele>183.0</ele><time>2026-04-11T10:16:49.999Z</time></trkpt><trkpt lat="45.91707600637428" lon="11.034290099804599"><ele>182.66666666666666</ele><time>2026-04-11T10:16:50.999Z</time></trkpt><trkpt lat="45.91700410121491" lon="11.03436925306113"><ele>182.33333333333331</ele><time>2026-04-11T10:16:52.999Z</time></trkpt><trkpt lat="45.91705438183721" lon="11.034514370145493"><ele>182.0</ele><time>2026-04-11T10:16:54.999Z</time></trkpt><trkpt lat="45.91711760719946" lon="11.034557284469113"><ele>182.0</ele><time>2026-04-11T10:16:55.999Z</time></trkpt><trkpt lat="45.917207434582515" lon="11.03460396538413"><ele>182.0</ele><time>2026-04-11T10:16:56.999Z</time></trkpt><trkpt lat="45.91731185000657" lon="11.034633564964645"><ele>182.0</ele><time>2026-04-11T10:16:57.999Z</time></trkpt><trkpt lat="45.91741890609992" lon="11.034671495563403"><ele>182.0</ele><time>2026-04-11T10:16:58.999Z</time></trkpt><trkpt lat="45.91753737793526" lon="11.034724090737273"><ele>182.0</ele><time>2026-04-11T10:16:59.999Z</time></trkpt><trkpt lat="45.917683945596174" lon="11.03477417229532"><ele>182.33333333333331</ele><time>2026-04-11T10:17:00.999Z</time></trkpt><trkpt lat="45.91783652136012" lon="11.034839492952026"><ele>182.66666666666666</ele><time>2026-04-11T10:17:01.999Z</time></trkpt><trkpt lat="45.918002391363096" lon="11.034920816007055"><ele>183.0</ele><time>2026-04-11T10:17:02.999Z</time></trkpt><trkpt lat="45.91816791040886" lon="11.035002482455026"><ele>183.0</ele><time>2026-04-11T10:17:03.999Z</time></trkpt><trkpt lat="45.91833154383143" lon="11.035081612069964"><ele>183.0</ele><time>2026-04-11T10:17:04.999Z</time></trkpt><trkpt lat="45.91849584536894" lon="11.035163340264518"><ele>183.0</ele><time>2026-04-11T10:17:05.999Z</time></trkpt><trkpt lat="45.91869343473449" lon="11.035283863150438"><ele>184.0</ele><time>2026-04-11T10:17:06.999Z</time></trkpt><trkpt lat="45.91886054412964" lon="11.035372370016715"><ele>185.0</ele><time>2026-04-11T10:17:07.999Z</time></trkpt><trkpt lat="45.91903087279343" lon="11.035458237097446"><ele>186.0</ele><time>2026-04-11T10:17:08.999Z</time></trkpt><trkpt lat="45.919202567508535" lon="11.035549239575124"><ele>186.66666666666666</ele><time>2026-04-11T10:17:09.999Z</time></trkpt><trkpt lat="45.91937211570711" lon="11.035640743386367"><ele>187.33333333333331</ele><time>2026-04-11T10:17:10.999Z</time></trkpt><trkpt lat="45.91954395988214" lon="11.035734655940777"><ele>188.0</ele><time>2026-04-11T10:17:11.999Z</time></trkpt><trkpt lat="45.91971575663219" lon="11.035827342836365"><ele>187.0</ele><time>2026-04-11T10:17:12.999Z</time></trkpt><trkpt lat="45.91988212619677" lon="11.035939188523741"><ele>186.0</ele><time>2026-04-11T10:17:13.999Z</time></trkpt><trkpt lat="45.92005372432061" lon="11.036029718770932"><ele>185.0</ele><time>2026-04-11T10:17:14.999Z</time></trkpt><trkpt lat="45.92022320112073" lon="11.036119129028817"><ele>185.0</ele><time>2026-04-11T10:17:15.999Z</time></trkpt><trkpt lat="45.92038948239268" lon="11.03620849990535"><ele>185.0</ele><time>2026-04-11T10:17:16.999Z</time></trkpt><trkpt lat="45.92055424147098" lon="11.036296751915643"><ele>185.0</ele><time>2026-04-11T10:17:17.999Z</time></trkpt><trkpt lat="45.920713744032554" lon="11.036348178009973"><ele>185.0</ele><time>2026-04-11T10:17:18.999Z</time></trkpt><trkpt lat="45.920842336185025" lon="11.03642193386526"><ele>185.0</ele><time>2026-04-11T10:17:19.999Z</time></trkpt><trkpt lat="45.920952162505785" lon="11.03648374968107"><ele>185.0</ele><time>2026-04-11T10:17:20.999Z</time></trkpt><trkpt lat="45.921036211597006" lon="11.036538589287996"><ele>185.0</ele><time>2026-04-11T10:17:21.999Z</time></trkpt><trkpt lat="45.92108245472288" lon="11.036610041966293"><ele>185.0</ele><time>2026-04-11T10:17:22.999Z</time></trkpt><trkpt lat="45.92112333103779" lon="11.036688777042754"><ele>185.5</ele><time>2026-04-11T10:17:24.999Z</time></trkpt><trkpt lat="45.921042942324775" lon="11.03690593763639"><ele>186.0</ele><time>2026-04-11T10:17:25.999Z</time></trkpt><trkpt lat="45.920963633424556" lon="11.037009996394547"><ele>186.5</ele><time>2026-04-11T10:17:26.999Z</time></trkpt><trkpt lat="45.920866504608206" lon="11.037126310317952"><ele>187.0</ele><time>2026-04-11T10:17:27.999Z</time></trkpt><trkpt lat="45.920777569531886" lon="11.037248395892483"><ele>186.2</ele><time>2026-04-11T10:17:28.999Z</time></trkpt><trkpt lat="45.92070017557348" lon="11.037375593169724"><ele>185.39999999999998</ele><time>2026-04-11T10:17:29.999Z</time></trkpt><trkpt lat="45.920641295052015" lon="11.037515262575205"><ele>184.60000000000002</ele><time>2026-04-11T10:17:30.999Z</time></trkpt><trkpt lat="45.92060521591265" lon="11.037660180967746"><ele>183.8</ele><time>2026-04-11T10:17:31.999Z</time></trkpt><trkpt lat="45.92058517635098" lon="11.037772447843535"><ele>183.0</ele><time>2026-04-11T10:17:32.999Z</time></trkpt><trkpt lat="45.92051265912121" lon="11.0379064546105"><ele>182.75</ele><time>2026-04-11T10:17:34.999Z</time></trkpt><trkpt lat="45.92044877295399" lon="11.037970369727374"><ele>182.5</ele><time>2026-04-11T10:17:35.999Z</time></trkpt><trkpt lat="45.92036685602255" lon="11.03804365859963"><ele>182.25</ele><time>2026-04-11T10:17:36.999Z</time></trkpt><trkpt lat="45.92031802002376" lon="11.0381663537158"><ele>182.0</ele><time>2026-04-11T10:17:37.999Z</time></trkpt><trkpt lat="45.92013804490948" lon="11.038056194211073"><ele>181.33333333333331</ele><time>2026-04-11T10:17:38.999Z</time></trkpt><trkpt lat="45.919993698997914" lon="11.038035177225597"><ele>180.66666666666666</ele><time>2026-04-11T10:17:39.999Z</time></trkpt><trkpt lat="45.91983871205531" lon="11.038017510035925"><ele>180.0</ele><time>2026-04-11T10:17:40.999Z</time></trkpt><trkpt lat="45.91967510309499" lon="11.037988524645575"><ele>180.0</ele><time>2026-04-11T10:17:41.999Z</time></trkpt><trkpt lat="45.91950498466827" lon="11.037959552872673"><ele>180.0</ele><time>2026-04-11T10:17:42.999Z</time></trkpt><trkpt lat="45.919335119418115" lon="11.03791838913327"><ele>180.0</ele><time>2026-04-11T10:17:43.999Z</time></trkpt><trkpt lat="45.91916716320317" lon="11.037860049119367"><ele>180.0</ele><time>2026-04-11T10:17:44.999Z</time></trkpt><trkpt lat="45.919000553975835" lon="11.037790284777136"><ele>180.0</ele><time>2026-04-11T10:17:45.999Z</time></trkpt><trkpt lat="45.91883538213835" lon="11.037698862581319"><ele>180.0</ele><time>2026-04-11T10:17:46.999Z</time></trkpt><trkpt lat="45.91867343845327" lon="11.03759890286579"><ele>180.0</ele><time>2026-04-11T10:17:47.999Z</time></trkpt><trkpt lat="45.918515454951894" lon="11.037482128137828"><ele>180.0</ele><time>2026-04-11T10:17:48.999Z</time></trkpt><trkpt lat="45.918356759436634" lon="11.037353114503983"><ele>180.0</ele><time>2026-04-11T10:17:49.999Z</time></trkpt><trkpt lat="45.91819911731061" lon="11.037235214745902"><ele>179.0</ele><time>2026-04-11T10:17:50.999Z</time></trkpt><trkpt lat="45.91804201319829" lon="11.037115919233338"><ele>178.0</ele><time>2026-04-11T10:17:51.999Z</time></trkpt><trkpt lat="45.91788359116329" lon="11.037007335851062"><ele>177.0</ele><time>2026-04-11T10:17:52.999Z</time></trkpt><trkpt lat="45.91772794492627" lon="11.036899343998096"><ele>177.0</ele><time>2026-04-11T10:17:53.999Z</time></trkpt><trkpt lat="45.91756861670186" lon="11.036801421702124"><ele>177.0</ele><time>2026-04-11T10:17:54.999Z</time></trkpt><trkpt lat="45.91740649394309" lon="11.036709617720382"><ele>177.0</ele><time>2026-04-11T10:17:55.999Z</time></trkpt><trkpt lat="45.91724085331581" lon="11.036624239718744"><ele>177.0</ele><time>2026-04-11T10:17:56.999Z</time></trkpt><trkpt lat="45.9170765086628" lon="11.036537054320675"><ele>177.0</ele><time>2026-04-11T10:17:57.999Z</time></trkpt><trkpt lat="45.9169088664535" lon="11.036451013030787"><ele>177.0</ele><time>2026-04-11T10:17:58.999Z</time></trkpt><trkpt lat="45.91673827441077" lon="11.03636307822337"><ele>177.33333333333334</ele><time>2026-04-11T10:17:59.999Z</time></trkpt><trkpt lat="45.91656486186609" lon="11.036284457590183"><ele>177.66666666666669</ele><time>2026-04-11T10:18:00.999Z</time></trkpt><trkpt lat="45.916387197855094" lon="11.036204480839276"><ele>178.0</ele><time>2026-04-11T10:18:01.999Z</time></trkpt><trkpt lat="45.91621272248834" lon="11.03612832147975"><ele>178.0</ele><time>2026-04-11T10:18:02.999Z</time></trkpt><trkpt lat="45.916037236695544" lon="11.036046841454423"><ele>178.0</ele><time>2026-04-11T10:18:03.999Z</time></trkpt><trkpt lat="45.91586005966298" lon="11.03596185714269"><ele>178.0</ele><time>2026-04-11T10:18:04.999Z</time></trkpt><trkpt lat="45.91568447373608" lon="11.03588028135818"><ele>177.0</ele><time>2026-04-11T10:18:05.999Z</time></trkpt><trkpt lat="45.915507460180976" lon="11.035796882676363"><ele>176.0</ele><time>2026-04-11T10:18:06.999Z</time></trkpt><trkpt lat="45.91533156988341" lon="11.035715094957661"><ele>175.0</ele><time>2026-04-11T10:18:07.999Z</time></trkpt><trkpt lat="45.91515698563651" lon="11.035633405333547"><ele>175.0</ele><time>2026-04-11T10:18:08.999Z</time></trkpt><trkpt lat="45.91498817096619" lon="11.035557034092225"><ele>175.0</ele><time>2026-04-11T10:18:09.999Z</time></trkpt><trkpt lat="45.91485057115" lon="11.035467143895167"><ele>175.0</ele><time>2026-04-11T10:18:10.999Z</time></trkpt><trkpt lat="45.91473115784564" lon="11.035353175014654"><ele>175.0</ele><time>2026-04-11T10:18:11.999Z</time></trkpt><trkpt lat="45.91461606359886" lon="11.035256601947347"><ele>175.0</ele><time>2026-04-11T10:18:12.999Z</time></trkpt><trkpt lat="45.914526430481025" lon="11.03515210176532"><ele>175.0</ele><time>2026-04-11T10:18:13.999Z</time></trkpt><trkpt lat="45.914455177837546" lon="11.035040563085598"><ele>175.0</ele><time>2026-04-11T10:18:14.999Z</time></trkpt><trkpt lat="45.91439998369138" lon="11.034918230060436"><ele>175.2</ele><time>2026-04-11T10:18:15.999Z</time></trkpt><trkpt lat="45.91435256249968" lon="11.034788323563959"><ele>175.4</ele><time>2026-04-11T10:18:16.999Z</time></trkpt><trkpt lat="45.9142930354994" lon="11.034686642749573"><ele>175.60000000000002</ele><time>2026-04-11T10:18:17.999Z</time></trkpt><trkpt lat="45.91420594960811" lon="11.034641604086021"><ele>175.8</ele><time>2026-04-11T10:18:18.999Z</time></trkpt><trkpt lat="45.91410789955487" lon="11.034656600844576"><ele>176.0</ele><time>2026-04-11T10:18:19.999Z</time></trkpt><trkpt lat="45.91401692523555" lon="11.034732110711595"><ele>176.0</ele><time>2026-04-11T10:18:20.999Z</time></trkpt><trkpt lat="45.91394502595983" lon="11.034854873110126"><ele>176.0</ele><time>2026-04-11T10:18:21.999Z</time></trkpt><trkpt lat="45.913894944386335" lon="11.035011838977484"><ele>176.0</ele><time>2026-04-11T10:18:22.999Z</time></trkpt><trkpt lat="45.913845895151915" lon="11.035155102631238"><ele>176.0</ele><time>2026-04-11T10:18:23.999Z</time></trkpt><trkpt lat="45.9138279164225" lon="11.035299458349563"><ele>176.0</ele><time>2026-04-11T10:18:24.999Z</time></trkpt><trkpt lat="45.91386306464845" lon="11.035456123586247"><ele>176.0</ele><time>2026-04-11T10:18:25.999Z</time></trkpt><trkpt lat="45.9139312305409" lon="11.035597114569203"><ele>176.0</ele><time>2026-04-11T10:18:26.999Z</time></trkpt><trkpt lat="45.91399310514699" lon="11.03566173248522"><ele>176.0</ele><time>2026-04-11T10:18:27.999Z</time></trkpt><trkpt lat="45.913807915571134" lon="11.035888901209445"><ele>176.0</ele><time>2026-04-11T10:18:28.999Z</time></trkpt><trkpt lat="45.91373857016874" lon="11.036021274121515"><ele>176.66666666666666</ele><time>2026-04-11T10:18:29.999Z</time></trkpt><trkpt lat="45.91367091113739" lon="11.03616083465497"><ele>177.33333333333334</ele><time>2026-04-11T10:18:30.999Z</time></trkpt><trkpt lat="45.913590208650106" lon="11.036388080332333"><ele>178.0</ele><time>2026-04-11T10:18:31.999Z</time></trkpt><trkpt lat="45.91349536656209" lon="11.036594913563189"><ele>178.0</ele><time>2026-04-11T10:18:32.999Z</time></trkpt><trkpt lat="45.913409512960136" lon="11.036799587994393"><ele>178.0</ele><time>2026-04-11T10:18:33.999Z</time></trkpt><trkpt lat="45.913319364638156" lon="11.037003224221635"><ele>178.0</ele><time>2026-04-11T10:18:34.999Z</time></trkpt><trkpt lat="45.91324049245318" lon="11.037210449256735"><ele>177.66666666666669</ele><time>2026-04-11T10:18:35.999Z</time></trkpt><trkpt lat="45.91316820779503" lon="11.037406313089818"><ele>177.33333333333334</ele><time>2026-04-11T10:18:36.999Z</time></trkpt><trkpt lat="45.91307798920864" lon="11.037591098279439"><ele>177.0</ele><time>2026-04-11T10:18:37.999Z</time></trkpt><trkpt lat="45.91296799875257" lon="11.037766418192872"><ele>175.66666666666666</ele><time>2026-04-11T10:18:38.999Z</time></trkpt><trkpt lat="45.91286057153957" lon="11.037942991689755"><ele>174.33333333333331</ele><time>2026-04-11T10:18:39.999Z</time></trkpt><trkpt lat="45.91275242407477" lon="11.038125793382344"><ele>173.0</ele><time>2026-04-11T10:18:40.999Z</time></trkpt><trkpt lat="45.912644263045756" lon="11.03830831580367"><ele>172.66666666666666</ele><time>2026-04-11T10:18:41.999Z</time></trkpt><trkpt lat="45.912546041135975" lon="11.038481193116725"><ele>172.33333333333334</ele><time>2026-04-11T10:18:42.999Z</time></trkpt><trkpt lat="45.91244469335227" lon="11.038651546942495"><ele>172.0</ele><time>2026-04-11T10:18:43.999Z</time></trkpt><trkpt lat="45.91235040993251" lon="11.038814809657508"><ele>172.0</ele><time>2026-04-11T10:18:44.999Z</time></trkpt><trkpt lat="45.912251365327315" lon="11.038973873731717"><ele>172.0</ele><time>2026-04-11T10:18:45.999Z</time></trkpt><trkpt lat="45.91214173547893" lon="11.039096678486905"><ele>172.0</ele><time>2026-04-11T10:18:46.999Z</time></trkpt><trkpt lat="45.91200489244611" lon="11.039163597606878"><ele>172.0</ele><time>2026-04-11T10:18:47.999Z</time></trkpt><trkpt lat="45.91185822776714" lon="11.03923072229805"><ele>174.75</ele><time>2026-04-11T10:18:48.999Z</time></trkpt><trkpt lat="45.91171651010835" lon="11.03930242593267"><ele>177.5</ele><time>2026-04-11T10:18:49.999Z</time></trkpt><trkpt lat="45.91159979300317" lon="11.039351178768783"><ele>180.25</ele><time>2026-04-11T10:18:50.999Z</time></trkpt><trkpt lat="45.911508586914906" lon="11.039381855411955"><ele>183.0</ele><time>2026-04-11T10:18:51.999Z</time></trkpt><trkpt lat="45.91141685533895" lon="11.039347614249511"><ele>183.0</ele><time>2026-04-11T10:18:52.999Z</time></trkpt><trkpt lat="45.911325828987984" lon="11.039257997174225"><ele>183.0</ele><time>2026-04-11T10:18:53.999Z</time></trkpt><trkpt lat="45.911237082152255" lon="11.039112659054872"><ele>183.0</ele><time>2026-04-11T10:18:54.999Z</time></trkpt><trkpt lat="45.91114872775391" lon="11.038938120967263"><ele>183.0</ele><time>2026-04-11T10:18:55.999Z</time></trkpt><trkpt lat="45.91104940893582" lon="11.03876716708026"><ele>180.66666666666666</ele><time>2026-04-11T10:18:56.999Z</time></trkpt><trkpt lat="45.910923503609816" lon="11.038605729882464"><ele>178.33333333333331</ele><time>2026-04-11T10:18:57.999Z</time></trkpt><trkpt lat="45.91078314473076" lon="11.03846007504505"><ele>176.0</ele><time>2026-04-11T10:18:58.999Z</time></trkpt><trkpt lat="45.91062302028808" lon="11.038360673862144"><ele>175.66666666666666</ele><time>2026-04-11T10:18:59.999Z</time></trkpt><trkpt lat="45.91045281208203" lon="11.038304880182695"><ele>175.33333333333334</ele><time>2026-04-11T10:19:00.999Z</time></trkpt><trkpt lat="45.91028187931363" lon="11.038237323875943"><ele>175.0</ele><time>2026-04-11T10:19:01.999Z</time></trkpt><trkpt lat="45.91011594017422" lon="11.038154022371826"><ele>175.0</ele><time>2026-04-11T10:19:02.999Z</time></trkpt><trkpt lat="45.90997353075207" lon="11.038008576770643"><ele>175.0</ele><time>2026-04-11T10:19:03.999Z</time></trkpt><trkpt lat="45.90984823545509" lon="11.037835178510598"><ele>175.0</ele><time>2026-04-11T10:19:04.999Z</time></trkpt><trkpt lat="45.90974733865007" lon="11.037622863290833"><ele>175.0</ele><time>2026-04-11T10:19:05.999Z</time></trkpt><trkpt lat="45.90967459412721" lon="11.037389567837005"><ele>175.0</ele><time>2026-04-11T10:19:06.999Z</time></trkpt><trkpt lat="45.9096091077293" lon="11.037124442655985"><ele>175.0</ele><time>2026-04-11T10:19:07.999Z</time></trkpt><trkpt lat="45.909539582923514" lon="11.036886140102732"><ele>175.0</ele><time>2026-04-11T10:19:08.999Z</time></trkpt><trkpt lat="45.90944759377262" lon="11.036662667418732"><ele>175.0</ele><time>2026-04-11T10:19:09.999Z</time></trkpt><trkpt lat="45.90932355099373" lon="11.03648891108414"><ele>175.0</ele><time>2026-04-11T10:19:10.999Z</time></trkpt><trkpt lat="45.90918685753553" lon="11.036357477462714"><ele>175.0</ele><time>2026-04-11T10:19:11.999Z</time></trkpt><trkpt lat="45.90903919819331" lon="11.036262132940136"><ele>175.0</ele><time>2026-04-11T10:19:12.999Z</time></trkpt><trkpt lat="45.90888528034609" lon="11.036204774119337"><ele>175.0</ele><time>2026-04-11T10:19:13.999Z</time></trkpt><trkpt lat="45.908728392107506" lon="11.036192730642266"><ele>175.0</ele><time>2026-04-11T10:19:14.999Z</time></trkpt><trkpt lat="45.90856357434009" lon="11.036200776777097"><ele>175.0</ele><time>2026-04-11T10:19:15.999Z</time></trkpt><trkpt lat="45.9083841749119" lon="11.036259333716535"><ele>175.0</ele><time>2026-04-11T10:19:16.999Z</time></trkpt><trkpt lat="45.90821319984944" lon="11.03626204512243"><ele>174.66666666666669</ele><time>2026-04-11T10:19:17.999Z</time></trkpt><trkpt lat="45.908046315230145" lon="11.036268642357296"><ele>174.33333333333334</ele><time>2026-04-11T10:19:18.999Z</time></trkpt><trkpt lat="45.90788482232937" lon="11.036272044499743"><ele>174.0</ele><time>2026-04-11T10:19:19.999Z</time></trkpt><trkpt lat="45.90772232297116" lon="11.036247776953568"><ele>173.66666666666666</ele><time>2026-04-11T10:19:20.999Z</time></trkpt><trkpt lat="45.90755403718954" lon="11.036223425459426"><ele>173.33333333333331</ele><time>2026-04-11T10:19:21.999Z</time></trkpt><trkpt lat="45.90738807309287" lon="11.036191990986266"><ele>173.0</ele><time>2026-04-11T10:19:22.999Z</time></trkpt><trkpt lat="45.90721825543841" lon="11.036159153279238"><ele>173.0</ele><time>2026-04-11T10:19:23.999Z</time></trkpt><trkpt lat="45.90705742391942" lon="11.036132052437297"><ele>173.0</ele><time>2026-04-11T10:19:24.999Z</time></trkpt><trkpt lat="45.90690058269399" lon="11.036106373430549"><ele>173.0</ele><time>2026-04-11T10:19:25.999Z</time></trkpt><trkpt lat="45.90675039211712" lon="11.036080687599451"><ele>173.25</ele><time>2026-04-11T10:19:27Z</time></trkpt><trkpt lat="45.90661223027121" lon="11.03605985803544"><ele>173.5</ele><time>2026-04-11T10:19:28Z</time></trkpt><trkpt lat="45.90647720479368" lon="11.036039332216484"><ele>173.75</ele><time>2026-04-11T10:19:29Z</time></trkpt><trkpt lat="45.90634649810038" lon="11.036018277907212"><ele>174.0</ele><time>2026-04-11T10:19:30Z</time></trkpt><trkpt lat="45.90622982866463" lon="11.035998881426238"><ele>174.0</ele><time>2026-04-11T10:19:31Z</time></trkpt><trkpt lat="45.90612420910435" lon="11.035975217061262"><ele>174.0</ele><time>2026-04-11T10:19:32Z</time></trkpt><trkpt lat="45.90601931147403" lon="11.035953140136359"><ele>174.0</ele><time>2026-04-11T10:19:33Z</time></trkpt><trkpt lat="45.905911219628514" lon="11.035937790303326"><ele>174.0</ele><time>2026-04-11T10:19:34Z</time></trkpt><trkpt lat="45.9057986257133" lon="11.035924533195994"><ele>174.0</ele><time>2026-04-11T10:19:35Z</time></trkpt><trkpt lat="45.90568519251816" lon="11.035911762528217"><ele>173.75</ele><time>2026-04-11T10:19:36Z</time></trkpt><trkpt lat="45.90556748967179" lon="11.035898661836484"><ele>173.5</ele><time>2026-04-11T10:19:37Z</time></trkpt><trkpt lat="45.90544545762005" lon="11.035885203056408"><ele>173.25</ele><time>2026-04-11T10:19:38Z</time></trkpt><trkpt lat="45.90531936236832" lon="11.035872721570374"><ele>173.0</ele><time>2026-04-11T10:19:39Z</time></trkpt><trkpt lat="45.90519383244838" lon="11.035858861461257"><ele>174.25</ele><time>2026-04-11T10:19:40Z</time></trkpt><trkpt lat="45.90507524146107" lon="11.035847408713776"><ele>175.5</ele><time>2026-04-11T10:19:41Z</time></trkpt><trkpt lat="45.90496109186931" lon="11.03583740460672"><ele>176.75</ele><time>2026-04-11T10:19:42Z</time></trkpt><trkpt lat="45.904847753087296" lon="11.035821817450019"><ele>178.0</ele><time>2026-04-11T10:19:43Z</time></trkpt><trkpt lat="45.90472555815309" lon="11.035805432676227"><ele>177.5</ele><time>2026-04-11T10:19:44Z</time></trkpt><trkpt lat="45.90459630976173" lon="11.035785274420874"><ele>177.0</ele><time>2026-04-11T10:19:45Z</time></trkpt><trkpt lat="45.904463464846614" lon="11.035766710388351"><ele>176.5</ele><time>2026-04-11T10:19:46Z</time></trkpt><trkpt lat="45.904333806612" lon="11.035744552338679"><ele>176.0</ele><time>2026-04-11T10:19:47Z</time></trkpt><trkpt lat="45.90421220177888" lon="11.035720779015431"><ele>176.0</ele><time>2026-04-11T10:19:48Z</time></trkpt><trkpt lat="45.90409278875369" lon="11.03569627110483"><ele>176.0</ele><time>2026-04-11T10:19:49Z</time></trkpt><trkpt lat="45.903977919309376" lon="11.035670707107775"><ele>176.0</ele><time>2026-04-11T10:19:50Z</time></trkpt><trkpt lat="45.90387429507943" lon="11.035643369139907"><ele>176.0</ele><time>2026-04-11T10:19:51Z</time></trkpt><trkpt lat="45.90377887792245" lon="11.03561357493481"><ele>176.0</ele><time>2026-04-11T10:19:52Z</time></trkpt><trkpt lat="45.90368907176377" lon="11.035576011858067"><ele>176.0</ele><time>2026-04-11T10:19:53Z</time></trkpt><trkpt lat="45.90360351944648" lon="11.035524297438648"><ele>176.0</ele><time>2026-04-11T10:19:54Z</time></trkpt><trkpt lat="45.90352027518434" lon="11.035460936279778"><ele>176.0</ele><time>2026-04-11T10:19:55Z</time></trkpt><trkpt lat="45.90342998573979" lon="11.035391742429672"><ele>176.0</ele><time>2026-04-11T10:19:56Z</time></trkpt><trkpt lat="45.90334092556391" lon="11.035323751501965"><ele>176.0</ele><time>2026-04-11T10:19:57Z</time></trkpt><trkpt lat="45.90325194143295" lon="11.035258484153555"><ele>175.8</ele><time>2026-04-11T10:19:58Z</time></trkpt><trkpt lat="45.90316177141754" lon="11.035194911823488"><ele>175.60000000000002</ele><time>2026-04-11T10:19:59Z</time></trkpt><trkpt lat="45.903067667122734" lon="11.035128743588444"><ele>175.4</ele><time>2026-04-11T10:20:00Z</time></trkpt><trkpt lat="45.90296714099102" lon="11.03506383973841"><ele>175.2</ele><time>2026-04-11T10:20:01Z</time></trkpt><trkpt lat="45.902860200509764" lon="11.035011587942057"><ele>175.0</ele><time>2026-04-11T10:20:02Z</time></trkpt><trkpt lat="45.90274591917822" lon="11.03497431819303"><ele>174.4</ele><time>2026-04-11T10:20:03Z</time></trkpt><trkpt lat="45.90263051402321" lon="11.034946495650509"><ele>173.8</ele><time>2026-04-11T10:20:04Z</time></trkpt><trkpt lat="45.90251564324482" lon="11.034930762761523"><ele>173.2</ele><time>2026-04-11T10:20:05Z</time></trkpt><trkpt lat="45.90241285899374" lon="11.034918900325977"><ele>172.6</ele><time>2026-04-11T10:20:06Z</time></trkpt><trkpt lat="45.90232437431575" lon="11.034911656596076"><ele>172.0</ele><time>2026-04-11T10:20:07Z</time></trkpt><trkpt lat="45.90224792748416" lon="11.034897925109249"><ele>172.0</ele><time>2026-04-11T10:20:08Z</time></trkpt><trkpt lat="45.90218630486761" lon="11.03487605041816"><ele>172.0</ele><time>2026-04-11T10:20:09Z</time></trkpt><trkpt lat="45.90212607871805" lon="11.034847136774019"><ele>172.0</ele><time>2026-04-11T10:20:10Z</time></trkpt><trkpt lat="45.90205780536401" lon="11.03480405744333"><ele>172.0</ele><time>2026-04-11T10:20:11Z</time></trkpt><trkpt lat="45.90198575778012" lon="11.034748576792442"><ele>172.0</ele><time>2026-04-11T10:20:12Z</time></trkpt><trkpt lat="45.901902214904936" lon="11.034711892350987"><ele>172.0</ele><time>2026-04-11T10:20:13Z</time></trkpt><trkpt lat="45.901811395048256" lon="11.034661470782243"><ele>172.2</ele><time>2026-04-11T10:20:14Z</time></trkpt><trkpt lat="45.901714987387045" lon="11.034672769887392"><ele>172.39999999999998</ele><time>2026-04-11T10:20:15Z</time></trkpt><trkpt lat="45.901620716628386" lon="11.034711842311342"><ele>172.60000000000002</ele><time>2026-04-11T10:20:16Z</time></trkpt><trkpt lat="45.90153860105972" lon="11.03480988614499"><ele>172.8</ele><time>2026-04-11T10:20:17Z</time></trkpt><trkpt lat="45.901518477513704" lon="11.034934454238206"><ele>173.0</ele><time>2026-04-11T10:20:18Z</time></trkpt><trkpt lat="45.9015061209404" lon="11.035037968307607"><ele>173.25</ele><time>2026-04-11T10:20:19Z</time></trkpt><trkpt lat="45.90147314363401" lon="11.035179614918256"><ele>173.5</ele><time>2026-04-11T10:20:20Z</time></trkpt><trkpt lat="45.90147012103865" lon="11.035355823425332"><ele>173.75</ele><time>2026-04-11T10:20:21Z</time></trkpt><trkpt lat="45.90145466332267" lon="11.035539284765918"><ele>174.0</ele><time>2026-04-11T10:20:22Z</time></trkpt><trkpt lat="45.90143415525637" lon="11.035716747191866"><ele>174.6</ele><time>2026-04-11T10:20:23Z</time></trkpt><trkpt lat="45.90141040453349" lon="11.03587147821001"><ele>175.2</ele><time>2026-04-11T10:20:24Z</time></trkpt><trkpt lat="45.90140682190054" lon="11.036001939724331"><ele>175.79999999999998</ele><time>2026-04-11T10:20:25Z</time></trkpt><trkpt lat="45.90143502847748" lon="11.036144370807957"><ele>176.39999999999998</ele><time>2026-04-11T10:20:26Z</time></trkpt><trkpt lat="45.901484008246335" lon="11.03625570585805"><ele>177.0</ele><time>2026-04-11T10:20:27Z</time></trkpt><trkpt lat="45.901556989767464" lon="11.036353861875634"><ele>177.0</ele><time>2026-04-11T10:20:28Z</time></trkpt><trkpt lat="45.90165629342417" lon="11.036417545462806"><ele>177.0</ele><time>2026-04-11T10:20:29Z</time></trkpt><trkpt lat="45.9017680412846" lon="11.036418788070167"><ele>177.0</ele><time>2026-04-11T10:20:30Z</time></trkpt><trkpt lat="45.90186866934098" lon="11.036362642673922"><ele>177.0</ele><time>2026-04-11T10:20:31Z</time></trkpt><trkpt lat="45.90195834984888" lon="11.036271330038236"><ele>177.0</ele><time>2026-04-11T10:20:32Z</time></trkpt><trkpt lat="45.90204638719416" lon="11.036171442580079"><ele>177.0</ele><time>2026-04-11T10:20:33Z</time></trkpt><trkpt lat="45.90214641441427" lon="11.036120175171776"><ele>177.0</ele><time>2026-04-11T10:20:34Z</time></trkpt><trkpt lat="45.90225836225172" lon="11.036143385265486"><ele>177.0</ele><time>2026-04-11T10:20:35Z</time></trkpt><trkpt lat="45.90236194745032" lon="11.036213081393692"><ele>177.0</ele><time>2026-04-11T10:20:36Z</time></trkpt><trkpt lat="45.902479936082194" lon="11.036282387567407"><ele>177.66666666666666</ele><time>2026-04-11T10:20:37Z</time></trkpt><trkpt lat="45.90262734404631" lon="11.036323600718063"><ele>178.33333333333331</ele><time>2026-04-11T10:20:38Z</time></trkpt><trkpt lat="45.90278355034483" lon="11.036350339392003"><ele>179.0</ele><time>2026-04-11T10:20:39Z</time></trkpt><trkpt lat="45.902960035461355" lon="11.036359933112172"><ele>179.0</ele><time>2026-04-11T10:20:40Z</time></trkpt><trkpt lat="45.90312549829915" lon="11.036359564837417"><ele>179.0</ele><time>2026-04-11T10:20:41Z</time></trkpt><trkpt lat="45.90326238635243" lon="11.036355206679882"><ele>179.0</ele><time>2026-04-11T10:20:42Z</time></trkpt><trkpt lat="45.90338898617902" lon="11.036346319914655"><ele>179.0</ele><time>2026-04-11T10:20:43Z</time></trkpt><trkpt lat="45.90352712072048" lon="11.036339618103849"><ele>179.0</ele><time>2026-04-11T10:20:44Z</time></trkpt><trkpt lat="45.90366428579116" lon="11.036302502259868"><ele>179.0</ele><time>2026-04-11T10:20:45Z</time></trkpt><trkpt lat="45.9038219215893" lon="11.036407699157127"><ele>179.0</ele><time>2026-04-11T10:20:46Z</time></trkpt><trkpt lat="45.903966642807774" lon="11.036484191180737"><ele>179.0</ele><time>2026-04-11T10:20:47Z</time></trkpt><trkpt lat="45.90410487190449" lon="11.036582010708573"><ele>179.0</ele><time>2026-04-11T10:20:48Z</time></trkpt><trkpt lat="45.90423963755656" lon="11.036707910192913"><ele>179.0</ele><time>2026-04-11T10:20:49Z</time></trkpt><trkpt lat="45.90436595033743" lon="11.03684560564052"><ele>180.66666666666666</ele><time>2026-04-11T10:20:50Z</time></trkpt><trkpt lat="45.9044935794422" lon="11.036989594519913"><ele>182.33333333333334</ele><time>2026-04-11T10:20:51Z</time></trkpt><trkpt lat="45.90462044599217" lon="11.037136961247008"><ele>184.0</ele><time>2026-04-11T10:20:52Z</time></trkpt><trkpt lat="45.90474600969131" lon="11.037283869232626"><ele>184.0</ele><time>2026-04-11T10:20:53Z</time></trkpt><trkpt lat="45.90487002357486" lon="11.037430765827155"><ele>184.0</ele><time>2026-04-11T10:20:54Z</time></trkpt><trkpt lat="45.90499622569791" lon="11.037578777919425"><ele>184.0</ele><time>2026-04-11T10:20:55Z</time></trkpt><trkpt lat="45.90511822681774" lon="11.03772511185079"><ele>182.33333333333334</ele><time>2026-04-11T10:20:56Z</time></trkpt><trkpt lat="45.905238471958626" lon="11.03787034274558"><ele>180.66666666666666</ele><time>2026-04-11T10:20:57Z</time></trkpt><trkpt lat="45.90536115429396" lon="11.038012330208899"><ele>179.0</ele><time>2026-04-11T10:20:58Z</time></trkpt><trkpt lat="45.90548270179101" lon="11.03815538452305"><ele>179.0</ele><time>2026-04-11T10:20:59Z</time></trkpt><trkpt lat="45.905606073866856" lon="11.038296963631659"><ele>179.0</ele><time>2026-04-11T10:21:00Z</time></trkpt><trkpt lat="45.905729072240995" lon="11.038439707533879"><ele>179.0</ele><time>2026-04-11T10:21:01Z</time></trkpt><trkpt lat="45.90584826306269" lon="11.03858452565449"><ele>179.0</ele><time>2026-04-11T10:21:02Z</time></trkpt><trkpt lat="45.905969360754455" lon="11.038729623307637"><ele>179.0</ele><time>2026-04-11T10:21:03Z</time></trkpt><trkpt lat="45.906090267850225" lon="11.038874671281592"><ele>179.0</ele><time>2026-04-11T10:21:04Z</time></trkpt><trkpt lat="45.906211614723475" lon="11.039019284596607"><ele>183.66666666666666</ele><time>2026-04-11T10:21:05Z</time></trkpt><trkpt lat="45.90633750456911" lon="11.039161680092263"><ele>188.33333333333331</ele><time>2026-04-11T10:21:06Z</time></trkpt><trkpt lat="45.90646121723014" lon="11.039307977524832"><ele>193.0</ele><time>2026-04-11T10:21:07Z</time></trkpt><trkpt lat="45.9065860752471" lon="11.039458232905044"><ele>193.0</ele><time>2026-04-11T10:21:08Z</time></trkpt><trkpt lat="45.906715525406156" lon="11.039607553534152"><ele>193.0</ele><time>2026-04-11T10:21:09Z</time></trkpt><trkpt lat="45.90684312738248" lon="11.039753211384848"><ele>193.0</ele><time>2026-04-11T10:21:09.999Z</time></trkpt><trkpt lat="45.90696137649372" lon="11.039862752699614"><ele>194.5</ele><time>2026-04-11T10:21:10.999Z</time></trkpt><trkpt lat="45.907065199896934" lon="11.039956111869985"><ele>196.0</ele><time>2026-04-11T10:21:11.999Z</time></trkpt><trkpt lat="45.90716030709384" lon="11.040035319641664"><ele>197.5</ele><time>2026-04-11T10:21:12.999Z</time></trkpt><trkpt lat="45.90726196450528" lon="11.040108554847828"><ele>199.0</ele><time>2026-04-11T10:21:13.999Z</time></trkpt><trkpt lat="45.90735796194826" lon="11.040172327486205"><ele>198.99999999999997</ele><time>2026-04-11T10:21:14.999Z</time></trkpt><trkpt lat="45.907443809538684" lon="11.040212481012428"><ele>199.0</ele><time>2026-04-11T10:21:15.999Z</time></trkpt><trkpt lat="45.907516030515886" lon="11.040249174181314"><ele>199.0</ele><time>2026-04-11T10:21:16.999Z</time></trkpt><trkpt lat="45.90760658446657" lon="11.040296795196767"><ele>199.0</ele><time>2026-04-11T10:21:18.999Z</time></trkpt><trkpt lat="45.907670537789826" lon="11.040332719846965"><ele>198.99999999999997</ele><time>2026-04-11T10:21:20.999Z</time></trkpt><trkpt lat="45.90773210767285" lon="11.040360367187658"><ele>199.0</ele><time>2026-04-11T10:21:27.999Z</time></trkpt><trkpt lat="45.9078461623125" lon="11.040421403618028"><ele>198.66666666666666</ele><time>2026-04-11T10:21:29.999Z</time></trkpt><trkpt lat="45.90790795882888" lon="11.040457946071161"><ele>198.33333333333331</ele><time>2026-04-11T10:21:30.999Z</time></trkpt><trkpt lat="45.90798840158649" lon="11.04049792293767"><ele>198.0</ele><time>2026-04-11T10:21:33Z</time></trkpt><trkpt lat="45.90804507492338" lon="11.040540034416496"><ele>197.66666666666669</ele><time>2026-04-11T10:21:35Z</time></trkpt><trkpt lat="45.90810582986683" lon="11.040587894335701"><ele>197.33333333333334</ele><time>2026-04-11T10:21:44Z</time></trkpt><trkpt lat="45.90819679693795" lon="11.040728540613683"><ele>197.0</ele><time>2026-04-11T10:21:46Z</time></trkpt><trkpt lat="45.90824693887582" lon="11.040795019464639"><ele>198.39999999999998</ele><time>2026-04-11T10:21:47Z</time></trkpt><trkpt lat="45.908316128365996" lon="11.040817141752257"><ele>199.79999999999998</ele><time>2026-04-11T10:21:48Z</time></trkpt><trkpt lat="45.90839618462416" lon="11.040808429625814"><ele>201.2</ele><time>2026-04-11T10:21:49Z</time></trkpt><trkpt lat="45.908500432581306" lon="11.040802165584875"><ele>202.6</ele><time>2026-04-11T10:21:50Z</time></trkpt><trkpt lat="45.9086137942642" lon="11.040829164484451"><ele>204.0</ele><time>2026-04-11T10:21:51Z</time></trkpt><trkpt lat="45.9087335497746" lon="11.040894831577482"><ele>204.0</ele><time>2026-04-11T10:21:52Z</time></trkpt><trkpt lat="45.908860227576035" lon="11.040976456773295"><ele>204.0</ele><time>2026-04-11T10:21:53Z</time></trkpt><trkpt lat="45.90899871849483" lon="11.041044324741982"><ele>204.0</ele><time>2026-04-11T10:21:54Z</time></trkpt><trkpt lat="45.909142211496466" lon="11.041113038681662"><ele>204.0</ele><time>2026-04-11T10:21:55Z</time></trkpt><trkpt lat="45.90927862211245" lon="11.041187198910094"><ele>204.0</ele><time>2026-04-11T10:21:56Z</time></trkpt><trkpt lat="45.909411803485284" lon="11.041261881517379"><ele>204.0</ele><time>2026-04-11T10:21:57Z</time></trkpt><trkpt lat="45.90954235656086" lon="11.041347076801307"><ele>204.0</ele><time>2026-04-11T10:21:58Z</time></trkpt><trkpt lat="45.90967282401725" lon="11.041434349337313"><ele>204.0</ele><time>2026-04-11T10:21:59Z</time></trkpt><trkpt lat="45.909799635057105" lon="11.041511452444281"><ele>204.0</ele><time>2026-04-11T10:22:00Z</time></trkpt><trkpt lat="45.90992731676865" lon="11.041583990967501"><ele>204.0</ele><time>2026-04-11T10:22:01Z</time></trkpt><trkpt lat="45.91005590053573" lon="11.04165685989226"><ele>204.0</ele><time>2026-04-11T10:22:02Z</time></trkpt><trkpt lat="45.91018471464146" lon="11.041720346149596"><ele>204.0</ele><time>2026-04-11T10:22:03Z</time></trkpt><trkpt lat="45.910315379867306" lon="11.041776277377835"><ele>204.25</ele><time>2026-04-11T10:22:04Z</time></trkpt><trkpt lat="45.91044518585396" lon="11.041823010134529"><ele>204.5</ele><time>2026-04-11T10:22:05Z</time></trkpt><trkpt lat="45.91057315537291" lon="11.041872864207413"><ele>204.75</ele><time>2026-04-11T10:22:06Z</time></trkpt><trkpt lat="45.91070219969418" lon="11.041929999734542"><ele>205.0</ele><time>2026-04-11T10:22:07Z</time></trkpt><trkpt lat="45.91082769494828" lon="11.041997921152188"><ele>204.0</ele><time>2026-04-11T10:22:08Z</time></trkpt><trkpt lat="45.91095249643408" lon="11.042083390459133"><ele>203.0</ele><time>2026-04-11T10:22:09Z</time></trkpt><trkpt lat="45.91109240612435" lon="11.042190167277413"><ele>202.0</ele><time>2026-04-11T10:22:10Z</time></trkpt><trkpt lat="45.91124488495975" lon="11.04231715540313"><ele>203.0</ele><time>2026-04-11T10:22:11Z</time></trkpt><trkpt lat="45.9114029693719" lon="11.042474854472724"><ele>204.0</ele><time>2026-04-11T10:22:12Z</time></trkpt><trkpt lat="45.911553445266726" lon="11.042654571041549"><ele>205.0</ele><time>2026-04-11T10:22:13Z</time></trkpt><trkpt lat="45.91169211936963" lon="11.04284665895793"><ele>203.66666666666666</ele><time>2026-04-11T10:22:14Z</time></trkpt><trkpt lat="45.91181609446671" lon="11.043040201660833"><ele>202.33333333333331</ele><time>2026-04-11T10:22:15Z</time></trkpt><trkpt lat="45.91193384453519" lon="11.043230731177607"><ele>201.0</ele><time>2026-04-11T10:22:16Z</time></trkpt><trkpt lat="45.91205610675462" lon="11.0434139386194"><ele>201.0</ele><time>2026-04-11T10:22:17Z</time></trkpt><trkpt lat="45.91218381482085" lon="11.043581471642947"><ele>201.0</ele><time>2026-04-11T10:22:18Z</time></trkpt><trkpt lat="45.91231891774405" lon="11.043728935167621"><ele>201.0</ele><time>2026-04-11T10:22:19Z</time></trkpt><trkpt lat="45.91245860662052" lon="11.04385494964482"><ele>201.0</ele><time>2026-04-11T10:22:20Z</time></trkpt><trkpt lat="45.91259723285075" lon="11.043972593744428"><ele>201.0</ele><time>2026-04-11T10:22:21Z</time></trkpt><trkpt lat="45.912724965917064" lon="11.04409794953508"><ele>201.0</ele><time>2026-04-11T10:22:22Z</time></trkpt><trkpt lat="45.91283902165296" lon="11.044235367194352"><ele>201.0</ele><time>2026-04-11T10:22:23Z</time></trkpt><trkpt lat="45.91294497258317" lon="11.044387808795843"><ele>201.0</ele><time>2026-04-11T10:22:24Z</time></trkpt><trkpt lat="45.91305072683837" lon="11.044550787755469"><ele>201.0</ele><time>2026-04-11T10:22:25Z</time></trkpt><trkpt lat="45.913164087438055" lon="11.044715093272718"><ele>201.0</ele><time>2026-04-11T10:22:26Z</time></trkpt><trkpt lat="45.91328745856776" lon="11.044878724949335"><ele>201.0</ele><time>2026-04-11T10:22:27Z</time></trkpt><trkpt lat="45.91341607580053" lon="11.045039298825793"><ele>201.0</ele><time>2026-04-11T10:22:28Z</time></trkpt><trkpt lat="45.91354596285421" lon="11.045196993257065"><ele>200.66666666666669</ele><time>2026-04-11T10:22:29Z</time></trkpt><trkpt lat="45.91367936947415" lon="11.045348859359823"><ele>200.33333333333334</ele><time>2026-04-11T10:22:30Z</time></trkpt><trkpt lat="45.91381417845879" lon="11.045499801480423"><ele>200.0</ele><time>2026-04-11T10:22:31Z</time></trkpt><trkpt lat="45.913947560718704" lon="11.045646720762411"><ele>200.0</ele><time>2026-04-11T10:22:32Z</time></trkpt><trkpt lat="45.914081655177526" lon="11.045789460568756"><ele>200.0</ele><time>2026-04-11T10:22:33Z</time></trkpt><trkpt lat="45.91421179905663" lon="11.045935250720087"><ele>200.0</ele><time>2026-04-11T10:22:34Z</time></trkpt><trkpt lat="45.91433131012143" lon="11.04609595217681"><ele>198.0</ele><time>2026-04-11T10:22:35Z</time></trkpt><trkpt lat="45.914435250855945" lon="11.046273721322708"><ele>196.0</ele><time>2026-04-11T10:22:36Z</time></trkpt><trkpt lat="45.914523512640756" lon="11.046463270607788"><ele>194.0</ele><time>2026-04-11T10:22:37Z</time></trkpt><trkpt lat="45.914600778016116" lon="11.046653565294202"><ele>194.0</ele><time>2026-04-11T10:22:38Z</time></trkpt><trkpt lat="45.914669910684424" lon="11.046839055949984"><ele>194.0</ele><time>2026-04-11T10:22:39Z</time></trkpt><trkpt lat="45.91473829098944" lon="11.047023179104407"><ele>194.0</ele><time>2026-04-11T10:22:40Z</time></trkpt><trkpt lat="45.91480827704974" lon="11.047200850552606"><ele>194.0</ele><time>2026-04-11T10:22:41Z</time></trkpt><trkpt lat="45.91488524857294" lon="11.047372645390164"><ele>195.5</ele><time>2026-04-11T10:22:42Z</time></trkpt><trkpt lat="45.91496773809898" lon="11.047538078339628"><ele>197.0</ele><time>2026-04-11T10:22:43Z</time></trkpt><trkpt lat="45.91505724308268" lon="11.047698801259124"><ele>198.5</ele><time>2026-04-11T10:22:44Z</time></trkpt><trkpt lat="45.91515245182802" lon="11.047851491345657"><ele>200.0</ele><time>2026-04-11T10:22:45Z</time></trkpt><trkpt lat="45.91525171067895" lon="11.0479966775563"><ele>198.75</ele><time>2026-04-11T10:22:46Z</time></trkpt><trkpt lat="45.915356859707956" lon="11.048132148994851"><ele>197.5</ele><time>2026-04-11T10:22:47Z</time></trkpt><trkpt lat="45.91546274948559" lon="11.048262259384565"><ele>196.25</ele><time>2026-04-11T10:22:48Z</time></trkpt><trkpt lat="45.915566558116495" lon="11.048388218498783"><ele>195.0</ele><time>2026-04-11T10:22:49Z</time></trkpt><trkpt lat="45.915672005557" lon="11.048511762797984"><ele>195.0</ele><time>2026-04-11T10:22:50Z</time></trkpt><trkpt lat="45.91577494587263" lon="11.048628625874374"><ele>195.0</ele><time>2026-04-11T10:22:51Z</time></trkpt><trkpt lat="45.91586953460206" lon="11.048754300322273"><ele>195.0</ele><time>2026-04-11T10:22:52Z</time></trkpt><trkpt lat="45.91595779700382" lon="11.048883980556784"><ele>195.0</ele><time>2026-04-11T10:22:53Z</time></trkpt><trkpt lat="45.91604491607433" lon="11.049010732741623"><ele>193.0</ele><time>2026-04-11T10:22:54Z</time></trkpt><trkpt lat="45.91613062379073" lon="11.049149953489332"><ele>191.0</ele><time>2026-04-11T10:22:55Z</time></trkpt><trkpt lat="45.91620965247726" lon="11.049298449929557"><ele>189.0</ele><time>2026-04-11T10:22:56Z</time></trkpt><trkpt lat="45.91627883675359" lon="11.049459170930904"><ele>187.0</ele><time>2026-04-11T10:22:57Z</time></trkpt><trkpt lat="45.916338204619144" lon="11.049631075919445"><ele>187.0</ele><time>2026-04-11T10:22:58Z</time></trkpt><trkpt lat="45.91639598640668" lon="11.04981536214074"><ele>187.0</ele><time>2026-04-11T10:22:59Z</time></trkpt><trkpt lat="45.91644135971606" lon="11.050013949737027"><ele>187.0</ele><time>2026-04-11T10:23:00Z</time></trkpt><trkpt lat="45.91647393766113" lon="11.050219845885524"><ele>187.0</ele><time>2026-04-11T10:23:01Z</time></trkpt><trkpt lat="45.916497095240004" lon="11.050420467775279"><ele>187.66666666666669</ele><time>2026-04-11T10:23:02Z</time></trkpt><trkpt lat="45.91652257162112" lon="11.050632060333502"><ele>188.33333333333334</ele><time>2026-04-11T10:23:03Z</time></trkpt><trkpt lat="45.91654553304421" lon="11.050852153405215"><ele>189.0</ele><time>2026-04-11T10:23:04Z</time></trkpt><trkpt lat="45.91658434260955" lon="11.051062950488161"><ele>189.33333333333334</ele><time>2026-04-11T10:23:05Z</time></trkpt><trkpt lat="45.91663044622629" lon="11.051268078153623"><ele>189.66666666666669</ele><time>2026-04-11T10:23:06Z</time></trkpt><trkpt lat="45.91668424177352" lon="11.05147315041068"><ele>190.0</ele><time>2026-04-11T10:23:07Z</time></trkpt><trkpt lat="45.91673976424745" lon="11.051674536629568"><ele>188.5</ele><time>2026-04-11T10:23:08Z</time></trkpt><trkpt lat="45.9167971962663" lon="11.051878904640917"><ele>187.0</ele><time>2026-04-11T10:23:09Z</time></trkpt><trkpt lat="45.91684831929591" lon="11.052075989245473"><ele>185.5</ele><time>2026-04-11T10:23:10Z</time></trkpt><trkpt lat="45.916882026536804" lon="11.05227788382048"><ele>184.0</ele><time>2026-04-11T10:23:11Z</time></trkpt><trkpt lat="45.91694027845924" lon="11.052466421965311"><ele>184.0</ele><time>2026-04-11T10:23:12Z</time></trkpt><trkpt lat="45.91697234576239" lon="11.052664523297821"><ele>184.0</ele><time>2026-04-11T10:23:13Z</time></trkpt><trkpt lat="45.916998651782784" lon="11.052863998245359"><ele>184.0</ele><time>2026-04-11T10:23:14Z</time></trkpt><trkpt lat="45.91701904969583" lon="11.053063121742351"><ele>184.0</ele><time>2026-04-11T10:23:15Z</time></trkpt><trkpt lat="45.917035592865666" lon="11.053261805214209"><ele>184.5</ele><time>2026-04-11T10:23:16Z</time></trkpt><trkpt lat="45.917049310695205" lon="11.053458468609445"><ele>185.0</ele><time>2026-04-11T10:23:17Z</time></trkpt><trkpt lat="45.91706236374418" lon="11.053651060884302"><ele>185.5</ele><time>2026-04-11T10:23:18Z</time></trkpt><trkpt lat="45.917077638512154" lon="11.053834720426318"><ele>186.0</ele><time>2026-04-11T10:23:19Z</time></trkpt><trkpt lat="45.91708875884119" lon="11.054019945742777"><ele>185.75</ele><time>2026-04-11T10:23:20Z</time></trkpt><trkpt lat="45.917103064269384" lon="11.054203730373644"><ele>185.5</ele><time>2026-04-11T10:23:21Z</time></trkpt><trkpt lat="45.91711043791109" lon="11.054388508842345"><ele>185.25</ele><time>2026-04-11T10:23:22Z</time></trkpt><trkpt lat="45.917120447579194" lon="11.05456744487663"><ele>185.0</ele><time>2026-04-11T10:23:23Z</time></trkpt><trkpt lat="45.917128855145485" lon="11.05474592789939"><ele>185.0</ele><time>2026-04-11T10:23:24Z</time></trkpt><trkpt lat="45.91713974405581" lon="11.054919918129306"><ele>185.0</ele><time>2026-04-11T10:23:25Z</time></trkpt><trkpt lat="45.91715342906984" lon="11.05509785716306"><ele>185.0</ele><time>2026-04-11T10:23:26Z</time></trkpt><trkpt lat="45.91716416186646" lon="11.055280788239946"><ele>185.0</ele><time>2026-04-11T10:23:27Z</time></trkpt><trkpt lat="45.91717209958611" lon="11.055467588619146"><ele>185.0</ele><time>2026-04-11T10:23:28Z</time></trkpt><trkpt lat="45.91718310201688" lon="11.05565513503548"><ele>185.0</ele><time>2026-04-11T10:23:29Z</time></trkpt><trkpt lat="45.9171942327752" lon="11.055845516281433"><ele>185.0</ele><time>2026-04-11T10:23:30Z</time></trkpt><trkpt lat="45.91720585914016" lon="11.056031489806719"><ele>185.0</ele><time>2026-04-11T10:23:31Z</time></trkpt><trkpt lat="45.91721921300894" lon="11.05621225359285"><ele>185.0</ele><time>2026-04-11T10:23:32Z</time></trkpt><trkpt lat="45.9172291883078" lon="11.056393983364485"><ele>185.0</ele><time>2026-04-11T10:23:33Z</time></trkpt><trkpt lat="45.91723789886577" lon="11.056575793516163"><ele>185.0</ele><time>2026-04-11T10:23:34Z</time></trkpt><trkpt lat="45.91724757798956" lon="11.056750716773552"><ele>185.0</ele><time>2026-04-11T10:23:35Z</time></trkpt><trkpt lat="45.91725275037281" lon="11.05692520812304"><ele>185.0</ele><time>2026-04-11T10:23:36Z</time></trkpt><trkpt lat="45.91725403856894" lon="11.057097087397267"><ele>185.0</ele><time>2026-04-11T10:23:37Z</time></trkpt><trkpt lat="45.91725531005612" lon="11.057265073534564"><ele>185.0</ele><time>2026-04-11T10:23:38Z</time></trkpt><trkpt lat="45.917262866145904" lon="11.057429618886776"><ele>185.0</ele><time>2026-04-11T10:23:39Z</time></trkpt><trkpt lat="45.917263846623" lon="11.057595433587277"><ele>184.8</ele><time>2026-04-11T10:23:40Z</time></trkpt><trkpt lat="45.91726152579186" lon="11.05775689984927"><ele>184.6</ele><time>2026-04-11T10:23:41Z</time></trkpt><trkpt lat="45.917261018407274" lon="11.057914849727153"><ele>184.39999999999998</ele><time>2026-04-11T10:23:42Z</time></trkpt><trkpt lat="45.91726159588031" lon="11.05806871839413"><ele>184.2</ele><time>2026-04-11T10:23:43Z</time></trkpt><trkpt lat="45.91726183059167" lon="11.058227910676449"><ele>184.0</ele><time>2026-04-11T10:23:44Z</time></trkpt><trkpt lat="45.917263985845395" lon="11.058390091889324"><ele>184.75</ele><time>2026-04-11T10:23:45Z</time></trkpt><trkpt lat="45.91726623873898" lon="11.058553358616912"><ele>185.5</ele><time>2026-04-11T10:23:46Z</time></trkpt><trkpt lat="45.9172696132965" lon="11.058724603857476"><ele>186.25</ele><time>2026-04-11T10:23:47Z</time></trkpt><trkpt lat="45.91727162780669" lon="11.058896404076327"><ele>187.0</ele><time>2026-04-11T10:23:48Z</time></trkpt><trkpt lat="45.91726909779709" lon="11.059064408310613"><ele>187.0</ele><time>2026-04-11T10:23:49Z</time></trkpt><trkpt lat="45.9172689246082" lon="11.059238801487506"><ele>187.0</ele><time>2026-04-11T10:23:50Z</time></trkpt><trkpt lat="45.91726953041396" lon="11.059414402406615"><ele>187.0</ele><time>2026-04-11T10:23:51Z</time></trkpt><trkpt lat="45.91726934681091" lon="11.05959138030552"><ele>187.0</ele><time>2026-04-11T10:23:52Z</time></trkpt><trkpt lat="45.917271342387856" lon="11.059771034544148"><ele>186.75</ele><time>2026-04-11T10:23:53Z</time></trkpt><trkpt lat="45.91727249790881" lon="11.059957582033222"><ele>186.5</ele><time>2026-04-11T10:23:54Z</time></trkpt><trkpt lat="45.917273808991375" lon="11.06015440163121"><ele>186.25</ele><time>2026-04-11T10:23:55Z</time></trkpt><trkpt lat="45.917278948242895" lon="11.060356112238729"><ele>186.0</ele><time>2026-04-11T10:23:56Z</time></trkpt><trkpt lat="45.91728302720297" lon="11.060547067561673"><ele>186.0</ele><time>2026-04-11T10:23:57Z</time></trkpt><trkpt lat="45.917297334380606" lon="11.060720275774672"><ele>186.0</ele><time>2026-04-11T10:23:58Z</time></trkpt><trkpt lat="45.9173181363665" lon="11.060893473008264"><ele>186.0</ele><time>2026-04-11T10:23:59Z</time></trkpt><trkpt lat="45.917322837540446" lon="11.061091070473122"><ele>186.0</ele><time>2026-04-11T10:24:00Z</time></trkpt><trkpt lat="45.91734949066825" lon="11.061301642161936"><ele>186.0</ele><time>2026-04-11T10:24:01Z</time></trkpt><trkpt lat="45.9173763940662" lon="11.061485355842766"><ele>186.0</ele><time>2026-04-11T10:24:02Z</time></trkpt><trkpt lat="45.91740428289971" lon="11.061663646977003"><ele>186.0</ele><time>2026-04-11T10:24:03Z</time></trkpt><trkpt lat="45.91743185938131" lon="11.06182829253703"><ele>186.0</ele><time>2026-04-11T10:24:04Z</time></trkpt><trkpt lat="45.917461898862015" lon="11.0619916566667"><ele>186.0</ele><time>2026-04-11T10:24:05Z</time></trkpt><trkpt lat="45.9174968596954" lon="11.062159560196726"><ele>186.0</ele><time>2026-04-11T10:24:06Z</time></trkpt><trkpt lat="45.91753642597372" lon="11.062328586589267"><ele>186.0</ele><time>2026-04-11T10:24:07Z</time></trkpt><trkpt lat="45.91757663849548" lon="11.06249294686557"><ele>186.0</ele><time>2026-04-11T10:24:08Z</time></trkpt><trkpt lat="45.91761983018225" lon="11.062658973881826"><ele>185.5</ele><time>2026-04-11T10:24:09Z</time></trkpt><trkpt lat="45.91767746780266" lon="11.062817941966044"><ele>185.0</ele><time>2026-04-11T10:24:10Z</time></trkpt><trkpt lat="45.91771873013656" lon="11.062985821189"><ele>184.5</ele><time>2026-04-11T10:24:11Z</time></trkpt><trkpt lat="45.91775462090147" lon="11.063156727611771"><ele>184.0</ele><time>2026-04-11T10:24:12Z</time></trkpt><trkpt lat="45.91778128221634" lon="11.06334417428064"><ele>184.0</ele><time>2026-04-11T10:24:13Z</time></trkpt><trkpt lat="45.917809231677495" lon="11.063557471998335"><ele>184.0</ele><time>2026-04-11T10:24:14Z</time></trkpt><trkpt lat="45.917838312225875" lon="11.063782402662095"><ele>184.0</ele><time>2026-04-11T10:24:15Z</time></trkpt><trkpt lat="45.917860679863075" lon="11.064005228077331"><ele>183.66666666666669</ele><time>2026-04-11T10:24:16Z</time></trkpt><trkpt lat="45.91789195756196" lon="11.06423617872762"><ele>183.33333333333334</ele><time>2026-04-11T10:24:17Z</time></trkpt><trkpt lat="45.917899097048334" lon="11.064468361700767"><ele>183.0</ele><time>2026-04-11T10:24:18Z</time></trkpt><trkpt lat="45.917915198307995" lon="11.06469045953995"><ele>183.0</ele><time>2026-04-11T10:24:19Z</time></trkpt><trkpt lat="45.91792116997665" lon="11.064918821091737"><ele>183.0</ele><time>2026-04-11T10:24:20Z</time></trkpt><trkpt lat="45.917944306267536" lon="11.065180048319576"><ele>183.0</ele><time>2026-04-11T10:24:21Z</time></trkpt><trkpt lat="45.91796839096098" lon="11.06545198447691"><ele>183.0</ele><time>2026-04-11T10:24:22Z</time></trkpt><trkpt lat="45.91799564760115" lon="11.06572108154686"><ele>183.0</ele><time>2026-04-11T10:24:23Z</time></trkpt><trkpt lat="45.918011642898655" lon="11.06596968400219"><ele>183.0</ele><time>2026-04-11T10:24:24Z</time></trkpt><trkpt lat="45.9180239774518" lon="11.06620187141361"><ele>183.0</ele><time>2026-04-11T10:24:25Z</time></trkpt><trkpt lat="45.91802366953662" lon="11.06643305470136"><ele>183.0</ele><time>2026-04-11T10:24:26Z</time></trkpt><trkpt lat="45.91800894949035" lon="11.06666916602968"><ele>183.0</ele><time>2026-04-11T10:24:27Z</time></trkpt><trkpt lat="45.91798140533604" lon="11.066906120630646"><ele>181.66666666666666</ele><time>2026-04-11T10:24:28Z</time></trkpt><trkpt lat="45.917946659488535" lon="11.06712666048832"><ele>180.33333333333331</ele><time>2026-04-11T10:24:29Z</time></trkpt><trkpt lat="45.917901601468195" lon="11.067343409671079"><ele>179.0</ele><time>2026-04-11T10:24:30Z</time></trkpt><trkpt lat="45.917860854232096" lon="11.067565176255453"><ele>178.66666666666666</ele><time>2026-04-11T10:24:31Z</time></trkpt><trkpt lat="45.91781963242558" lon="11.067788246240571"><ele>178.33333333333334</ele><time>2026-04-11T10:24:32Z</time></trkpt><trkpt lat="45.91777434480926" lon="11.06801067010081"><ele>178.0</ele><time>2026-04-11T10:24:33Z</time></trkpt><trkpt lat="45.91773067261858" lon="11.0682312452639"><ele>177.33333333333334</ele><time>2026-04-11T10:24:34Z</time></trkpt><trkpt lat="45.91768276611661" lon="11.068457722988267"><ele>176.66666666666666</ele><time>2026-04-11T10:24:35Z</time></trkpt><trkpt lat="45.91763830957685" lon="11.068687998404084"><ele>176.0</ele><time>2026-04-11T10:24:36Z</time></trkpt><trkpt lat="45.917593735276256" lon="11.068916521125232"><ele>176.0</ele><time>2026-04-11T10:24:37Z</time></trkpt><trkpt lat="45.91755029639862" lon="11.069142014769426"><ele>176.0</ele><time>2026-04-11T10:24:38Z</time></trkpt><trkpt lat="45.91750739384927" lon="11.06937047505264"><ele>176.0</ele><time>2026-04-11T10:24:39Z</time></trkpt><trkpt lat="45.917465608601134" lon="11.06960323809454"><ele>176.0</ele><time>2026-04-11T10:24:40Z</time></trkpt><trkpt lat="45.9174179381042" lon="11.069840549658345"><ele>176.0</ele><time>2026-04-11T10:24:41Z</time></trkpt><trkpt lat="45.917369343641695" lon="11.070078834014588"><ele>176.0</ele><time>2026-04-11T10:24:42Z</time></trkpt><trkpt lat="45.917322474238524" lon="11.070318541921209"><ele>175.33333333333331</ele><time>2026-04-11T10:24:43Z</time></trkpt><trkpt lat="45.91727786516355" lon="11.070558719907138"><ele>174.66666666666666</ele><time>2026-04-11T10:24:44Z</time></trkpt><trkpt lat="45.91723235143718" lon="11.070796383242046"><ele>174.0</ele><time>2026-04-11T10:24:45Z</time></trkpt><trkpt lat="45.91719337819519" lon="11.071032486969356"><ele>174.0</ele><time>2026-04-11T10:24:46Z</time></trkpt><trkpt lat="45.917164514637044" lon="11.071268753493444"><ele>174.0</ele><time>2026-04-11T10:24:47Z</time></trkpt><trkpt lat="45.91714445368237" lon="11.071504675466162"><ele>174.0</ele><time>2026-04-11T10:24:48Z</time></trkpt><trkpt lat="45.917134904725934" lon="11.071742765149105"><ele>174.0</ele><time>2026-04-11T10:24:49Z</time></trkpt><trkpt lat="45.917133479514455" lon="11.071979138124634"><ele>174.0</ele><time>2026-04-11T10:24:50Z</time></trkpt><trkpt lat="45.91713463083378" lon="11.072217123745812"><ele>174.0</ele><time>2026-04-11T10:24:51Z</time></trkpt><trkpt lat="45.9171334283593" lon="11.072456271390125"><ele>174.0</ele><time>2026-04-11T10:24:52Z</time></trkpt><trkpt lat="45.91713647111917" lon="11.072693022444609"><ele>174.0</ele><time>2026-04-11T10:24:53Z</time></trkpt><trkpt lat="45.91714672831954" lon="11.072934855375411"><ele>174.0</ele><time>2026-04-11T10:24:54Z</time></trkpt><trkpt lat="45.917177458459825" lon="11.073173473994949"><ele>174.33333333333334</ele><time>2026-04-11T10:24:55Z</time></trkpt><trkpt lat="45.91722728222779" lon="11.073406570508729"><ele>174.66666666666669</ele><time>2026-04-11T10:24:56Z</time></trkpt><trkpt lat="45.91729489260379" lon="11.073635839834578"><ele>175.0</ele><time>2026-04-11T10:24:57Z</time></trkpt><trkpt lat="45.91737930724308" lon="11.073852104349992"><ele>175.0</ele><time>2026-04-11T10:24:58Z</time></trkpt><trkpt lat="45.91747707749536" lon="11.074057818147036"><ele>175.0</ele><time>2026-04-11T10:24:59Z</time></trkpt><trkpt lat="45.91757921702882" lon="11.074263611158578"><ele>175.0</ele><time>2026-04-11T10:25:00Z</time></trkpt><trkpt lat="45.91767676756874" lon="11.074473187122605"><ele>175.0</ele><time>2026-04-11T10:25:01Z</time></trkpt><trkpt lat="45.91776744271238" lon="11.074687437280229"><ele>175.0</ele><time>2026-04-11T10:25:02Z</time></trkpt><trkpt lat="45.9178421448047" lon="11.074915569001211"><ele>175.0</ele><time>2026-04-11T10:25:03Z</time></trkpt><trkpt lat="45.917897673685864" lon="11.075149904781043"><ele>175.0</ele><time>2026-04-11T10:25:04Z</time></trkpt><trkpt lat="45.91793979201143" lon="11.07539088986829"><ele>175.0</ele><time>2026-04-11T10:25:05Z</time></trkpt><trkpt lat="45.917971961768984" lon="11.07563370221868"><ele>175.0</ele><time>2026-04-11T10:25:06Z</time></trkpt><trkpt lat="45.917996157124875" lon="11.075879391111503"><ele>175.0</ele><time>2026-04-11T10:25:07Z</time></trkpt><trkpt lat="45.91801023661153" lon="11.07612705228078"><ele>175.0</ele><time>2026-04-11T10:25:08Z</time></trkpt><trkpt lat="45.91801063202345" lon="11.076371914935246"><ele>175.0</ele><time>2026-04-11T10:25:09Z</time></trkpt><trkpt lat="45.918008247726895" lon="11.076619913344206"><ele>175.33333333333334</ele><time>2026-04-11T10:25:10Z</time></trkpt><trkpt lat="45.918006519201" lon="11.076868676897572"><ele>175.66666666666666</ele><time>2026-04-11T10:25:11Z</time></trkpt><trkpt lat="45.91800451094956" lon="11.077119154537248"><ele>176.0</ele><time>2026-04-11T10:25:12Z</time></trkpt><trkpt lat="45.9180002326166" lon="11.0773719465649"><ele>175.66666666666666</ele><time>2026-04-11T10:25:13Z</time></trkpt><trkpt lat="45.91799270099354" lon="11.077627005986846"><ele>175.33333333333334</ele><time>2026-04-11T10:25:14Z</time></trkpt><trkpt lat="45.91798300034843" lon="11.077879110047823"><ele>175.0</ele><time>2026-04-11T10:25:15Z</time></trkpt><trkpt lat="45.91797252747448" lon="11.078130406619533"><ele>175.33333333333334</ele><time>2026-04-11T10:25:16Z</time></trkpt><trkpt lat="45.91796122120201" lon="11.078380920534588"><ele>175.66666666666666</ele><time>2026-04-11T10:25:17Z</time></trkpt><trkpt lat="45.91795064499974" lon="11.0786312063976"><ele>176.0</ele><time>2026-04-11T10:25:18Z</time></trkpt><trkpt lat="45.91795027209599" lon="11.078881733122625"><ele>176.66666666666666</ele><time>2026-04-11T10:25:19Z</time></trkpt><trkpt lat="45.917963133123216" lon="11.079133419923627"><ele>177.33333333333334</ele><time>2026-04-11T10:25:20Z</time></trkpt><trkpt lat="45.91798777087172" lon="11.07938597631364"><ele>178.0</ele><time>2026-04-11T10:25:21Z</time></trkpt><trkpt lat="45.9180256358969" lon="11.079634642517165"><ele>178.0</ele><time>2026-04-11T10:25:22Z</time></trkpt><trkpt lat="45.918073778895106" lon="11.07988009629653"><ele>178.0</ele><time>2026-04-11T10:25:23Z</time></trkpt><trkpt lat="45.91813654586756" lon="11.080123045231689"><ele>178.0</ele><time>2026-04-11T10:25:24Z</time></trkpt><trkpt lat="45.91820604369992" lon="11.080364520306965"><ele>178.0</ele><time>2026-04-11T10:25:25Z</time></trkpt><trkpt lat="45.91827687708904" lon="11.080605662069766"><ele>178.0</ele><time>2026-04-11T10:25:26Z</time></trkpt><trkpt lat="45.91835093510993" lon="11.080842011748366"><ele>178.0</ele><time>2026-04-11T10:25:27Z</time></trkpt><trkpt lat="45.91842529893619" lon="11.081079760273381"><ele>177.66666666666669</ele><time>2026-04-11T10:25:28Z</time></trkpt><trkpt lat="45.918498760547564" lon="11.081316186928765"><ele>177.33333333333334</ele><time>2026-04-11T10:25:29Z</time></trkpt><trkpt lat="45.918572310169466" lon="11.081550873345558"><ele>177.0</ele><time>2026-04-11T10:25:30Z</time></trkpt><trkpt lat="45.91864412963085" lon="11.08178062101422"><ele>176.33333333333334</ele><time>2026-04-11T10:25:31Z</time></trkpt><trkpt lat="45.91871624747644" lon="11.082013137928246"><ele>175.66666666666669</ele><time>2026-04-11T10:25:32Z</time></trkpt><trkpt lat="45.91878956807005" lon="11.082248864853067"><ele>175.0</ele><time>2026-04-11T10:25:33Z</time></trkpt><trkpt lat="45.918859520684876" lon="11.082486975675444"><ele>175.0</ele><time>2026-04-11T10:25:34Z</time></trkpt><trkpt lat="45.91893040549267" lon="11.082724447375075"><ele>175.0</ele><time>2026-04-11T10:25:35Z</time></trkpt><trkpt lat="45.919000447202926" lon="11.082960063317955"><ele>175.0</ele><time>2026-04-11T10:25:36Z</time></trkpt><trkpt lat="45.919069349102365" lon="11.083199075749903"><ele>175.33333333333334</ele><time>2026-04-11T10:25:37Z</time></trkpt><trkpt lat="45.91913013776849" lon="11.083440427922874"><ele>175.66666666666666</ele><time>2026-04-11T10:25:38Z</time></trkpt><trkpt lat="45.91917804340927" lon="11.083690749339953"><ele>176.0</ele><time>2026-04-11T10:25:39Z</time></trkpt><trkpt lat="45.91921688597133" lon="11.083945423806146"><ele>176.0</ele><time>2026-04-11T10:25:40Z</time></trkpt><trkpt lat="45.91925146024578" lon="11.084204747129077"><ele>176.0</ele><time>2026-04-11T10:25:41Z</time></trkpt><trkpt lat="45.91928406331867" lon="11.084461350871155"><ele>176.0</ele><time>2026-04-11T10:25:41.999Z</time></trkpt><trkpt lat="45.91931836986443" lon="11.08472071727548"><ele>176.0</ele><time>2026-04-11T10:25:42.999Z</time></trkpt><trkpt lat="45.91935440660713" lon="11.08497963257979"><ele>176.0</ele><time>2026-04-11T10:25:43.999Z</time></trkpt><trkpt lat="45.91939247441515" lon="11.08523558543751"><ele>176.0</ele><time>2026-04-11T10:25:45Z</time></trkpt><trkpt lat="45.91942860785983" lon="11.085488619551453"><ele>176.0</ele><time>2026-04-11T10:25:46Z</time></trkpt><trkpt lat="45.919463357495616" lon="11.08574901540018"><ele>176.0</ele><time>2026-04-11T10:25:47Z</time></trkpt><trkpt lat="45.919497822172815" lon="11.086010776414136"><ele>176.0</ele><time>2026-04-11T10:25:48Z</time></trkpt><trkpt lat="45.919537131469085" lon="11.08626715849787"><ele>175.66666666666666</ele><time>2026-04-11T10:25:49Z</time></trkpt><trkpt lat="45.919579567824165" lon="11.086525239945955"><ele>175.33333333333334</ele><time>2026-04-11T10:25:50Z</time></trkpt><trkpt lat="45.91963042245788" lon="11.086776363965967"><ele>175.0</ele><time>2026-04-11T10:25:51Z</time></trkpt><trkpt lat="45.91969168019058" lon="11.087025732397134"><ele>175.0</ele><time>2026-04-11T10:25:52Z</time></trkpt><trkpt lat="45.91976025680235" lon="11.08727289552319"><ele>175.0</ele><time>2026-04-11T10:25:53Z</time></trkpt><trkpt lat="45.91983761810417" lon="11.087511503834113"><ele>175.0</ele><time>2026-04-11T10:25:54Z</time></trkpt><trkpt lat="45.91992036582454" lon="11.08774563194663"><ele>175.0</ele><time>2026-04-11T10:25:55Z</time></trkpt><trkpt lat="45.920002067538086" lon="11.087977796934538"><ele>175.0</ele><time>2026-04-11T10:25:56Z</time></trkpt><trkpt lat="45.920081235673884" lon="11.088215008180553"><ele>175.0</ele><time>2026-04-11T10:25:57Z</time></trkpt><trkpt lat="45.920162295333036" lon="11.088447927562347"><ele>175.0</ele><time>2026-04-11T10:25:58Z</time></trkpt><trkpt lat="45.920248495738356" lon="11.088676316964328"><ele>175.0</ele><time>2026-04-11T10:25:59Z</time></trkpt><trkpt lat="45.92034370388701" lon="11.08889038192742"><ele>175.0</ele><time>2026-04-11T10:26:00Z</time></trkpt><trkpt lat="45.92044406729418" lon="11.08909989658201"><ele>175.66666666666669</ele><time>2026-04-11T10:26:01Z</time></trkpt><trkpt lat="45.92054744238511" lon="11.089310658259851"><ele>176.33333333333334</ele><time>2026-04-11T10:26:02Z</time></trkpt><trkpt lat="45.920652069705895" lon="11.089526489976095"><ele>177.0</ele><time>2026-04-11T10:26:03Z</time></trkpt><trkpt lat="45.920755372786005" lon="11.089740937733513"><ele>176.33333333333334</ele><time>2026-04-11T10:26:04Z</time></trkpt><trkpt lat="45.92085753852211" lon="11.08994932385464"><ele>175.66666666666669</ele><time>2026-04-11T10:26:05Z</time></trkpt><trkpt lat="45.92096432576376" lon="11.09015358806386"><ele>175.0</ele><time>2026-04-11T10:26:06Z</time></trkpt><trkpt lat="45.92107533578295" lon="11.090354406410716"><ele>175.0</ele><time>2026-04-11T10:26:07Z</time></trkpt><trkpt lat="45.921191662946605" lon="11.090546452385547"><ele>175.0</ele><time>2026-04-11T10:26:08Z</time></trkpt><trkpt lat="45.921315937332515" lon="11.090727732144897"><ele>175.0</ele><time>2026-04-11T10:26:09Z</time></trkpt><trkpt lat="45.92144238534707" lon="11.090907322377474"><ele>175.33333333333334</ele><time>2026-04-11T10:26:10Z</time></trkpt><trkpt lat="45.92157373530566" lon="11.091081425479398"><ele>175.66666666666666</ele><time>2026-04-11T10:26:11Z</time></trkpt><trkpt lat="45.92170744462566" lon="11.091249326486201"><ele>176.0</ele><time>2026-04-11T10:26:12Z</time></trkpt><trkpt lat="45.92184516073254" lon="11.091417924067201"><ele>176.0</ele><time>2026-04-11T10:26:13Z</time></trkpt><trkpt lat="45.92198797916245" lon="11.091577191164149"><ele>176.0</ele><time>2026-04-11T10:26:14Z</time></trkpt><trkpt lat="45.922135044230856" lon="11.09172978612451"><ele>176.0</ele><time>2026-04-11T10:26:15Z</time></trkpt><trkpt lat="45.92227658783371" lon="11.091892431474118"><ele>177.0</ele><time>2026-04-11T10:26:16Z</time></trkpt><trkpt lat="45.922430611673185" lon="11.092027637125723"><ele>178.0</ele><time>2026-04-11T10:26:17Z</time></trkpt><trkpt lat="45.922590846136295" lon="11.092149350132646"><ele>179.0</ele><time>2026-04-11T10:26:18Z</time></trkpt><trkpt lat="45.92274956181322" lon="11.092261727909245"><ele>179.0</ele><time>2026-04-11T10:26:19Z</time></trkpt><trkpt lat="45.92291449764222" lon="11.092362129417662"><ele>179.0</ele><time>2026-04-11T10:26:20Z</time></trkpt><trkpt lat="45.923086449598365" lon="11.092430859942226"><ele>179.0</ele><time>2026-04-11T10:26:21Z</time></trkpt><trkpt lat="45.92325139745643" lon="11.092512623783735"><ele>180.66666666666666</ele><time>2026-04-11T10:26:22Z</time></trkpt><trkpt lat="45.92341841030118" lon="11.092575296848944"><ele>182.33333333333334</ele><time>2026-04-11T10:26:23Z</time></trkpt><trkpt lat="45.923582470707466" lon="11.09265275663315"><ele>184.0</ele><time>2026-04-11T10:26:24Z</time></trkpt><trkpt lat="45.92375372836807" lon="11.092701805684904"><ele>184.0</ele><time>2026-04-11T10:26:25Z</time></trkpt><trkpt lat="45.92392595663573" lon="11.092749433166126"><ele>184.0</ele><time>2026-04-11T10:26:26Z</time></trkpt><trkpt lat="45.92409946214063" lon="11.092798760490304"><ele>184.0</ele><time>2026-04-11T10:26:27Z</time></trkpt><trkpt lat="45.92427397212368" lon="11.0928477616074"><ele>182.66666666666669</ele><time>2026-04-11T10:26:28Z</time></trkpt><trkpt lat="45.924448639716424" lon="11.092896806974812"><ele>181.33333333333334</ele><time>2026-04-11T10:26:29Z</time></trkpt><trkpt lat="45.92462585179275" lon="11.092945753810536"><ele>180.0</ele><time>2026-04-11T10:26:30Z</time></trkpt><trkpt lat="45.92480099217929" lon="11.092993212243252"><ele>180.0</ele><time>2026-04-11T10:26:31Z</time></trkpt><trkpt lat="45.924979618354364" lon="11.09304161521421"><ele>180.0</ele><time>2026-04-11T10:26:32Z</time></trkpt><trkpt lat="45.92515838431079" lon="11.093088664408663"><ele>180.0</ele><time>2026-04-11T10:26:33Z</time></trkpt><trkpt lat="45.9253367285171" lon="11.09312936803262"><ele>179.33333333333334</ele><time>2026-04-11T10:26:34Z</time></trkpt><trkpt lat="45.925516016691624" lon="11.093161501292975"><ele>178.66666666666669</ele><time>2026-04-11T10:26:35Z</time></trkpt><trkpt lat="45.925693330435955" lon="11.093185082773596"><ele>178.0</ele><time>2026-04-11T10:26:36Z</time></trkpt><trkpt lat="45.92587318220395" lon="11.093202263345498"><ele>178.66666666666669</ele><time>2026-04-11T10:26:37Z</time></trkpt><trkpt lat="45.9260541898329" lon="11.093207097225584"><ele>179.33333333333334</ele><time>2026-04-11T10:26:38Z</time></trkpt><trkpt lat="45.92623480955307" lon="11.093205333731532"><ele>180.0</ele><time>2026-04-11T10:26:39Z</time></trkpt><trkpt lat="45.926414513687675" lon="11.093200345636218"><ele>180.0</ele><time>2026-04-11T10:26:40Z</time></trkpt><trkpt lat="45.926589348287784" lon="11.093195492706492"><ele>180.0</ele><time>2026-04-11T10:26:41Z</time></trkpt><trkpt lat="45.926768178162234" lon="11.093190528872938"><ele>180.0</ele><time>2026-04-11T10:26:42Z</time></trkpt><trkpt lat="45.926948248731144" lon="11.093185583452787"><ele>180.66666666666666</ele><time>2026-04-11T10:26:43Z</time></trkpt><trkpt lat="45.927129641715545" lon="11.093180618231182"><ele>181.33333333333331</ele><time>2026-04-11T10:26:44Z</time></trkpt><trkpt lat="45.9273126597968" lon="11.09317491655072"><ele>182.0</ele><time>2026-04-11T10:26:45Z</time></trkpt><trkpt lat="45.927493244387406" lon="11.09316884673474"><ele>183.66666666666666</ele><time>2026-04-11T10:26:46Z</time></trkpt><trkpt lat="45.927671322512225" lon="11.093162861163872"><ele>185.33333333333334</ele><time>2026-04-11T10:26:47Z</time></trkpt><trkpt lat="45.92784785759293" lon="11.093156927526929"><ele>187.0</ele><time>2026-04-11T10:26:48Z</time></trkpt><trkpt lat="45.92802498990113" lon="11.093121952456077"><ele>187.0</ele><time>2026-04-11T10:26:49Z</time></trkpt><trkpt lat="45.92820101812228" lon="11.093115916112913"><ele>187.0</ele><time>2026-04-11T10:26:50Z</time></trkpt><trkpt lat="45.92837534694218" lon="11.093111966602459"><ele>187.0</ele><time>2026-04-11T10:26:51Z</time></trkpt><trkpt lat="45.92854795055461" lon="11.09311143488919"><ele>189.0</ele><time>2026-04-11T10:26:52Z</time></trkpt><trkpt lat="45.92872124834709" lon="11.093110698420222"><ele>191.0</ele><time>2026-04-11T10:26:53Z</time></trkpt><trkpt lat="45.928897062328666" lon="11.09310964974284"><ele>193.0</ele><time>2026-04-11T10:26:54Z</time></trkpt><trkpt lat="45.92906992764155" lon="11.093110236823966"><ele>194.0</ele><time>2026-04-11T10:26:55Z</time></trkpt><trkpt lat="45.92924178801015" lon="11.093111043777379"><ele>195.0</ele><time>2026-04-11T10:26:56Z</time></trkpt><trkpt lat="45.929410120509985" lon="11.093110895027344"><ele>196.0</ele><time>2026-04-11T10:26:57Z</time></trkpt><trkpt lat="45.92957929028354" lon="11.093114305162779"><ele>196.0</ele><time>2026-04-11T10:26:58Z</time></trkpt><trkpt lat="45.929748401116115" lon="11.093132878295275"><ele>196.0</ele><time>2026-04-11T10:26:59Z</time></trkpt><trkpt lat="45.92990673389184" lon="11.093173684404725"><ele>196.0</ele><time>2026-04-11T10:27:00Z</time></trkpt><trkpt lat="45.93006142845271" lon="11.093234643581978"><ele>196.33333333333331</ele><time>2026-04-11T10:27:01Z</time></trkpt><trkpt lat="45.930218587387586" lon="11.093321347279838"><ele>196.66666666666669</ele><time>2026-04-11T10:27:02Z</time></trkpt><trkpt lat="45.930373739482086" lon="11.093423433797748"><ele>197.0</ele><time>2026-04-11T10:27:03Z</time></trkpt><trkpt lat="45.930527942330045" lon="11.093534367388859"><ele>197.0</ele><time>2026-04-11T10:27:04Z</time></trkpt><trkpt lat="45.93067790928547" lon="11.09365026797446"><ele>197.0</ele><time>2026-04-11T10:27:05Z</time></trkpt><trkpt lat="45.930833057671265" lon="11.093766254472335"><ele>197.0</ele><time>2026-04-11T10:27:06Z</time></trkpt><trkpt lat="45.930989568393684" lon="11.09387770205558"><ele>195.66666666666669</ele><time>2026-04-11T10:27:07Z</time></trkpt><trkpt lat="45.93114887836304" lon="11.09399332206823"><ele>194.33333333333331</ele><time>2026-04-11T10:27:08Z</time></trkpt><trkpt lat="45.93130811338218" lon="11.094115171392737"><ele>193.0</ele><time>2026-04-11T10:27:09Z</time></trkpt><trkpt lat="45.93146783033433" lon="11.094234715183607"><ele>192.33333333333331</ele><time>2026-04-11T10:27:10Z</time></trkpt><trkpt lat="45.93163131099537" lon="11.094358789014711"><ele>191.66666666666666</ele><time>2026-04-11T10:27:11Z</time></trkpt><trkpt lat="45.93179234019544" lon="11.094479614507902"><ele>191.0</ele><time>2026-04-11T10:27:12Z</time></trkpt><trkpt lat="45.931954378606974" lon="11.094605091360652"><ele>190.66666666666666</ele><time>2026-04-11T10:27:13Z</time></trkpt><trkpt lat="45.93211454601531" lon="11.09472814506678"><ele>190.33333333333334</ele><time>2026-04-11T10:27:14Z</time></trkpt><trkpt lat="45.93227341723255" lon="11.094851147261293"><ele>190.0</ele><time>2026-04-11T10:27:15Z</time></trkpt><trkpt lat="45.93242899029847" lon="11.094970561896817"><ele>190.33333333333334</ele><time>2026-04-11T10:27:16Z</time></trkpt><trkpt lat="45.932583294888126" lon="11.095088475373531"><ele>190.66666666666666</ele><time>2026-04-11T10:27:17Z</time></trkpt><trkpt lat="45.93273910667367" lon="11.095210881223831"><ele>191.0</ele><time>2026-04-11T10:27:18Z</time></trkpt><trkpt lat="45.93289523326496" lon="11.095332706986909"><ele>191.0</ele><time>2026-04-11T10:27:19Z</time></trkpt><trkpt lat="45.93305082847291" lon="11.095451628419292"><ele>191.0</ele><time>2026-04-11T10:27:20Z</time></trkpt><trkpt lat="45.93320649722158" lon="11.09556568964757"><ele>191.0</ele><time>2026-04-11T10:27:21Z</time></trkpt><trkpt lat="45.93336530184689" lon="11.09566579831965"><ele>191.0</ele><time>2026-04-11T10:27:22Z</time></trkpt><trkpt lat="45.93352631484459" lon="11.095742929002526"><ele>191.0</ele><time>2026-04-11T10:27:23Z</time></trkpt><trkpt lat="45.93369554841427" lon="11.095808146037541"><ele>191.0</ele><time>2026-04-11T10:27:24Z</time></trkpt><trkpt lat="45.93386463066188" lon="11.095853258751424"><ele>191.0</ele><time>2026-04-11T10:27:25Z</time></trkpt><trkpt lat="45.93403756817177" lon="11.09588819092831"><ele>191.0</ele><time>2026-04-11T10:27:26Z</time></trkpt><trkpt lat="45.93421265760423" lon="11.095924919496854"><ele>191.0</ele><time>2026-04-11T10:27:27Z</time></trkpt><trkpt lat="45.934387852026205" lon="11.09596478962801"><ele>191.0</ele><time>2026-04-11T10:27:28Z</time></trkpt><trkpt lat="45.93456182613611" lon="11.096004211813407"><ele>191.0</ele><time>2026-04-11T10:27:28.999Z</time></trkpt><trkpt lat="45.93473678764229" lon="11.096044244480087"><ele>191.0</ele><time>2026-04-11T10:27:29.999Z</time></trkpt><trkpt lat="45.93491180514758" lon="11.096080790521368"><ele>190.33333333333331</ele><time>2026-04-11T10:27:30.999Z</time></trkpt><trkpt lat="45.93508931411905" lon="11.09612077722725"><ele>189.66666666666666</ele><time>2026-04-11T10:27:31.999Z</time></trkpt><trkpt lat="45.93526635950209" lon="11.096159515646507"><ele>189.0</ele><time>2026-04-11T10:27:32.999Z</time></trkpt><trkpt lat="45.93544202072052" lon="11.096201392110109"><ele>189.0</ele><time>2026-04-11T10:27:33.999Z</time></trkpt><trkpt lat="45.935606721971695" lon="11.096243039093567"><ele>189.0</ele><time>2026-04-11T10:27:34.999Z</time></trkpt><trkpt lat="45.935751562497586" lon="11.096279454868125"><ele>189.0</ele><time>2026-04-11T10:27:35.999Z</time></trkpt><trkpt lat="45.935847777988855" lon="11.09630891935192"><ele>189.0</ele><time>2026-04-11T10:27:36.999Z</time></trkpt><trkpt lat="45.935933776517324" lon="11.096340783662116"><ele>188.66666666666666</ele><time>2026-04-11T10:27:37.999Z</time></trkpt><trkpt lat="45.93601340775075" lon="11.096397427536527"><ele>188.33333333333334</ele><time>2026-04-11T10:27:38.999Z</time></trkpt><trkpt lat="45.93606802720707" lon="11.096476317203091"><ele>188.0</ele><time>2026-04-11T10:27:39.999Z</time></trkpt><trkpt lat="45.936104756033416" lon="11.0965786812448"><ele>187.66666666666669</ele><time>2026-04-11T10:27:40.999Z</time></trkpt><trkpt lat="45.936140609918716" lon="11.096688110369202"><ele>187.33333333333334</ele><time>2026-04-11T10:27:41.999Z</time></trkpt><trkpt lat="45.93619672272203" lon="11.096821856148807"><ele>187.0</ele><time>2026-04-11T10:27:42.999Z</time></trkpt><trkpt lat="45.93625708262832" lon="11.096963909609693"><ele>187.0</ele><time>2026-04-11T10:27:43.999Z</time></trkpt><trkpt lat="45.9363310265958" lon="11.097122508376083"><ele>187.0</ele><time>2026-04-11T10:27:44.999Z</time></trkpt><trkpt lat="45.93642446792104" lon="11.09731489246707"><ele>187.0</ele><time>2026-04-11T10:27:45.999Z</time></trkpt><trkpt lat="45.93652129086212" lon="11.097540134667426"><ele>187.0</ele><time>2026-04-11T10:27:46.999Z</time></trkpt><trkpt lat="45.93660919806408" lon="11.097778208484176"><ele>187.0</ele><time>2026-04-11T10:27:47.999Z</time></trkpt><trkpt lat="45.93667284531204" lon="11.097982956344083"><ele>187.0</ele><time>2026-04-11T10:27:48.999Z</time></trkpt><trkpt lat="45.936734283292644" lon="11.09816618524161"><ele>186.0</ele><time>2026-04-11T10:27:49.999Z</time></trkpt><trkpt lat="45.93678179713328" lon="11.098340875043801"><ele>185.0</ele><time>2026-04-11T10:27:51Z</time></trkpt><trkpt lat="45.936824473672544" lon="11.098507341111763"><ele>184.0</ele><time>2026-04-11T10:27:52Z</time></trkpt><trkpt lat="45.93686388401887" lon="11.098678033834267"><ele>183.0</ele><time>2026-04-11T10:27:53Z</time></trkpt><trkpt lat="45.936902991407436" lon="11.098853249415406"><ele>183.0</ele><time>2026-04-11T10:27:54Z</time></trkpt><trkpt lat="45.9369346000756" lon="11.099038322409138"><ele>183.0</ele><time>2026-04-11T10:27:55Z</time></trkpt><trkpt lat="45.93695941298722" lon="11.0992326351106"><ele>183.0</ele><time>2026-04-11T10:27:56Z</time></trkpt><trkpt lat="45.936986414624585" lon="11.099420621776627"><ele>183.0</ele><time>2026-04-11T10:27:57Z</time></trkpt><trkpt lat="45.937011264212586" lon="11.099610966140968"><ele>183.0</ele><time>2026-04-11T10:27:58Z</time></trkpt><trkpt lat="45.93703179206902" lon="11.099803881313203"><ele>183.0</ele><time>2026-04-11T10:27:59Z</time></trkpt><trkpt lat="45.93704170932907" lon="11.099998713098117"><ele>183.0</ele><time>2026-04-11T10:28:00Z</time></trkpt><trkpt lat="45.93705346552796" lon="11.100197693437355"><ele>183.0</ele><time>2026-04-11T10:28:01Z</time></trkpt><trkpt lat="45.93706609927714" lon="11.100402827206837"><ele>183.25</ele><time>2026-04-11T10:28:02Z</time></trkpt><trkpt lat="45.93708156924757" lon="11.100611297393813"><ele>183.5</ele><time>2026-04-11T10:28:03Z</time></trkpt><trkpt lat="45.93709676528882" lon="11.100816975231051"><ele>183.75</ele><time>2026-04-11T10:28:04Z</time></trkpt><trkpt lat="45.93711016321168" lon="11.100998401196595"><ele>184.0</ele><time>2026-04-11T10:28:05Z</time></trkpt><trkpt lat="45.937119014347964" lon="11.101176093666526"><ele>184.25</ele><time>2026-04-11T10:28:06Z</time></trkpt><trkpt lat="45.93713206053219" lon="11.1013587567543"><ele>184.5</ele><time>2026-04-11T10:28:07Z</time></trkpt><trkpt lat="45.93714338727498" lon="11.10155016116441"><ele>184.75</ele><time>2026-04-11T10:28:08Z</time></trkpt><trkpt lat="45.93715541037153" lon="11.101754174783787"><ele>185.0</ele><time>2026-04-11T10:28:09Z</time></trkpt><trkpt lat="45.93717069468905" lon="11.101964243239848"><ele>185.33333333333331</ele><time>2026-04-11T10:28:10Z</time></trkpt><trkpt lat="45.93718408805224" lon="11.102180815362486"><ele>185.66666666666666</ele><time>2026-04-11T10:28:11Z</time></trkpt><trkpt lat="45.93719783512164" lon="11.10240139754234"><ele>186.0</ele><time>2026-04-11T10:28:12Z</time></trkpt><trkpt lat="45.937213284441796" lon="11.102621293052485"><ele>186.33333333333334</ele><time>2026-04-11T10:28:13Z</time></trkpt><trkpt lat="45.93722946830114" lon="11.102839265756"><ele>186.66666666666669</ele><time>2026-04-11T10:28:14Z</time></trkpt><trkpt lat="45.93724589170123" lon="11.10306372498207"><ele>187.0</ele><time>2026-04-11T10:28:15Z</time></trkpt><trkpt lat="45.93726220554568" lon="11.103287251760639"><ele>187.0</ele><time>2026-04-11T10:28:16Z</time></trkpt><trkpt lat="45.93727742453766" lon="11.103504081693695"><ele>187.0</ele><time>2026-04-11T10:28:17Z</time></trkpt><trkpt lat="45.93728900897862" lon="11.103721992102914"><ele>187.0</ele><time>2026-04-11T10:28:18Z</time></trkpt><trkpt lat="45.93730081791986" lon="11.103938760604533"><ele>186.5</ele><time>2026-04-11T10:28:19Z</time></trkpt><trkpt lat="45.93730698694153" lon="11.104147768078073"><ele>186.0</ele><time>2026-04-11T10:28:20Z</time></trkpt><trkpt lat="45.937303216704045" lon="11.104346774047697"><ele>185.5</ele><time>2026-04-11T10:28:21Z</time></trkpt><trkpt lat="45.93729354869817" lon="11.104537056891136"><ele>185.0</ele><time>2026-04-11T10:28:22Z</time></trkpt><trkpt lat="45.9372768772495" lon="11.104709381263032"><ele>185.0</ele><time>2026-04-11T10:28:23Z</time></trkpt><trkpt lat="45.937257339815055" lon="11.104865427117725"><ele>185.0</ele><time>2026-04-11T10:28:24Z</time></trkpt><trkpt lat="45.93724091712907" lon="11.10500800431592"><ele>185.0</ele><time>2026-04-11T10:28:25Z</time></trkpt><trkpt lat="45.93722380989141" lon="11.105124786116829"><ele>185.0</ele><time>2026-04-11T10:28:26Z</time></trkpt><trkpt lat="45.93720086358868" lon="11.10527352429143"><ele>185.0</ele><time>2026-04-11T10:28:28Z</time></trkpt><trkpt lat="45.937370474286894" lon="11.105369086341657"><ele>185.0</ele><time>2026-04-11T10:28:30Z</time></trkpt><trkpt lat="45.9374592135974" lon="11.105455984999157"><ele>185.0</ele><time>2026-04-11T10:28:31Z</time></trkpt><trkpt lat="45.93759022378229" lon="11.105521052625168"><ele>185.0</ele><time>2026-04-11T10:28:32Z</time></trkpt><trkpt lat="45.93772134591857" lon="11.105625563140224"><ele>185.0</ele><time>2026-04-11T10:28:33Z</time></trkpt><trkpt lat="45.9378717360693" lon="11.105722525877535"><ele>184.66666666666666</ele><time>2026-04-11T10:28:34Z</time></trkpt><trkpt lat="45.93802303224434" lon="11.105828207561078"><ele>184.33333333333334</ele><time>2026-04-11T10:28:35Z</time></trkpt><trkpt lat="45.93817210826629" lon="11.105932831853089"><ele>184.0</ele><time>2026-04-11T10:28:36Z</time></trkpt><trkpt lat="45.93832101171901" lon="11.10603671436611"><ele>183.66666666666669</ele><time>2026-04-11T10:28:37Z</time></trkpt><trkpt lat="45.93845713854317" lon="11.106177341205347"><ele>183.33333333333334</ele><time>2026-04-11T10:28:38Z</time></trkpt><trkpt lat="45.93860091631837" lon="11.10630522654605"><ele>183.0</ele><time>2026-04-11T10:28:39Z</time></trkpt><trkpt lat="45.93874512420757" lon="11.106427578308288"><ele>183.0</ele><time>2026-04-11T10:28:40Z</time></trkpt><trkpt lat="45.93889212797172" lon="11.106546256289116"><ele>183.0</ele><time>2026-04-11T10:28:41Z</time></trkpt><trkpt lat="45.939046763606356" lon="11.106645152551302"><ele>183.0</ele><time>2026-04-11T10:28:42Z</time></trkpt><trkpt lat="45.93919142491717" lon="11.106764064447827"><ele>184.75</ele><time>2026-04-11T10:28:43Z</time></trkpt><trkpt lat="45.93932071212051" lon="11.106866385255922"><ele>186.5</ele><time>2026-04-11T10:28:44Z</time></trkpt><trkpt lat="45.939436350205604" lon="11.106953364016835"><ele>188.25</ele><time>2026-04-11T10:28:45Z</time></trkpt><trkpt lat="45.93954037142624" lon="11.107032877845988"><ele>190.0</ele><time>2026-04-11T10:28:46Z</time></trkpt><trkpt lat="45.939630328453546" lon="11.107111282848697"><ele>190.0</ele><time>2026-04-11T10:28:47Z</time></trkpt><trkpt lat="45.93971320214519" lon="11.107197939514899"><ele>190.0</ele><time>2026-04-11T10:28:48Z</time></trkpt><trkpt lat="45.93977947507973" lon="11.107272798760484"><ele>190.0</ele><time>2026-04-11T10:28:49Z</time></trkpt><trkpt lat="45.939832195208595" lon="11.10732957842415"><ele>190.0</ele><time>2026-04-11T10:28:50Z</time></trkpt><trkpt lat="45.939929089134004" lon="11.107244638227176"><ele>190.0</ele><time>2026-04-11T10:28:54Z</time></trkpt><trkpt lat="45.93994819501617" lon="11.107048977742934"><ele>190.0</ele><time>2026-04-11T10:28:56Z</time></trkpt><trkpt lat="45.939976237102655" lon="11.106909600533218"><ele>190.0</ele><time>2026-04-11T10:28:57Z</time></trkpt><trkpt lat="45.940010201898104" lon="11.106747176405609"><ele>190.0</ele><time>2026-04-11T10:28:58Z</time></trkpt><trkpt lat="45.940052234499795" lon="11.106585363447051"><ele>190.0</ele><time>2026-04-11T10:28:59Z</time></trkpt><trkpt lat="45.94009923020536" lon="11.106434418328504"><ele>190.0</ele><time>2026-04-11T10:29:00Z</time></trkpt><trkpt lat="45.94014734937069" lon="11.10629454318515"><ele>190.0</ele><time>2026-04-11T10:29:01Z</time></trkpt><trkpt lat="45.94019916107509" lon="11.106164400919667"><ele>190.0</ele><time>2026-04-11T10:29:02Z</time></trkpt><trkpt lat="45.940254558941334" lon="11.106049667125014"><ele>190.0</ele><time>2026-04-11T10:29:03Z</time></trkpt><trkpt lat="45.940315704492285" lon="11.105945459124621"><ele>190.0</ele><time>2026-04-11T10:29:04Z</time></trkpt><trkpt lat="45.94037924559367" lon="11.10583970853881"><ele>189.0</ele><time>2026-04-11T10:29:05Z</time></trkpt><trkpt lat="45.94044474596049" lon="11.105723714879378"><ele>188.0</ele><time>2026-04-11T10:29:06Z</time></trkpt><trkpt lat="45.94050891236707" lon="11.10559669754423"><ele>187.0</ele><time>2026-04-11T10:29:07Z</time></trkpt><trkpt lat="45.9405737877678" lon="11.105460200808023"><ele>186.0</ele><time>2026-04-11T10:29:08Z</time></trkpt><trkpt lat="45.940627735150045" lon="11.105304311057688"><ele>185.0</ele><time>2026-04-11T10:29:09Z</time></trkpt><trkpt lat="45.940691944634914" lon="11.105153233701582"><ele>185.0</ele><time>2026-04-11T10:29:10Z</time></trkpt><trkpt lat="45.940753804138026" lon="11.105003601317646"><ele>185.0</ele><time>2026-04-11T10:29:11Z</time></trkpt><trkpt lat="45.94082812960631" lon="11.104864072257563"><ele>185.0</ele><time>2026-04-11T10:29:12Z</time></trkpt><trkpt lat="45.940887783720505" lon="11.10471208693247"><ele>185.0</ele><time>2026-04-11T10:29:13Z</time></trkpt><trkpt lat="45.940945678548616" lon="11.104559869655347"><ele>185.0</ele><time>2026-04-11T10:29:14Z</time></trkpt><trkpt lat="45.941002729876026" lon="11.104407022531175"><ele>185.0</ele><time>2026-04-11T10:29:15Z</time></trkpt><trkpt lat="45.941059307164416" lon="11.104255445494994"><ele>185.0</ele><time>2026-04-11T10:29:16Z</time></trkpt><trkpt lat="45.94109934471982" lon="11.104106155356446"><ele>185.0</ele><time>2026-04-11T10:29:17Z</time></trkpt><trkpt lat="45.941144204344674" lon="11.10398237182403"><ele>185.0</ele><time>2026-04-11T10:29:17.999Z</time></trkpt><trkpt lat="45.941186711013536" lon="11.103880830462321"><ele>184.6</ele><time>2026-04-11T10:29:18.999Z</time></trkpt><trkpt lat="45.9412288171748" lon="11.10378973594847"><ele>184.2</ele><time>2026-04-11T10:29:19.999Z</time></trkpt><trkpt lat="45.94128580906553" lon="11.103676163397273"><ele>183.8</ele><time>2026-04-11T10:29:21.999Z</time></trkpt><trkpt lat="45.941331357615006" lon="11.10377749892838"><ele>183.4</ele><time>2026-04-11T10:29:24.999Z</time></trkpt><trkpt lat="45.94140023640921" lon="11.1038729860246"><ele>183.0</ele><time>2026-04-11T10:29:25.999Z</time></trkpt><trkpt lat="45.941475088057594" lon="11.103979200139284"><ele>183.4</ele><time>2026-04-11T10:29:26.999Z</time></trkpt><trkpt lat="45.94156264643975" lon="11.104104168610514"><ele>183.8</ele><time>2026-04-11T10:29:27.999Z</time></trkpt><trkpt lat="45.94165870348931" lon="11.104216024710816"><ele>184.2</ele><time>2026-04-11T10:29:28.999Z</time></trkpt><trkpt lat="45.94173285364282" lon="11.104322674550215"><ele>184.6</ele><time>2026-04-11T10:29:29.999Z</time></trkpt><trkpt lat="45.941790836244074" lon="11.104413837623518"><ele>185.0</ele><time>2026-04-11T10:29:30.999Z</time></trkpt><trkpt lat="45.941829324190294" lon="11.10448654932723"><ele>185.4</ele><time>2026-04-11T10:29:31.999Z</time></trkpt><trkpt lat="45.94186791680791" lon="11.104587906844854"><ele>185.8</ele><time>2026-04-11T10:29:32.999Z</time></trkpt><trkpt lat="45.94192536323735" lon="11.104728041965458"><ele>186.2</ele><time>2026-04-11T10:29:33.999Z</time></trkpt><trkpt lat="45.94198479206711" lon="11.104874337557545"><ele>186.6</ele><time>2026-04-11T10:29:34.999Z</time></trkpt><trkpt lat="45.94202779304976" lon="11.10502206273603"><ele>187.0</ele><time>2026-04-11T10:29:35.999Z</time></trkpt><trkpt lat="45.94206738897107" lon="11.105129707799748"><ele>188.0</ele><time>2026-04-11T10:29:36.999Z</time></trkpt><trkpt lat="45.942116686289644" lon="11.105263732216608"><ele>189.0</ele><time>2026-04-11T10:29:38.999Z</time></trkpt><trkpt lat="45.942150941905396" lon="11.10539304080756"><ele>190.0</ele><time>2026-04-11T10:29:42.999Z</time></trkpt><trkpt lat="45.942302608863145" lon="11.10535362465374"><ele>191.0</ele><time>2026-04-11T10:29:43.999Z</time></trkpt><trkpt lat="45.94240566605042" lon="11.105328044313389"><ele>191.0</ele><time>2026-04-11T10:29:44.999Z</time></trkpt><trkpt lat="45.94252409746367" lon="11.105298774943856"><ele>191.0</ele><time>2026-04-11T10:29:45.999Z</time></trkpt><trkpt lat="45.94265654403666" lon="11.105268058609852"><ele>191.0</ele><time>2026-04-11T10:29:46.999Z</time></trkpt><trkpt lat="45.94279565517049" lon="11.10524605711999"><ele>191.0</ele><time>2026-04-11T10:29:47.999Z</time></trkpt><trkpt lat="45.94293249258525" lon="11.10522406864298"><ele>191.25</ele><time>2026-04-11T10:29:48.999Z</time></trkpt><trkpt lat="45.943068806260804" lon="11.105201509066745"><ele>191.5</ele><time>2026-04-11T10:29:49.999Z</time></trkpt><trkpt lat="45.943202734808864" lon="11.10517516302526"><ele>191.75</ele><time>2026-04-11T10:29:50.999Z</time></trkpt><trkpt lat="45.943331711365346" lon="11.105140183855822"><ele>192.0</ele><time>2026-04-11T10:29:51.999Z</time></trkpt><trkpt lat="45.94345443300939" lon="11.105083647508684"><ele>192.0</ele><time>2026-04-11T10:29:52.999Z</time></trkpt><trkpt lat="45.943574780601956" lon="11.105019602104724"><ele>192.0</ele><time>2026-04-11T10:29:53.999Z</time></trkpt><trkpt lat="45.943693603799645" lon="11.104955144006835"><ele>192.0</ele><time>2026-04-11T10:29:54.999Z</time></trkpt><trkpt lat="45.94381902554249" lon="11.104891316572212"><ele>192.0</ele><time>2026-04-11T10:29:55.999Z</time></trkpt><trkpt lat="45.943943954803466" lon="11.104833179860913"><ele>191.75</ele><time>2026-04-11T10:29:57Z</time></trkpt><trkpt lat="45.94406768513051" lon="11.104785253064911"><ele>191.5</ele><time>2026-04-11T10:29:58Z</time></trkpt><trkpt lat="45.94419102831589" lon="11.104740019622792"><ele>191.25</ele><time>2026-04-11T10:29:59Z</time></trkpt><trkpt lat="45.944309830853854" lon="11.104697401231842"><ele>191.0</ele><time>2026-04-11T10:30:00Z</time></trkpt><trkpt lat="45.94442356074684" lon="11.10465853866188"><ele>191.0</ele><time>2026-04-11T10:30:01Z</time></trkpt><trkpt lat="45.94452092060617" lon="11.104627263531182"><ele>191.0</ele><time>2026-04-11T10:30:02Z</time></trkpt><trkpt lat="45.944607416775355" lon="11.104590693537292"><ele>191.0</ele><time>2026-04-11T10:30:03Z</time></trkpt><trkpt lat="45.944685093186706" lon="11.104535306059935"><ele>191.0</ele><time>2026-04-11T10:30:04Z</time></trkpt><trkpt lat="45.944755191482294" lon="11.104455685150475"><ele>191.0</ele><time>2026-04-11T10:30:05Z</time></trkpt><trkpt lat="45.94480856269176" lon="11.10436228847932"><ele>191.0</ele><time>2026-04-11T10:30:06Z</time></trkpt><trkpt lat="45.94486254702974" lon="11.104272368245072"><ele>191.0</ele><time>2026-04-11T10:30:07Z</time></trkpt><trkpt lat="45.94492406226849" lon="11.104216528086848"><ele>191.0</ele><time>2026-04-11T10:30:08Z</time></trkpt><trkpt lat="45.94506590864926" lon="11.104189376790766"><ele>191.0</ele><time>2026-04-11T10:30:10Z</time></trkpt><trkpt lat="45.94515486277978" lon="11.104193380585421"><ele>191.0</ele><time>2026-04-11T10:30:11Z</time></trkpt><trkpt lat="45.945248230976105" lon="11.104179196139585"><ele>190.83333333333331</ele><time>2026-04-11T10:30:12Z</time></trkpt><trkpt lat="45.94533954210684" lon="11.104171595462978"><ele>190.66666666666666</ele><time>2026-04-11T10:30:13Z</time></trkpt><trkpt lat="45.945423696886756" lon="11.104184029454604"><ele>190.5</ele><time>2026-04-11T10:30:14Z</time></trkpt><trkpt lat="45.945498436447764" lon="11.10421073284564"><ele>190.33333333333334</ele><time>2026-04-11T10:30:15Z</time></trkpt><trkpt lat="45.94557867530069" lon="11.104245241404104"><ele>190.16666666666669</ele><time>2026-04-11T10:30:16Z</time></trkpt><trkpt lat="45.94566294036002" lon="11.104292608348059"><ele>190.0</ele><time>2026-04-11T10:30:17Z</time></trkpt><trkpt lat="45.94575397794369" lon="11.10434867378788"><ele>190.0</ele><time>2026-04-11T10:30:18Z</time></trkpt><trkpt lat="45.94585802222164" lon="11.104415903135422"><ele>190.0</ele><time>2026-04-11T10:30:19Z</time></trkpt><trkpt lat="45.945951294344965" lon="11.104477698541531"><ele>190.0</ele><time>2026-04-11T10:30:20Z</time></trkpt><trkpt lat="45.946025557599775" lon="11.104526899949924"><ele>190.0</ele><time>2026-04-11T10:30:21Z</time></trkpt><trkpt lat="45.94608922552078" lon="11.104569081817331"><ele>190.0</ele><time>2026-04-11T10:30:22Z</time></trkpt><trkpt lat="45.94618704283251" lon="11.104632614418193"><ele>189.83333333333334</ele><time>2026-04-11T10:30:24Z</time></trkpt><trkpt lat="45.946251287100004" lon="11.104702245352671"><ele>189.66666666666669</ele><time>2026-04-11T10:30:26Z</time></trkpt><trkpt lat="45.94626238438574" lon="11.104867426432703"><ele>189.5</ele><time>2026-04-11T10:32:23Z</time></trkpt><trkpt lat="45.94629243995342" lon="11.104947124653446"><ele>189.33333333333334</ele><time>2026-04-11T10:32:57Z</time></trkpt><trkpt lat="45.94632432367934" lon="11.10486837634064"><ele>189.16666666666666</ele><time>2026-04-11T10:34:34Z</time></trkpt><trkpt lat="45.9463378734529" lon="11.104768206608204"><ele>189.0</ele><time>2026-04-11T10:34:52Z</time></trkpt><trkpt lat="45.94631501869133" lon="11.10467124122722"><ele>189.0</ele><time>2026-04-11T10:35:00Z</time></trkpt><trkpt lat="45.94625604591893" lon="11.104622755087819"><ele>189.0</ele><time>2026-04-11T10:35:04Z</time></trkpt><trkpt lat="45.946189933569016" lon="11.10458394779465"><ele>189.0</ele><time>2026-04-11T10:36:28Z</time></trkpt><trkpt lat="45.94622187556921" lon="11.104668251179836"><ele>189.0</ele><time>2026-04-11T10:36:46Z</time></trkpt><trkpt lat="45.94629672793212" lon="11.10471100136235"><ele>189.0</ele><time>2026-04-11T10:38:46Z</time></trkpt><trkpt lat="45.94640390339001" lon="11.10480103317746"><ele>189.0</ele><time>2026-04-11T10:38:48Z</time></trkpt><trkpt lat="45.946464180656754" lon="11.104843752665147"><ele>189.0</ele><time>2026-04-11T10:38:49Z</time></trkpt><trkpt lat="45.946526884882786" lon="11.104876119547276"><ele>189.0</ele><time>2026-04-11T10:38:50Z</time></trkpt><trkpt lat="45.94663830127065" lon="11.104923222586997"><ele>189.0</ele><time>2026-04-11T10:38:52Z</time></trkpt><trkpt lat="45.94672708809014" lon="11.104971317034181"><ele>189.0</ele><time>2026-04-11T10:38:54Z</time></trkpt><trkpt lat="45.94683458522425" lon="11.105018185200178"><ele>189.0</ele><time>2026-04-11T10:40:42Z</time></trkpt><trkpt lat="45.94695036313993" lon="11.105075590507925"><ele>189.5</ele><time>2026-04-11T10:40:44Z</time></trkpt><trkpt lat="45.94702174858925" lon="11.105125341282422"><ele>190.0</ele><time>2026-04-11T10:40:45Z</time></trkpt><trkpt lat="45.94710175604079" lon="11.105172469505575"><ele>190.5</ele><time>2026-04-11T10:40:46Z</time></trkpt><trkpt lat="45.94717572746165" lon="11.105207736448804"><ele>191.0</ele><time>2026-04-11T10:40:47Z</time></trkpt><trkpt lat="45.94723677871846" lon="11.105261880102132"><ele>191.5</ele><time>2026-04-11T10:40:48Z</time></trkpt><trkpt lat="45.9473276449029" lon="11.105349449801018"><ele>192.0</ele><time>2026-04-11T10:40:50Z</time></trkpt><trkpt lat="45.947364403723235" lon="11.105423888519088"><ele>192.0</ele><time>2026-04-11T10:40:51Z</time></trkpt><trkpt lat="45.94739384822806" lon="11.10555458631395"><ele>192.0</ele><time>2026-04-11T10:40:53Z</time></trkpt><trkpt lat="45.947385005309506" lon="11.105644918051874"><ele>192.0</ele><time>2026-04-11T10:40:57Z</time></trkpt><trkpt lat="45.94751405455639" lon="11.105695890338051"><ele>192.0</ele><time>2026-04-11T10:40:58Z</time></trkpt><trkpt lat="45.947616631111636" lon="11.10570359752394"><ele>192.0</ele><time>2026-04-11T10:40:59Z</time></trkpt><trkpt lat="45.947733445844925" lon="11.10572217111047"><ele>191.0</ele><time>2026-04-11T10:41:00Z</time></trkpt><trkpt lat="45.94785460234663" lon="11.105739660939541"><ele>190.0</ele><time>2026-04-11T10:41:01Z</time></trkpt><trkpt lat="45.947974505757784" lon="11.105770473305528"><ele>189.0</ele><time>2026-04-11T10:41:02Z</time></trkpt><trkpt lat="45.94809294219125" lon="11.105799075750966"><ele>188.0</ele><time>2026-04-11T10:41:03Z</time></trkpt><trkpt lat="45.948205051526514" lon="11.105811187967936"><ele>188.5</ele><time>2026-04-11T10:41:04Z</time></trkpt><trkpt lat="45.94829833845716" lon="11.105847992510542"><ele>189.0</ele><time>2026-04-11T10:41:05Z</time></trkpt><trkpt lat="45.948374747870126" lon="11.105867045663512"><ele>189.5</ele><time>2026-04-11T10:41:06Z</time></trkpt><trkpt lat="45.948446862793624" lon="11.10588822278402"><ele>190.0</ele><time>2026-04-11T10:41:07Z</time></trkpt><trkpt lat="45.94852195441482" lon="11.105879901619971"><ele>190.5</ele><time>2026-04-11T10:41:08Z</time></trkpt><trkpt lat="45.94861148671328" lon="11.105915455430353"><ele>191.0</ele><time>2026-04-11T10:41:09Z</time></trkpt><trkpt lat="45.94867927402847" lon="11.105859648550782"><ele>191.0</ele><time>2026-04-11T10:41:10Z</time></trkpt><trkpt lat="45.94870678401558" lon="11.106001231253165"><ele>191.0</ele><time>2026-04-11T10:41:11Z</time></trkpt><trkpt lat="45.948824888899054" lon="11.105841187041326"><ele>191.0</ele><time>2026-04-11T10:41:12Z</time></trkpt><trkpt lat="45.94891799962414" lon="11.105869656921614"><ele>191.0</ele><time>2026-04-11T10:41:13Z</time></trkpt><trkpt lat="45.949021083805576" lon="11.105931509023035"><ele>191.0</ele><time>2026-04-11T10:41:14Z</time></trkpt><trkpt lat="45.949144698858504" lon="11.106016715132023"><ele>191.0</ele><time>2026-04-11T10:41:15Z</time></trkpt><trkpt lat="45.949268459813126" lon="11.106138226852307"><ele>191.0</ele><time>2026-04-11T10:41:16Z</time></trkpt><trkpt lat="45.949408773834506" lon="11.106254025183398"><ele>191.0</ele><time>2026-04-11T10:41:17Z</time></trkpt><trkpt lat="45.94955165676471" lon="11.106378214660111"><ele>191.66666666666666</ele><time>2026-04-11T10:41:18Z</time></trkpt><trkpt lat="45.94969167883204" lon="11.106513818686961"><ele>192.33333333333331</ele><time>2026-04-11T10:41:19Z</time></trkpt><trkpt lat="45.94982192191816" lon="11.106674774374335"><ele>193.0</ele><time>2026-04-11T10:41:20Z</time></trkpt><trkpt lat="45.94993861346496" lon="11.106857276562161"><ele>190.66666666666666</ele><time>2026-04-11T10:41:21Z</time></trkpt><trkpt lat="45.95006991223413" lon="11.10702039035871"><ele>188.33333333333331</ele><time>2026-04-11T10:41:22Z</time></trkpt><trkpt lat="45.95021051306577" lon="11.10718159797607"><ele>186.0</ele><time>2026-04-11T10:41:23Z</time></trkpt><trkpt lat="45.9503748127634" lon="11.107344891223315"><ele>186.33333333333334</ele><time>2026-04-11T10:41:24Z</time></trkpt><trkpt lat="45.950560263876206" lon="11.107501801039028"><ele>186.66666666666669</ele><time>2026-04-11T10:41:25Z</time></trkpt><trkpt lat="45.950747647856836" lon="11.107678832492002"><ele>187.0</ele><time>2026-04-11T10:41:26Z</time></trkpt><trkpt lat="45.950939714037865" lon="11.10784107182534"><ele>187.0</ele><time>2026-04-11T10:41:27Z</time></trkpt><trkpt lat="45.95112285191475" lon="11.10800710015771"><ele>187.0</ele><time>2026-04-11T10:41:28Z</time></trkpt><trkpt lat="45.951291591744955" lon="11.108181247958008"><ele>187.0</ele><time>2026-04-11T10:41:29Z</time></trkpt><trkpt lat="45.95146925209553" lon="11.108335330731057"><ele>187.33333333333334</ele><time>2026-04-11T10:41:30Z</time></trkpt><trkpt lat="45.951643741616394" lon="11.108487936334173"><ele>187.66666666666666</ele><time>2026-04-11T10:41:31Z</time></trkpt><trkpt lat="45.95181124599358" lon="11.108637743515267"><ele>188.0</ele><time>2026-04-11T10:41:32Z</time></trkpt><trkpt lat="45.951969600050965" lon="11.108772553283782"><ele>188.0</ele><time>2026-04-11T10:41:33Z</time></trkpt><trkpt lat="45.952111613822716" lon="11.108886653623316"><ele>188.0</ele><time>2026-04-11T10:41:34Z</time></trkpt><trkpt lat="45.95223312776782" lon="11.108983323969422"><ele>188.0</ele><time>2026-04-11T10:41:35Z</time></trkpt><trkpt lat="45.952332969109214" lon="11.109060340955667"><ele>188.0</ele><time>2026-04-11T10:41:36Z</time></trkpt><trkpt lat="45.952414673920025" lon="11.109122182974858"><ele>188.0</ele><time>2026-04-11T10:41:37Z</time></trkpt><trkpt lat="45.952475601991715" lon="11.109168359216536"><ele>188.0</ele><time>2026-04-11T10:41:38Z</time></trkpt><trkpt lat="45.952595999944464" lon="11.109277928136928"><ele>188.0</ele><time>2026-04-11T10:41:40Z</time></trkpt><trkpt lat="45.952694140788715" lon="11.109362454516877"><ele>188.0</ele><time>2026-04-11T10:41:41Z</time></trkpt><trkpt lat="45.95281953536827" lon="11.109466707108698"><ele>186.66666666666666</ele><time>2026-04-11T10:41:42Z</time></trkpt><trkpt lat="45.95296568535691" lon="11.109568554610258"><ele>185.33333333333334</ele><time>2026-04-11T10:41:43Z</time></trkpt><trkpt lat="45.95313148342833" lon="11.109660881192339"><ele>184.0</ele><time>2026-04-11T10:41:44Z</time></trkpt><trkpt lat="45.953319203939394" lon="11.109746314548811"><ele>183.0</ele><time>2026-04-11T10:41:45Z</time></trkpt><trkpt lat="45.953513926662595" lon="11.109810882934058"><ele>182.0</ele><time>2026-04-11T10:41:46Z</time></trkpt><trkpt lat="45.9537245442886" lon="11.109852216737554"><ele>181.0</ele><time>2026-04-11T10:41:47Z</time></trkpt><trkpt lat="45.9539381553631" lon="11.109881537746226"><ele>181.0</ele><time>2026-04-11T10:41:48Z</time></trkpt><trkpt lat="45.95415851013933" lon="11.109889394262586"><ele>181.0</ele><time>2026-04-11T10:41:49Z</time></trkpt><trkpt lat="45.95437789751691" lon="11.109885256378195"><ele>181.0</ele><time>2026-04-11T10:41:50Z</time></trkpt><trkpt lat="45.95460003444809" lon="11.109893188918353"><ele>181.5</ele><time>2026-04-11T10:41:51Z</time></trkpt><trkpt lat="45.954829102509095" lon="11.109893920489595"><ele>182.0</ele><time>2026-04-11T10:41:52Z</time></trkpt><trkpt lat="45.9550496658143" lon="11.10990661877018"><ele>182.5</ele><time>2026-04-11T10:41:52.999Z</time></trkpt><trkpt lat="45.95527788915936" lon="11.109908545776996"><ele>183.0</ele><time>2026-04-11T10:41:53.999Z</time></trkpt><trkpt lat="45.95550630924454" lon="11.109901878585074"><ele>183.0</ele><time>2026-04-11T10:41:54.999Z</time></trkpt><trkpt lat="45.955730080863376" lon="11.109902347282887"><ele>183.0</ele><time>2026-04-11T10:41:55.999Z</time></trkpt><trkpt lat="45.95595065444753" lon="11.109902672420993"><ele>183.0</ele><time>2026-04-11T10:41:56.999Z</time></trkpt><trkpt lat="45.956170604056986" lon="11.109901559311288"><ele>182.66666666666666</ele><time>2026-04-11T10:41:57.999Z</time></trkpt><trkpt lat="45.956393137067245" lon="11.109900638934613"><ele>182.33333333333331</ele><time>2026-04-11T10:41:58.999Z</time></trkpt><trkpt lat="45.95661076784397" lon="11.109900879396015"><ele>182.0</ele><time>2026-04-11T10:41:59.999Z</time></trkpt><trkpt lat="45.95682855570003" lon="11.109906346386202"><ele>186.66666666666666</ele><time>2026-04-11T10:42:00.999Z</time></trkpt><trkpt lat="45.95704451561142" lon="11.109919724789572"><ele>191.33333333333331</ele><time>2026-04-11T10:42:01.999Z</time></trkpt><trkpt lat="45.957263193659" lon="11.109947237945015"><ele>196.0</ele><time>2026-04-11T10:42:03.022Z</time></trkpt><trkpt lat="45.95747597739149" lon="11.110002230511174"><ele>194.66666666666666</ele><time>2026-04-11T10:42:04.022Z</time></trkpt><trkpt lat="45.95768674475284" lon="11.110061094883015"><ele>193.33333333333331</ele><time>2026-04-11T10:42:05.021Z</time></trkpt><trkpt lat="45.95789956922707" lon="11.110113424875934"><ele>192.0</ele><time>2026-04-11T10:42:06.023Z</time></trkpt><trkpt lat="45.95811506915068" lon="11.110150615362581"><ele>193.5</ele><time>2026-04-11T10:42:06.999Z</time></trkpt><trkpt lat="45.95837353033411" lon="11.110182093371483"><ele>195.0</ele><time>2026-04-11T10:42:07.999Z</time></trkpt><trkpt lat="45.958607145325416" lon="11.110197922102959"><ele>195.0</ele><time>2026-04-11T10:42:08.999Z</time></trkpt><trkpt lat="45.95883360158828" lon="11.110211739299945"><ele>195.0</ele><time>2026-04-11T10:42:09.999Z</time></trkpt><trkpt lat="45.95905903117251" lon="11.110227695049177"><ele>195.0</ele><time>2026-04-11T10:42:10.999Z</time></trkpt><trkpt lat="45.959280159118244" lon="11.110251827037962"><ele>195.0</ele><time>2026-04-11T10:42:11.999Z</time></trkpt><trkpt lat="45.9595016913712" lon="11.110277105923604"><ele>195.0</ele><time>2026-04-11T10:42:12.999Z</time></trkpt><trkpt lat="45.959721304411154" lon="11.110304196933278"><ele>195.0</ele><time>2026-04-11T10:42:13.999Z</time></trkpt><trkpt lat="45.95995648612418" lon="11.110311600557747"><ele>195.0</ele><time>2026-04-11T10:42:14.999Z</time></trkpt><trkpt lat="45.96018643540967" lon="11.110337521291903"><ele>195.5</ele><time>2026-04-11T10:42:15.999Z</time></trkpt><trkpt lat="45.96041611067388" lon="11.1103654468869"><ele>196.0</ele><time>2026-04-11T10:42:16.999Z</time></trkpt><trkpt lat="45.96064859262187" lon="11.110389894023571"><ele>192.5</ele><time>2026-04-11T10:42:17.999Z</time></trkpt><trkpt lat="45.96087713356287" lon="11.110410105806931"><ele>189.0</ele><time>2026-04-11T10:42:18.999Z</time></trkpt><trkpt lat="45.96110931105686" lon="11.110440474106229"><ele>189.0</ele><time>2026-04-11T10:42:19.999Z</time></trkpt><trkpt lat="45.96135750830485" lon="11.11048436430681"><ele>189.0</ele><time>2026-04-11T10:42:20.999Z</time></trkpt><trkpt lat="45.961605615191246" lon="11.110609290944788"><ele>192.0</ele><time>2026-04-11T10:42:21.999Z</time></trkpt><trkpt lat="45.96186266168613" lon="11.110721994409468"><ele>195.0</ele><time>2026-04-11T10:42:22.999Z</time></trkpt><trkpt lat="45.962134169731385" lon="11.110864042986867"><ele>195.0</ele><time>2026-04-11T10:42:23.999Z</time></trkpt><trkpt lat="45.9623872348431" lon="11.110993912912367"><ele>195.0</ele><time>2026-04-11T10:42:24.999Z</time></trkpt><trkpt lat="45.96264521792934" lon="11.111133590707352"><ele>192.0</ele><time>2026-04-11T10:42:25.999Z</time></trkpt><trkpt lat="45.9628895857829" lon="11.111263051936076"><ele>189.0</ele><time>2026-04-11T10:42:26.999Z</time></trkpt><trkpt lat="45.96313837572255" lon="11.111403044293837"><ele>187.0</ele><time>2026-04-11T10:42:27.999Z</time></trkpt><trkpt lat="45.96337666332609" lon="11.111536357675304"><ele>185.0</ele><time>2026-04-11T10:42:28.999Z</time></trkpt><trkpt lat="45.96360879309673" lon="11.111659474399545"><ele>194.0</ele><time>2026-04-11T10:42:29.999Z</time></trkpt><trkpt lat="45.96385663803371" lon="11.111754708030215"><ele>203.0</ele><time>2026-04-11T10:42:30.999Z</time></trkpt><trkpt lat="45.96410178764775" lon="11.111846725386169"><ele>201.5</ele><time>2026-04-11T10:42:31.999Z</time></trkpt><trkpt lat="45.96434614502416" lon="11.111934998226596"><ele>200.0</ele><time>2026-04-11T10:42:33Z</time></trkpt><trkpt lat="45.96458988911801" lon="11.112011907945261"><ele>200.0</ele><time>2026-04-11T10:42:34Z</time></trkpt><trkpt lat="45.96483901476293" lon="11.112089290281233"><ele>200.0</ele><time>2026-04-11T10:42:35Z</time></trkpt><trkpt lat="45.96510435079706" lon="11.112155590594575"><ele>195.0</ele><time>2026-04-11T10:42:36Z</time></trkpt><trkpt lat="45.96535758717764" lon="11.112229132064654"><ele>190.0</ele><time>2026-04-11T10:42:37Z</time></trkpt><trkpt lat="45.9656087340482" lon="11.112311417981488"><ele>192.5</ele><time>2026-04-11T10:42:38Z</time></trkpt><trkpt lat="45.965870591135975" lon="11.112384724740426"><ele>195.0</ele><time>2026-04-11T10:42:39Z</time></trkpt><trkpt lat="45.96613536508568" lon="11.112448179381373"><ele>195.0</ele><time>2026-04-11T10:42:40Z</time></trkpt><trkpt lat="45.96639457538247" lon="11.112490058632059"><ele>195.0</ele><time>2026-04-11T10:42:41Z</time></trkpt><trkpt lat="45.96668047651207" lon="11.112498489499922"><ele>189.0</ele><time>2026-04-11T10:42:42Z</time></trkpt><trkpt lat="45.96697230521233" lon="11.112466505795242"><ele>183.0</ele><time>2026-04-11T10:42:43Z</time></trkpt><trkpt lat="45.967229697439095" lon="11.112485744133249"><ele>180.5</ele><time>2026-04-11T10:42:44Z</time></trkpt><trkpt lat="45.96753122977043" lon="11.11238469051684"><ele>178.0</ele><time>2026-04-11T10:42:45Z</time></trkpt><trkpt lat="45.967794519179634" lon="11.112328487474763"><ele>178.0</ele><time>2026-04-11T10:42:46Z</time></trkpt><trkpt lat="45.96806550217645" lon="11.112269360159704"><ele>178.0</ele><time>2026-04-11T10:42:47Z</time></trkpt><trkpt lat="45.96834474082532" lon="11.11220692522017"><ele>178.0</ele><time>2026-04-11T10:42:48Z</time></trkpt><trkpt lat="45.9686517295578" lon="11.11218348231305"><ele>178.0</ele><time>2026-04-11T10:42:49Z</time></trkpt><trkpt lat="45.968960696203276" lon="11.112183521446845"><ele>178.0</ele><time>2026-04-11T10:42:50Z</time></trkpt><trkpt lat="45.969279609972595" lon="11.112224215614214"><ele>178.0</ele><time>2026-04-11T10:42:51Z</time></trkpt><trkpt lat="45.9695965077793" lon="11.112297834597472"><ele>178.0</ele><time>2026-04-11T10:42:52Z</time></trkpt><trkpt lat="45.96992444594994" lon="11.112394905208049"><ele>178.0</ele><time>2026-04-11T10:42:53Z</time></trkpt><trkpt lat="45.97024328484219" lon="11.112504040410508"><ele>178.5</ele><time>2026-04-11T10:42:54Z</time></trkpt><trkpt lat="45.970562542560515" lon="11.112605471585944"><ele>179.0</ele><time>2026-04-11T10:42:55Z</time></trkpt><trkpt lat="45.97088179675107" lon="11.112702216945225"><ele>180.5</ele><time>2026-04-11T10:42:56Z</time></trkpt><trkpt lat="45.971200505979056" lon="11.112802739730654"><ele>182.0</ele><time>2026-04-11T10:42:57Z</time></trkpt><trkpt lat="45.971508874293875" lon="11.112917071150997"><ele>181.0</ele><time>2026-04-11T10:42:58Z</time></trkpt><trkpt lat="45.97181061349559" lon="11.113024249796036"><ele>180.0</ele><time>2026-04-11T10:42:59Z</time></trkpt><trkpt lat="45.97211970599205" lon="11.11312175103541"><ele>180.0</ele><time>2026-04-11T10:43:00Z</time></trkpt><trkpt lat="45.97244044369122" lon="11.113187278386619"><ele>180.0</ele><time>2026-04-11T10:43:01Z</time></trkpt><trkpt lat="45.972741429341426" lon="11.113235756505752"><ele>183.0</ele><time>2026-04-11T10:43:02Z</time></trkpt><trkpt lat="45.973025436622166" lon="11.113277972358938"><ele>186.0</ele><time>2026-04-11T10:43:03Z</time></trkpt><trkpt lat="45.97331043921372" lon="11.113318159697222"><ele>185.0</ele><time>2026-04-11T10:43:04Z</time></trkpt><trkpt lat="45.97359554767983" lon="11.11335768445453"><ele>184.0</ele><time>2026-04-11T10:43:05Z</time></trkpt><trkpt lat="45.9738574959591" lon="11.113402244297536"><ele>184.0</ele><time>2026-04-11T10:43:06Z</time></trkpt><trkpt lat="45.9741052901309" lon="11.113439159816718"><ele>184.0</ele><time>2026-04-11T10:43:07Z</time></trkpt><trkpt lat="45.97431855874369" lon="11.113467722935713"><ele>184.0</ele><time>2026-04-11T10:43:08Z</time></trkpt><trkpt lat="45.97449460133086" lon="11.113485600684028"><ele>184.0</ele><time>2026-04-11T10:43:09Z</time></trkpt><trkpt lat="45.97462921430348" lon="11.113508417473914"><ele>184.0</ele><time>2026-04-11T10:43:10Z</time></trkpt><trkpt lat="45.97474523724006" lon="11.113517686788116"><ele>184.0</ele><time>2026-04-11T10:43:11Z</time></trkpt><trkpt lat="45.97483658943984" lon="11.113532185963656"><ele>184.0</ele><time>2026-04-11T10:43:12Z</time></trkpt><trkpt lat="45.974931388517085" lon="11.113541244203768"><ele>184.0</ele><time>2026-04-11T10:43:13Z</time></trkpt><trkpt lat="45.9750155842341" lon="11.113556415892294"><ele>184.0</ele><time>2026-04-11T10:43:14Z</time></trkpt><trkpt lat="45.97510720864583" lon="11.11357093963572"><ele>184.0</ele><time>2026-04-11T10:43:15Z</time></trkpt><trkpt lat="45.97521059075528" lon="11.113587740040836"><ele>184.0</ele><time>2026-04-11T10:43:16Z</time></trkpt><trkpt lat="45.97531622900565" lon="11.113608431725172"><ele>184.0</ele><time>2026-04-11T10:43:17Z</time></trkpt><trkpt lat="45.975430184837435" lon="11.113625182357143"><ele>184.0</ele><time>2026-04-11T10:43:18Z</time></trkpt><trkpt lat="45.97554803928593" lon="11.11365223982377"><ele>184.0</ele><time>2026-04-11T10:43:19Z</time></trkpt><trkpt lat="45.975681442835" lon="11.113691007250777"><ele>184.0</ele><time>2026-04-11T10:43:20Z</time></trkpt><trkpt lat="45.975834292202016" lon="11.113717804903871"><ele>183.5</ele><time>2026-04-11T10:43:21Z</time></trkpt><trkpt lat="45.9759854397422" lon="11.113742817642624"><ele>183.0</ele><time>2026-04-11T10:43:22Z</time></trkpt><trkpt lat="45.9761309043399" lon="11.113772060606765"><ele>182.5</ele><time>2026-04-11T10:43:23Z</time></trkpt><trkpt lat="45.97627542591528" lon="11.113802631534206"><ele>182.0</ele><time>2026-04-11T10:43:24Z</time></trkpt><trkpt lat="45.97641472175824" lon="11.113834563371702"><ele>182.0</ele><time>2026-04-11T10:43:25Z</time></trkpt><trkpt lat="45.97654643055449" lon="11.113873649879"><ele>182.0</ele><time>2026-04-11T10:43:26Z</time></trkpt><trkpt lat="45.97667295738833" lon="11.113931783504023"><ele>182.0</ele><time>2026-04-11T10:43:27Z</time></trkpt><trkpt lat="45.97681262733367" lon="11.11398701570604"><ele>182.0</ele><time>2026-04-11T10:43:28Z</time></trkpt><trkpt lat="45.9769436923992" lon="11.114070731056517"><ele>182.25</ele><time>2026-04-11T10:43:29Z</time></trkpt><trkpt lat="45.97708503932446" lon="11.114152861479031"><ele>182.5</ele><time>2026-04-11T10:43:30Z</time></trkpt><trkpt lat="45.97722154699409" lon="11.114233054636284"><ele>182.75</ele><time>2026-04-11T10:43:31Z</time></trkpt><trkpt lat="45.977361292691526" lon="11.114301114485995"><ele>183.0</ele><time>2026-04-11T10:43:32Z</time></trkpt><trkpt lat="45.97748928066663" lon="11.114376414047268"><ele>182.75</ele><time>2026-04-11T10:43:33Z</time></trkpt><trkpt lat="45.97761455992442" lon="11.114448085932695"><ele>182.5</ele><time>2026-04-11T10:43:34Z</time></trkpt><trkpt lat="45.9777467169973" lon="11.114507979664962"><ele>182.25</ele><time>2026-04-11T10:43:35Z</time></trkpt><trkpt lat="45.97788217025017" lon="11.114576058175228"><ele>182.0</ele><time>2026-04-11T10:43:36Z</time></trkpt><trkpt lat="45.97802494401984" lon="11.114638772880978"><ele>182.0</ele><time>2026-04-11T10:43:37Z</time></trkpt><trkpt lat="45.9781710574033" lon="11.114689937661714"><ele>182.0</ele><time>2026-04-11T10:43:38Z</time></trkpt><trkpt lat="45.97831292842656" lon="11.114747667942677"><ele>182.0</ele><time>2026-04-11T10:43:39Z</time></trkpt><trkpt lat="45.97846212917239" lon="11.11480434364732"><ele>182.66666666666666</ele><time>2026-04-11T10:43:40Z</time></trkpt><trkpt lat="45.97861456942852" lon="11.114865740482395"><ele>183.33333333333334</ele><time>2026-04-11T10:43:41Z</time></trkpt><trkpt lat="45.978770501495966" lon="11.114915154200474"><ele>184.0</ele><time>2026-04-11T10:43:42Z</time></trkpt><trkpt lat="45.97892800077767" lon="11.114946959530236"><ele>183.75</ele><time>2026-04-11T10:43:43Z</time></trkpt><trkpt lat="45.979077880093264" lon="11.11498656382034"><ele>183.5</ele><time>2026-04-11T10:43:44Z</time></trkpt><trkpt lat="45.97921262610598" lon="11.115019358809908"><ele>183.25</ele><time>2026-04-11T10:43:45Z</time></trkpt><trkpt lat="45.9793304737087" lon="11.115061692184508"><ele>183.0</ele><time>2026-04-11T10:43:46Z</time></trkpt><trkpt lat="45.979454291689976" lon="11.1150957961082"><ele>183.0</ele><time>2026-04-11T10:43:47Z</time></trkpt><trkpt lat="45.979573302348996" lon="11.115130429562132"><ele>183.0</ele><time>2026-04-11T10:43:48Z</time></trkpt><trkpt lat="45.979696789481494" lon="11.115163045793143"><ele>183.0</ele><time>2026-04-11T10:43:49Z</time></trkpt><trkpt lat="45.979823819304514" lon="11.11519949379096"><ele>183.0</ele><time>2026-04-11T10:43:50Z</time></trkpt><trkpt lat="45.979957818977965" lon="11.115238577158722"><ele>182.75</ele><time>2026-04-11T10:43:51Z</time></trkpt><trkpt lat="45.98009127336108" lon="11.115282260677045"><ele>182.5</ele><time>2026-04-11T10:43:52Z</time></trkpt><trkpt lat="45.9802283027296" lon="11.115323186715438"><ele>182.25</ele><time>2026-04-11T10:43:53Z</time></trkpt><trkpt lat="45.98035577160244" lon="11.115353407605106"><ele>182.0</ele><time>2026-04-11T10:43:54Z</time></trkpt><trkpt lat="45.98046947491518" lon="11.115380027686877"><ele>182.0</ele><time>2026-04-11T10:43:55Z</time></trkpt><trkpt lat="45.980562308320096" lon="11.115399673552043"><ele>182.0</ele><time>2026-04-11T10:43:56Z</time></trkpt><trkpt lat="45.980629867514715" lon="11.115421089140222"><ele>182.0</ele><time>2026-04-11T10:43:57Z</time></trkpt><trkpt lat="45.98069341958953" lon="11.115443350943593"><ele>182.0</ele><time>2026-04-11T10:43:58Z</time></trkpt><trkpt lat="45.98076543890396" lon="11.115461389019742"><ele>182.0</ele><time>2026-04-11T10:43:59Z</time></trkpt><trkpt lat="45.980836881693925" lon="11.115489126023341"><ele>182.0</ele><time>2026-04-11T10:44:00Z</time></trkpt><trkpt lat="45.9809210948803" lon="11.11551024465887"><ele>181.8</ele><time>2026-04-11T10:44:01Z</time></trkpt><trkpt lat="45.9810001119034" lon="11.115533415653996"><ele>181.6</ele><time>2026-04-11T10:44:01.999Z</time></trkpt><trkpt lat="45.98108385220801" lon="11.115549922720769"><ele>181.4</ele><time>2026-04-11T10:44:02.999Z</time></trkpt><trkpt lat="45.98117324005462" lon="11.115566503573998"><ele>181.20000000000002</ele><time>2026-04-11T10:44:03.999Z</time></trkpt><trkpt lat="45.981278523950785" lon="11.115576600671575"><ele>181.0</ele><time>2026-04-11T10:44:04.999Z</time></trkpt><trkpt lat="45.981392989487965" lon="11.115578668929627"><ele>181.0</ele><time>2026-04-11T10:44:05.999Z</time></trkpt><trkpt lat="45.98152170272548" lon="11.115585297827453"><ele>181.0</ele><time>2026-04-11T10:44:06.999Z</time></trkpt><trkpt lat="45.98168100053848" lon="11.115553991631685"><ele>181.0</ele><time>2026-04-11T10:44:07.999Z</time></trkpt><trkpt lat="45.98184104356036" lon="11.115522975762067"><ele>180.75</ele><time>2026-04-11T10:44:08.999Z</time></trkpt><trkpt lat="45.98198917799" lon="11.115486397848269"><ele>180.5</ele><time>2026-04-11T10:44:09.999Z</time></trkpt><trkpt lat="45.9821386094991" lon="11.115431091786421"><ele>180.25</ele><time>2026-04-11T10:44:10.999Z</time></trkpt><trkpt lat="45.98227526685688" lon="11.115370838437908"><ele>180.0</ele><time>2026-04-11T10:44:11.999Z</time></trkpt><trkpt lat="45.98241442260006" lon="11.115297978436464"><ele>180.0</ele><time>2026-04-11T10:44:12.999Z</time></trkpt><trkpt lat="45.98254592037131" lon="11.115214983741845"><ele>180.0</ele><time>2026-04-11T10:44:13.999Z</time></trkpt><trkpt lat="45.982678764701504" lon="11.115127271358826"><ele>180.0</ele><time>2026-04-11T10:44:14.999Z</time></trkpt><trkpt lat="45.98281781304576" lon="11.115029132263151"><ele>180.0</ele><time>2026-04-11T10:44:15.999Z</time></trkpt><trkpt lat="45.98295929713508" lon="11.114934236585976"><ele>180.33333333333334</ele><time>2026-04-11T10:44:16.999Z</time></trkpt><trkpt lat="45.98309980363424" lon="11.114833924077631"><ele>180.66666666666669</ele><time>2026-04-11T10:44:17.999Z</time></trkpt><trkpt lat="45.98324426960155" lon="11.114731166826804"><ele>181.0</ele><time>2026-04-11T10:44:18.999Z</time></trkpt><trkpt lat="45.98338396510287" lon="11.114627472575322"><ele>181.0</ele><time>2026-04-11T10:44:19.999Z</time></trkpt><trkpt lat="45.98353436109674" lon="11.11453007040049"><ele>181.0</ele><time>2026-04-11T10:44:20.999Z</time></trkpt><trkpt lat="45.98368975254503" lon="11.114443094755796"><ele>181.0</ele><time>2026-04-11T10:44:21.999Z</time></trkpt><trkpt lat="45.983852689007264" lon="11.114365054261066"><ele>181.0</ele><time>2026-04-11T10:44:22.999Z</time></trkpt><trkpt lat="45.984020456283226" lon="11.114303872879082"><ele>181.0</ele><time>2026-04-11T10:44:23.999Z</time></trkpt><trkpt lat="45.98419691240322" lon="11.114257080064837"><ele>181.0</ele><time>2026-04-11T10:44:24.999Z</time></trkpt><trkpt lat="45.984376470040516" lon="11.11423190895045"><ele>181.0</ele><time>2026-04-11T10:44:25.999Z</time></trkpt><trkpt lat="45.98455236129243" lon="11.11421164926103"><ele>181.0</ele><time>2026-04-11T10:44:26.999Z</time></trkpt><trkpt lat="45.984725815892894" lon="11.114220032258176"><ele>181.0</ele><time>2026-04-11T10:44:27.999Z</time></trkpt><trkpt lat="45.98489697418039" lon="11.114242084109481"><ele>181.0</ele><time>2026-04-11T10:44:28.999Z</time></trkpt><trkpt lat="45.98506418144041" lon="11.114275074376414"><ele>181.0</ele><time>2026-04-11T10:44:29.999Z</time></trkpt><trkpt lat="45.9852276955341" lon="11.114324390401041"><ele>181.0</ele><time>2026-04-11T10:44:30.999Z</time></trkpt><trkpt lat="45.98537960639164" lon="11.114387629401286"><ele>181.0</ele><time>2026-04-11T10:44:31.999Z</time></trkpt><trkpt lat="45.98552683636528" lon="11.114458445741159"><ele>181.0</ele><time>2026-04-11T10:44:32.999Z</time></trkpt><trkpt lat="45.98567353986435" lon="11.114537885548906"><ele>181.0</ele><time>2026-04-11T10:44:33.999Z</time></trkpt><trkpt lat="45.985810867755205" lon="11.11463173290569"><ele>180.33333333333334</ele><time>2026-04-11T10:44:34.999Z</time></trkpt><trkpt lat="45.98594587499223" lon="11.11474045330559"><ele>179.66666666666666</ele><time>2026-04-11T10:44:35.999Z</time></trkpt><trkpt lat="45.98608151598471" lon="11.114855978528757"><ele>179.0</ele><time>2026-04-11T10:44:36.999Z</time></trkpt><trkpt lat="45.98621515095823" lon="11.11498043993862"><ele>179.0</ele><time>2026-04-11T10:44:37.999Z</time></trkpt><trkpt lat="45.98634552672298" lon="11.115105162047474"><ele>179.0</ele><time>2026-04-11T10:44:39Z</time></trkpt><trkpt lat="45.986474313689" lon="11.115222672696426"><ele>179.0</ele><time>2026-04-11T10:44:40Z</time></trkpt><trkpt lat="45.98660067779427" lon="11.115339147636929"><ele>179.66666666666666</ele><time>2026-04-11T10:44:41Z</time></trkpt><trkpt lat="45.98672455013206" lon="11.115461321198941"><ele>180.33333333333334</ele><time>2026-04-11T10:44:42Z</time></trkpt><trkpt lat="45.986849520028535" lon="11.115578035822722"><ele>181.0</ele><time>2026-04-11T10:44:43Z</time></trkpt><trkpt lat="45.98697932711416" lon="11.11570241023251"><ele>181.33333333333334</ele><time>2026-04-11T10:44:44Z</time></trkpt><trkpt lat="45.98712077053852" lon="11.115834927423615"><ele>181.66666666666666</ele><time>2026-04-11T10:44:45Z</time></trkpt><trkpt lat="45.98725511352307" lon="11.11596186077874"><ele>182.0</ele><time>2026-04-11T10:44:46Z</time></trkpt><trkpt lat="45.98739398567106" lon="11.116092947915362"><ele>182.0</ele><time>2026-04-11T10:44:47Z</time></trkpt><trkpt lat="45.98756087574832" lon="11.116236764464006"><ele>182.0</ele><time>2026-04-11T10:44:48Z</time></trkpt><trkpt lat="45.98776959051318" lon="11.11643371013508"><ele>182.0</ele><time>2026-04-11T10:44:49Z</time></trkpt><trkpt lat="45.98798757882332" lon="11.116640394909005"><ele>181.0</ele><time>2026-04-11T10:44:50Z</time></trkpt><trkpt lat="45.988231050061344" lon="11.11686844261486"><ele>180.0</ele><time>2026-04-11T10:44:51Z</time></trkpt><trkpt lat="45.98849106572537" lon="11.117105746226155"><ele>179.5</ele><time>2026-04-11T10:44:52Z</time></trkpt><trkpt lat="45.9887644309925" lon="11.117345092202518"><ele>179.0</ele><time>2026-04-11T10:44:53Z</time></trkpt><trkpt lat="45.98905144057663" lon="11.117608709141653"><ele>179.5</ele><time>2026-04-11T10:44:54Z</time></trkpt><trkpt lat="45.98934852819737" lon="11.117886310286316"><ele>180.0</ele><time>2026-04-11T10:44:55Z</time></trkpt><trkpt lat="45.989632667693044" lon="11.118164754358492"><ele>180.5</ele><time>2026-04-11T10:44:56Z</time></trkpt><trkpt lat="45.98989415403355" lon="11.118404643125665"><ele>181.0</ele><time>2026-04-11T10:44:57Z</time></trkpt><trkpt lat="45.99013610476878" lon="11.118615998831253"><ele>181.0</ele><time>2026-04-11T10:44:58Z</time></trkpt><trkpt lat="45.99035497897583" lon="11.11881204162759"><ele>181.0</ele><time>2026-04-11T10:44:59Z</time></trkpt><trkpt lat="45.99059385991518" lon="11.11898286040545"><ele>180.5</ele><time>2026-04-11T10:45:00Z</time></trkpt><trkpt lat="45.99083026194319" lon="11.119194063357792"><ele>180.0</ele><time>2026-04-11T10:45:01Z</time></trkpt><trkpt lat="45.991105666949245" lon="11.119376672926526"><ele>180.0</ele><time>2026-04-11T10:45:02Z</time></trkpt><trkpt lat="45.99138629175302" lon="11.119564990970911"><ele>180.0</ele><time>2026-04-11T10:45:03Z</time></trkpt><trkpt lat="45.99167660233751" lon="11.119751345321353"><ele>180.0</ele><time>2026-04-11T10:45:04Z</time></trkpt><trkpt lat="45.991962707296395" lon="11.119946540073743"><ele>180.0</ele><time>2026-04-11T10:45:05Z</time></trkpt><trkpt lat="45.99224482140411" lon="11.120161514949089"><ele>180.5</ele><time>2026-04-11T10:45:06Z</time></trkpt><trkpt lat="45.99254240186204" lon="11.12036298659626"><ele>181.0</ele><time>2026-04-11T10:45:07Z</time></trkpt><trkpt lat="45.99284081897311" lon="11.120558078734438"><ele>181.5</ele><time>2026-04-11T10:45:08Z</time></trkpt><trkpt lat="45.99314506025639" lon="11.120762591297535"><ele>182.0</ele><time>2026-04-11T10:45:09Z</time></trkpt><trkpt lat="45.99343895437981" lon="11.120958108524608"><ele>182.0</ele><time>2026-04-11T10:45:10Z</time></trkpt><trkpt lat="45.99372719422836" lon="11.121149090009489"><ele>182.0</ele><time>2026-04-11T10:45:11Z</time></trkpt><trkpt lat="45.99402178956349" lon="11.121326643912278"><ele>181.5</ele><time>2026-04-11T10:45:12Z</time></trkpt><trkpt lat="45.99432410460723" lon="11.121492578616994"><ele>181.0</ele><time>2026-04-11T10:45:13Z</time></trkpt><trkpt lat="45.99461856116908" lon="11.121641734961685"><ele>181.0</ele><time>2026-04-11T10:45:14Z</time></trkpt><trkpt lat="45.99491728926731" lon="11.121785437109532"><ele>181.0</ele><time>2026-04-11T10:45:15Z</time></trkpt><trkpt lat="45.99521823732616" lon="11.12191178034382"><ele>181.0</ele><time>2026-04-11T10:45:16Z</time></trkpt><trkpt lat="45.9955233934101" lon="11.12203715219126"><ele>181.0</ele><time>2026-04-11T10:45:17Z</time></trkpt><trkpt lat="45.995834813656" lon="11.122138650969502"><ele>181.0</ele><time>2026-04-11T10:45:18Z</time></trkpt><trkpt lat="45.99615134453345" lon="11.122234178362568"><ele>181.0</ele><time>2026-04-11T10:45:19Z</time></trkpt><trkpt lat="45.99646620647806" lon="11.122329967182306"><ele>181.5</ele><time>2026-04-11T10:45:20Z</time></trkpt><trkpt lat="45.9967746238255" lon="11.122402061301417"><ele>182.0</ele><time>2026-04-11T10:45:21Z</time></trkpt><trkpt lat="45.9970866357338" lon="11.122470343142336"><ele>182.0</ele><time>2026-04-11T10:45:22Z</time></trkpt><trkpt lat="45.997399726039" lon="11.122554891037419"><ele>182.0</ele><time>2026-04-11T10:45:23Z</time></trkpt><trkpt lat="45.99770884942134" lon="11.122627751720534"><ele>181.5</ele><time>2026-04-11T10:45:24Z</time></trkpt><trkpt lat="45.998025507556" lon="11.122634465838471"><ele>181.0</ele><time>2026-04-11T10:45:25Z</time></trkpt><trkpt lat="45.998325585587594" lon="11.12268595693753"><ele>180.5</ele><time>2026-04-11T10:45:26Z</time></trkpt><trkpt lat="45.998640834811205" lon="11.122739373335085"><ele>180.0</ele><time>2026-04-11T10:45:27Z</time></trkpt><trkpt lat="45.998956074538995" lon="11.122783616415978"><ele>180.5</ele><time>2026-04-11T10:45:28Z</time></trkpt><trkpt lat="45.99925493542026" lon="11.12284194672944"><ele>181.0</ele><time>2026-04-11T10:45:29Z</time></trkpt><trkpt lat="45.99955597553148" lon="11.122876792554624"><ele>181.0</ele><time>2026-04-11T10:45:30Z</time></trkpt><trkpt lat="45.99986367193443" lon="11.12292382595631"><ele>181.0</ele><time>2026-04-11T10:45:31Z</time></trkpt><trkpt lat="46.00016265891006" lon="11.122971450649578"><ele>181.0</ele><time>2026-04-11T10:45:32Z</time></trkpt><trkpt lat="46.00046460361442" lon="11.123020324918484"><ele>181.0</ele><time>2026-04-11T10:45:33Z</time></trkpt><trkpt lat="46.000763682886046" lon="11.123088782988747"><ele>180.0</ele><time>2026-04-11T10:45:34Z</time></trkpt><trkpt lat="46.001072453183326" lon="11.12312515977898"><ele>179.0</ele><time>2026-04-11T10:45:35Z</time></trkpt><trkpt lat="46.00137708799673" lon="11.123156176715153"><ele>179.0</ele><time>2026-04-11T10:45:36Z</time></trkpt><trkpt lat="46.001683040421995" lon="11.123197940675736"><ele>179.0</ele><time>2026-04-11T10:45:37Z</time></trkpt><trkpt lat="46.00199026632178" lon="11.123241495157421"><ele>180.0</ele><time>2026-04-11T10:45:38Z</time></trkpt><trkpt lat="46.00229302399276" lon="11.123283396017124"><ele>181.0</ele><time>2026-04-11T10:45:39Z</time></trkpt><trkpt lat="46.002600998772316" lon="11.123323838459578"><ele>181.0</ele><time>2026-04-11T10:45:40Z</time></trkpt><trkpt lat="46.00291136974141" lon="11.12336165489613"><ele>181.0</ele><time>2026-04-11T10:45:41Z</time></trkpt><trkpt lat="46.00322211057135" lon="11.123404729346104"><ele>181.0</ele><time>2026-04-11T10:45:42Z</time></trkpt><trkpt lat="46.00353279805656" lon="11.12344878495913"><ele>181.0</ele><time>2026-04-11T10:45:43Z</time></trkpt><trkpt lat="46.00383821247167" lon="11.12349170236597"><ele>181.0</ele><time>2026-04-11T10:45:44Z</time></trkpt><trkpt lat="46.00415265323148" lon="11.12353255469955"><ele>181.0</ele><time>2026-04-11T10:45:45Z</time></trkpt><trkpt lat="46.00446210772008" lon="11.123579887457895"><ele>181.5</ele><time>2026-04-11T10:45:46Z</time></trkpt><trkpt lat="46.004772075379606" lon="11.12362683432736"><ele>182.0</ele><time>2026-04-11T10:45:47Z</time></trkpt><trkpt lat="46.00508111590535" lon="11.123672779334179"><ele>182.0</ele><time>2026-04-11T10:45:48Z</time></trkpt><trkpt lat="46.00538348664119" lon="11.123714103041705"><ele>182.0</ele><time>2026-04-11T10:45:49Z</time></trkpt><trkpt lat="46.00567367338487" lon="11.123754989972564"><ele>181.5</ele><time>2026-04-11T10:45:50Z</time></trkpt><trkpt lat="46.005975816791945" lon="11.12379114757527"><ele>181.0</ele><time>2026-04-11T10:45:51Z</time></trkpt><trkpt lat="46.00626759468309" lon="11.123835480393662"><ele>181.0</ele><time>2026-04-11T10:45:52Z</time></trkpt><trkpt lat="46.00656862886799" lon="11.123863640775793"><ele>181.0</ele><time>2026-04-11T10:45:53Z</time></trkpt><trkpt lat="46.00685626995345" lon="11.12389469514096"><ele>181.0</ele><time>2026-04-11T10:45:54Z</time></trkpt><trkpt lat="46.00714498472962" lon="11.123919235804662"><ele>181.0</ele><time>2026-04-11T10:45:55Z</time></trkpt><trkpt lat="46.00742134292692" lon="11.123964868524116"><ele>180.5</ele><time>2026-04-11T10:45:56Z</time></trkpt><trkpt lat="46.007687798865376" lon="11.124045053854482"><ele>180.0</ele><time>2026-04-11T10:45:57Z</time></trkpt><trkpt lat="46.00796558142767" lon="11.124173304252558"><ele>180.5</ele><time>2026-04-11T10:45:58Z</time></trkpt><trkpt lat="46.00823969140243" lon="11.124341709176544"><ele>181.0</ele><time>2026-04-11T10:45:59Z</time></trkpt><trkpt lat="46.008505637705376" lon="11.124522853492286"><ele>181.0</ele><time>2026-04-11T10:46:00Z</time></trkpt><trkpt lat="46.0087931518665" lon="11.124706049201984"><ele>181.0</ele><time>2026-04-11T10:46:01Z</time></trkpt><trkpt lat="46.009079297912464" lon="11.124877263846804"><ele>181.5</ele><time>2026-04-11T10:46:01.999Z</time></trkpt><trkpt lat="46.009361764802364" lon="11.125013354057199"><ele>182.0</ele><time>2026-04-11T10:46:02.999Z</time></trkpt><trkpt lat="46.00965835591011" lon="11.125152265853664"><ele>182.0</ele><time>2026-04-11T10:46:03.999Z</time></trkpt><trkpt lat="46.00996432895884" lon="11.125271525684447"><ele>182.0</ele><time>2026-04-11T10:46:04.999Z</time></trkpt><trkpt lat="46.010279847731404" lon="11.12539387494581"><ele>181.5</ele><time>2026-04-11T10:46:05.999Z</time></trkpt><trkpt lat="46.01060035013273" lon="11.125521644478503"><ele>181.0</ele><time>2026-04-11T10:46:06.999Z</time></trkpt><trkpt lat="46.010935758122336" lon="11.125653420154432"><ele>182.0</ele><time>2026-04-11T10:46:07.999Z</time></trkpt><trkpt lat="46.01128473046797" lon="11.125786147696257"><ele>183.0</ele><time>2026-04-11T10:46:08.999Z</time></trkpt><trkpt lat="46.01163357116418" lon="11.125928049264436"><ele>181.5</ele><time>2026-04-11T10:46:09.999Z</time></trkpt><trkpt lat="46.01199513691452" lon="11.126053318503907"><ele>180.0</ele><time>2026-04-11T10:46:10.999Z</time></trkpt><trkpt lat="46.012359043420375" lon="11.126163764995495"><ele>180.5</ele><time>2026-04-11T10:46:11.999Z</time></trkpt><trkpt lat="46.012731856295396" lon="11.126257094149274"><ele>181.0</ele><time>2026-04-11T10:46:12.999Z</time></trkpt><trkpt lat="46.01310519970126" lon="11.12634376183904"><ele>180.5</ele><time>2026-04-11T10:46:13.999Z</time></trkpt><trkpt lat="46.01348259357639" lon="11.12642511864468"><ele>180.0</ele><time>2026-04-11T10:46:14.999Z</time></trkpt><trkpt lat="46.013866988081084" lon="11.126517960081767"><ele>181.0</ele><time>2026-04-11T10:46:15.999Z</time></trkpt><trkpt lat="46.014254786236" lon="11.126618849142805"><ele>182.0</ele><time>2026-04-11T10:46:16.999Z</time></trkpt><trkpt lat="46.01465266937288" lon="11.126717443483761"><ele>182.0</ele><time>2026-04-11T10:46:17.999Z</time></trkpt><trkpt lat="46.01503197701874" lon="11.12680753035681"><ele>182.0</ele><time>2026-04-11T10:46:18.999Z</time></trkpt><trkpt lat="46.01542433402845" lon="11.126892761165454"><ele>182.0</ele><time>2026-04-11T10:46:19.999Z</time></trkpt><trkpt lat="46.01580911080663" lon="11.126996448071104"><ele>182.0</ele><time>2026-04-11T10:46:20.999Z</time></trkpt><trkpt lat="46.016181893923836" lon="11.127099559918907"><ele>182.0</ele><time>2026-04-11T10:46:21.999Z</time></trkpt><trkpt lat="46.01655245163801" lon="11.127185162517018"><ele>182.0</ele><time>2026-04-11T10:46:22.999Z</time></trkpt><trkpt lat="46.01693223792355" lon="11.127269071044724"><ele>182.0</ele><time>2026-04-11T10:46:23.999Z</time></trkpt><trkpt lat="46.017305247976246" lon="11.12736291275471"><ele>182.0</ele><time>2026-04-11T10:46:24.999Z</time></trkpt><trkpt lat="46.01768990816637" lon="11.127450965988697"><ele>182.0</ele><time>2026-04-11T10:46:25.999Z</time></trkpt><trkpt lat="46.01806312532922" lon="11.127534371445368"><ele>182.0</ele><time>2026-04-11T10:46:26.999Z</time></trkpt><trkpt lat="46.01843874335416" lon="11.127608744822288"><ele>181.5</ele><time>2026-04-11T10:46:27.999Z</time></trkpt><trkpt lat="46.01881961671877" lon="11.127664687860033"><ele>181.0</ele><time>2026-04-11T10:46:28.999Z</time></trkpt><trkpt lat="46.019199095494955" lon="11.127709796353043"><ele>181.0</ele><time>2026-04-11T10:46:29.999Z</time></trkpt><trkpt lat="46.019587342476946" lon="11.127746956499404"><ele>181.0</ele><time>2026-04-11T10:46:30.999Z</time></trkpt><trkpt lat="46.019973119454136" lon="11.127775309504257"><ele>182.0</ele><time>2026-04-11T10:46:31.999Z</time></trkpt><trkpt lat="46.02035874227358" lon="11.127787108700405"><ele>183.0</ele><time>2026-04-11T10:46:32.999Z</time></trkpt><trkpt lat="46.02074676362279" lon="11.127797563619746"><ele>183.0</ele><time>2026-04-11T10:46:33.999Z</time></trkpt><trkpt lat="46.02113501918774" lon="11.127800281672735"><ele>183.0</ele><time>2026-04-11T10:46:34.999Z</time></trkpt><trkpt lat="46.021521539072346" lon="11.127797588638492"><ele>183.5</ele><time>2026-04-11T10:46:35.999Z</time></trkpt><trkpt lat="46.021905754662065" lon="11.127798770849664"><ele>184.0</ele><time>2026-04-11T10:46:36.999Z</time></trkpt><trkpt lat="46.02229262941507" lon="11.12780077245265"><ele>184.0</ele><time>2026-04-11T10:46:37.999Z</time></trkpt><trkpt lat="46.02268385833275" lon="11.12778057452187"><ele>184.0</ele><time>2026-04-11T10:46:38.999Z</time></trkpt><trkpt lat="46.02307685847049" lon="11.127772056989855"><ele>183.0</ele><time>2026-04-11T10:46:39.999Z</time></trkpt><trkpt lat="46.02346091577564" lon="11.127777780126518"><ele>182.0</ele><time>2026-04-11T10:46:40.999Z</time></trkpt><trkpt lat="46.023841680532215" lon="11.127778581353082"><ele>182.5</ele><time>2026-04-11T10:46:41.999Z</time></trkpt><trkpt lat="46.02422542862328" lon="11.127773259664808"><ele>183.0</ele><time>2026-04-11T10:46:42.999Z</time></trkpt><trkpt lat="46.02460662249142" lon="11.127769387268684"><ele>183.5</ele><time>2026-04-11T10:46:43.999Z</time></trkpt><trkpt lat="46.02498519317182" lon="11.127771629235625"><ele>184.0</ele><time>2026-04-11T10:46:45Z</time></trkpt><trkpt lat="46.02536302888984" lon="11.127777748486997"><ele>184.0</ele><time>2026-04-11T10:46:46Z</time></trkpt><trkpt lat="46.02573248623262" lon="11.12778427647089"><ele>184.0</ele><time>2026-04-11T10:46:47Z</time></trkpt><trkpt lat="46.02609867682089" lon="11.127782991128461"><ele>184.0</ele><time>2026-04-11T10:46:48Z</time></trkpt><trkpt lat="46.0264558207056" lon="11.127773149443994"><ele>184.0</ele><time>2026-04-11T10:46:49Z</time></trkpt><trkpt lat="46.02678926849043" lon="11.127771762901423"><ele>184.0</ele><time>2026-04-11T10:46:50Z</time></trkpt><trkpt lat="46.02712561178574" lon="11.127772015641893"><ele>184.0</ele><time>2026-04-11T10:46:51Z</time></trkpt><trkpt lat="46.027449083121674" lon="11.12776730914757"><ele>183.5</ele><time>2026-04-11T10:46:52Z</time></trkpt><trkpt lat="46.027767150213236" lon="11.127767240876947"><ele>183.0</ele><time>2026-04-11T10:46:53Z</time></trkpt><trkpt lat="46.02807978673326" lon="11.127775408041497"><ele>182.5</ele><time>2026-04-11T10:46:54Z</time></trkpt><trkpt lat="46.028390670995876" lon="11.127781031732036"><ele>182.0</ele><time>2026-04-11T10:46:55Z</time></trkpt><trkpt lat="46.028695245816934" lon="11.127787850431632"><ele>182.0</ele><time>2026-04-11T10:46:56Z</time></trkpt><trkpt lat="46.02898971381305" lon="11.127793736213892"><ele>182.0</ele><time>2026-04-11T10:46:57Z</time></trkpt><trkpt lat="46.02928033381762" lon="11.127790055610781"><ele>183.5</ele><time>2026-04-11T10:46:58Z</time></trkpt><trkpt lat="46.029565707727706" lon="11.127795821176795"><ele>185.0</ele><time>2026-04-11T10:46:59Z</time></trkpt><trkpt lat="46.02985326056951" lon="11.127794700169336"><ele>186.0</ele><time>2026-04-11T10:47:00Z</time></trkpt><trkpt lat="46.03013558842811" lon="11.12780078845805"><ele>187.0</ele><time>2026-04-11T10:47:01Z</time></trkpt><trkpt lat="46.03041477773809" lon="11.127800621185894"><ele>187.0</ele><time>2026-04-11T10:47:02Z</time></trkpt><trkpt lat="46.030686210645435" lon="11.1277999457968"><ele>187.0</ele><time>2026-04-11T10:47:03Z</time></trkpt><trkpt lat="46.03095587990064" lon="11.127802886564702"><ele>184.5</ele><time>2026-04-11T10:47:04Z</time></trkpt><trkpt lat="46.03121420180197" lon="11.127799187036267"><ele>182.0</ele><time>2026-04-11T10:47:05Z</time></trkpt><trkpt lat="46.03146635394218" lon="11.127778633629507"><ele>183.5</ele><time>2026-04-11T10:47:06Z</time></trkpt><trkpt lat="46.03170806325947" lon="11.127736738435802"><ele>185.0</ele><time>2026-04-11T10:47:07Z</time></trkpt><trkpt lat="46.03194112144743" lon="11.127681136989077"><ele>185.0</ele><time>2026-04-11T10:47:08Z</time></trkpt><trkpt lat="46.03216629441947" lon="11.127615243312365"><ele>185.0</ele><time>2026-04-11T10:47:09Z</time></trkpt><trkpt lat="46.03239243297752" lon="11.127534153918521"><ele>185.0</ele><time>2026-04-11T10:47:10Z</time></trkpt><trkpt lat="46.03260776643" lon="11.127410956581235"><ele>185.0</ele><time>2026-04-11T10:47:11Z</time></trkpt><trkpt lat="46.03283648202069" lon="11.127337343512917"><ele>184.33333333333331</ele><time>2026-04-11T10:47:12Z</time></trkpt><trkpt lat="46.03304754957727" lon="11.127237611709756"><ele>183.66666666666666</ele><time>2026-04-11T10:47:13Z</time></trkpt><trkpt lat="46.03324722360875" lon="11.127143014501447"><ele>183.0</ele><time>2026-04-11T10:47:14Z</time></trkpt><trkpt lat="46.03342626647118" lon="11.127044122850434"><ele>183.0</ele><time>2026-04-11T10:47:15Z</time></trkpt><trkpt lat="46.03357818064305" lon="11.126937591353713"><ele>183.0</ele><time>2026-04-11T10:47:16Z</time></trkpt><trkpt lat="46.03370666468369" lon="11.126825233908068"><ele>183.0</ele><time>2026-04-11T10:47:17Z</time></trkpt><trkpt lat="46.03381712055381" lon="11.126726498675035"><ele>183.0</ele><time>2026-04-11T10:47:18Z</time></trkpt><trkpt lat="46.03390708692869" lon="11.126649912011779"><ele>183.0</ele><time>2026-04-11T10:47:19Z</time></trkpt><trkpt lat="46.03397308935053" lon="11.12660059980811"><ele>183.0</ele><time>2026-04-11T10:47:20Z</time></trkpt><trkpt lat="46.0340354533869" lon="11.126561848095207"><ele>183.0</ele><time>2026-04-11T10:47:22Z</time></trkpt><trkpt lat="46.03410065665371" lon="11.126534957129362"><ele>183.0</ele><time>2026-04-11T10:47:26Z</time></trkpt><trkpt lat="46.03417427781689" lon="11.126524349950685"><ele>183.0</ele><time>2026-04-11T10:47:29Z</time></trkpt><trkpt lat="46.034253575783524" lon="11.126532091363423"><ele>183.0</ele><time>2026-04-11T10:47:30Z</time></trkpt><trkpt lat="46.03433988933241" lon="11.126564131721993"><ele>183.4</ele><time>2026-04-11T10:47:31Z</time></trkpt><trkpt lat="46.03442474781426" lon="11.126556548029823"><ele>183.8</ele><time>2026-04-11T10:47:32Z</time></trkpt><trkpt lat="46.034512404319855" lon="11.12650976278402"><ele>184.2</ele><time>2026-04-11T10:47:33Z</time></trkpt><trkpt lat="46.034577337158595" lon="11.126465573595636"><ele>184.6</ele><time>2026-04-11T10:47:34Z</time></trkpt><trkpt lat="46.03470193209269" lon="11.126400284286396"><ele>185.0</ele><time>2026-04-11T10:47:36Z</time></trkpt><trkpt lat="46.034761294823184" lon="11.126344137269209"><ele>185.0</ele><time>2026-04-11T10:47:37Z</time></trkpt><trkpt lat="46.03485770617266" lon="11.126424743862087"><ele>185.0</ele><time>2026-04-11T10:47:38Z</time></trkpt><trkpt lat="46.034915822127466" lon="11.126519374719884"><ele>185.0</ele><time>2026-04-11T10:47:39Z</time></trkpt><trkpt lat="46.03496880541231" lon="11.126639120398671"><ele>185.0</ele><time>2026-04-11T10:47:40Z</time></trkpt><trkpt lat="46.03500412779452" lon="11.126775847191979"><ele>185.0</ele><time>2026-04-11T10:47:41Z</time></trkpt><trkpt lat="46.03500378864678" lon="11.12695928306157"><ele>185.25</ele><time>2026-04-11T10:47:42Z</time></trkpt><trkpt lat="46.03497413651319" lon="11.127127023037831"><ele>185.5</ele><time>2026-04-11T10:47:43Z</time></trkpt><trkpt lat="46.03492363240318" lon="11.127307990932296"><ele>185.75</ele><time>2026-04-11T10:47:44Z</time></trkpt><trkpt lat="46.03482663500029" lon="11.127464076099205"><ele>186.0</ele><time>2026-04-11T10:47:45Z</time></trkpt><trkpt lat="46.03474984271897" lon="11.12762751159788"><ele>186.0</ele><time>2026-04-11T10:47:46Z</time></trkpt><trkpt lat="46.03467252169737" lon="11.127785687063795"><ele>186.0</ele><time>2026-04-11T10:47:47Z</time></trkpt><trkpt lat="46.03459557159149" lon="11.127941566443683"><ele>186.0</ele><time>2026-04-11T10:47:48Z</time></trkpt><trkpt lat="46.03454126261201" lon="11.128107225739761"><ele>186.0</ele><time>2026-04-11T10:47:49Z</time></trkpt><trkpt lat="46.03446651068286" lon="11.128238164705072"><ele>186.0</ele><time>2026-04-11T10:47:50Z</time></trkpt><trkpt lat="46.034393066659064" lon="11.12837570720314"><ele>186.0</ele><time>2026-04-11T10:47:51Z</time></trkpt><trkpt lat="46.034322801882674" lon="11.128512890523698"><ele>186.0</ele><time>2026-04-11T10:47:52Z</time></trkpt><trkpt lat="46.034256108151844" lon="11.128652282743635"><ele>186.0</ele><time>2026-04-11T10:47:53Z</time></trkpt><trkpt lat="46.03418941905345" lon="11.12879081657937"><ele>186.25</ele><time>2026-04-11T10:47:54Z</time></trkpt><trkpt lat="46.03411802366861" lon="11.128934217866632"><ele>186.5</ele><time>2026-04-11T10:47:55Z</time></trkpt><trkpt lat="46.034043589452445" lon="11.129079383827726"><ele>186.75</ele><time>2026-04-11T10:47:56Z</time></trkpt><trkpt lat="46.033973870696556" lon="11.129228642631011"><ele>187.0</ele><time>2026-04-11T10:47:57Z</time></trkpt><trkpt lat="46.033902665422524" lon="11.129385403383106"><ele>187.0</ele><time>2026-04-11T10:47:58Z</time></trkpt><trkpt lat="46.03382516982691" lon="11.129542934298067"><ele>187.0</ele><time>2026-04-11T10:47:59Z</time></trkpt><trkpt lat="46.03374223835541" lon="11.12970260115332"><ele>187.0</ele><time>2026-04-11T10:48:00Z</time></trkpt><trkpt lat="46.03366260896463" lon="11.12987187431701"><ele>187.0</ele><time>2026-04-11T10:48:01Z</time></trkpt><trkpt lat="46.033582975882695" lon="11.130041064106805"><ele>187.0</ele><time>2026-04-11T10:48:02Z</time></trkpt><trkpt lat="46.03350388526519" lon="11.130208359387296"><ele>187.0</ele><time>2026-04-11T10:48:03Z</time></trkpt><trkpt lat="46.03342556586316" lon="11.130373422883446"><ele>187.0</ele><time>2026-04-11T10:48:04Z</time></trkpt><trkpt lat="46.03334280059607" lon="11.130534511954027"><ele>187.0</ele><time>2026-04-11T10:48:05Z</time></trkpt><trkpt lat="46.033269455588396" lon="11.130688530866404"><ele>186.8</ele><time>2026-04-11T10:48:06Z</time></trkpt><trkpt lat="46.03319949073324" lon="11.130819090939893"><ele>186.6</ele><time>2026-04-11T10:48:07Z</time></trkpt><trkpt lat="46.03313720090272" lon="11.130945616683904"><ele>186.4</ele><time>2026-04-11T10:48:08Z</time></trkpt><trkpt lat="46.03309499868525" lon="11.131064341323095"><ele>186.20000000000002</ele><time>2026-04-11T10:48:09Z</time></trkpt><trkpt lat="46.03304665497562" lon="11.131157474482006"><ele>186.0</ele><time>2026-04-11T10:48:09.999Z</time></trkpt><trkpt lat="46.03296070078735" lon="11.131264290573895"><ele>186.0</ele><time>2026-04-11T10:48:11.999Z</time></trkpt><trkpt lat="46.032875294469854" lon="11.131358832746251"><ele>186.0</ele><time>2026-04-11T10:48:13.999Z</time></trkpt><trkpt lat="46.0327932799058" lon="11.131450946951558"><ele>186.0</ele><time>2026-04-11T10:48:15.999Z</time></trkpt><trkpt lat="46.03269881457153" lon="11.131543430476519"><ele>186.0</ele><time>2026-04-11T10:48:17.999Z</time></trkpt><trkpt lat="46.03262699109068" lon="11.13160039987228"><ele>186.0</ele><time>2026-04-11T10:48:19.999Z</time></trkpt><trkpt lat="46.03252446362021" lon="11.131687161819611"><ele>185.66666666666666</ele><time>2026-04-11T10:48:21.999Z</time></trkpt><trkpt lat="46.032464674791775" lon="11.13173272857488"><ele>185.33333333333334</ele><time>2026-04-11T10:48:22.999Z</time></trkpt><trkpt lat="46.03240587029575" lon="11.131796185632496"><ele>185.0</ele><time>2026-04-11T10:48:23.999Z</time></trkpt><trkpt lat="46.03236440768636" lon="11.131896288888953"><ele>184.66666666666669</ele><time>2026-04-11T10:48:24.999Z</time></trkpt><trkpt lat="46.032344808505414" lon="11.131999506285272"><ele>184.33333333333334</ele><time>2026-04-11T10:48:25.999Z</time></trkpt><trkpt lat="46.03238637068777" lon="11.132174806852014"><ele>184.0</ele><time>2026-04-11T10:48:27.999Z</time></trkpt><trkpt lat="46.032446217992096" lon="11.132252957266067"><ele>184.0</ele><time>2026-04-11T10:48:28.999Z</time></trkpt><trkpt lat="46.03251603013147" lon="11.132323528394679"><ele>184.0</ele><time>2026-04-11T10:48:29.999Z</time></trkpt><trkpt lat="46.03259400235305" lon="11.132318368951669"><ele>184.0</ele><time>2026-04-11T10:48:30.999Z</time></trkpt><trkpt lat="46.03262218340274" lon="11.132499068293686"><ele>184.0</ele><time>2026-04-11T10:48:31.999Z</time></trkpt><trkpt lat="46.03267724890108" lon="11.13257611202433"><ele>184.0</ele><time>2026-04-11T10:48:32.999Z</time></trkpt><trkpt lat="46.032751906633365" lon="11.132601713484487"><ele>184.0</ele><time>2026-04-11T10:48:33.999Z</time></trkpt><trkpt lat="46.03282928551571" lon="11.132601619317084"><ele>184.79999999999998</ele><time>2026-04-11T10:48:34.999Z</time></trkpt><trkpt lat="46.032910112867" lon="11.132591992463038"><ele>185.6</ele><time>2026-04-11T10:48:35.999Z</time></trkpt><trkpt lat="46.033014031456055" lon="11.132598501237577"><ele>186.4</ele><time>2026-04-11T10:48:36.999Z</time></trkpt><trkpt lat="46.03311916260474" lon="11.132607236678313"><ele>187.2</ele><time>2026-04-11T10:48:37.999Z</time></trkpt><trkpt lat="46.03323101083763" lon="11.132611530680103"><ele>188.0</ele><time>2026-04-11T10:48:38.999Z</time></trkpt><trkpt lat="46.03335839280867" lon="11.132619121421921"><ele>188.0</ele><time>2026-04-11T10:48:39.999Z</time></trkpt><trkpt lat="46.03350862513765" lon="11.132639225775124"><ele>188.0</ele><time>2026-04-11T10:48:40.999Z</time></trkpt><trkpt lat="46.033653221066906" lon="11.132679123787193"><ele>188.0</ele><time>2026-04-11T10:48:41.999Z</time></trkpt><trkpt lat="46.03378899795508" lon="11.132724421496025"><ele>188.0</ele><time>2026-04-11T10:48:42.999Z</time></trkpt><trkpt lat="46.0339204161301" lon="11.132776107407"><ele>188.0</ele><time>2026-04-11T10:48:43.999Z</time></trkpt><trkpt lat="46.03404622662997" lon="11.13284458087219"><ele>188.0</ele><time>2026-04-11T10:48:44.999Z</time></trkpt><trkpt lat="46.03416980812319" lon="11.132914130712411"><ele>188.0</ele><time>2026-04-11T10:48:45.999Z</time></trkpt><trkpt lat="46.03430013660321" lon="11.132984971037093"><ele>188.0</ele><time>2026-04-11T10:48:46.999Z</time></trkpt><trkpt lat="46.03442692284918" lon="11.133052542932917"><ele>188.75</ele><time>2026-04-11T10:48:47.999Z</time></trkpt><trkpt lat="46.034553942036936" lon="11.133110770563478"><ele>189.5</ele><time>2026-04-11T10:48:48.999Z</time></trkpt><trkpt lat="46.03468344610676" lon="11.13317294307129"><ele>190.25</ele><time>2026-04-11T10:48:49.999Z</time></trkpt><trkpt lat="46.03482982825311" lon="11.133233004962966"><ele>191.0</ele><time>2026-04-11T10:48:51Z</time></trkpt><trkpt lat="46.034968966085756" lon="11.133298167804206"><ele>196.0</ele><time>2026-04-11T10:48:52Z</time></trkpt><trkpt lat="46.03509842791783" lon="11.133279446529878"><ele>201.0</ele><time>2026-04-11T10:48:53Z</time></trkpt><trkpt lat="46.035242951617654" lon="11.133255896304654"><ele>206.0</ele><time>2026-04-11T10:48:54Z</time></trkpt><trkpt lat="46.03539140281923" lon="11.13325267713996"><ele>211.0</ele><time>2026-04-11T10:48:55Z</time></trkpt><trkpt lat="46.0355300307787" lon="11.13325376212731"><ele>211.0</ele><time>2026-04-11T10:48:56Z</time></trkpt><trkpt lat="46.035690408821914" lon="11.133278385727387"><ele>211.0</ele><time>2026-04-11T10:48:57Z</time></trkpt><trkpt lat="46.03584197094313" lon="11.133320993295218"><ele>211.0</ele><time>2026-04-11T10:48:58Z</time></trkpt><trkpt lat="46.035991950605705" lon="11.133381860300187"><ele>210.75</ele><time>2026-04-11T10:48:59Z</time></trkpt><trkpt lat="46.03612810036061" lon="11.133443034863689"><ele>210.5</ele><time>2026-04-11T10:49:00Z</time></trkpt><trkpt lat="46.03625900959246" lon="11.133501289943194"><ele>210.25</ele><time>2026-04-11T10:49:01Z</time></trkpt><trkpt lat="46.03638839582749" lon="11.133544098114358"><ele>210.0</ele><time>2026-04-11T10:49:02Z</time></trkpt><trkpt lat="46.036514568166155" lon="11.133595704778015"><ele>210.0</ele><time>2026-04-11T10:49:03Z</time></trkpt><trkpt lat="46.036628544537855" lon="11.133640409415353"><ele>210.0</ele><time>2026-04-11T10:49:04Z</time></trkpt><trkpt lat="46.03674239892025" lon="11.133672045545925"><ele>210.0</ele><time>2026-04-11T10:49:05Z</time></trkpt><trkpt lat="46.036845418201736" lon="11.133688141166816"><ele>210.0</ele><time>2026-04-11T10:49:06Z</time></trkpt><trkpt lat="46.03693758133699" lon="11.133695866291937"><ele>210.0</ele><time>2026-04-11T10:49:07Z</time></trkpt><trkpt lat="46.03700877551971" lon="11.13370654761968"><ele>210.75</ele><time>2026-04-11T10:49:08Z</time></trkpt><trkpt lat="46.03713511389012" lon="11.133759245348413"><ele>211.5</ele><time>2026-04-11T10:49:10Z</time></trkpt><trkpt lat="46.03722920139702" lon="11.13381420306575"><ele>212.25</ele><time>2026-04-11T10:49:11Z</time></trkpt><trkpt lat="46.03734498089968" lon="11.133864125699906"><ele>213.0</ele><time>2026-04-11T10:49:12Z</time></trkpt><trkpt lat="46.03746288785985" lon="11.13390917956831"><ele>213.25</ele><time>2026-04-11T10:49:13Z</time></trkpt><trkpt lat="46.0375805079065" lon="11.133971120574811"><ele>213.5</ele><time>2026-04-11T10:49:14Z</time></trkpt><trkpt lat="46.03769167356759" lon="11.134046872262536"><ele>213.75</ele><time>2026-04-11T10:49:15Z</time></trkpt><trkpt lat="46.03780126218353" lon="11.134135260465122"><ele>214.0</ele><time>2026-04-11T10:49:16Z</time></trkpt><trkpt lat="46.03791462211302" lon="11.134233763880088"><ele>215.5</ele><time>2026-04-11T10:49:17Z</time></trkpt><trkpt lat="46.03802893848309" lon="11.13431697595173"><ele>217.0</ele><time>2026-04-11T10:49:18Z</time></trkpt><trkpt lat="46.03813892423874" lon="11.13440679105343"><ele>218.5</ele><time>2026-04-11T10:49:19Z</time></trkpt><trkpt lat="46.038247743149014" lon="11.134500287418327"><ele>220.0</ele><time>2026-04-11T10:49:20Z</time></trkpt><trkpt lat="46.038350760396426" lon="11.13458062981891"><ele>221.25</ele><time>2026-04-11T10:49:21Z</time></trkpt><trkpt lat="46.0384527451892" lon="11.134668732310004"><ele>222.5</ele><time>2026-04-11T10:49:22Z</time></trkpt><trkpt lat="46.03855648077725" lon="11.134757450741699"><ele>223.75</ele><time>2026-04-11T10:49:23Z</time></trkpt><trkpt lat="46.038654994245505" lon="11.134855616963701"><ele>225.0</ele><time>2026-04-11T10:49:24Z</time></trkpt><trkpt lat="46.038752669902486" lon="11.134959134938375"><ele>226.5</ele><time>2026-04-11T10:49:25Z</time></trkpt><trkpt lat="46.03884444351469" lon="11.13507677304078"><ele>228.0</ele><time>2026-04-11T10:49:26Z</time></trkpt><trkpt lat="46.03894144332946" lon="11.135187510473237"><ele>229.5</ele><time>2026-04-11T10:49:27Z</time></trkpt><trkpt lat="46.0390423987553" lon="11.135298808428471"><ele>231.0</ele><time>2026-04-11T10:49:28Z</time></trkpt><trkpt lat="46.039140908232696" lon="11.135416039081733"><ele>231.0</ele><time>2026-04-11T10:49:29Z</time></trkpt><trkpt lat="46.039222664639894" lon="11.135520084892256"><ele>231.00000000000003</ele><time>2026-04-11T10:49:30Z</time></trkpt><trkpt lat="46.03928325517836" lon="11.135606136280598"><ele>231.00000000000003</ele><time>2026-04-11T10:49:31Z</time></trkpt><trkpt lat="46.03933229957954" lon="11.135684355438094"><ele>231.0</ele><time>2026-04-11T10:49:32Z</time></trkpt><trkpt lat="46.03937384895003" lon="11.135816676709918"><ele>231.0</ele><time>2026-04-11T10:49:33Z</time></trkpt><trkpt lat="46.03941869994864" lon="11.135949247383191"><ele>232.16666666666666</ele><time>2026-04-11T10:49:34Z</time></trkpt><trkpt lat="46.03944744043238" lon="11.136081751873743"><ele>233.33333333333331</ele><time>2026-04-11T10:49:35Z</time></trkpt><trkpt lat="46.03947668810917" lon="11.136204818885737"><ele>234.5</ele><time>2026-04-11T10:49:36Z</time></trkpt><trkpt lat="46.03949917751571" lon="11.136320449437045"><ele>235.66666666666666</ele><time>2026-04-11T10:49:37Z</time></trkpt><trkpt lat="46.03953078728343" lon="11.136437345337267"><ele>236.83333333333331</ele><time>2026-04-11T10:49:38Z</time></trkpt><trkpt lat="46.03955827614716" lon="11.13654639947848"><ele>238.0</ele><time>2026-04-11T10:49:39Z</time></trkpt><trkpt lat="46.039583134009504" lon="11.136660433232416"><ele>239.49999999999997</ele><time>2026-04-11T10:49:40Z</time></trkpt><trkpt lat="46.03960755598466" lon="11.136763381698835"><ele>241.0</ele><time>2026-04-11T10:49:41.023Z</time></trkpt><trkpt lat="46.03963796678426" lon="11.136896261979732"><ele>242.5</ele><time>2026-04-11T10:49:43.027Z</time></trkpt><trkpt lat="46.03968236503358" lon="11.13698569531132"><ele>244.0</ele><time>2026-04-11T10:49:49Z</time></trkpt><trkpt lat="46.039709015243226" lon="11.137069951972805"><ele>245.49999999999997</ele><time>2026-04-11T10:49:51Z</time></trkpt><trkpt lat="46.03973191738716" lon="11.137161074182089"><ele>247.0</ele><time>2026-04-11T10:49:52Z</time></trkpt><trkpt lat="46.03974349409889" lon="11.137260761185225"><ele>247.0</ele><time>2026-04-11T10:49:53Z</time></trkpt><trkpt lat="46.0397677143293" lon="11.137350659832556"><ele>247.0</ele><time>2026-04-11T10:49:54Z</time></trkpt><trkpt lat="46.03978325505357" lon="11.137444508314093"><ele>247.0</ele><time>2026-04-11T10:49:55Z</time></trkpt><trkpt lat="46.039785518955995" lon="11.137547120056315"><ele>247.0</ele><time>2026-04-11T10:49:56Z</time></trkpt><trkpt lat="46.03976440669192" lon="11.137637697795402"><ele>247.0</ele><time>2026-04-11T10:49:57Z</time></trkpt><trkpt lat="46.039718716636415" lon="11.1377275273293"><ele>247.0</ele><time>2026-04-11T10:49:58Z</time></trkpt><trkpt lat="46.03965243030448" lon="11.137801298741984"><ele>247.0</ele><time>2026-04-11T10:49:59Z</time></trkpt><trkpt lat="46.03957722360185" lon="11.137846731388674"><ele>248.16666666666666</ele><time>2026-04-11T10:50:00Z</time></trkpt><trkpt lat="46.039495094850594" lon="11.137849033519108"><ele>249.33333333333331</ele><time>2026-04-11T10:50:01Z</time></trkpt><trkpt lat="46.03941621570249" lon="11.137830143810344"><ele>250.5</ele><time>2026-04-11T10:50:02Z</time></trkpt><trkpt lat="46.039342732522776" lon="11.137802160857712"><ele>251.66666666666669</ele><time>2026-04-11T10:50:03Z</time></trkpt><trkpt lat="46.03927160772699" lon="11.137783124490984"><ele>252.83333333333334</ele><time>2026-04-11T10:50:04Z</time></trkpt><trkpt lat="46.03919030712925" lon="11.13775519445849"><ele>254.0</ele><time>2026-04-11T10:50:05Z</time></trkpt><trkpt lat="46.039094353853045" lon="11.137740648093718"><ele>254.2</ele><time>2026-04-11T10:50:06Z</time></trkpt><trkpt lat="46.0390058582853" lon="11.137741709273044"><ele>254.39999999999998</ele><time>2026-04-11T10:50:07Z</time></trkpt><trkpt lat="46.03890303569189" lon="11.137774797419882"><ele>254.6</ele><time>2026-04-11T10:50:08Z</time></trkpt><trkpt lat="46.03881747109745" lon="11.137859884928147"><ele>254.8</ele><time>2026-04-11T10:50:09Z</time></trkpt><trkpt lat="46.03873920840778" lon="11.137979808796496"><ele>255.0</ele><time>2026-04-11T10:50:10Z</time></trkpt><trkpt lat="46.03869385298599" lon="11.138137666769055"><ele>257.0</ele><time>2026-04-11T10:50:11Z</time></trkpt><trkpt lat="46.03868007608079" lon="11.138309712828043"><ele>259.0</ele><time>2026-04-11T10:50:12Z</time></trkpt><trkpt lat="46.038672350141184" lon="11.138487919575557"><ele>261.0</ele><time>2026-04-11T10:50:13Z</time></trkpt><trkpt lat="46.03865388527638" lon="11.13865784367999"><ele>263.0</ele><time>2026-04-11T10:50:14Z</time></trkpt><trkpt lat="46.038629807188656" lon="11.138822331073797"><ele>263.0</ele><time>2026-04-11T10:50:15Z</time></trkpt><trkpt lat="46.03861796046579" lon="11.138980112105891"><ele>263.0</ele><time>2026-04-11T10:50:16Z</time></trkpt><trkpt lat="46.0385917133941" lon="11.139156943255607"><ele>263.0</ele><time>2026-04-11T10:50:17Z</time></trkpt><trkpt lat="46.038591295898385" lon="11.13932947809792"><ele>263.0</ele><time>2026-04-11T10:50:18Z</time></trkpt><trkpt lat="46.03861740844498" lon="11.139498965961314"><ele>265.25</ele><time>2026-04-11T10:50:19Z</time></trkpt><trkpt lat="46.03866166795823" lon="11.139668589171526"><ele>267.5</ele><time>2026-04-11T10:50:20Z</time></trkpt><trkpt lat="46.038722887444024" lon="11.139817158814672"><ele>269.75</ele><time>2026-04-11T10:50:21Z</time></trkpt><trkpt lat="46.03881073942686" lon="11.139947262668805"><ele>272.0</ele><time>2026-04-11T10:50:22Z</time></trkpt><trkpt lat="46.03890781569349" lon="11.140069826491878"><ele>272.5</ele><time>2026-04-11T10:50:23Z</time></trkpt><trkpt lat="46.039008574117965" lon="11.140181792435676"><ele>273.0</ele><time>2026-04-11T10:50:23.999Z</time></trkpt><trkpt lat="46.03910617439778" lon="11.140300426670183"><ele>273.5</ele><time>2026-04-11T10:50:24.999Z</time></trkpt><trkpt lat="46.03919912665164" lon="11.140410370547404"><ele>274.0</ele><time>2026-04-11T10:50:25.999Z</time></trkpt><trkpt lat="46.039296102621776" lon="11.140525855940169"><ele>274.0</ele><time>2026-04-11T10:50:26.999Z</time></trkpt><trkpt lat="46.039393154945145" lon="11.140631648959177"><ele>274.0</ele><time>2026-04-11T10:50:27.999Z</time></trkpt><trkpt lat="46.03948595412871" lon="11.140750120981684"><ele>274.0</ele><time>2026-04-11T10:50:28.999Z</time></trkpt><trkpt lat="46.039585587635386" lon="11.140869109643218"><ele>274.0</ele><time>2026-04-11T10:50:29.999Z</time></trkpt><trkpt lat="46.039677730608375" lon="11.140976650472988"><ele>276.25</ele><time>2026-04-11T10:50:30.999Z</time></trkpt><trkpt lat="46.039765514607105" lon="11.141088085398847"><ele>278.5</ele><time>2026-04-11T10:50:31.999Z</time></trkpt><trkpt lat="46.03985110889048" lon="11.14120348518042"><ele>280.75</ele><time>2026-04-11T10:50:32.999Z</time></trkpt><trkpt lat="46.039935390499295" lon="11.141310650400767"><ele>283.0</ele><time>2026-04-11T10:50:33.999Z</time></trkpt><trkpt lat="46.04000402011563" lon="11.141434409568353"><ele>283.6</ele><time>2026-04-11T10:50:34.999Z</time></trkpt><trkpt lat="46.04005179158063" lon="11.141590136606597"><ele>284.20000000000005</ele><time>2026-04-11T10:50:35.999Z</time></trkpt><trkpt lat="46.04008135474133" lon="11.141735405117988"><ele>284.8</ele><time>2026-04-11T10:50:36.999Z</time></trkpt><trkpt lat="46.04012202041379" lon="11.14185894929226"><ele>285.40000000000003</ele><time>2026-04-11T10:50:37.999Z</time></trkpt><trkpt lat="46.0401776117678" lon="11.141943488107449"><ele>286.0</ele><time>2026-04-11T10:50:38.999Z</time></trkpt><trkpt lat="46.04023761188082" lon="11.141996586274539"><ele>286.0</ele><time>2026-04-11T10:50:39.999Z</time></trkpt><trkpt lat="46.0403519750881" lon="11.142057926553907"><ele>286.0</ele><time>2026-04-11T10:50:41.999Z</time></trkpt><trkpt lat="46.04045306497393" lon="11.14207942804349"><ele>286.0</ele><time>2026-04-11T10:50:42.999Z</time></trkpt><trkpt lat="46.04055702670117" lon="11.142079496651684"><ele>286.0</ele><time>2026-04-11T10:50:43.999Z</time></trkpt><trkpt lat="46.04065536941919" lon="11.142066525312803"><ele>286.0</ele><time>2026-04-11T10:50:44.999Z</time></trkpt><trkpt lat="46.040754787653704" lon="11.142043451786472"><ele>286.0</ele><time>2026-04-11T10:50:45.999Z</time></trkpt><trkpt lat="46.040856347057" lon="11.14199932006781"><ele>286.0</ele><time>2026-04-11T10:50:46.999Z</time></trkpt><trkpt lat="46.04095418703739" lon="11.141923593612088"><ele>286.0</ele><time>2026-04-11T10:50:47.999Z</time></trkpt><trkpt lat="46.04106344647394" lon="11.141856038566893"><ele>286.0</ele><time>2026-04-11T10:50:48.999Z</time></trkpt><trkpt lat="46.041169754981645" lon="11.141769679213889"><ele>286.0</ele><time>2026-04-11T10:50:49.999Z</time></trkpt><trkpt lat="46.04126793786741" lon="11.141683674575905"><ele>286.0</ele><time>2026-04-11T10:50:50.999Z</time></trkpt><trkpt lat="46.041363187250504" lon="11.141607004629156"><ele>286.0</ele><time>2026-04-11T10:50:51.999Z</time></trkpt><trkpt lat="46.04147305115441" lon="11.14155711384527"><ele>286.0</ele><time>2026-04-11T10:50:52.999Z</time></trkpt><trkpt lat="46.0415633661428" lon="11.141519151695329"><ele>286.0</ele><time>2026-04-11T10:50:53.999Z</time></trkpt><trkpt lat="46.04165244967938" lon="11.141496257406576"><ele>286.3333333333333</ele><time>2026-04-11T10:50:54.999Z</time></trkpt><trkpt lat="46.04173904533095" lon="11.141486880919162"><ele>286.66666666666663</ele><time>2026-04-11T10:50:55.999Z</time></trkpt><trkpt lat="46.041815070795096" lon="11.14149430149942"><ele>287.0</ele><time>2026-04-11T10:50:57Z</time></trkpt><trkpt lat="46.04190880342736" lon="11.141509926697054"><ele>287.3333333333333</ele><time>2026-04-11T10:50:59Z</time></trkpt><trkpt lat="46.04199512607612" lon="11.141566542597928"><ele>287.6666666666667</ele><time>2026-04-11T10:51:01Z</time></trkpt><trkpt lat="46.04205135724729" lon="11.141624625930033"><ele>288.0</ele><time>2026-04-11T10:51:03Z</time></trkpt><trkpt lat="46.04212265792138" lon="11.141647982953632"><ele>287.25</ele><time>2026-04-11T10:51:05Z</time></trkpt><trkpt lat="46.042235357343465" lon="11.141443649546435"><ele>286.5</ele><time>2026-04-11T10:51:06Z</time></trkpt><trkpt lat="46.04230557941127" lon="11.14128820929892"><ele>285.75</ele><time>2026-04-11T10:51:07Z</time></trkpt><trkpt lat="46.04238679485996" lon="11.141126798720311"><ele>285.0</ele><time>2026-04-11T10:51:08Z</time></trkpt><trkpt lat="46.042465850396944" lon="11.140967781353492"><ele>285.0</ele><time>2026-04-11T10:51:09Z</time></trkpt><trkpt lat="46.042545552413436" lon="11.140800432353187"><ele>285.0</ele><time>2026-04-11T10:51:10Z</time></trkpt><trkpt lat="46.04262719119733" lon="11.140636106337523"><ele>285.0</ele><time>2026-04-11T10:51:11Z</time></trkpt><trkpt lat="46.04271685090675" lon="11.1404855000559"><ele>285.0</ele><time>2026-04-11T10:51:12Z</time></trkpt><trkpt lat="46.0428363773611" lon="11.140382272516476"><ele>284.0</ele><time>2026-04-11T10:51:13Z</time></trkpt><trkpt lat="46.042954311421575" lon="11.140284231770961"><ele>283.0</ele><time>2026-04-11T10:51:14Z</time></trkpt><trkpt lat="46.04307855879075" lon="11.140183356698415"><ele>282.0</ele><time>2026-04-11T10:51:15Z</time></trkpt><trkpt lat="46.04320037215311" lon="11.140115697193474"><ele>281.0</ele><time>2026-04-11T10:51:16Z</time></trkpt><trkpt lat="46.043306144853034" lon="11.140032460533199"><ele>281.0</ele><time>2026-04-11T10:51:17Z</time></trkpt><trkpt lat="46.043384333724845" lon="11.139916597366147"><ele>281.0</ele><time>2026-04-11T10:51:18Z</time></trkpt><trkpt lat="46.04344951820783" lon="11.139821638694492"><ele>281.0</ele><time>2026-04-11T10:51:19Z</time></trkpt><trkpt lat="46.043500521489094" lon="11.139724807550868"><ele>281.0</ele><time>2026-04-11T10:51:20Z</time></trkpt><trkpt lat="46.043563849805096" lon="11.139688915131051"><ele>281.0</ele><time>2026-04-11T10:51:21Z</time></trkpt><trkpt lat="46.04362999895185" lon="11.139700664911192"><ele>281.0</ele><time>2026-04-11T10:51:22Z</time></trkpt><trkpt lat="46.04369120229385" lon="11.139765918916451"><ele>281.0</ele><time>2026-04-11T10:51:23Z</time></trkpt><trkpt lat="46.0437257350789" lon="11.139892795518616"><ele>281.0</ele><time>2026-04-11T10:51:24Z</time></trkpt><trkpt lat="46.04374198319913" lon="11.140067173717602"><ele>281.0</ele><time>2026-04-11T10:51:25Z</time></trkpt><trkpt lat="46.04377976833098" lon="11.140243693688301"><ele>281.0</ele><time>2026-04-11T10:51:26Z</time></trkpt><trkpt lat="46.043843855399686" lon="11.140423607857944"><ele>281.0</ele><time>2026-04-11T10:51:27Z</time></trkpt><trkpt lat="46.04393557259957" lon="11.140597511927018"><ele>281.0</ele><time>2026-04-11T10:51:28Z</time></trkpt><trkpt lat="46.04404953842276" lon="11.140765567436386"><ele>281.0</ele><time>2026-04-11T10:51:29Z</time></trkpt><trkpt lat="46.044195018525954" lon="11.14087889074514"><ele>283.6666666666667</ele><time>2026-04-11T10:51:30Z</time></trkpt><trkpt lat="46.04435479917986" lon="11.140955875823698"><ele>286.3333333333333</ele><time>2026-04-11T10:51:31Z</time></trkpt><trkpt lat="46.04452709538534" lon="11.140989367999627"><ele>289.0</ele><time>2026-04-11T10:51:32Z</time></trkpt><trkpt lat="46.04470311271784" lon="11.140993532378507"><ele>289.0</ele><time>2026-04-11T10:51:33Z</time></trkpt><trkpt lat="46.04487497908063" lon="11.141016468988713"><ele>289.0</ele><time>2026-04-11T10:51:34Z</time></trkpt><trkpt lat="46.04505739848261" lon="11.141071036411047"><ele>289.0</ele><time>2026-04-11T10:51:35Z</time></trkpt><trkpt lat="46.045234870107926" lon="11.141139596499091"><ele>289.0</ele><time>2026-04-11T10:51:36Z</time></trkpt><trkpt lat="46.045410347169174" lon="11.14120734108364"><ele>289.0</ele><time>2026-04-11T10:51:37Z</time></trkpt><trkpt lat="46.045583681201975" lon="11.141293880373473"><ele>289.0</ele><time>2026-04-11T10:51:38Z</time></trkpt><trkpt lat="46.045754717634104" lon="11.141399741445513"><ele>289.66666666666663</ele><time>2026-04-11T10:51:39Z</time></trkpt><trkpt lat="46.04591768373181" lon="11.141520876936985"><ele>290.3333333333333</ele><time>2026-04-11T10:51:40Z</time></trkpt><trkpt lat="46.04608234428634" lon="11.141652587585066"><ele>291.0</ele><time>2026-04-11T10:51:41Z</time></trkpt><trkpt lat="46.046230336237606" lon="11.14179933578695"><ele>294.0</ele><time>2026-04-11T10:51:42Z</time></trkpt><trkpt lat="46.046388857840945" lon="11.141917764213895"><ele>297.0</ele><time>2026-04-11T10:51:43Z</time></trkpt><trkpt lat="46.04654484401198" lon="11.142012869276638"><ele>300.0</ele><time>2026-04-11T10:51:44Z</time></trkpt><trkpt lat="46.046717086891846" lon="11.142073822851337"><ele>301.6666666666667</ele><time>2026-04-11T10:51:45Z</time></trkpt><trkpt lat="46.0468884064182" lon="11.142132173203425"><ele>303.33333333333337</ele><time>2026-04-11T10:51:46Z</time></trkpt><trkpt lat="46.047060570887126" lon="11.142199523718164"><ele>305.0</ele><time>2026-04-11T10:51:47Z</time></trkpt><trkpt lat="46.04722650257736" lon="11.14227643041959"><ele>305.0</ele><time>2026-04-11T10:51:48Z</time></trkpt><trkpt lat="46.047385576189406" lon="11.142366791927786"><ele>305.0</ele><time>2026-04-11T10:51:49Z</time></trkpt><trkpt lat="46.04753952658883" lon="11.142479399947257"><ele>305.0</ele><time>2026-04-11T10:51:50Z</time></trkpt><trkpt lat="46.04767893543292" lon="11.142633941480469"><ele>308.6666666666667</ele><time>2026-04-11T10:51:51Z</time></trkpt><trkpt lat="46.0478039857348" lon="11.142807717477146"><ele>312.3333333333333</ele><time>2026-04-11T10:51:52Z</time></trkpt><trkpt lat="46.047921344259386" lon="11.142987007990252"><ele>316.0</ele><time>2026-04-11T10:51:53Z</time></trkpt><trkpt lat="46.048040590893315" lon="11.143167480601942"><ele>318.66666666666663</ele><time>2026-04-11T10:51:54Z</time></trkpt><trkpt lat="46.04816281464411" lon="11.143333018219641"><ele>321.3333333333333</ele><time>2026-04-11T10:51:55Z</time></trkpt><trkpt lat="46.04829860287779" lon="11.143469147683936"><ele>324.0</ele><time>2026-04-11T10:51:56Z</time></trkpt><trkpt lat="46.048444470968484" lon="11.14358815584153"><ele>324.0</ele><time>2026-04-11T10:51:57Z</time></trkpt><trkpt lat="46.048608163555016" lon="11.143664634127092"><ele>324.0</ele><time>2026-04-11T10:51:58Z</time></trkpt><trkpt lat="46.04878427344789" lon="11.143724054055381"><ele>324.0</ele><time>2026-04-11T10:51:59Z</time></trkpt><trkpt lat="46.048954984832676" lon="11.143774279570945"><ele>324.0</ele><time>2026-04-11T10:52:00Z</time></trkpt><trkpt lat="46.04911581884011" lon="11.14382961677204"><ele>324.0</ele><time>2026-04-11T10:52:01Z</time></trkpt><trkpt lat="46.049269616818194" lon="11.143887925657587"><ele>324.0</ele><time>2026-04-11T10:52:02Z</time></trkpt><trkpt lat="46.04940480345554" lon="11.14394691303677"><ele>325.4</ele><time>2026-04-11T10:52:03Z</time></trkpt><trkpt lat="46.049511003736825" lon="11.14400931055684"><ele>326.79999999999995</ele><time>2026-04-11T10:52:04Z</time></trkpt><trkpt lat="46.04958697361844" lon="11.144090111407685"><ele>328.20000000000005</ele><time>2026-04-11T10:52:05Z</time></trkpt><trkpt lat="46.04964797560829" lon="11.144200580165114"><ele>329.6</ele><time>2026-04-11T10:52:06Z</time></trkpt><trkpt lat="46.04968477014255" lon="11.144298515684511"><ele>331.0</ele><time>2026-04-11T10:52:07Z</time></trkpt><trkpt lat="46.049766124698806" lon="11.144417900052927"><ele>332.0</ele><time>2026-04-11T10:52:09Z</time></trkpt><trkpt lat="46.04984603099448" lon="11.144405875162178"><ele>333.0</ele><time>2026-04-11T10:52:10Z</time></trkpt><trkpt lat="46.049944819839624" lon="11.144347430384908"><ele>334.0</ele><time>2026-04-11T10:52:11Z</time></trkpt><trkpt lat="46.05004609663867" lon="11.144340258260714"><ele>335.0</ele><time>2026-04-11T10:52:12Z</time></trkpt><trkpt lat="46.05015493732333" lon="11.14439552364092"><ele>336.0</ele><time>2026-04-11T10:52:13Z</time></trkpt><trkpt lat="46.05029474013672" lon="11.144475351814338"><ele>338.0</ele><time>2026-04-11T10:52:14Z</time></trkpt><trkpt lat="46.05044548336874" lon="11.144534005947298"><ele>340.0</ele><time>2026-04-11T10:52:15Z</time></trkpt><trkpt lat="46.0506198376088" lon="11.144620207598216"><ele>342.0</ele><time>2026-04-11T10:52:16Z</time></trkpt><trkpt lat="46.050767308038104" lon="11.14472673330342"><ele>342.0</ele><time>2026-04-11T10:52:17Z</time></trkpt><trkpt lat="46.05091330759188" lon="11.144860273830162"><ele>342.0</ele><time>2026-04-11T10:52:17.999Z</time></trkpt><trkpt lat="46.05105436710371" lon="11.145012223917865"><ele>342.0</ele><time>2026-04-11T10:52:18.999Z</time></trkpt><trkpt lat="46.05118661606891" lon="11.145177932516109"><ele>343.0</ele><time>2026-04-11T10:52:19.999Z</time></trkpt><trkpt lat="46.051309665953056" lon="11.145359439719053"><ele>344.0</ele><time>2026-04-11T10:52:20.999Z</time></trkpt><trkpt lat="46.05143148327175" lon="11.145547466168965"><ele>345.0</ele><time>2026-04-11T10:52:21.999Z</time></trkpt><trkpt lat="46.051551429157016" lon="11.145734233917945"><ele>343.6666666666667</ele><time>2026-04-11T10:52:22.999Z</time></trkpt><trkpt lat="46.05167422025623" lon="11.145921169587075"><ele>342.33333333333337</ele><time>2026-04-11T10:52:23.999Z</time></trkpt><trkpt lat="46.05179354709775" lon="11.14611043358611"><ele>341.0</ele><time>2026-04-11T10:52:24.999Z</time></trkpt><trkpt lat="46.051915309125704" lon="11.146299630455689"><ele>341.0</ele><time>2026-04-11T10:52:25.999Z</time></trkpt><trkpt lat="46.052038270824546" lon="11.14648222244364"><ele>341.0</ele><time>2026-04-11T10:52:26.999Z</time></trkpt><trkpt lat="46.05215724655184" lon="11.146668072177144"><ele>341.0</ele><time>2026-04-11T10:52:27.999Z</time></trkpt><trkpt lat="46.0522755106242" lon="11.146863175091559"><ele>342.0</ele><time>2026-04-11T10:52:28.999Z</time></trkpt><trkpt lat="46.05239861495164" lon="11.147054792094599"><ele>343.0</ele><time>2026-04-11T10:52:29.999Z</time></trkpt><trkpt lat="46.052528469765434" lon="11.147240942046784"><ele>344.0</ele><time>2026-04-11T10:52:30.999Z</time></trkpt><trkpt lat="46.05265386588084" lon="11.147437540148495"><ele>346.33333333333337</ele><time>2026-04-11T10:52:31.999Z</time></trkpt><trkpt lat="46.05277998697116" lon="11.147638810228392"><ele>348.6666666666667</ele><time>2026-04-11T10:52:32.999Z</time></trkpt><trkpt lat="46.052903088014865" lon="11.1478393670332"><ele>351.0</ele><time>2026-04-11T10:52:33.999Z</time></trkpt><trkpt lat="46.053029688956535" lon="11.148037483118282"><ele>351.6666666666667</ele><time>2026-04-11T10:52:34.999Z</time></trkpt><trkpt lat="46.053168184676814" lon="11.148214711805805"><ele>352.33333333333337</ele><time>2026-04-11T10:52:35.999Z</time></trkpt><trkpt lat="46.05331797463991" lon="11.148371269503684"><ele>353.0</ele><time>2026-04-11T10:52:36.999Z</time></trkpt><trkpt lat="46.05348129348903" lon="11.148502021979832"><ele>353.0</ele><time>2026-04-11T10:52:37.999Z</time></trkpt><trkpt lat="46.05365141481988" lon="11.148606990063298"><ele>353.0</ele><time>2026-04-11T10:52:38.999Z</time></trkpt><trkpt lat="46.05382919449632" lon="11.148693397703015"><ele>353.0</ele><time>2026-04-11T10:52:39.999Z</time></trkpt><trkpt lat="46.05401296275293" lon="11.148759125238282"><ele>352.33333333333337</ele><time>2026-04-11T10:52:40.999Z</time></trkpt><trkpt lat="46.05420184522583" lon="11.148789501971693"><ele>351.6666666666667</ele><time>2026-04-11T10:52:41.999Z</time></trkpt><trkpt lat="46.0543910117755" lon="11.148806289348562"><ele>351.0</ele><time>2026-04-11T10:52:42.999Z</time></trkpt><trkpt lat="46.05457924775812" lon="11.148837040442563"><ele>351.0</ele><time>2026-04-11T10:52:43.999Z</time></trkpt><trkpt lat="46.05477287391695" lon="11.148877004905371"><ele>351.0</ele><time>2026-04-11T10:52:44.999Z</time></trkpt><trkpt lat="46.05496207533201" lon="11.148913330539788"><ele>351.0</ele><time>2026-04-11T10:52:45.999Z</time></trkpt><trkpt lat="46.055156465863675" lon="11.148925456055126"><ele>351.6666666666667</ele><time>2026-04-11T10:52:46.999Z</time></trkpt><trkpt lat="46.0553448426118" lon="11.148948212225362"><ele>352.33333333333337</ele><time>2026-04-11T10:52:47.999Z</time></trkpt><trkpt lat="46.055532797910324" lon="11.148974216416315"><ele>353.0</ele><time>2026-04-11T10:52:48.999Z</time></trkpt><trkpt lat="46.05571799278686" lon="11.149002230793537"><ele>354.0</ele><time>2026-04-11T10:52:49.999Z</time></trkpt><trkpt lat="46.05590268030434" lon="11.149026289066073"><ele>355.0</ele><time>2026-04-11T10:52:50.999Z</time></trkpt><trkpt lat="46.056080414171795" lon="11.149053289873617"><ele>356.0</ele><time>2026-04-11T10:52:51.999Z</time></trkpt><trkpt lat="46.05626807784662" lon="11.149077353989158"><ele>355.6666666666667</ele><time>2026-04-11T10:52:52.999Z</time></trkpt><trkpt lat="46.05644545717148" lon="11.149114818870675"><ele>355.3333333333333</ele><time>2026-04-11T10:52:53.999Z</time></trkpt><trkpt lat="46.05662562955846" lon="11.14915789723812"><ele>355.0</ele><time>2026-04-11T10:52:54.999Z</time></trkpt><trkpt lat="46.0568038510733" lon="11.149220630833593"><ele>355.0</ele><time>2026-04-11T10:52:55.999Z</time></trkpt><trkpt lat="46.05697792938169" lon="11.149287396938709"><ele>355.0</ele><time>2026-04-11T10:52:56.999Z</time></trkpt><trkpt lat="46.057162922583565" lon="11.149369011253935"><ele>355.0</ele><time>2026-04-11T10:52:57.999Z</time></trkpt><trkpt lat="46.057335362715456" lon="11.149476147556577"><ele>355.66666666666663</ele><time>2026-04-11T10:52:58.999Z</time></trkpt><trkpt lat="46.05750747203577" lon="11.149587419479753"><ele>356.3333333333333</ele><time>2026-04-11T10:52:59.999Z</time></trkpt><trkpt lat="46.05767660685861" lon="11.149697283986429"><ele>357.0</ele><time>2026-04-11T10:53:00.999Z</time></trkpt><trkpt lat="46.05785338919832" lon="11.149805165135398"><ele>357.3333333333333</ele><time>2026-04-11T10:53:01.999Z</time></trkpt><trkpt lat="46.05803239931972" lon="11.149909822898527"><ele>357.66666666666663</ele><time>2026-04-11T10:53:03Z</time></trkpt><trkpt lat="46.05820446870506" lon="11.150026746922387"><ele>358.0</ele><time>2026-04-11T10:53:04Z</time></trkpt><trkpt lat="46.05837905827105" lon="11.15013527287632"><ele>358.0</ele><time>2026-04-11T10:53:05Z</time></trkpt><trkpt lat="46.058553307644054" lon="11.15024118037829"><ele>358.0</ele><time>2026-04-11T10:53:06Z</time></trkpt><trkpt lat="46.05872952064238" lon="11.150335512699428"><ele>358.0</ele><time>2026-04-11T10:53:07Z</time></trkpt><trkpt lat="46.058912958871865" lon="11.150397137422758"><ele>358.0</ele><time>2026-04-11T10:53:08Z</time></trkpt><trkpt lat="46.05909116740896" lon="11.150435618435406"><ele>358.0</ele><time>2026-04-11T10:53:09Z</time></trkpt><trkpt lat="46.05927740870212" lon="11.150443682758912"><ele>358.0</ele><time>2026-04-11T10:53:10Z</time></trkpt><trkpt lat="46.059456952050596" lon="11.150451295618229"><ele>356.3333333333333</ele><time>2026-04-11T10:53:11Z</time></trkpt><trkpt lat="46.059630378262774" lon="11.15046492660502"><ele>354.6666666666667</ele><time>2026-04-11T10:53:12Z</time></trkpt><trkpt lat="46.059794446019524" lon="11.150471170505872"><ele>353.0</ele><time>2026-04-11T10:53:13Z</time></trkpt><trkpt lat="46.05993906990018" lon="11.150474695641853"><ele>354.75</ele><time>2026-04-11T10:53:14Z</time></trkpt><trkpt lat="46.06006191962861" lon="11.150473104945716"><ele>356.5</ele><time>2026-04-11T10:53:15Z</time></trkpt><trkpt lat="46.06018289019726" lon="11.150475099667197"><ele>358.25</ele><time>2026-04-11T10:53:16Z</time></trkpt><trkpt lat="46.060305208048206" lon="11.15047978346052"><ele>360.0</ele><time>2026-04-11T10:53:17Z</time></trkpt><trkpt lat="46.06043477476078" lon="11.150489973771272"><ele>360.0</ele><time>2026-04-11T10:53:18Z</time></trkpt><trkpt lat="46.06058200410494" lon="11.150489784706892"><ele>360.0</ele><time>2026-04-11T10:53:19Z</time></trkpt><trkpt lat="46.06072907924357" lon="11.150504945080156"><ele>360.0</ele><time>2026-04-11T10:53:20Z</time></trkpt><trkpt lat="46.06088209382831" lon="11.150522644677311"><ele>360.0</ele><time>2026-04-11T10:53:21Z</time></trkpt><trkpt lat="46.0610158518396" lon="11.15053213767118"><ele>361.4</ele><time>2026-04-11T10:53:22Z</time></trkpt><trkpt lat="46.061132294031935" lon="11.15053896469994"><ele>362.8</ele><time>2026-04-11T10:53:23Z</time></trkpt><trkpt lat="46.061222590982105" lon="11.150554340604298"><ele>364.20000000000005</ele><time>2026-04-11T10:53:24Z</time></trkpt><trkpt lat="46.06131952926215" lon="11.15055477893198"><ele>365.6</ele><time>2026-04-11T10:53:25Z</time></trkpt><trkpt lat="46.06139430250902" lon="11.150549363603366"><ele>367.0</ele><time>2026-04-11T10:53:26Z</time></trkpt><trkpt lat="46.06152072387963" lon="11.150574754316429"><ele>369.0</ele><time>2026-04-11T10:53:28Z</time></trkpt><trkpt lat="46.06162951895067" lon="11.150576931202362"><ele>371.0</ele><time>2026-04-11T10:53:30Z</time></trkpt><trkpt lat="46.06171077129545" lon="11.150560731240278"><ele>373.0</ele><time>2026-04-11T10:53:31Z</time></trkpt><trkpt lat="46.061837533881715" lon="11.150529786094204"><ele>375.0</ele><time>2026-04-11T10:53:32Z</time></trkpt><trkpt lat="46.06199005519549" lon="11.150482197565456"><ele>375.0</ele><time>2026-04-11T10:53:33Z</time></trkpt><trkpt lat="46.0621618545646" lon="11.150403618600167"><ele>375.0</ele><time>2026-04-11T10:53:34Z</time></trkpt><trkpt lat="46.06234849024181" lon="11.15033169454061"><ele>375.0</ele><time>2026-04-11T10:53:35Z</time></trkpt><trkpt lat="46.06254916881844" lon="11.15026852496375"><ele>374.6666666666667</ele><time>2026-04-11T10:53:36Z</time></trkpt><trkpt lat="46.06274438978089" lon="11.150221731683702"><ele>374.33333333333337</ele><time>2026-04-11T10:53:37Z</time></trkpt><trkpt lat="46.06291382272341" lon="11.15019830796531"><ele>374.0</ele><time>2026-04-11T10:53:38Z</time></trkpt><trkpt lat="46.06307910608799" lon="11.150214394693473"><ele>374.0</ele><time>2026-04-11T10:53:39Z</time></trkpt><trkpt lat="46.06322273166795" lon="11.150215175403913"><ele>374.0</ele><time>2026-04-11T10:53:40Z</time></trkpt><trkpt lat="46.063347855189235" lon="11.15020790247545"><ele>374.0</ele><time>2026-04-11T10:53:41Z</time></trkpt><trkpt lat="46.063453647109434" lon="11.15020768114835"><ele>374.0</ele><time>2026-04-11T10:53:42Z</time></trkpt><trkpt lat="46.063546474482486" lon="11.15021742308957"><ele>374.79999999999995</ele><time>2026-04-11T10:53:43Z</time></trkpt><trkpt lat="46.06362985166836" lon="11.150247897581453"><ele>375.59999999999997</ele><time>2026-04-11T10:53:44Z</time></trkpt><trkpt lat="46.06370433168348" lon="11.150298409021893"><ele>376.4</ele><time>2026-04-11T10:53:45Z</time></trkpt><trkpt lat="46.06378796924518" lon="11.150326292463303"><ele>377.2</ele><time>2026-04-11T10:53:46Z</time></trkpt><trkpt lat="46.06388723755855" lon="11.150281675293629"><ele>378.0</ele><time>2026-04-11T10:53:47Z</time></trkpt><trkpt lat="46.063978049846796" lon="11.150169231570198"><ele>379.3333333333333</ele><time>2026-04-11T10:53:48Z</time></trkpt><trkpt lat="46.06413832529076" lon="11.150251988758297"><ele>380.66666666666663</ele><time>2026-04-11T10:53:49Z</time></trkpt><trkpt lat="46.064286031132106" lon="11.150302103244885"><ele>382.0</ele><time>2026-04-11T10:53:50Z</time></trkpt><trkpt lat="46.06443812796404" lon="11.15031970933525"><ele>382.0</ele><time>2026-04-11T10:53:51Z</time></trkpt><trkpt lat="46.0645968367369" lon="11.150353839412567"><ele>382.0</ele><time>2026-04-11T10:53:52Z</time></trkpt><trkpt lat="46.064758365943256" lon="11.150384488307067"><ele>382.0</ele><time>2026-04-11T10:53:53Z</time></trkpt><trkpt lat="46.064922002474056" lon="11.150415123679549"><ele>381.66666666666663</ele><time>2026-04-11T10:53:54Z</time></trkpt><trkpt lat="46.065084149209184" lon="11.150435723312205"><ele>381.3333333333333</ele><time>2026-04-11T10:53:55Z</time></trkpt><trkpt lat="46.06523567246959" lon="11.15045506007362"><ele>381.0</ele><time>2026-04-11T10:53:56Z</time></trkpt><trkpt lat="46.06538996894927" lon="11.150432550345029"><ele>381.0</ele><time>2026-04-11T10:53:57Z</time></trkpt><trkpt lat="46.06554768997791" lon="11.150414237122819"><ele>381.0</ele><time>2026-04-11T10:53:58Z</time></trkpt><trkpt lat="46.06570512827033" lon="11.150400178294348"><ele>381.0</ele><time>2026-04-11T10:53:59Z</time></trkpt><trkpt lat="46.06586580924638" lon="11.150389952399543"><ele>380.0</ele><time>2026-04-11T10:54:00Z</time></trkpt><trkpt lat="46.06602616329684" lon="11.150404189389084"><ele>379.0</ele><time>2026-04-11T10:54:01Z</time></trkpt><trkpt lat="46.06617939282037" lon="11.150449027492511"><ele>378.0</ele><time>2026-04-11T10:54:02Z</time></trkpt><trkpt lat="46.066334407591" lon="11.150504318438504"><ele>378.0</ele><time>2026-04-11T10:54:03Z</time></trkpt><trkpt lat="46.06648595881764" lon="11.150521795055479"><ele>378.0</ele><time>2026-04-11T10:54:04Z</time></trkpt><trkpt lat="46.066634716289556" lon="11.15051408424848"><ele>378.0</ele><time>2026-04-11T10:54:05Z</time></trkpt><trkpt lat="46.06677269580403" lon="11.150515657628585"><ele>378.0</ele><time>2026-04-11T10:54:06Z</time></trkpt><trkpt lat="46.066927492074434" lon="11.150519259649911"><ele>376.3333333333333</ele><time>2026-04-11T10:54:07Z</time></trkpt><trkpt lat="46.06707886417952" lon="11.150518393113652"><ele>374.66666666666663</ele><time>2026-04-11T10:54:08Z</time></trkpt><trkpt lat="46.067229337858336" lon="11.150531003752388"><ele>373.0</ele><time>2026-04-11T10:54:09Z</time></trkpt><trkpt lat="46.06738899045626" lon="11.150532986815712"><ele>373.0</ele><time>2026-04-11T10:54:10Z</time></trkpt><trkpt lat="46.06754931467588" lon="11.150529822564557"><ele>373.0</ele><time>2026-04-11T10:54:11Z</time></trkpt><trkpt lat="46.06771315818557" lon="11.150543117813514"><ele>373.0</ele><time>2026-04-11T10:54:12Z</time></trkpt><trkpt lat="46.067870280498155" lon="11.150562342280358"><ele>373.0</ele><time>2026-04-11T10:54:13Z</time></trkpt><trkpt lat="46.06801989491708" lon="11.150580119812698"><ele>373.0</ele><time>2026-04-11T10:54:14Z</time></trkpt><trkpt lat="46.06815361307369" lon="11.150592386289306"><ele>373.0</ele><time>2026-04-11T10:54:15Z</time></trkpt><trkpt lat="46.06827941498122" lon="11.150602453187764"><ele>373.0</ele><time>2026-04-11T10:54:16Z</time></trkpt><trkpt lat="46.06837932865565" lon="11.150633538794443"><ele>374.5</ele><time>2026-04-11T10:54:17Z</time></trkpt><trkpt lat="46.06843176892752" lon="11.150714480500746"><ele>376.0</ele><time>2026-04-11T10:54:18Z</time></trkpt><trkpt lat="46.06845303983959" lon="11.15081253632326"><ele>377.5</ele><time>2026-04-11T10:54:19Z</time></trkpt><trkpt lat="46.06851651682886" lon="11.150944389674352"><ele>379.0</ele><time>2026-04-11T10:54:21Z</time></trkpt><trkpt lat="46.06858571333138" lon="11.1509415239261"><ele>380.5</ele><time>2026-04-11T10:54:22Z</time></trkpt><trkpt lat="46.06864854968249" lon="11.15086338453253"><ele>382.0</ele><time>2026-04-11T10:54:22.999Z</time></trkpt><trkpt lat="46.06869045441877" lon="11.150747921011469"><ele>379.6</ele><time>2026-04-11T10:54:23.999Z</time></trkpt><trkpt lat="46.06873868740154" lon="11.150658839997316"><ele>377.20000000000005</ele><time>2026-04-11T10:54:24.999Z</time></trkpt><trkpt lat="46.06881748854694" lon="11.150612897297599"><ele>374.8</ele><time>2026-04-11T10:54:25.999Z</time></trkpt><trkpt lat="46.068937406021405" lon="11.150588674649097"><ele>372.4</ele><time>2026-04-11T10:54:26.999Z</time></trkpt><trkpt lat="46.0690785267621" lon="11.150563825764083"><ele>370.0</ele><time>2026-04-11T10:54:27.999Z</time></trkpt><trkpt lat="46.069229754049964" lon="11.150524070073061"><ele>370.0</ele><time>2026-04-11T10:54:28.999Z</time></trkpt><trkpt lat="46.06939048636358" lon="11.150490089556085"><ele>370.0</ele><time>2026-04-11T10:54:29.999Z</time></trkpt><trkpt lat="46.06954902103599" lon="11.15045667481023"><ele>370.0</ele><time>2026-04-11T10:54:30.999Z</time></trkpt><trkpt lat="46.06970509645143" lon="11.150425316624002"><ele>370.0</ele><time>2026-04-11T10:54:31.999Z</time></trkpt><trkpt lat="46.06986312687546" lon="11.150419952944986"><ele>370.0</ele><time>2026-04-11T10:54:32.999Z</time></trkpt><trkpt lat="46.070003354407156" lon="11.150425332149112"><ele>370.0</ele><time>2026-04-11T10:54:33.999Z</time></trkpt><trkpt lat="46.0701307068671" lon="11.150466507125207"><ele>370.0</ele><time>2026-04-11T10:54:34.999Z</time></trkpt><trkpt lat="46.0702456889832" lon="11.15056129885344"><ele>368.3333333333333</ele><time>2026-04-11T10:54:35.999Z</time></trkpt><trkpt lat="46.07033347468075" lon="11.150649700737324"><ele>366.66666666666663</ele><time>2026-04-11T10:54:36.999Z</time></trkpt><trkpt lat="46.07041335469913" lon="11.150675679999136"><ele>365.0</ele><time>2026-04-11T10:54:37.999Z</time></trkpt><trkpt lat="46.07048802794343" lon="11.150729035862122"><ele>363.3333333333333</ele><time>2026-04-11T10:54:38.999Z</time></trkpt><trkpt lat="46.0705601803753" lon="11.150773553313666"><ele>361.6666666666667</ele><time>2026-04-11T10:54:39.999Z</time></trkpt><trkpt lat="46.07064959973733" lon="11.150819095444708"><ele>360.0</ele><time>2026-04-11T10:54:40.999Z</time></trkpt><trkpt lat="46.0707334100183" lon="11.150899901642848"><ele>359.0</ele><time>2026-04-11T10:54:41.999Z</time></trkpt><trkpt lat="46.07081583459571" lon="11.151013617230008"><ele>358.0</ele><time>2026-04-11T10:54:42.999Z</time></trkpt><trkpt lat="46.07088586762873" lon="11.151160129448787"><ele>357.0</ele><time>2026-04-11T10:54:43.999Z</time></trkpt><trkpt lat="46.070956123463624" lon="11.151310832585807"><ele>356.0</ele><time>2026-04-11T10:54:44.999Z</time></trkpt><trkpt lat="46.07102492670777" lon="11.15144894874076"><ele>360.6</ele><time>2026-04-11T10:54:45.999Z</time></trkpt><trkpt lat="46.071092388437016" lon="11.15157933387084"><ele>365.20000000000005</ele><time>2026-04-11T10:54:46.999Z</time></trkpt><trkpt lat="46.071160305935194" lon="11.15168789124434"><ele>369.79999999999995</ele><time>2026-04-11T10:54:47.999Z</time></trkpt><trkpt lat="46.07121695600143" lon="11.15179097488728"><ele>374.4</ele><time>2026-04-11T10:54:48.999Z</time></trkpt><trkpt lat="46.071250317907214" lon="11.151869339121397"><ele>379.0</ele><time>2026-04-11T10:54:49.999Z</time></trkpt><trkpt lat="46.07130781560532" lon="11.151986378249521"><ele>379.0</ele><time>2026-04-11T10:54:51.999Z</time></trkpt><trkpt lat="46.071342670187875" lon="11.152071107365733"><ele>379.0</ele><time>2026-04-11T10:54:52.999Z</time></trkpt><trkpt lat="46.07139708685246" lon="11.152182754004523"><ele>379.0</ele><time>2026-04-11T10:54:53.999Z</time></trkpt><trkpt lat="46.07145860672944" lon="11.15231458315863"><ele>379.0</ele><time>2026-04-11T10:54:54.999Z</time></trkpt><trkpt lat="46.07152510033277" lon="11.15245910545977"><ele>379.0</ele><time>2026-04-11T10:54:55.999Z</time></trkpt><trkpt lat="46.07159299657363" lon="11.152603243306796"><ele>376.75</ele><time>2026-04-11T10:54:56.999Z</time></trkpt><trkpt lat="46.071680850110745" lon="11.152727147030356"><ele>374.5</ele><time>2026-04-11T10:54:57.999Z</time></trkpt><trkpt lat="46.071773492735645" lon="11.152836725977188"><ele>372.25</ele><time>2026-04-11T10:54:58.999Z</time></trkpt><trkpt lat="46.07186348457249" lon="11.152948148283683"><ele>370.0</ele><time>2026-04-11T10:54:59.999Z</time></trkpt><trkpt lat="46.07195554286874" lon="11.153054619847257"><ele>370.0</ele><time>2026-04-11T10:55:00.999Z</time></trkpt><trkpt lat="46.072050338097334" lon="11.153157399931523"><ele>370.0</ele><time>2026-04-11T10:55:01.999Z</time></trkpt><trkpt lat="46.07213630963222" lon="11.153237783616845"><ele>370.0</ele><time>2026-04-11T10:55:02.999Z</time></trkpt><trkpt lat="46.07222073187616" lon="11.153294543113585"><ele>370.0</ele><time>2026-04-11T10:55:03.999Z</time></trkpt><trkpt lat="46.07231506534132" lon="11.15331099531508"><ele>370.0</ele><time>2026-04-11T10:55:04.999Z</time></trkpt><trkpt lat="46.07241607976057" lon="11.153280801395969"><ele>370.0</ele><time>2026-04-11T10:55:05.999Z</time></trkpt><trkpt lat="46.07251448134665" lon="11.153224195904308"><ele>370.0</ele><time>2026-04-11T10:55:06.999Z</time></trkpt><trkpt lat="46.07261125140386" lon="11.153167183993219"><ele>370.0</ele><time>2026-04-11T10:55:07.999Z</time></trkpt><trkpt lat="46.07271099829415" lon="11.153138505152915"><ele>370.0</ele><time>2026-04-11T10:55:09Z</time></trkpt><trkpt lat="46.07279420087445" lon="11.153019721863828"><ele>370.0</ele><time>2026-04-11T10:55:10Z</time></trkpt><trkpt lat="46.07282101904457" lon="11.152856799137298"><ele>368.5</ele><time>2026-04-11T10:55:11Z</time></trkpt><trkpt lat="46.072858914733615" lon="11.15273905090066"><ele>367.0</ele><time>2026-04-11T10:55:12Z</time></trkpt><trkpt lat="46.07290185339899" lon="11.152652685338039"><ele>365.5</ele><time>2026-04-11T10:55:13Z</time></trkpt><trkpt lat="46.072978299250764" lon="11.152625196279107"><ele>364.0</ele><time>2026-04-11T10:55:14Z</time></trkpt><trkpt lat="46.07305384125254" lon="11.1526266065986"><ele>362.5</ele><time>2026-04-11T10:55:15Z</time></trkpt><trkpt lat="46.07311800295607" lon="11.152593261227372"><ele>361.0</ele><time>2026-04-11T10:55:16Z</time></trkpt><trkpt lat="46.07316360396944" lon="11.152529174527821"><ele>361.0</ele><time>2026-04-11T10:55:17Z</time></trkpt><trkpt lat="46.073202131704" lon="11.152416988389446"><ele>361.0</ele><time>2026-04-11T10:55:18Z</time></trkpt><trkpt lat="46.07319281380082" lon="11.152290302628765"><ele>361.0</ele><time>2026-04-11T10:55:19Z</time></trkpt><trkpt lat="46.073149122366935" lon="11.152169357252486"><ele>361.0</ele><time>2026-04-11T10:55:20Z</time></trkpt><trkpt lat="46.073064848244165" lon="11.152101091470975"><ele>361.0</ele><time>2026-04-11T10:55:21Z</time></trkpt><trkpt lat="46.07301301868044" lon="11.15204066275984"><ele>361.0</ele><time>2026-04-11T10:55:22Z</time></trkpt><trkpt lat="46.07299000873157" lon="11.15189448725284"><ele>359.66666666666663</ele><time>2026-04-11T10:55:24Z</time></trkpt><trkpt lat="46.0730823529111" lon="11.151813842106913"><ele>358.3333333333333</ele><time>2026-04-11T10:55:26Z</time></trkpt><trkpt lat="46.07314767430725" lon="11.151862126959719"><ele>357.0</ele><time>2026-04-11T10:55:27Z</time></trkpt><trkpt lat="46.07319682495397" lon="11.151949747376694"><ele>355.6666666666667</ele><time>2026-04-11T10:55:28Z</time></trkpt><trkpt lat="46.07324505366165" lon="11.152034406120594"><ele>354.33333333333337</ele><time>2026-04-11T10:55:29Z</time></trkpt><trkpt lat="46.07327872948931" lon="11.15212926605169"><ele>353.0</ele><time>2026-04-11T10:55:30Z</time></trkpt><trkpt lat="46.07329532965312" lon="11.152228180510477"><ele>354.4</ele><time>2026-04-11T10:55:31Z</time></trkpt><trkpt lat="46.07333618228733" lon="11.15239785152217"><ele>355.79999999999995</ele><time>2026-04-11T10:55:33Z</time></trkpt><trkpt lat="46.07342536917603" lon="11.152479125246913"><ele>357.2</ele><time>2026-04-11T10:55:35Z</time></trkpt><trkpt lat="46.07353711369769" lon="11.152430900532117"><ele>358.6</ele><time>2026-04-11T10:55:37Z</time></trkpt><trkpt lat="46.073570384988564" lon="11.15233199580673"><ele>360.0</ele><time>2026-04-11T10:55:38Z</time></trkpt><trkpt lat="46.07355804285375" lon="11.15219922881229"><ele>357.3333333333333</ele><time>2026-04-11T10:55:39Z</time></trkpt><trkpt lat="46.07355958654474" lon="11.152088833044784"><ele>354.6666666666667</ele><time>2026-04-11T10:55:40Z</time></trkpt><trkpt lat="46.07356847098032" lon="11.151988446281896"><ele>352.0</ele><time>2026-04-11T10:55:41Z</time></trkpt><trkpt lat="46.07360901725851" lon="11.15185886079947"><ele>349.33333333333337</ele><time>2026-04-11T10:55:43Z</time></trkpt><trkpt lat="46.073633992939925" lon="11.151761924933364"><ele>346.6666666666667</ele><time>2026-04-11T10:55:45Z</time></trkpt><trkpt lat="46.0736592378749" lon="11.151633102220991"><ele>344.0</ele><time>2026-04-11T10:55:48Z</time></trkpt><trkpt lat="46.07371828492361" lon="11.151576690808696"><ele>342.83333333333337</ele><time>2026-04-11T10:55:49Z</time></trkpt><trkpt lat="46.07376632287819" lon="11.15147544889841"><ele>341.6666666666667</ele><time>2026-04-11T10:55:50Z</time></trkpt><trkpt lat="46.073816614591486" lon="11.151370748567945"><ele>340.5</ele><time>2026-04-11T10:55:51Z</time></trkpt><trkpt lat="46.07386501900169" lon="11.151283957039382"><ele>339.3333333333333</ele><time>2026-04-11T10:55:52Z</time></trkpt><trkpt lat="46.07387396032161" lon="11.151165035189669"><ele>338.16666666666663</ele><time>2026-04-11T10:55:53Z</time></trkpt><trkpt lat="46.07385996194061" lon="11.151028145200373"><ele>337.0</ele><time>2026-04-11T10:55:54Z</time></trkpt><trkpt lat="46.07385004478265" lon="11.150899628974571"><ele>337.0</ele><time>2026-04-11T10:55:55Z</time></trkpt><trkpt lat="46.07383026496097" lon="11.15078559978673"><ele>337.0</ele><time>2026-04-11T10:55:56Z</time></trkpt><trkpt lat="46.073821583875535" lon="11.150674044329403"><ele>337.0</ele><time>2026-04-11T10:55:57Z</time></trkpt><trkpt lat="46.07382515646284" lon="11.150576446304004"><ele>337.0</ele><time>2026-04-11T10:55:58Z</time></trkpt><trkpt lat="46.07381288971469" lon="11.150484230002746"><ele>337.0</ele><time>2026-04-11T10:56:01Z</time></trkpt><trkpt lat="46.07388070858362" lon="11.150374275941353"><ele>337.0</ele><time>2026-04-11T10:56:06Z</time></trkpt><trkpt lat="46.073960389315125" lon="11.150304732384392"><ele>337.5</ele><time>2026-04-11T10:56:07Z</time></trkpt><trkpt lat="46.074052604866964" lon="11.150221294303059"><ele>338.0</ele><time>2026-04-11T10:56:08Z</time></trkpt><trkpt lat="46.074169129842815" lon="11.150117020023956"><ele>338.5</ele><time>2026-04-11T10:56:09Z</time></trkpt><trkpt lat="46.07427727922237" lon="11.150028363767179"><ele>339.0</ele><time>2026-04-11T10:56:10Z</time></trkpt><trkpt lat="46.074364418047686" lon="11.149970250385179"><ele>339.0</ele><time>2026-04-11T10:56:11Z</time></trkpt><trkpt lat="46.07445568868771" lon="11.149940228924377"><ele>339.0</ele><time>2026-04-11T10:56:12Z</time></trkpt><trkpt lat="46.07454295385822" lon="11.149924886838605"><ele>339.0</ele><time>2026-04-11T10:56:13Z</time></trkpt><trkpt lat="46.074629601545645" lon="11.149923338433915"><ele>339.0</ele><time>2026-04-11T10:56:14Z</time></trkpt><trkpt lat="46.074704559885234" lon="11.14993741268368"><ele>339.0</ele><time>2026-04-11T10:56:15Z</time></trkpt><trkpt lat="46.07476894464563" lon="11.149971774305317"><ele>339.0</ele><time>2026-04-11T10:56:16Z</time></trkpt><trkpt lat="46.07482165644381" lon="11.150022879199465"><ele>339.0</ele><time>2026-04-11T10:56:17Z</time></trkpt><trkpt lat="46.07487914160675" lon="11.150075337991565"><ele>339.0</ele><time>2026-04-11T10:56:18Z</time></trkpt><trkpt lat="46.07494591012117" lon="11.150137749493068"><ele>339.0</ele><time>2026-04-11T10:56:19Z</time></trkpt><trkpt lat="46.07501266249105" lon="11.150246677359537"><ele>339.0</ele><time>2026-04-11T10:56:20Z</time></trkpt><trkpt lat="46.07506840769496" lon="11.150341323527375"><ele>339.0</ele><time>2026-04-11T10:56:21Z</time></trkpt><trkpt lat="46.07514475152098" lon="11.150464438573968"><ele>339.0</ele><time>2026-04-11T10:56:23Z</time></trkpt><trkpt lat="46.07519707745616" lon="11.150568342912091"><ele>340.1666666666667</ele><time>2026-04-11T10:56:25Z</time></trkpt><trkpt lat="46.07523293749524" lon="11.150695259893581"><ele>341.3333333333333</ele><time>2026-04-11T10:56:26.999Z</time></trkpt><trkpt lat="46.07524328670269" lon="11.150787807408252"><ele>342.5</ele><time>2026-04-11T10:56:27.999Z</time></trkpt><trkpt lat="46.075260683318696" lon="11.150889203169248"><ele>343.66666666666663</ele><time>2026-04-11T10:56:28.999Z</time></trkpt><trkpt lat="46.07530476706671" lon="11.150996860562444"><ele>344.8333333333333</ele><time>2026-04-11T10:56:29.999Z</time></trkpt><trkpt lat="46.075375381214315" lon="11.151083144817223"><ele>346.0</ele><time>2026-04-11T10:56:30.999Z</time></trkpt><trkpt lat="46.07545391026311" lon="11.151158530260389"><ele>344.8</ele><time>2026-04-11T10:56:31.999Z</time></trkpt><trkpt lat="46.07554145264377" lon="11.151213352418107"><ele>343.6</ele><time>2026-04-11T10:56:32.999Z</time></trkpt><trkpt lat="46.07563474699785" lon="11.151268100088007"><ele>342.4</ele><time>2026-04-11T10:56:33.999Z</time></trkpt><trkpt lat="46.07574157818789" lon="11.15133476811348"><ele>341.2</ele><time>2026-04-11T10:56:34.999Z</time></trkpt><trkpt lat="46.07583205757534" lon="11.15145014530323"><ele>340.0</ele><time>2026-04-11T10:56:35.999Z</time></trkpt><trkpt lat="46.07593366346252" lon="11.15155612980215"><ele>340.0</ele><time>2026-04-11T10:56:36.999Z</time></trkpt><trkpt lat="46.07603832253164" lon="11.151661256424015"><ele>340.0</ele><time>2026-04-11T10:56:37.999Z</time></trkpt><trkpt lat="46.076141824656354" lon="11.151770710698187"><ele>340.0</ele><time>2026-04-11T10:56:38.999Z</time></trkpt><trkpt lat="46.076236697575965" lon="11.15186957654182"><ele>340.0</ele><time>2026-04-11T10:56:39.999Z</time></trkpt><trkpt lat="46.07633698588432" lon="11.151964737980435"><ele>340.0</ele><time>2026-04-11T10:56:40.999Z</time></trkpt><trkpt lat="46.07641948607219" lon="11.15205994355562"><ele>340.0</ele><time>2026-04-11T10:56:41.999Z</time></trkpt><trkpt lat="46.076501885462456" lon="11.152167486917236"><ele>340.0</ele><time>2026-04-11T10:56:42.999Z</time></trkpt><trkpt lat="46.076578696664164" lon="11.152278595963104"><ele>340.0</ele><time>2026-04-11T10:56:43.999Z</time></trkpt><trkpt lat="46.076643278464196" lon="11.152386488369336"><ele>340.0</ele><time>2026-04-11T10:56:44.999Z</time></trkpt><trkpt lat="46.07670626610165" lon="11.152485273797176"><ele>342.2</ele><time>2026-04-11T10:56:45.999Z</time></trkpt><trkpt lat="46.0767592062686" lon="11.15259156636875"><ele>344.4</ele><time>2026-04-11T10:56:46.999Z</time></trkpt><trkpt lat="46.07680949998057" lon="11.15269792434927"><ele>346.6</ele><time>2026-04-11T10:56:47.999Z</time></trkpt><trkpt lat="46.076854877444255" lon="11.152809087005194"><ele>348.8</ele><time>2026-04-11T10:56:48.999Z</time></trkpt><trkpt lat="46.07689909063218" lon="11.152932535054312"><ele>351.0</ele><time>2026-04-11T10:56:49.999Z</time></trkpt><trkpt lat="46.076949526115065" lon="11.15305560429505"><ele>351.0</ele><time>2026-04-11T10:56:50.999Z</time></trkpt><trkpt lat="46.07700256132429" lon="11.15318662607705"><ele>351.0</ele><time>2026-04-11T10:56:51.999Z</time></trkpt><trkpt lat="46.07705933878715" lon="11.153325076767862"><ele>351.0</ele><time>2026-04-11T10:56:52.999Z</time></trkpt><trkpt lat="46.077115270459814" lon="11.153486650221208"><ele>351.0</ele><time>2026-04-11T10:56:53.999Z</time></trkpt><trkpt lat="46.077172078804445" lon="11.153637631948788"><ele>349.3333333333333</ele><time>2026-04-11T10:56:54.999Z</time></trkpt><trkpt lat="46.077235667850886" lon="11.153777246721818"><ele>347.6666666666667</ele><time>2026-04-11T10:56:55.999Z</time></trkpt><trkpt lat="46.07728556137998" lon="11.153902294903213"><ele>346.0</ele><time>2026-04-11T10:56:56.999Z</time></trkpt><trkpt lat="46.07732815965834" lon="11.154001967746892"><ele>344.33333333333337</ele><time>2026-04-11T10:56:57.999Z</time></trkpt><trkpt lat="46.077365891013834" lon="11.154079513106824"><ele>342.6666666666667</ele><time>2026-04-11T10:56:58.999Z</time></trkpt><trkpt lat="46.077404737690934" lon="11.15416596504132"><ele>341.0</ele><time>2026-04-11T10:56:59.999Z</time></trkpt><trkpt lat="46.07744961558183" lon="11.154287542031916"><ele>342.0</ele><time>2026-04-11T10:57:00.999Z</time></trkpt><trkpt lat="46.077513817295205" lon="11.154439752971097"><ele>343.0</ele><time>2026-04-11T10:57:01.999Z</time></trkpt><trkpt lat="46.07758660871865" lon="11.15461565331714"><ele>344.0</ele><time>2026-04-11T10:57:02.999Z</time></trkpt><trkpt lat="46.07767912998344" lon="11.15482032923519"><ele>345.0</ele><time>2026-04-11T10:57:03.999Z</time></trkpt><trkpt lat="46.077769753995454" lon="11.155034812039345"><ele>345.0</ele><time>2026-04-11T10:57:04.999Z</time></trkpt><trkpt lat="46.077846854372176" lon="11.155275595723838"><ele>345.0</ele><time>2026-04-11T10:57:05.999Z</time></trkpt><trkpt lat="46.077901141838254" lon="11.155547597145747"><ele>345.0</ele><time>2026-04-11T10:57:06.999Z</time></trkpt><trkpt lat="46.07793242316456" lon="11.155837766316463"><ele>345.3333333333333</ele><time>2026-04-11T10:57:07.999Z</time></trkpt><trkpt lat="46.0779355174976" lon="11.156145412935432"><ele>345.66666666666663</ele><time>2026-04-11T10:57:08.999Z</time></trkpt><trkpt lat="46.07792530962615" lon="11.1564696387122"><ele>346.0</ele><time>2026-04-11T10:57:09.999Z</time></trkpt><trkpt lat="46.07791157626733" lon="11.156785601576555"><ele>346.0</ele><time>2026-04-11T10:57:10.999Z</time></trkpt><trkpt lat="46.077904884091694" lon="11.157102993519805"><ele>346.0</ele><time>2026-04-11T10:57:11.999Z</time></trkpt><trkpt lat="46.07790963039715" lon="11.157418731488418"><ele>346.0</ele><time>2026-04-11T10:57:12.999Z</time></trkpt><trkpt lat="46.07793663307416" lon="11.157745614035488"><ele>348.0</ele><time>2026-04-11T10:57:13.999Z</time></trkpt><trkpt lat="46.077985831337884" lon="11.158087156559478"><ele>350.0</ele><time>2026-04-11T10:57:15Z</time></trkpt><trkpt lat="46.07805443427927" lon="11.158427891882445"><ele>357.5</ele><time>2026-04-11T10:57:16Z</time></trkpt><trkpt lat="46.0781488888343" lon="11.158767883822092"><ele>365.0</ele><time>2026-04-11T10:57:17Z</time></trkpt><trkpt lat="46.07825369990654" lon="11.159103800029827"><ele>355.5</ele><time>2026-04-11T10:57:18Z</time></trkpt><trkpt lat="46.07839580299123" lon="11.159410711974571"><ele>346.0</ele><time>2026-04-11T10:57:19Z</time></trkpt><trkpt lat="46.07855609370651" lon="11.159700525593097"><ele>359.0</ele><time>2026-04-11T10:57:20Z</time></trkpt><trkpt lat="46.078744034466524" lon="11.159969806653011"><ele>372.0</ele><time>2026-04-11T10:57:21Z</time></trkpt><trkpt lat="46.07895551906293" lon="11.16024812205149"><ele>371.0</ele><time>2026-04-11T10:57:22Z</time></trkpt><trkpt lat="46.07918355692382" lon="11.160501904668939"><ele>370.0</ele><time>2026-04-11T10:57:23Z</time></trkpt><trkpt lat="46.07941179073541" lon="11.160740063535295"><ele>370.0</ele><time>2026-04-11T10:57:24Z</time></trkpt><trkpt lat="46.07963727084051" lon="11.160984289298234"><ele>370.0</ele><time>2026-04-11T10:57:25Z</time></trkpt><trkpt lat="46.07986315097731" lon="11.161227466590965"><ele>362.0</ele><time>2026-04-11T10:57:26Z</time></trkpt><trkpt lat="46.08007417528561" lon="11.161485673528858"><ele>354.0</ele><time>2026-04-11T10:57:27Z</time></trkpt><trkpt lat="46.08026496706424" lon="11.161762893200933"><ele>354.0</ele><time>2026-04-11T10:57:28Z</time></trkpt><trkpt lat="46.080449742609034" lon="11.162046169141338"><ele>354.0</ele><time>2026-04-11T10:57:29Z</time></trkpt><trkpt lat="46.08061431763244" lon="11.162348771942595"><ele>354.0</ele><time>2026-04-11T10:57:30Z</time></trkpt><trkpt lat="46.08076640804073" lon="11.162663385500593"><ele>354.0</ele><time>2026-04-11T10:57:31Z</time></trkpt><trkpt lat="46.08091562973758" lon="11.162962460219081"><ele>354.0</ele><time>2026-04-11T10:57:32Z</time></trkpt><trkpt lat="46.08105191311191" lon="11.163265258838353"><ele>354.0</ele><time>2026-04-11T10:57:33Z</time></trkpt><trkpt lat="46.081179581107314" lon="11.163589377671132"><ele>354.0</ele><time>2026-04-11T10:57:34.021Z</time></trkpt><trkpt lat="46.08129121203296" lon="11.163918135242037"><ele>354.0</ele><time>2026-04-11T10:57:35.021Z</time></trkpt><trkpt lat="46.081380639220534" lon="11.164262253127454"><ele>354.0</ele><time>2026-04-11T10:57:36.021Z</time></trkpt><trkpt lat="46.08145939989564" lon="11.164609739606341"><ele>354.0</ele><time>2026-04-11T10:57:37.02Z</time></trkpt><trkpt lat="46.08144247082945" lon="11.168406577864316"><ele>398.0</ele><time>2026-04-11T10:57:41.567Z</time></trkpt><trkpt lat="46.081446126950674" lon="11.169312350739943"><ele>399.0</ele><time>2026-04-11T10:57:42.568Z</time></trkpt><trkpt lat="46.08147920539012" lon="11.170214919844435"><ele>399.0</ele><time>2026-04-11T10:57:43.568Z</time></trkpt><trkpt lat="46.08164044106903" lon="11.171088468967309"><ele>399.0</ele><time>2026-04-11T10:57:44.568Z</time></trkpt><trkpt lat="46.08182923642557" lon="11.171951717416652"><ele>399.0</ele><time>2026-04-11T10:57:45.568Z</time></trkpt><trkpt lat="46.08201400836194" lon="11.172815626276815"><ele>387.0</ele><time>2026-04-11T10:57:46.566Z</time></trkpt><trkpt lat="46.0820751" lon="11.1730957"><ele>375.0</ele><time>2026-04-11T10:57:47.568Z</time></trkpt><trkpt lat="46.08294712849528" lon="11.178094334910789"><ele>376.0</ele><time>2026-04-11T10:58:07Z</time></trkpt><trkpt lat="46.08295184471009" lon="11.17828911793542"><ele>377.0</ele><time>2026-04-11T10:58:08Z</time></trkpt><trkpt lat="46.082981271157635" lon="11.17871510875452"><ele>378.0</ele><time>2026-04-11T10:58:09Z</time></trkpt><trkpt lat="46.082957709100455" lon="11.179076674967847"><ele>379.5</ele><time>2026-04-11T10:58:10Z</time></trkpt><trkpt lat="46.08293957415193" lon="11.179470923654181"><ele>381.0</ele><time>2026-04-11T10:58:11Z</time></trkpt><trkpt lat="46.08291125469721" lon="11.179848178929868"><ele>380.5</ele><time>2026-04-11T10:58:12Z</time></trkpt><trkpt lat="46.08288966257619" lon="11.180239965457652"><ele>380.0</ele><time>2026-04-11T10:58:13Z</time></trkpt><trkpt lat="46.08289337685685" lon="11.180634675517746"><ele>381.0</ele><time>2026-04-11T10:58:14Z</time></trkpt><trkpt lat="46.082932486425854" lon="11.181046817356957"><ele>382.0</ele><time>2026-04-11T10:58:15Z</time></trkpt><trkpt lat="46.082982103101926" lon="11.181448993934156"><ele>380.5</ele><time>2026-04-11T10:58:16Z</time></trkpt><trkpt lat="46.08302859847098" lon="11.181857478547892"><ele>379.0</ele><time>2026-04-11T10:58:17Z</time></trkpt><trkpt lat="46.08307274229063" lon="11.182268988263415"><ele>379.0</ele><time>2026-04-11T10:58:18Z</time></trkpt><trkpt lat="46.08308967763862" lon="11.182686118450267"><ele>379.0</ele><time>2026-04-11T10:58:19Z</time></trkpt><trkpt lat="46.08308551260329" lon="11.18309936223065"><ele>381.0</ele><time>2026-04-11T10:58:20Z</time></trkpt><trkpt lat="46.083047184718176" lon="11.183511851533511"><ele>383.0</ele><time>2026-04-11T10:58:21Z</time></trkpt><trkpt lat="46.0829621462975" lon="11.18390963661293"><ele>384.5</ele><time>2026-04-11T10:58:22Z</time></trkpt><trkpt lat="46.082858302154754" lon="11.184295640208951"><ele>386.0</ele><time>2026-04-11T10:58:23Z</time></trkpt><trkpt lat="46.08272149161467" lon="11.184671577320533"><ele>390.0</ele><time>2026-04-11T10:58:24Z</time></trkpt><trkpt lat="46.08258505211244" lon="11.18502478347204"><ele>394.0</ele><time>2026-04-11T10:58:25Z</time></trkpt><trkpt lat="46.082453876172345" lon="11.185381719656268"><ele>390.0</ele><time>2026-04-11T10:58:26Z</time></trkpt><trkpt lat="46.08234904167845" lon="11.185747093452875"><ele>386.0</ele><time>2026-04-11T10:58:26.999Z</time></trkpt><trkpt lat="46.08225525336817" lon="11.18611450456518"><ele>386.0</ele><time>2026-04-11T10:58:27.999Z</time></trkpt><trkpt lat="46.082213381250924" lon="11.186477924906837"><ele>386.0</ele><time>2026-04-11T10:58:28.999Z</time></trkpt><trkpt lat="46.0822247676735" lon="11.186852178731332"><ele>385.0</ele><time>2026-04-11T10:58:29.999Z</time></trkpt><trkpt lat="46.082270654686" lon="11.187244170844991"><ele>384.0</ele><time>2026-04-11T10:58:30.999Z</time></trkpt><trkpt lat="46.0823146542547" lon="11.18763642090416"><ele>384.0</ele><time>2026-04-11T10:58:31.999Z</time></trkpt><trkpt lat="46.082349158267476" lon="11.188028743126782"><ele>384.0</ele><time>2026-04-11T10:58:32.999Z</time></trkpt><trkpt lat="46.0823875077786" lon="11.188431692601819"><ele>384.0</ele><time>2026-04-11T10:58:33.999Z</time></trkpt><trkpt lat="46.08242138295348" lon="11.188832725634105"><ele>384.0</ele><time>2026-04-11T10:58:34.999Z</time></trkpt><trkpt lat="46.08244986627159" lon="11.189234781287787"><ele>384.5</ele><time>2026-04-11T10:58:35.999Z</time></trkpt><trkpt lat="46.08245295072248" lon="11.189639981258905"><ele>385.0</ele><time>2026-04-11T10:58:36.999Z</time></trkpt><trkpt lat="46.082427043964394" lon="11.190041197869649"><ele>385.0</ele><time>2026-04-11T10:58:37.999Z</time></trkpt><trkpt lat="46.082377169152835" lon="11.190429049522665"><ele>385.0</ele><time>2026-04-11T10:58:38.999Z</time></trkpt><trkpt lat="46.0823303851161" lon="11.19082246794682"><ele>385.5</ele><time>2026-04-11T10:58:39.999Z</time></trkpt><trkpt lat="46.082284713390614" lon="11.191214683373051"><ele>386.0</ele><time>2026-04-11T10:58:40.999Z</time></trkpt><trkpt lat="46.08225006651625" lon="11.1916057357163"><ele>387.5</ele><time>2026-04-11T10:58:41.999Z</time></trkpt><trkpt lat="46.08220801979128" lon="11.19199377806614"><ele>389.0</ele><time>2026-04-11T10:58:42.999Z</time></trkpt><trkpt lat="46.08216784255621" lon="11.192381114530225"><ele>390.5</ele><time>2026-04-11T10:58:43.999Z</time></trkpt><trkpt lat="46.0821387245345" lon="11.19278628155846"><ele>392.0</ele><time>2026-04-11T10:58:44.999Z</time></trkpt><trkpt lat="46.08210367566985" lon="11.193210984977997"><ele>394.0</ele><time>2026-04-11T10:58:45.999Z</time></trkpt><trkpt lat="46.08207019202074" lon="11.193649771008241"><ele>396.0</ele><time>2026-04-11T10:58:46.999Z</time></trkpt><trkpt lat="46.08203764425232" lon="11.19408812813552"><ele>397.5</ele><time>2026-04-11T10:58:47.999Z</time></trkpt><trkpt lat="46.08200376875967" lon="11.19453476140535"><ele>399.0</ele><time>2026-04-11T10:58:48.999Z</time></trkpt><trkpt lat="46.081971182098606" lon="11.19496296348582"><ele>400.5</ele><time>2026-04-11T10:58:49.999Z</time></trkpt><trkpt lat="46.08193414840298" lon="11.195368211752035"><ele>402.0</ele><time>2026-04-11T10:58:50.999Z</time></trkpt><trkpt lat="46.08189456196645" lon="11.195751380984872"><ele>403.0</ele><time>2026-04-11T10:58:51.999Z</time></trkpt><trkpt lat="46.08186654866296" lon="11.19610237019652"><ele>404.0</ele><time>2026-04-11T10:58:52.999Z</time></trkpt><trkpt lat="46.08184121593356" lon="11.196447302773276"><ele>404.0</ele><time>2026-04-11T10:58:53.999Z</time></trkpt><trkpt lat="46.081796754943426" lon="11.196787244557855"><ele>404.0</ele><time>2026-04-11T10:58:54.999Z</time></trkpt><trkpt lat="46.08172889841137" lon="11.197112832998627"><ele>405.5</ele><time>2026-04-11T10:58:55.999Z</time></trkpt><trkpt lat="46.08164102380473" lon="11.197425301200997"><ele>407.0</ele><time>2026-04-11T10:58:56.999Z</time></trkpt><trkpt lat="46.08151806023954" lon="11.19773131544906"><ele>407.5</ele><time>2026-04-11T10:58:57.999Z</time></trkpt><trkpt lat="46.08139736656597" lon="11.198012767200943"><ele>408.0</ele><time>2026-04-11T10:58:58.999Z</time></trkpt><trkpt lat="46.08127799187589" lon="11.198298854938795"><ele>408.0</ele><time>2026-04-11T10:58:59.999Z</time></trkpt><trkpt lat="46.08116031171769" lon="11.198561178072978"><ele>408.0</ele><time>2026-04-11T10:59:00.999Z</time></trkpt><trkpt lat="46.08104025943811" lon="11.198825207114893"><ele>408.0</ele><time>2026-04-11T10:59:01.999Z</time></trkpt><trkpt lat="46.08092822391737" lon="11.199101496569458"><ele>409.0</ele><time>2026-04-11T10:59:02.999Z</time></trkpt><trkpt lat="46.080808579025785" lon="11.199381004281602"><ele>410.0</ele><time>2026-04-11T10:59:03.999Z</time></trkpt><trkpt lat="46.080680499020964" lon="11.19966847516966"><ele>413.5</ele><time>2026-04-11T10:59:04.999Z</time></trkpt><trkpt lat="46.080555805282025" lon="11.199967261342064"><ele>417.0</ele><time>2026-04-11T10:59:05.999Z</time></trkpt><trkpt lat="46.080426217532406" lon="11.2002768190223"><ele>417.0</ele><time>2026-04-11T10:59:06.999Z</time></trkpt><trkpt lat="46.08028919996081" lon="11.200590518049951"><ele>417.0</ele><time>2026-04-11T10:59:07.999Z</time></trkpt><trkpt lat="46.080150765892235" lon="11.200909613959032"><ele>416.5</ele><time>2026-04-11T10:59:08.999Z</time></trkpt><trkpt lat="46.08000001919568" lon="11.20122999032113"><ele>416.0</ele><time>2026-04-11T10:59:09.999Z</time></trkpt><trkpt lat="46.079828809695854" lon="11.201528751413532"><ele>418.5</ele><time>2026-04-11T10:59:10.999Z</time></trkpt><trkpt lat="46.079636917681675" lon="11.201810613497532"><ele>421.0</ele><time>2026-04-11T10:59:11.999Z</time></trkpt><trkpt lat="46.079429501214314" lon="11.202076566377988"><ele>421.5</ele><time>2026-04-11T10:59:12.999Z</time></trkpt><trkpt lat="46.07921138556499" lon="11.202344961849292"><ele>422.0</ele><time>2026-04-11T10:59:13.999Z</time></trkpt><trkpt lat="46.07898688030609" lon="11.202636268462603"><ele>422.0</ele><time>2026-04-11T10:59:14.999Z</time></trkpt><trkpt lat="46.07876794366675" lon="11.202925820987465"><ele>422.0</ele><time>2026-04-11T10:59:15.999Z</time></trkpt><trkpt lat="46.07856626192347" lon="11.203214466985546"><ele>422.0</ele><time>2026-04-11T10:59:16.999Z</time></trkpt><trkpt lat="46.07835211867509" lon="11.203498382641195"><ele>422.0</ele><time>2026-04-11T10:59:17.999Z</time></trkpt><trkpt lat="46.07813708591128" lon="11.203795321415418"><ele>423.5</ele><time>2026-04-11T10:59:18.999Z</time></trkpt><trkpt lat="46.07792154863546" lon="11.204082655738972"><ele>425.0</ele><time>2026-04-11T10:59:19.999Z</time></trkpt><trkpt lat="46.077707130532374" lon="11.204384540614399"><ele>425.0</ele><time>2026-04-11T10:59:21Z</time></trkpt><trkpt lat="46.077488952018825" lon="11.204680218221874"><ele>425.0</ele><time>2026-04-11T10:59:22Z</time></trkpt><trkpt lat="46.07727613361531" lon="11.20498390775999"><ele>425.5</ele><time>2026-04-11T10:59:23Z</time></trkpt><trkpt lat="46.07707634435886" lon="11.205298281793134"><ele>426.0</ele><time>2026-04-11T10:59:24Z</time></trkpt><trkpt lat="46.07689087862012" lon="11.205628070952594"><ele>427.0</ele><time>2026-04-11T10:59:25Z</time></trkpt><trkpt lat="46.07671835291666" lon="11.20597240434322"><ele>428.0</ele><time>2026-04-11T10:59:26Z</time></trkpt><trkpt lat="46.07655708579322" lon="11.206321707554649"><ele>427.0</ele><time>2026-04-11T10:59:27Z</time></trkpt><trkpt lat="46.07641008389552" lon="11.206686580130047"><ele>426.0</ele><time>2026-04-11T10:59:28Z</time></trkpt><trkpt lat="46.076276230253825" lon="11.207060517163741"><ele>426.5</ele><time>2026-04-11T10:59:29Z</time></trkpt><trkpt lat="46.07614442928063" lon="11.207436893035213"><ele>427.0</ele><time>2026-04-11T10:59:30Z</time></trkpt><trkpt lat="46.07602965878466" lon="11.207817429928552"><ele>427.0</ele><time>2026-04-11T10:59:31Z</time></trkpt><trkpt lat="46.07589672336385" lon="11.208197941792214"><ele>427.0</ele><time>2026-04-11T10:59:32Z</time></trkpt><trkpt lat="46.07576506761074" lon="11.208579749328578"><ele>427.0</ele><time>2026-04-11T10:59:33Z</time></trkpt><trkpt lat="46.07563300910739" lon="11.208963763993726"><ele>427.0</ele><time>2026-04-11T10:59:34Z</time></trkpt><trkpt lat="46.07550253330492" lon="11.20934450896249"><ele>429.0</ele><time>2026-04-11T10:59:35Z</time></trkpt><trkpt lat="46.075370272541505" lon="11.209705509091043"><ele>431.0</ele><time>2026-04-11T10:59:36Z</time></trkpt><trkpt lat="46.075221897838034" lon="11.210054246251644"><ele>432.0</ele><time>2026-04-11T10:59:37Z</time></trkpt><trkpt lat="46.07504825177419" lon="11.210377741340453"><ele>433.0</ele><time>2026-04-11T10:59:38Z</time></trkpt><trkpt lat="46.074871881524615" lon="11.210683082955436"><ele>433.0</ele><time>2026-04-11T10:59:39Z</time></trkpt><trkpt lat="46.0746943930433" lon="11.210995351701746"><ele>433.0</ele><time>2026-04-11T10:59:40Z</time></trkpt><trkpt lat="46.07452606043828" lon="11.211311337569489"><ele>434.0</ele><time>2026-04-11T10:59:41Z</time></trkpt><trkpt lat="46.07435449083577" lon="11.211629569457562"><ele>435.0</ele><time>2026-04-11T10:59:42Z</time></trkpt><trkpt lat="46.07418364194631" lon="11.211952163609356"><ele>433.5</ele><time>2026-04-11T10:59:43Z</time></trkpt><trkpt lat="46.07401638759524" lon="11.21227574865202"><ele>432.0</ele><time>2026-04-11T10:59:44Z</time></trkpt><trkpt lat="46.07385043925323" lon="11.212597902752169"><ele>432.0</ele><time>2026-04-11T10:59:45Z</time></trkpt><trkpt lat="46.07367829489034" lon="11.212923168550201"><ele>432.0</ele><time>2026-04-11T10:59:46Z</time></trkpt><trkpt lat="46.073503673007046" lon="11.213254609305665"><ele>433.0</ele><time>2026-04-11T10:59:47Z</time></trkpt><trkpt lat="46.073324826510046" lon="11.213583907383132"><ele>434.0</ele><time>2026-04-11T10:59:48Z</time></trkpt><trkpt lat="46.07315221993455" lon="11.21392069129708"><ele>436.0</ele><time>2026-04-11T10:59:49Z</time></trkpt><trkpt lat="46.07296987000767" lon="11.214256923244987"><ele>438.0</ele><time>2026-04-11T10:59:50Z</time></trkpt><trkpt lat="46.07279259959475" lon="11.214586369736647"><ele>437.0</ele><time>2026-04-11T10:59:51Z</time></trkpt><trkpt lat="46.072611561079675" lon="11.214906691416623"><ele>436.0</ele><time>2026-04-11T10:59:52Z</time></trkpt><trkpt lat="46.07243057095978" lon="11.215199296939094"><ele>436.0</ele><time>2026-04-11T10:59:53Z</time></trkpt><trkpt lat="46.07224437329886" lon="11.215475187454745"><ele>436.0</ele><time>2026-04-11T10:59:54Z</time></trkpt><trkpt lat="46.07205277143225" lon="11.215735821780692"><ele>438.5</ele><time>2026-04-11T10:59:55Z</time></trkpt><trkpt lat="46.07186033937051" lon="11.215982745021304"><ele>441.0</ele><time>2026-04-11T10:59:56Z</time></trkpt><trkpt lat="46.07166834296736" lon="11.216237347037552"><ele>442.5</ele><time>2026-04-11T10:59:57Z</time></trkpt><trkpt lat="46.071480821436" lon="11.216497479566634"><ele>444.0</ele><time>2026-04-11T10:59:58Z</time></trkpt><trkpt lat="46.071289090573984" lon="11.21675175412437"><ele>444.0</ele><time>2026-04-11T10:59:59Z</time></trkpt><trkpt lat="46.07109361917195" lon="11.216999999217471"><ele>444.0</ele><time>2026-04-11T11:00:00Z</time></trkpt><trkpt lat="46.07090356415236" lon="11.217248626155223"><ele>443.5</ele><time>2026-04-11T11:00:01Z</time></trkpt><trkpt lat="46.07071745948056" lon="11.21750226463979"><ele>443.0</ele><time>2026-04-11T11:00:02Z</time></trkpt><trkpt lat="46.070526540823934" lon="11.21775585342259"><ele>443.0</ele><time>2026-04-11T11:00:03Z</time></trkpt><trkpt lat="46.07034054223867" lon="11.218004699256639"><ele>443.0</ele><time>2026-04-11T11:00:04Z</time></trkpt><trkpt lat="46.070153717805425" lon="11.218253675267782"><ele>442.5</ele><time>2026-04-11T11:00:05Z</time></trkpt><trkpt lat="46.06996909165233" lon="11.218499785212604"><ele>442.0</ele><time>2026-04-11T11:00:06Z</time></trkpt><trkpt lat="46.069783132754324" lon="11.21875284625768"><ele>443.0</ele><time>2026-04-11T11:00:07Z</time></trkpt><trkpt lat="46.06959423138074" lon="11.219006281107493"><ele>444.0</ele><time>2026-04-11T11:00:08Z</time></trkpt><trkpt lat="46.06940334293002" lon="11.219259163437176"><ele>444.0</ele><time>2026-04-11T11:00:09Z</time></trkpt><trkpt lat="46.06921548485278" lon="11.219512700020166"><ele>444.0</ele><time>2026-04-11T11:00:10Z</time></trkpt><trkpt lat="46.069029645610414" lon="11.219764668194623"><ele>446.0</ele><time>2026-04-11T11:00:11Z</time></trkpt><trkpt lat="46.06884312364265" lon="11.220012129761743"><ele>448.0</ele><time>2026-04-11T11:00:12Z</time></trkpt><trkpt lat="46.068651268353705" lon="11.220259639696257"><ele>448.0</ele><time>2026-04-11T11:00:13Z</time></trkpt><trkpt lat="46.068453039268675" lon="11.220495666607468"><ele>448.0</ele><time>2026-04-11T11:00:14Z</time></trkpt><trkpt lat="46.068259868428306" lon="11.220739177811055"><ele>448.5</ele><time>2026-04-11T11:00:15Z</time></trkpt><trkpt lat="46.06807180263151" lon="11.220983949176947"><ele>449.0</ele><time>2026-04-11T11:00:16Z</time></trkpt><trkpt lat="46.067888069010436" lon="11.22123552044219"><ele>451.5</ele><time>2026-04-11T11:00:17Z</time></trkpt><trkpt lat="46.0676948217799" lon="11.221487005877636"><ele>454.0</ele><time>2026-04-11T11:00:18Z</time></trkpt><trkpt lat="46.067503958879946" lon="11.22173790758509"><ele>450.0</ele><time>2026-04-11T11:00:19Z</time></trkpt><trkpt lat="46.06732121842223" lon="11.22198421807469"><ele>446.0</ele><time>2026-04-11T11:00:20Z</time></trkpt><trkpt lat="46.06713957625854" lon="11.222228286234332"><ele>450.5</ele><time>2026-04-11T11:00:21Z</time></trkpt><trkpt lat="46.0669538117013" lon="11.222467102986075"><ele>455.0</ele><time>2026-04-11T11:00:22Z</time></trkpt><trkpt lat="46.06677204696788" lon="11.222710987548773"><ele>454.5</ele><time>2026-04-11T11:00:23Z</time></trkpt><trkpt lat="46.06658694835092" lon="11.222955326835127"><ele>454.0</ele><time>2026-04-11T11:00:24Z</time></trkpt><trkpt lat="46.066400429859115" lon="11.223192317927108"><ele>455.0</ele><time>2026-04-11T11:00:25Z</time></trkpt><trkpt lat="46.06621888296273" lon="11.223427416164073"><ele>456.0</ele><time>2026-04-11T11:00:26Z</time></trkpt><trkpt lat="46.06603583106187" lon="11.223665134376287"><ele>456.0</ele><time>2026-04-11T11:00:27Z</time></trkpt><trkpt lat="46.0658619353404" lon="11.223910967259341"><ele>456.0</ele><time>2026-04-11T11:00:28Z</time></trkpt><trkpt lat="46.06568561994103" lon="11.22414689285248"><ele>455.0</ele><time>2026-04-11T11:00:29Z</time></trkpt><trkpt lat="46.06551338994792" lon="11.224379899076858"><ele>454.0</ele><time>2026-04-11T11:00:30Z</time></trkpt><trkpt lat="46.06534198340649" lon="11.2246067942556"><ele>454.33333333333337</ele><time>2026-04-11T11:00:31Z</time></trkpt><trkpt lat="46.06518154753942" lon="11.224823577783846"><ele>454.66666666666663</ele><time>2026-04-11T11:00:32Z</time></trkpt><trkpt lat="46.06502872474578" lon="11.225026136230284"><ele>455.0</ele><time>2026-04-11T11:00:33Z</time></trkpt><trkpt lat="46.06488048960063" lon="11.225213752696677"><ele>455.0</ele><time>2026-04-11T11:00:34Z</time></trkpt><trkpt lat="46.064733504442984" lon="11.22540225315786"><ele>455.0</ele><time>2026-04-11T11:00:35Z</time></trkpt><trkpt lat="46.064583955635506" lon="11.22559672075306"><ele>455.0</ele><time>2026-04-11T11:00:36Z</time></trkpt><trkpt lat="46.064420676570045" lon="11.225794103159256"><ele>456.0</ele><time>2026-04-11T11:00:37Z</time></trkpt><trkpt lat="46.0642498837315" lon="11.225979559933156"><ele>457.0</ele><time>2026-04-11T11:00:38Z</time></trkpt><trkpt lat="46.064082043641555" lon="11.226161725290776"><ele>458.0</ele><time>2026-04-11T11:00:39Z</time></trkpt><trkpt lat="46.06391024696955" lon="11.226341554268618"><ele>459.0</ele><time>2026-04-11T11:00:39.999Z</time></trkpt><trkpt lat="46.063730128346656" lon="11.226515999128967"><ele>460.0</ele><time>2026-04-11T11:00:40.999Z</time></trkpt><trkpt lat="46.063541639328555" lon="11.226683291700493"><ele>461.0</ele><time>2026-04-11T11:00:41.999Z</time></trkpt><trkpt lat="46.0633522764684" lon="11.226839630671096"><ele>460.0</ele><time>2026-04-11T11:00:42.999Z</time></trkpt><trkpt lat="46.06316239805176" lon="11.2269968086301"><ele>459.0</ele><time>2026-04-11T11:00:43.999Z</time></trkpt><trkpt lat="46.06297249551668" lon="11.22714676532742"><ele>458.0</ele><time>2026-04-11T11:00:44.999Z</time></trkpt><trkpt lat="46.06277905046408" lon="11.227294432569602"><ele>458.3333333333333</ele><time>2026-04-11T11:00:45.999Z</time></trkpt><trkpt lat="46.0625780677913" lon="11.22743378760528"><ele>458.66666666666663</ele><time>2026-04-11T11:00:46.999Z</time></trkpt><trkpt lat="46.062376848152496" lon="11.227574504281128"><ele>459.0</ele><time>2026-04-11T11:00:47.999Z</time></trkpt><trkpt lat="46.06217650765197" lon="11.22771985865957"><ele>459.0</ele><time>2026-04-11T11:00:48.999Z</time></trkpt><trkpt lat="46.06197687500346" lon="11.227871489939242"><ele>459.0</ele><time>2026-04-11T11:00:49.999Z</time></trkpt><trkpt lat="46.06177965829811" lon="11.228022214096155"><ele>459.0</ele><time>2026-04-11T11:00:50.999Z</time></trkpt><trkpt lat="46.061585262268004" lon="11.228172802648391"><ele>460.5</ele><time>2026-04-11T11:00:51.999Z</time></trkpt><trkpt lat="46.06138494918236" lon="11.228318949093222"><ele>462.0</ele><time>2026-04-11T11:00:52.999Z</time></trkpt><trkpt lat="46.06118238254006" lon="11.228465764218273"><ele>462.0</ele><time>2026-04-11T11:00:53.999Z</time></trkpt><trkpt lat="46.06098057699768" lon="11.228611628296335"><ele>462.0</ele><time>2026-04-11T11:00:54.999Z</time></trkpt><trkpt lat="46.06078455866967" lon="11.22875771751595"><ele>462.0</ele><time>2026-04-11T11:00:55.999Z</time></trkpt><trkpt lat="46.06058350163296" lon="11.228905570709866"><ele>463.0</ele><time>2026-04-11T11:00:56.999Z</time></trkpt><trkpt lat="46.060380386368564" lon="11.229050256213434"><ele>464.0</ele><time>2026-04-11T11:00:57.999Z</time></trkpt><trkpt lat="46.060178630169936" lon="11.229197442983443"><ele>464.0</ele><time>2026-04-11T11:00:58.999Z</time></trkpt><trkpt lat="46.059978583344964" lon="11.229347276771202"><ele>464.0</ele><time>2026-04-11T11:00:59.999Z</time></trkpt><trkpt lat="46.059775904585706" lon="11.229488070212977"><ele>464.0</ele><time>2026-04-11T11:01:00.999Z</time></trkpt><trkpt lat="46.05957982890466" lon="11.229638106768592"><ele>464.0</ele><time>2026-04-11T11:01:01.999Z</time></trkpt><trkpt lat="46.05937662959384" lon="11.229781001937829"><ele>464.0</ele><time>2026-04-11T11:01:02.999Z</time></trkpt><trkpt lat="46.05917627824156" lon="11.229930486082305"><ele>464.0</ele><time>2026-04-11T11:01:03.999Z</time></trkpt><trkpt lat="46.05897517178155" lon="11.230075450245213"><ele>464.0</ele><time>2026-04-11T11:01:04.999Z</time></trkpt><trkpt lat="46.05877706762275" lon="11.230216855834751"><ele>464.0</ele><time>2026-04-11T11:01:05.999Z</time></trkpt><trkpt lat="46.05857811680645" lon="11.230364509058766"><ele>464.0</ele><time>2026-04-11T11:01:06.999Z</time></trkpt><trkpt lat="46.05837574900559" lon="11.23050944893815"><ele>464.0</ele><time>2026-04-11T11:01:07.999Z</time></trkpt><trkpt lat="46.05817819697516" lon="11.230655078237316"><ele>464.0</ele><time>2026-04-11T11:01:08.999Z</time></trkpt><trkpt lat="46.057974402087225" lon="11.230802218698503"><ele>464.0</ele><time>2026-04-11T11:01:09.999Z</time></trkpt><trkpt lat="46.05777757322472" lon="11.230945528420037"><ele>464.0</ele><time>2026-04-11T11:01:10.999Z</time></trkpt><trkpt lat="46.05758156801577" lon="11.23109025367353"><ele>464.0</ele><time>2026-04-11T11:01:11.999Z</time></trkpt><trkpt lat="46.057385588887094" lon="11.23123301766531"><ele>463.66666666666663</ele><time>2026-04-11T11:01:12.999Z</time></trkpt><trkpt lat="46.05718777360997" lon="11.231377098118273"><ele>463.33333333333337</ele><time>2026-04-11T11:01:13.999Z</time></trkpt><trkpt lat="46.056989987568194" lon="11.231524337505446"><ele>463.0</ele><time>2026-04-11T11:01:14.999Z</time></trkpt><trkpt lat="46.056791148544356" lon="11.231675291462382"><ele>462.6666666666667</ele><time>2026-04-11T11:01:15.999Z</time></trkpt><trkpt lat="46.056590469914944" lon="11.231823843942086"><ele>462.33333333333337</ele><time>2026-04-11T11:01:16.999Z</time></trkpt><trkpt lat="46.05639436470575" lon="11.231965122580124"><ele>462.0</ele><time>2026-04-11T11:01:17.999Z</time></trkpt><trkpt lat="46.05619224133047" lon="11.232098113082897"><ele>462.0</ele><time>2026-04-11T11:01:18.999Z</time></trkpt><trkpt lat="46.05598334067725" lon="11.232226791289431"><ele>462.0</ele><time>2026-04-11T11:01:19.999Z</time></trkpt><trkpt lat="46.05577549660696" lon="11.232346822875343"><ele>462.5</ele><time>2026-04-11T11:01:20.999Z</time></trkpt><trkpt lat="46.055563117130724" lon="11.232462460356691"><ele>463.0</ele><time>2026-04-11T11:01:21.999Z</time></trkpt><trkpt lat="46.055346511219525" lon="11.23256698096596"><ele>463.0</ele><time>2026-04-11T11:01:22.999Z</time></trkpt><trkpt lat="46.05512929104542" lon="11.23266595808107"><ele>463.0</ele><time>2026-04-11T11:01:23.999Z</time></trkpt><trkpt lat="46.05491132675558" lon="11.232757697283985"><ele>462.5</ele><time>2026-04-11T11:01:24.999Z</time></trkpt><trkpt lat="46.054694697426356" lon="11.232854333964282"><ele>462.0</ele><time>2026-04-11T11:01:25.999Z</time></trkpt><trkpt lat="46.054475727569326" lon="11.232953199634867"><ele>462.0</ele><time>2026-04-11T11:01:27Z</time></trkpt><trkpt lat="46.054253084823706" lon="11.233056067785796"><ele>462.0</ele><time>2026-04-11T11:01:28Z</time></trkpt><trkpt lat="46.05403183795794" lon="11.23315810375521"><ele>461.5</ele><time>2026-04-11T11:01:29Z</time></trkpt><trkpt lat="46.0538093976711" lon="11.233261327641388"><ele>461.0</ele><time>2026-04-11T11:01:30Z</time></trkpt><trkpt lat="46.053587746422984" lon="11.233363538008522"><ele>461.0</ele><time>2026-04-11T11:01:31Z</time></trkpt><trkpt lat="46.05336791396022" lon="11.233461322825482"><ele>461.0</ele><time>2026-04-11T11:01:32Z</time></trkpt><trkpt lat="46.05314494662621" lon="11.233558817831337"><ele>462.0</ele><time>2026-04-11T11:01:33Z</time></trkpt><trkpt lat="46.0529220793832" lon="11.233662790308596"><ele>463.0</ele><time>2026-04-11T11:01:34Z</time></trkpt><trkpt lat="46.05270014133363" lon="11.233766358219503"><ele>463.0</ele><time>2026-04-11T11:01:35Z</time></trkpt><trkpt lat="46.05247407001548" lon="11.233872875556948"><ele>463.0</ele><time>2026-04-11T11:01:36Z</time></trkpt><trkpt lat="46.05224985611099" lon="11.233975203003158"><ele>462.0</ele><time>2026-04-11T11:01:37Z</time></trkpt><trkpt lat="46.052024332830314" lon="11.234072846423519"><ele>461.0</ele><time>2026-04-11T11:01:38Z</time></trkpt><trkpt lat="46.051804576289655" lon="11.234173271153864"><ele>460.0</ele><time>2026-04-11T11:01:39Z</time></trkpt><trkpt lat="46.051586001162974" lon="11.234281081117322"><ele>459.0</ele><time>2026-04-11T11:01:40Z</time></trkpt><trkpt lat="46.05136118999043" lon="11.234376413041986"><ele>459.0</ele><time>2026-04-11T11:01:41Z</time></trkpt><trkpt lat="46.05114100731255" lon="11.234459423976057"><ele>459.0</ele><time>2026-04-11T11:01:42Z</time></trkpt><trkpt lat="46.05091309733787" lon="11.234537393980139"><ele>458.0</ele><time>2026-04-11T11:01:43Z</time></trkpt><trkpt lat="46.050680055369604" lon="11.23460682375978"><ele>457.0</ele><time>2026-04-11T11:01:44Z</time></trkpt><trkpt lat="46.0504427899793" lon="11.234673487963674"><ele>457.0</ele><time>2026-04-11T11:01:45Z</time></trkpt><trkpt lat="46.050207396841635" lon="11.234740821340862"><ele>457.0</ele><time>2026-04-11T11:01:46Z</time></trkpt><trkpt lat="46.04997077297387" lon="11.234806448805346"><ele>456.0</ele><time>2026-04-11T11:01:47Z</time></trkpt><trkpt lat="46.04973461558185" lon="11.234887943312037"><ele>455.0</ele><time>2026-04-11T11:01:48Z</time></trkpt><trkpt lat="46.049501585508295" lon="11.23495776284651"><ele>455.0</ele><time>2026-04-11T11:01:49Z</time></trkpt><trkpt lat="46.049270894682444" lon="11.235010440479401"><ele>455.0</ele><time>2026-04-11T11:01:50Z</time></trkpt><trkpt lat="46.049037877670465" lon="11.23506501036725"><ele>456.0</ele><time>2026-04-11T11:01:51Z</time></trkpt><trkpt lat="46.0488033823154" lon="11.235112847199739"><ele>457.0</ele><time>2026-04-11T11:01:52Z</time></trkpt><trkpt lat="46.04857019210126" lon="11.235150605080907"><ele>457.0</ele><time>2026-04-11T11:01:53Z</time></trkpt><trkpt lat="46.04833453914439" lon="11.235173316142307"><ele>457.0</ele><time>2026-04-11T11:01:54Z</time></trkpt><trkpt lat="46.048113388069055" lon="11.235179115052"><ele>456.33333333333337</ele><time>2026-04-11T11:01:55Z</time></trkpt><trkpt lat="46.04788711911545" lon="11.235197726958862"><ele>455.66666666666663</ele><time>2026-04-11T11:01:56Z</time></trkpt><trkpt lat="46.0476660139914" lon="11.235212369490313"><ele>455.0</ele><time>2026-04-11T11:01:57Z</time></trkpt><trkpt lat="46.047443154879666" lon="11.235227701422971"><ele>454.66666666666663</ele><time>2026-04-11T11:01:58Z</time></trkpt><trkpt lat="46.047222864731715" lon="11.235248896694362"><ele>454.33333333333337</ele><time>2026-04-11T11:01:59Z</time></trkpt><trkpt lat="46.047002844886556" lon="11.235265282150678"><ele>454.0</ele><time>2026-04-11T11:02:00Z</time></trkpt><trkpt lat="46.04678644744832" lon="11.235284290469243"><ele>454.33333333333337</ele><time>2026-04-11T11:02:01Z</time></trkpt><trkpt lat="46.046570182457806" lon="11.235294185419994"><ele>454.66666666666663</ele><time>2026-04-11T11:02:02Z</time></trkpt><trkpt lat="46.046353387955165" lon="11.235311601972594"><ele>455.0</ele><time>2026-04-11T11:02:03Z</time></trkpt><trkpt lat="46.04614052542394" lon="11.23533037265255"><ele>455.0</ele><time>2026-04-11T11:02:04Z</time></trkpt><trkpt lat="46.04592398099432" lon="11.23535077962923"><ele>455.0</ele><time>2026-04-11T11:02:05Z</time></trkpt><trkpt lat="46.045708111661945" lon="11.235366535794808"><ele>455.0</ele><time>2026-04-11T11:02:06Z</time></trkpt><trkpt lat="46.045493162163005" lon="11.235383245218392"><ele>454.66666666666663</ele><time>2026-04-11T11:02:07Z</time></trkpt><trkpt lat="46.04527812786907" lon="11.235395573401668"><ele>454.33333333333337</ele><time>2026-04-11T11:02:08Z</time></trkpt><trkpt lat="46.0450636494237" lon="11.235407893950917"><ele>454.0</ele><time>2026-04-11T11:02:09Z</time></trkpt><trkpt lat="46.044847865570134" lon="11.235428961176774"><ele>453.6666666666667</ele><time>2026-04-11T11:02:10Z</time></trkpt><trkpt lat="46.04462992385426" lon="11.235437892611431"><ele>453.33333333333337</ele><time>2026-04-11T11:02:11Z</time></trkpt><trkpt lat="46.04441315270993" lon="11.235451875141028"><ele>453.0</ele><time>2026-04-11T11:02:12Z</time></trkpt><trkpt lat="46.04419895506598" lon="11.235470220939229"><ele>452.66666666666663</ele><time>2026-04-11T11:02:13Z</time></trkpt><trkpt lat="46.04398101066631" lon="11.235492629795129"><ele>452.3333333333333</ele><time>2026-04-11T11:02:14Z</time></trkpt><trkpt lat="46.04376219015495" lon="11.235505507096104"><ele>452.0</ele><time>2026-04-11T11:02:15Z</time></trkpt><trkpt lat="46.04354116770659" lon="11.235519841754796"><ele>452.0</ele><time>2026-04-11T11:02:16Z</time></trkpt><trkpt lat="46.04332178502274" lon="11.23553731078715"><ele>452.0</ele><time>2026-04-11T11:02:17Z</time></trkpt><trkpt lat="46.04310110999035" lon="11.235556328837964"><ele>452.0</ele><time>2026-04-11T11:02:18Z</time></trkpt><trkpt lat="46.042879541096475" lon="11.235573650806732"><ele>452.0</ele><time>2026-04-11T11:02:19Z</time></trkpt><trkpt lat="46.04265519677607" lon="11.235592950946094"><ele>452.0</ele><time>2026-04-11T11:02:20Z</time></trkpt><trkpt lat="46.0424361642809" lon="11.235632489195071"><ele>452.0</ele><time>2026-04-11T11:02:21Z</time></trkpt><trkpt lat="46.042211627565706" lon="11.235722245601062"><ele>452.5</ele><time>2026-04-11T11:02:22Z</time></trkpt><trkpt lat="46.04197313092122" lon="11.235846570835635"><ele>453.0</ele><time>2026-04-11T11:02:23Z</time></trkpt><trkpt lat="46.04172413056996" lon="11.236011292493874"><ele>453.0</ele><time>2026-04-11T11:02:24Z</time></trkpt><trkpt lat="46.041467689827236" lon="11.236211090496466"><ele>453.0</ele><time>2026-04-11T11:02:25Z</time></trkpt><trkpt lat="46.041228403411324" lon="11.236443509921806"><ele>453.0</ele><time>2026-04-11T11:02:26Z</time></trkpt><trkpt lat="46.04102338940514" lon="11.23671360330322"><ele>453.0</ele><time>2026-04-11T11:02:27Z</time></trkpt><trkpt lat="46.04083351233242" lon="11.237013219655793"><ele>453.0</ele><time>2026-04-11T11:02:28Z</time></trkpt><trkpt lat="46.04066019374538" lon="11.237342772958904"><ele>453.0</ele><time>2026-04-11T11:02:29Z</time></trkpt><trkpt lat="46.040516041977426" lon="11.237701856885833"><ele>453.0</ele><time>2026-04-11T11:02:30Z</time></trkpt><trkpt lat="46.04040025961733" lon="11.23807974632445"><ele>453.0</ele><time>2026-04-11T11:02:31Z</time></trkpt><trkpt lat="46.04030586977923" lon="11.23846382428441"><ele>452.5</ele><time>2026-04-11T11:02:32Z</time></trkpt><trkpt lat="46.040205501444234" lon="11.238816250994228"><ele>452.0</ele><time>2026-04-11T11:02:33Z</time></trkpt><trkpt lat="46.04012015594633" lon="11.239152793670048"><ele>452.0</ele><time>2026-04-11T11:02:34Z</time></trkpt><trkpt lat="46.040040295720374" lon="11.239468834526047"><ele>452.0</ele><time>2026-04-11T11:02:35Z</time></trkpt><trkpt lat="46.0399653675672" lon="11.23977231058209"><ele>451.66666666666663</ele><time>2026-04-11T11:02:36Z</time></trkpt><trkpt lat="46.03988942213594" lon="11.240067568746522"><ele>451.33333333333337</ele><time>2026-04-11T11:02:37Z</time></trkpt><trkpt lat="46.03981432535292" lon="11.240350756399133"><ele>451.0</ele><time>2026-04-11T11:02:38Z</time></trkpt><trkpt lat="46.0397446224815" lon="11.240631734914182"><ele>451.33333333333337</ele><time>2026-04-11T11:02:39Z</time></trkpt><trkpt lat="46.03967646223527" lon="11.240908833263722"><ele>451.66666666666663</ele><time>2026-04-11T11:02:40Z</time></trkpt><trkpt lat="46.03960866107235" lon="11.24116550440501"><ele>452.0</ele><time>2026-04-11T11:02:41Z</time></trkpt><trkpt lat="46.03955605077629" lon="11.241410858570266"><ele>452.5</ele><time>2026-04-11T11:02:42Z</time></trkpt><trkpt lat="46.03951341730212" lon="11.24162502876753"><ele>453.0</ele><time>2026-04-11T11:02:42.999Z</time></trkpt><trkpt lat="46.039468921654304" lon="11.24182354446264"><ele>453.5</ele><time>2026-04-11T11:02:43.999Z</time></trkpt><trkpt lat="46.03941218494959" lon="11.241990233733041"><ele>454.0</ele><time>2026-04-11T11:02:44.999Z</time></trkpt><trkpt lat="46.039437976563036" lon="11.242186868178623"><ele>453.6666666666667</ele><time>2026-04-11T11:02:45.999Z</time></trkpt><trkpt lat="46.03948072297556" lon="11.242408095422546"><ele>453.33333333333337</ele><time>2026-04-11T11:02:46.999Z</time></trkpt><trkpt lat="46.03952441969466" lon="11.242657005708153"><ele>453.0</ele><time>2026-04-11T11:02:47.999Z</time></trkpt><trkpt lat="46.03953000400193" lon="11.242907512147504"><ele>457.66666666666663</ele><time>2026-04-11T11:02:48.999Z</time></trkpt><trkpt lat="46.03946107077971" lon="11.243134691212369"><ele>462.3333333333333</ele><time>2026-04-11T11:02:49.999Z</time></trkpt><trkpt lat="46.03937083701751" lon="11.243335254121865"><ele>467.0</ele><time>2026-04-11T11:02:50.999Z</time></trkpt><trkpt lat="46.03925357423885" lon="11.243495915943981"><ele>464.0</ele><time>2026-04-11T11:02:51.999Z</time></trkpt><trkpt lat="46.03911704361792" lon="11.243604803707742"><ele>461.0</ele><time>2026-04-11T11:02:52.999Z</time></trkpt><trkpt lat="46.03896365604062" lon="11.243665421339012"><ele>458.0</ele><time>2026-04-11T11:02:53.999Z</time></trkpt><trkpt lat="46.03879366090959" lon="11.243674404652479"><ele>458.0</ele><time>2026-04-11T11:02:54.999Z</time></trkpt><trkpt lat="46.038609649560534" lon="11.243691866600772"><ele>458.0</ele><time>2026-04-11T11:02:55.999Z</time></trkpt><trkpt lat="46.03841977537819" lon="11.243685952292084"><ele>458.0</ele><time>2026-04-11T11:02:56.999Z</time></trkpt><trkpt lat="46.03822480577224" lon="11.243686900889912"><ele>456.3333333333333</ele><time>2026-04-11T11:02:57.999Z</time></trkpt><trkpt lat="46.03802821376089" lon="11.243681466547805"><ele>454.66666666666663</ele><time>2026-04-11T11:02:58.999Z</time></trkpt><trkpt lat="46.03783533990063" lon="11.243693481500397"><ele>453.0</ele><time>2026-04-11T11:02:59.999Z</time></trkpt><trkpt lat="46.037646255742466" lon="11.243714650891272"><ele>451.33333333333337</ele><time>2026-04-11T11:03:00.999Z</time></trkpt><trkpt lat="46.03746433362729" lon="11.243782187758828"><ele>449.6666666666667</ele><time>2026-04-11T11:03:01.999Z</time></trkpt><trkpt lat="46.0372966970931" lon="11.243886566096108"><ele>448.0</ele><time>2026-04-11T11:03:02.999Z</time></trkpt><trkpt lat="46.037137360411236" lon="11.243995022340952"><ele>453.0</ele><time>2026-04-11T11:03:03.999Z</time></trkpt><trkpt lat="46.03698616026911" lon="11.244124715556302"><ele>458.0</ele><time>2026-04-11T11:03:04.999Z</time></trkpt><trkpt lat="46.036877614555664" lon="11.244321493362936"><ele>463.0</ele><time>2026-04-11T11:03:05.999Z</time></trkpt><trkpt lat="46.03677457312507" lon="11.244509486224874"><ele>463.0</ele><time>2026-04-11T11:03:06.999Z</time></trkpt><trkpt lat="46.036644572992316" lon="11.244653447869918"><ele>463.0</ele><time>2026-04-11T11:03:07.999Z</time></trkpt><trkpt lat="46.03649081335454" lon="11.244724181202931"><ele>463.0</ele><time>2026-04-11T11:03:08.999Z</time></trkpt><trkpt lat="46.03631971307497" lon="11.244721992473336"><ele>462.0</ele><time>2026-04-11T11:03:09.999Z</time></trkpt><trkpt lat="46.03612510190916" lon="11.244687568860902"><ele>461.0</ele><time>2026-04-11T11:03:10.999Z</time></trkpt><trkpt lat="46.03592886041862" lon="11.244703504846761"><ele>460.0</ele><time>2026-04-11T11:03:11.999Z</time></trkpt><trkpt lat="46.03570867685534" lon="11.24471254625079"><ele>460.0</ele><time>2026-04-11T11:03:12.999Z</time></trkpt><trkpt lat="46.035482771122" lon="11.244739096113381"><ele>460.0</ele><time>2026-04-11T11:03:13.999Z</time></trkpt><trkpt lat="46.03524766383719" lon="11.244784510817622"><ele>468.0</ele><time>2026-04-11T11:03:14.999Z</time></trkpt><trkpt lat="46.03501534131034" lon="11.244891814673572"><ele>476.0</ele><time>2026-04-11T11:03:15.999Z</time></trkpt><trkpt lat="46.03478580867801" lon="11.24503085446423"><ele>476.0</ele><time>2026-04-11T11:03:16.999Z</time></trkpt><trkpt lat="46.03455118165513" lon="11.245166645815281"><ele>476.0</ele><time>2026-04-11T11:03:17.999Z</time></trkpt><trkpt lat="46.03430992131817" lon="11.245307516002475"><ele>470.0</ele><time>2026-04-11T11:03:18.999Z</time></trkpt><trkpt lat="46.0340633451134" lon="11.24545414142438"><ele>464.0</ele><time>2026-04-11T11:03:19.999Z</time></trkpt><trkpt lat="46.03381321243368" lon="11.245596179470734"><ele>477.0</ele><time>2026-04-11T11:03:20.999Z</time></trkpt><trkpt lat="46.033560474499794" lon="11.245733015281667"><ele>490.0</ele><time>2026-04-11T11:03:21.999Z</time></trkpt><trkpt lat="46.03331056917524" lon="11.245864539570453"><ele>487.5</ele><time>2026-04-11T11:03:22.999Z</time></trkpt><trkpt lat="46.03305691888512" lon="11.245960166458284"><ele>485.0</ele><time>2026-04-11T11:03:23.999Z</time></trkpt><trkpt lat="46.03281909280997" lon="11.24600447307743"><ele>485.0</ele><time>2026-04-11T11:03:24.999Z</time></trkpt><trkpt lat="46.032618229590106" lon="11.246069854293552"><ele>485.0</ele><time>2026-04-11T11:03:25.999Z</time></trkpt><trkpt lat="46.032434033332486" lon="11.246115798438145"><ele>485.0</ele><time>2026-04-11T11:03:26.999Z</time></trkpt><trkpt lat="46.032266422755924" lon="11.246114250788995"><ele>485.0</ele><time>2026-04-11T11:03:27.999Z</time></trkpt><trkpt lat="46.0321168231066" lon="11.246144862577145"><ele>485.0</ele><time>2026-04-11T11:03:28.999Z</time></trkpt><trkpt lat="46.03200491079794" lon="11.246235152990621"><ele>485.0</ele><time>2026-04-11T11:03:29.999Z</time></trkpt><trkpt lat="46.03191607005209" lon="11.24635334830411"><ele>485.0</ele><time>2026-04-11T11:03:30.999Z</time></trkpt><trkpt lat="46.031834194215975" lon="11.246489610635477"><ele>490.5</ele><time>2026-04-11T11:03:31.999Z</time></trkpt><trkpt lat="46.03175574746285" lon="11.24663796962087"><ele>496.0</ele><time>2026-04-11T11:03:33Z</time></trkpt><trkpt lat="46.03170544245638" lon="11.246804204304027"><ele>501.5</ele><time>2026-04-11T11:03:34Z</time></trkpt><trkpt lat="46.031712945217905" lon="11.246984942561252"><ele>507.0</ele><time>2026-04-11T11:03:35Z</time></trkpt><trkpt lat="46.031756503085155" lon="11.247157787138029"><ele>508.0</ele><time>2026-04-11T11:03:36Z</time></trkpt><trkpt lat="46.03184646675529" lon="11.247327582298002"><ele>509.0</ele><time>2026-04-11T11:03:37Z</time></trkpt><trkpt lat="46.03195571953839" lon="11.247489737833378"><ele>510.0</ele><time>2026-04-11T11:03:38Z</time></trkpt><trkpt lat="46.03205243598675" lon="11.247655874402552"><ele>510.0</ele><time>2026-04-11T11:03:39Z</time></trkpt><trkpt lat="46.032150386608905" lon="11.247820599036023"><ele>510.0</ele><time>2026-04-11T11:03:40Z</time></trkpt><trkpt lat="46.03226449442348" lon="11.24793488612401"><ele>510.0</ele><time>2026-04-11T11:03:41Z</time></trkpt><trkpt lat="46.03239520161802" lon="11.24799641108159"><ele>510.0</ele><time>2026-04-11T11:03:42Z</time></trkpt><trkpt lat="46.03253197984282" lon="11.248008167273888"><ele>511.75</ele><time>2026-04-11T11:03:43Z</time></trkpt><trkpt lat="46.03267132531202" lon="11.247960063381583"><ele>513.5</ele><time>2026-04-11T11:03:44Z</time></trkpt><trkpt lat="46.03280568975285" lon="11.247891556849133"><ele>515.25</ele><time>2026-04-11T11:03:45Z</time></trkpt><trkpt lat="46.032940237485676" lon="11.247821702288471"><ele>517.0</ele><time>2026-04-11T11:03:46Z</time></trkpt><trkpt lat="46.03305664814828" lon="11.247769207559708"><ele>517.0</ele><time>2026-04-11T11:03:47Z</time></trkpt><trkpt lat="46.03315668345117" lon="11.24772050283435"><ele>517.0</ele><time>2026-04-11T11:03:48Z</time></trkpt><trkpt lat="46.0332361204094" lon="11.247701503496469"><ele>517.0</ele><time>2026-04-11T11:03:49Z</time></trkpt><trkpt lat="46.033303944933245" lon="11.247674757536796"><ele>517.0</ele><time>2026-04-11T11:03:51Z</time></trkpt><trkpt lat="46.033279040998735" lon="11.247517355321698"><ele>517.0</ele><time>2026-04-11T11:03:52Z</time></trkpt><trkpt lat="46.03329914180666" lon="11.247385359982115"><ele>516.6666666666667</ele><time>2026-04-11T11:03:54Z</time></trkpt><trkpt lat="46.03338711479164" lon="11.247328611168077"><ele>516.3333333333334</ele><time>2026-04-11T11:03:55Z</time></trkpt><trkpt lat="46.03343507540048" lon="11.247241834806347"><ele>516.0</ele><time>2026-04-11T11:03:56Z</time></trkpt><trkpt lat="46.033482314092225" lon="11.247153981865928"><ele>515.6666666666666</ele><time>2026-04-11T11:03:57Z</time></trkpt><trkpt lat="46.03353763158045" lon="11.247074799532047"><ele>515.3333333333333</ele><time>2026-04-11T11:03:58Z</time></trkpt><trkpt lat="46.033585366721546" lon="11.246996113638525"><ele>515.0</ele><time>2026-04-11T11:03:59Z</time></trkpt><trkpt lat="46.033630496211764" lon="11.246918272872284"><ele>515.0</ele><time>2026-04-11T11:04:00Z</time></trkpt><trkpt lat="46.0336797676381" lon="11.246844805326646"><ele>515.0</ele><time>2026-04-11T11:04:01Z</time></trkpt><trkpt lat="46.03373696711607" lon="11.246797950519815"><ele>515.0</ele><time>2026-04-11T11:04:02Z</time></trkpt><trkpt lat="46.03380509610207" lon="11.246792032961787"><ele>515.0</ele><time>2026-04-11T11:04:03Z</time></trkpt><trkpt lat="46.03386887994032" lon="11.246785288786688"><ele>515.0</ele><time>2026-04-11T11:04:04Z</time></trkpt><trkpt lat="46.03393123072449" lon="11.246758077004866"><ele>515.0</ele><time>2026-04-11T11:04:05Z</time></trkpt><trkpt lat="46.03402203390308" lon="11.246634370722033"><ele>515.0</ele><time>2026-04-11T11:04:07Z</time></trkpt><trkpt lat="46.034094583992406" lon="11.246498023079564"><ele>515.0</ele><time>2026-04-11T11:04:09Z</time></trkpt><trkpt lat="46.03418735878716" lon="11.246384304605805"><ele>515.0</ele><time>2026-04-11T11:04:11Z</time></trkpt><trkpt lat="46.034243543575954" lon="11.246325735007856"><ele>515.0</ele><time>2026-04-11T11:04:12Z</time></trkpt><trkpt lat="46.03429414175713" lon="11.246253410073452"><ele>515.0</ele><time>2026-04-11T11:04:13Z</time></trkpt><trkpt lat="46.034335900341084" lon="11.246163423703987"><ele>512.5</ele><time>2026-04-11T11:04:14Z</time></trkpt><trkpt lat="46.034399375260556" lon="11.246114994967677"><ele>510.0</ele><time>2026-04-11T11:04:15Z</time></trkpt><trkpt lat="46.03448681209844" lon="11.246108461363356"><ele>507.5</ele><time>2026-04-11T11:04:16Z</time></trkpt><trkpt lat="46.034569035762715" lon="11.246060459556013"><ele>505.0</ele><time>2026-04-11T11:04:17Z</time></trkpt><trkpt lat="46.03465111276106" lon="11.246013080281426"><ele>502.49999999999994</ele><time>2026-04-11T11:04:18Z</time></trkpt><trkpt lat="46.0347294736034" lon="11.245945589601085"><ele>500.0</ele><time>2026-04-11T11:04:19Z</time></trkpt><trkpt lat="46.03481200931384" lon="11.245910333345869"><ele>500.0</ele><time>2026-04-11T11:04:20Z</time></trkpt><trkpt lat="46.03487789031413" lon="11.245893475088007"><ele>500.0</ele><time>2026-04-11T11:04:21Z</time></trkpt><trkpt lat="46.034983548447805" lon="11.245834088424129"><ele>513.0</ele><time>2026-04-11T11:04:23Z</time></trkpt><trkpt lat="46.03505106205517" lon="11.245799784117201"><ele>513.0</ele><time>2026-04-11T11:04:26Z</time></trkpt><trkpt lat="46.03512149129429" lon="11.245804935737414"><ele>513.0</ele><time>2026-04-11T11:04:55.999Z</time></trkpt></trkseg></trk></gpx>